<?xml version="1.0" encoding="UTF-8"?>
<gpx version="1.1" creator="https://www.youtrack.es" xsi:schemaLocation="http://www.topografix.com/GPX/1/1 http://www.topografix.com/GPX/1/1/gpx.xsd http://www.garmin.com/xmlschemas/GpxExtensions/v3 http://www.garmin.com/xmlschemas/GpxExtensionsv3.xsd http://www.garmin.com/xmlschemas/TrackPointExtension/v1 http://www.garmin.com/xmlschemas/TrackPointExtensionv1.xsd" xmlns:gpxtpx="http://www.garmin.com/xmlschemas/TrackPointExtension/v1" xmlns:gpxx="http://www.garmin.com/xmlschemas/GpxExtensions/v3" xmlns:xsi="http://www.w3.org/2001/XMLSchema-instance">
  <metadata>
    <link href="https://www.youtrack.es">
      <text>YouTrack.es</text>
    </link>
    <time>2026-05-08T23:21:07Z</time>
  </metadata>
  <trk>
    <src>https://www.youtrack.es</src>
    <link href="https://www.youtrack.es/ruta/20785-cascada-de-los-vados">
      <text>YouTrack.es</text>
    </link>
    <trkseg>
      <trkpt lat="42.1721160" lon="-6.6591290">
        <ele>1172.8</ele>
        <time>2021-04-01T09:30:41Z</time>
      </trkpt>
      <trkpt lat="42.1721270" lon="-6.6591170">
        <ele>1172.8</ele>
        <time>2021-04-01T09:30:43Z</time>
      </trkpt>
      <trkpt lat="42.1721440" lon="-6.6590950">
        <ele>1173.2</ele>
        <time>2021-04-01T09:30:46Z</time>
      </trkpt>
      <trkpt lat="42.1721660" lon="-6.6590920">
        <ele>1173.0</ele>
        <time>2021-04-01T09:30:48Z</time>
      </trkpt>
      <trkpt lat="42.1722230" lon="-6.6591270">
        <ele>1172.8</ele>
        <time>2021-04-01T09:30:54Z</time>
      </trkpt>
      <trkpt lat="42.1722300" lon="-6.6591360">
        <ele>1172.8</ele>
        <time>2021-04-01T09:30:55Z</time>
      </trkpt>
      <trkpt lat="42.1722610" lon="-6.6591590">
        <ele>1173.2</ele>
        <time>2021-04-01T09:30:58Z</time>
      </trkpt>
      <trkpt lat="42.1722970" lon="-6.6591770">
        <ele>1173.4</ele>
        <time>2021-04-01T09:31:00Z</time>
      </trkpt>
      <trkpt lat="42.1723750" lon="-6.6592410">
        <ele>1173.4</ele>
        <time>2021-04-01T09:31:06Z</time>
      </trkpt>
      <trkpt lat="42.1724400" lon="-6.6592920">
        <ele>1173.4</ele>
        <time>2021-04-01T09:31:11Z</time>
      </trkpt>
      <trkpt lat="42.1724460" lon="-6.6592970">
        <ele>1173.4</ele>
        <time>2021-04-01T09:31:12Z</time>
      </trkpt>
      <trkpt lat="42.1725120" lon="-6.6593070">
        <ele>1173.4</ele>
        <time>2021-04-01T09:31:20Z</time>
      </trkpt>
      <trkpt lat="42.1725360" lon="-6.6593130">
        <ele>1173.2</ele>
        <time>2021-04-01T09:31:23Z</time>
      </trkpt>
      <trkpt lat="42.1725580" lon="-6.6593220">
        <ele>1173.0</ele>
        <time>2021-04-01T09:31:25Z</time>
      </trkpt>
      <trkpt lat="42.1725680" lon="-6.6593310">
        <ele>1173.0</ele>
        <time>2021-04-01T09:31:26Z</time>
      </trkpt>
      <trkpt lat="42.1725780" lon="-6.6593410">
        <ele>1173.0</ele>
        <time>2021-04-01T09:31:27Z</time>
      </trkpt>
      <trkpt lat="42.1726000" lon="-6.6593520">
        <ele>1173.4</ele>
        <time>2021-04-01T09:31:29Z</time>
      </trkpt>
      <trkpt lat="42.1726320" lon="-6.6593640">
        <ele>1174.0</ele>
        <time>2021-04-01T09:31:32Z</time>
      </trkpt>
      <trkpt lat="42.1726530" lon="-6.6593770">
        <ele>1174.0</ele>
        <time>2021-04-01T09:31:34Z</time>
      </trkpt>
      <trkpt lat="42.1726810" lon="-6.6594000">
        <ele>1174.4</ele>
        <time>2021-04-01T09:31:38Z</time>
      </trkpt>
      <trkpt lat="42.1726930" lon="-6.6594090">
        <ele>1174.4</ele>
        <time>2021-04-01T09:31:40Z</time>
      </trkpt>
      <trkpt lat="42.1727080" lon="-6.6594120">
        <ele>1174.4</ele>
        <time>2021-04-01T09:31:42Z</time>
      </trkpt>
      <trkpt lat="42.1727380" lon="-6.6594100">
        <ele>1174.0</ele>
        <time>2021-04-01T09:31:44Z</time>
      </trkpt>
      <trkpt lat="42.1728130" lon="-6.6594170">
        <ele>1174.2</ele>
        <time>2021-04-01T09:31:49Z</time>
      </trkpt>
      <trkpt lat="42.1728380" lon="-6.6593770">
        <ele>1174.0</ele>
        <time>2021-04-01T09:31:55Z</time>
      </trkpt>
      <trkpt lat="42.1728540" lon="-6.6593520">
        <ele>1173.2</ele>
        <time>2021-04-01T09:31:58Z</time>
      </trkpt>
      <trkpt lat="42.1728490" lon="-6.6593250">
        <ele>1172.8</ele>
        <time>2021-04-01T09:32:00Z</time>
      </trkpt>
      <trkpt lat="42.1728460" lon="-6.6593070">
        <ele>1172.6</ele>
        <time>2021-04-01T09:32:01Z</time>
      </trkpt>
      <trkpt lat="42.1728450" lon="-6.6592970">
        <ele>1172.4</ele>
        <time>2021-04-01T09:32:02Z</time>
      </trkpt>
      <trkpt lat="42.1728590" lon="-6.6592610">
        <ele>1172.0</ele>
        <time>2021-04-01T09:32:05Z</time>
      </trkpt>
      <trkpt lat="42.1728650" lon="-6.6592320">
        <ele>1171.8</ele>
        <time>2021-04-01T09:32:07Z</time>
      </trkpt>
      <trkpt lat="42.1728630" lon="-6.6592180">
        <ele>1171.8</ele>
        <time>2021-04-01T09:32:08Z</time>
      </trkpt>
      <trkpt lat="42.1728220" lon="-6.6590750">
        <ele>1171.0</ele>
        <time>2021-04-01T09:32:16Z</time>
      </trkpt>
      <trkpt lat="42.1727960" lon="-6.6589980">
        <ele>1170.6</ele>
        <time>2021-04-01T09:32:20Z</time>
      </trkpt>
      <trkpt lat="42.1728050" lon="-6.6589610">
        <ele>1170.2</ele>
        <time>2021-04-01T09:32:23Z</time>
      </trkpt>
      <trkpt lat="42.1728150" lon="-6.6589470">
        <ele>1170.2</ele>
        <time>2021-04-01T09:32:25Z</time>
      </trkpt>
      <trkpt lat="42.1728280" lon="-6.6589280">
        <ele>1170.0</ele>
        <time>2021-04-01T09:32:28Z</time>
      </trkpt>
      <trkpt lat="42.1728240" lon="-6.6589190">
        <ele>1169.6</ele>
        <time>2021-04-01T09:32:30Z</time>
      </trkpt>
      <trkpt lat="42.1728150" lon="-6.6588580">
        <ele>1168.6</ele>
        <time>2021-04-01T09:32:36Z</time>
      </trkpt>
      <trkpt lat="42.1728070" lon="-6.6588510">
        <ele>1168.6</ele>
        <time>2021-04-01T09:32:37Z</time>
      </trkpt>
      <trkpt lat="42.1727980" lon="-6.6588400">
        <ele>1168.6</ele>
        <time>2021-04-01T09:32:38Z</time>
      </trkpt>
      <trkpt lat="42.1727880" lon="-6.6588280">
        <ele>1168.6</ele>
        <time>2021-04-01T09:32:39Z</time>
      </trkpt>
      <trkpt lat="42.1727480" lon="-6.6587830">
        <ele>1168.8</ele>
        <time>2021-04-01T09:32:43Z</time>
      </trkpt>
      <trkpt lat="42.1727100" lon="-6.6587380">
        <ele>1168.8</ele>
        <time>2021-04-01T09:32:47Z</time>
      </trkpt>
      <trkpt lat="42.1726900" lon="-6.6587020">
        <ele>1168.6</ele>
        <time>2021-04-01T09:32:51Z</time>
      </trkpt>
      <trkpt lat="42.1726840" lon="-6.6586880">
        <ele>1168.6</ele>
        <time>2021-04-01T09:32:52Z</time>
      </trkpt>
      <trkpt lat="42.1726560" lon="-6.6586030">
        <ele>1168.8</ele>
        <time>2021-04-01T09:32:56Z</time>
      </trkpt>
      <trkpt lat="42.1726620" lon="-6.6584750">
        <ele>1167.8</ele>
        <time>2021-04-01T09:33:02Z</time>
      </trkpt>
      <trkpt lat="42.1726730" lon="-6.6584310">
        <ele>1167.4</ele>
        <time>2021-04-01T09:33:05Z</time>
      </trkpt>
      <trkpt lat="42.1727280" lon="-6.6583580">
        <ele>1167.0</ele>
        <time>2021-04-01T09:33:12Z</time>
      </trkpt>
      <trkpt lat="42.1727360" lon="-6.6583500">
        <ele>1167.0</ele>
        <time>2021-04-01T09:33:13Z</time>
      </trkpt>
      <trkpt lat="42.1727460" lon="-6.6583410">
        <ele>1166.8</ele>
        <time>2021-04-01T09:33:14Z</time>
      </trkpt>
      <trkpt lat="42.1728300" lon="-6.6582560">
        <ele>1166.8</ele>
        <time>2021-04-01T09:33:23Z</time>
      </trkpt>
      <trkpt lat="42.1728410" lon="-6.6582480">
        <ele>1166.4</ele>
        <time>2021-04-01T09:33:24Z</time>
      </trkpt>
      <trkpt lat="42.1728500" lon="-6.6582390">
        <ele>1166.2</ele>
        <time>2021-04-01T09:33:25Z</time>
      </trkpt>
      <trkpt lat="42.1728990" lon="-6.6581790">
        <ele>1165.8</ele>
        <time>2021-04-01T09:33:31Z</time>
      </trkpt>
      <trkpt lat="42.1729570" lon="-6.6581230">
        <ele>1165.4</ele>
        <time>2021-04-01T09:33:37Z</time>
      </trkpt>
      <trkpt lat="42.1729650" lon="-6.6581130">
        <ele>1165.4</ele>
        <time>2021-04-01T09:33:38Z</time>
      </trkpt>
      <trkpt lat="42.1729900" lon="-6.6580940">
        <ele>1165.2</ele>
        <time>2021-04-01T09:33:40Z</time>
      </trkpt>
      <trkpt lat="42.1729760" lon="-6.6580280">
        <ele>1164.6</ele>
        <time>2021-04-01T09:33:45Z</time>
      </trkpt>
      <trkpt lat="42.1729230" lon="-6.6579470">
        <ele>1164.2</ele>
        <time>2021-04-01T09:33:52Z</time>
      </trkpt>
      <trkpt lat="42.1728850" lon="-6.6579030">
        <ele>1163.8</ele>
        <time>2021-04-01T09:33:57Z</time>
      </trkpt>
      <trkpt lat="42.1728640" lon="-6.6578830">
        <ele>1163.6</ele>
        <time>2021-04-01T09:34:00Z</time>
      </trkpt>
      <trkpt lat="42.1728380" lon="-6.6578630">
        <ele>1163.4</ele>
        <time>2021-04-01T09:34:03Z</time>
      </trkpt>
      <trkpt lat="42.1728300" lon="-6.6578560">
        <ele>1163.2</ele>
        <time>2021-04-01T09:34:04Z</time>
      </trkpt>
      <trkpt lat="42.1728050" lon="-6.6578300">
        <ele>1162.8</ele>
        <time>2021-04-01T09:34:07Z</time>
      </trkpt>
      <trkpt lat="42.1727840" lon="-6.6578120">
        <ele>1162.8</ele>
        <time>2021-04-01T09:34:09Z</time>
      </trkpt>
      <trkpt lat="42.1727640" lon="-6.6578010">
        <ele>1162.8</ele>
        <time>2021-04-01T09:34:11Z</time>
      </trkpt>
      <trkpt lat="42.1727490" lon="-6.6577940">
        <ele>1162.8</ele>
        <time>2021-04-01T09:34:13Z</time>
      </trkpt>
      <trkpt lat="42.1727230" lon="-6.6577940">
        <ele>1163.0</ele>
        <time>2021-04-01T09:34:16Z</time>
      </trkpt>
      <trkpt lat="42.1727180" lon="-6.6577940">
        <ele>1163.0</ele>
        <time>2021-04-01T09:34:17Z</time>
      </trkpt>
      <trkpt lat="42.1727140" lon="-6.6577910">
        <ele>1163.0</ele>
        <time>2021-04-01T09:34:18Z</time>
      </trkpt>
      <trkpt lat="42.1726990" lon="-6.6577720">
        <ele>1162.8</ele>
        <time>2021-04-01T09:34:20Z</time>
      </trkpt>
      <trkpt lat="42.1726810" lon="-6.6577400">
        <ele>1162.4</ele>
        <time>2021-04-01T09:34:23Z</time>
      </trkpt>
      <trkpt lat="42.1726730" lon="-6.6577270">
        <ele>1162.0</ele>
        <time>2021-04-01T09:34:25Z</time>
      </trkpt>
      <trkpt lat="42.1726670" lon="-6.6577240">
        <ele>1161.8</ele>
        <time>2021-04-01T09:34:29Z</time>
      </trkpt>
      <trkpt lat="42.1726630" lon="-6.6576960">
        <ele>1162.2</ele>
        <time>2021-04-01T09:34:33Z</time>
      </trkpt>
      <trkpt lat="42.1726520" lon="-6.6576890">
        <ele>1162.4</ele>
        <time>2021-04-01T09:34:35Z</time>
      </trkpt>
      <trkpt lat="42.1726270" lon="-6.6576550">
        <ele>1161.8</ele>
        <time>2021-04-01T09:34:41Z</time>
      </trkpt>
      <trkpt lat="42.1726300" lon="-6.6576380">
        <ele>1162.2</ele>
        <time>2021-04-01T09:34:47Z</time>
      </trkpt>
      <trkpt lat="42.1726250" lon="-6.6576310">
        <ele>1162.2</ele>
        <time>2021-04-01T09:34:48Z</time>
      </trkpt>
      <trkpt lat="42.1726190" lon="-6.6576100">
        <ele>1162.4</ele>
        <time>2021-04-01T09:34:54Z</time>
      </trkpt>
      <trkpt lat="42.1726010" lon="-6.6575900">
        <ele>1162.4</ele>
        <time>2021-04-01T09:35:00Z</time>
      </trkpt>
      <trkpt lat="42.1725950" lon="-6.6575990">
        <ele>1162.2</ele>
        <time>2021-04-01T09:35:06Z</time>
      </trkpt>
      <trkpt lat="42.1725680" lon="-6.6576020">
        <ele>1161.8</ele>
        <time>2021-04-01T09:35:14Z</time>
      </trkpt>
      <trkpt lat="42.1725630" lon="-6.6575900">
        <ele>1161.6</ele>
        <time>2021-04-01T09:35:16Z</time>
      </trkpt>
      <trkpt lat="42.1725580" lon="-6.6575850">
        <ele>1161.6</ele>
        <time>2021-04-01T09:35:19Z</time>
      </trkpt>
      <trkpt lat="42.1725430" lon="-6.6575700">
        <ele>1161.6</ele>
        <time>2021-04-01T09:35:21Z</time>
      </trkpt>
      <trkpt lat="42.1724680" lon="-6.6575270">
        <ele>1162.2</ele>
        <time>2021-04-01T09:35:28Z</time>
      </trkpt>
      <trkpt lat="42.1724480" lon="-6.6575200">
        <ele>1162.2</ele>
        <time>2021-04-01T09:35:30Z</time>
      </trkpt>
      <trkpt lat="42.1724400" lon="-6.6575140">
        <ele>1162.4</ele>
        <time>2021-04-01T09:35:31Z</time>
      </trkpt>
      <trkpt lat="42.1724290" lon="-6.6575050">
        <ele>1162.4</ele>
        <time>2021-04-01T09:35:33Z</time>
      </trkpt>
      <trkpt lat="42.1724250" lon="-6.6575050">
        <ele>1162.2</ele>
        <time>2021-04-01T09:35:34Z</time>
      </trkpt>
      <trkpt lat="42.1724150" lon="-6.6575090">
        <ele>1162.0</ele>
        <time>2021-04-01T09:35:37Z</time>
      </trkpt>
      <trkpt lat="42.1724100" lon="-6.6575150">
        <ele>1162.2</ele>
        <time>2021-04-01T09:35:43Z</time>
      </trkpt>
      <trkpt lat="42.1724100" lon="-6.6575190">
        <ele>1162.2</ele>
        <time>2021-04-01T09:35:44Z</time>
      </trkpt>
      <trkpt lat="42.1724110" lon="-6.6575210">
        <ele>1162.2</ele>
        <time>2021-04-01T09:35:45Z</time>
      </trkpt>
      <trkpt lat="42.1724140" lon="-6.6575220">
        <ele>1162.2</ele>
        <time>2021-04-01T09:35:47Z</time>
      </trkpt>
      <trkpt lat="42.1724140" lon="-6.6575240">
        <ele>1162.2</ele>
        <time>2021-04-01T09:35:48Z</time>
      </trkpt>
      <trkpt lat="42.1724140" lon="-6.6575280">
        <ele>1162.2</ele>
        <time>2021-04-01T09:35:49Z</time>
      </trkpt>
      <trkpt lat="42.1724130" lon="-6.6575350">
        <ele>1162.2</ele>
        <time>2021-04-01T09:35:51Z</time>
      </trkpt>
      <trkpt lat="42.1724120" lon="-6.6575380">
        <ele>1162.2</ele>
        <time>2021-04-01T09:35:54Z</time>
      </trkpt>
      <trkpt lat="42.1724120" lon="-6.6575390">
        <ele>1162.2</ele>
        <time>2021-04-01T09:35:55Z</time>
      </trkpt>
      <trkpt lat="42.1724120" lon="-6.6575400">
        <ele>1162.2</ele>
        <time>2021-04-01T09:35:56Z</time>
      </trkpt>
      <trkpt lat="42.1724120" lon="-6.6575410">
        <ele>1162.2</ele>
        <time>2021-04-01T09:35:57Z</time>
      </trkpt>
      <trkpt lat="42.1724110" lon="-6.6575420">
        <ele>1162.2</ele>
        <time>2021-04-01T09:36:00Z</time>
      </trkpt>
      <trkpt lat="42.1724100" lon="-6.6575410">
        <ele>1162.2</ele>
        <time>2021-04-01T09:36:06Z</time>
      </trkpt>
      <trkpt lat="42.1724130" lon="-6.6575380">
        <ele>1162.2</ele>
        <time>2021-04-01T09:36:08Z</time>
      </trkpt>
      <trkpt lat="42.1724140" lon="-6.6575340">
        <ele>1162.2</ele>
        <time>2021-04-01T09:36:10Z</time>
      </trkpt>
      <trkpt lat="42.1724160" lon="-6.6575340">
        <ele>1162.2</ele>
        <time>2021-04-01T09:36:13Z</time>
      </trkpt>
      <trkpt lat="42.1724180" lon="-6.6575340">
        <ele>1162.2</ele>
        <time>2021-04-01T09:36:14Z</time>
      </trkpt>
      <trkpt lat="42.1724200" lon="-6.6575020">
        <ele>1162.2</ele>
        <time>2021-04-01T09:36:22Z</time>
      </trkpt>
      <trkpt lat="42.1724190" lon="-6.6574630">
        <ele>1162.2</ele>
        <time>2021-04-01T09:36:24Z</time>
      </trkpt>
      <trkpt lat="42.1724130" lon="-6.6574530">
        <ele>1162.2</ele>
        <time>2021-04-01T09:36:25Z</time>
      </trkpt>
      <trkpt lat="42.1724070" lon="-6.6574300">
        <ele>1162.2</ele>
        <time>2021-04-01T09:36:27Z</time>
      </trkpt>
      <trkpt lat="42.1723710" lon="-6.6573570">
        <ele>1162.0</ele>
        <time>2021-04-01T09:36:32Z</time>
      </trkpt>
      <trkpt lat="42.1723530" lon="-6.6573380">
        <ele>1161.8</ele>
        <time>2021-04-01T09:36:34Z</time>
      </trkpt>
      <trkpt lat="42.1723480" lon="-6.6573280">
        <ele>1161.8</ele>
        <time>2021-04-01T09:36:35Z</time>
      </trkpt>
      <trkpt lat="42.1723430" lon="-6.6573150">
        <ele>1161.6</ele>
        <time>2021-04-01T09:36:36Z</time>
      </trkpt>
      <trkpt lat="42.1723180" lon="-6.6572620">
        <ele>1161.4</ele>
        <time>2021-04-01T09:36:40Z</time>
      </trkpt>
      <trkpt lat="42.1722790" lon="-6.6571780">
        <ele>1161.4</ele>
        <time>2021-04-01T09:36:47Z</time>
      </trkpt>
      <trkpt lat="42.1722590" lon="-6.6571260">
        <ele>1161.4</ele>
        <time>2021-04-01T09:36:52Z</time>
      </trkpt>
      <trkpt lat="42.1722470" lon="-6.6571080">
        <ele>1161.4</ele>
        <time>2021-04-01T09:36:54Z</time>
      </trkpt>
      <trkpt lat="42.1722210" lon="-6.6570720">
        <ele>1161.6</ele>
        <time>2021-04-01T09:36:57Z</time>
      </trkpt>
      <trkpt lat="42.1721890" lon="-6.6570340">
        <ele>1161.8</ele>
        <time>2021-04-01T09:37:00Z</time>
      </trkpt>
      <trkpt lat="42.1721720" lon="-6.6569730">
        <ele>1161.6</ele>
        <time>2021-04-01T09:37:05Z</time>
      </trkpt>
      <trkpt lat="42.1721710" lon="-6.6569550">
        <ele>1161.6</ele>
        <time>2021-04-01T09:37:07Z</time>
      </trkpt>
      <trkpt lat="42.1721670" lon="-6.6569460">
        <ele>1161.6</ele>
        <time>2021-04-01T09:37:10Z</time>
      </trkpt>
      <trkpt lat="42.1721620" lon="-6.6569370">
        <ele>1161.4</ele>
        <time>2021-04-01T09:37:12Z</time>
      </trkpt>
      <trkpt lat="42.1721560" lon="-6.6569290">
        <ele>1161.4</ele>
        <time>2021-04-01T09:37:14Z</time>
      </trkpt>
      <trkpt lat="42.1721470" lon="-6.6569150">
        <ele>1161.4</ele>
        <time>2021-04-01T09:37:16Z</time>
      </trkpt>
      <trkpt lat="42.1721340" lon="-6.6568860">
        <ele>1161.0</ele>
        <time>2021-04-01T09:37:21Z</time>
      </trkpt>
      <trkpt lat="42.1720900" lon="-6.6567970">
        <ele>1160.8</ele>
        <time>2021-04-01T09:37:29Z</time>
      </trkpt>
      <trkpt lat="42.1720810" lon="-6.6567620">
        <ele>1160.6</ele>
        <time>2021-04-01T09:37:31Z</time>
      </trkpt>
      <trkpt lat="42.1720680" lon="-6.6567120">
        <ele>1160.6</ele>
        <time>2021-04-01T09:37:34Z</time>
      </trkpt>
      <trkpt lat="42.1720740" lon="-6.6566620">
        <ele>1160.6</ele>
        <time>2021-04-01T09:37:39Z</time>
      </trkpt>
      <trkpt lat="42.1720700" lon="-6.6566320">
        <ele>1160.6</ele>
        <time>2021-04-01T09:37:41Z</time>
      </trkpt>
      <trkpt lat="42.1720560" lon="-6.6566120">
        <ele>1160.4</ele>
        <time>2021-04-01T09:37:43Z</time>
      </trkpt>
      <trkpt lat="42.1720650" lon="-6.6566210">
        <ele>1160.2</ele>
        <time>2021-04-01T09:37:46Z</time>
      </trkpt>
      <trkpt lat="42.1720620" lon="-6.6566230">
        <ele>1160.0</ele>
        <time>2021-04-01T09:37:47Z</time>
      </trkpt>
      <trkpt lat="42.1720610" lon="-6.6566260">
        <ele>1160.0</ele>
        <time>2021-04-01T09:37:48Z</time>
      </trkpt>
      <trkpt lat="42.1720590" lon="-6.6566380">
        <ele>1160.2</ele>
        <time>2021-04-01T09:37:55Z</time>
      </trkpt>
      <trkpt lat="42.1720580" lon="-6.6566220">
        <ele>1160.6</ele>
        <time>2021-04-01T09:38:02Z</time>
      </trkpt>
      <trkpt lat="42.1720330" lon="-6.6566030">
        <ele>1160.2</ele>
        <time>2021-04-01T09:38:08Z</time>
      </trkpt>
      <trkpt lat="42.1720340" lon="-6.6566020">
        <ele>1160.4</ele>
        <time>2021-04-01T09:38:09Z</time>
      </trkpt>
      <trkpt lat="42.1720430" lon="-6.6565850">
        <ele>1160.0</ele>
        <time>2021-04-01T09:38:16Z</time>
      </trkpt>
      <trkpt lat="42.1720850" lon="-6.6565720">
        <ele>1159.6</ele>
        <time>2021-04-01T09:38:24Z</time>
      </trkpt>
      <trkpt lat="42.1720880" lon="-6.6565710">
        <ele>1159.6</ele>
        <time>2021-04-01T09:38:26Z</time>
      </trkpt>
      <trkpt lat="42.1721230" lon="-6.6565640">
        <ele>1159.6</ele>
        <time>2021-04-01T09:38:34Z</time>
      </trkpt>
      <trkpt lat="42.1720940" lon="-6.6565510">
        <ele>1160.0</ele>
        <time>2021-04-01T09:38:40Z</time>
      </trkpt>
      <trkpt lat="42.1720990" lon="-6.6565830">
        <ele>1159.8</ele>
        <time>2021-04-01T09:38:44Z</time>
      </trkpt>
      <trkpt lat="42.1721000" lon="-6.6565970">
        <ele>1159.6</ele>
        <time>2021-04-01T09:38:46Z</time>
      </trkpt>
      <trkpt lat="42.1720960" lon="-6.6566120">
        <ele>1160.0</ele>
        <time>2021-04-01T09:38:54Z</time>
      </trkpt>
      <trkpt lat="42.1720840" lon="-6.6566240">
        <ele>1159.8</ele>
        <time>2021-04-01T09:38:57Z</time>
      </trkpt>
      <trkpt lat="42.1720850" lon="-6.6566300">
        <ele>1159.8</ele>
        <time>2021-04-01T09:38:58Z</time>
      </trkpt>
      <trkpt lat="42.1720780" lon="-6.6566370">
        <ele>1159.8</ele>
        <time>2021-04-01T09:39:03Z</time>
      </trkpt>
      <trkpt lat="42.1720810" lon="-6.6566350">
        <ele>1160.2</ele>
        <time>2021-04-01T09:39:10Z</time>
      </trkpt>
      <trkpt lat="42.1720800" lon="-6.6566340">
        <ele>1160.2</ele>
        <time>2021-04-01T09:39:12Z</time>
      </trkpt>
      <trkpt lat="42.1720850" lon="-6.6566370">
        <ele>1160.2</ele>
        <time>2021-04-01T09:39:20Z</time>
      </trkpt>
      <trkpt lat="42.1720950" lon="-6.6566420">
        <ele>1160.2</ele>
        <time>2021-04-01T09:39:24Z</time>
      </trkpt>
      <trkpt lat="42.1721210" lon="-6.6566410">
        <ele>1160.2</ele>
        <time>2021-04-01T09:39:27Z</time>
      </trkpt>
      <trkpt lat="42.1721310" lon="-6.6566380">
        <ele>1160.2</ele>
        <time>2021-04-01T09:39:31Z</time>
      </trkpt>
      <trkpt lat="42.1721470" lon="-6.6566310">
        <ele>1160.2</ele>
        <time>2021-04-01T09:39:33Z</time>
      </trkpt>
      <trkpt lat="42.1721560" lon="-6.6566180">
        <ele>1160.2</ele>
        <time>2021-04-01T09:39:38Z</time>
      </trkpt>
      <trkpt lat="42.1721500" lon="-6.6566220">
        <ele>1160.2</ele>
        <time>2021-04-01T09:39:42Z</time>
      </trkpt>
      <trkpt lat="42.1721230" lon="-6.6565980">
        <ele>1160.2</ele>
        <time>2021-04-01T09:39:52Z</time>
      </trkpt>
      <trkpt lat="42.1721160" lon="-6.6566250">
        <ele>1160.2</ele>
        <time>2021-04-01T09:39:55Z</time>
      </trkpt>
      <trkpt lat="42.1721160" lon="-6.6566260">
        <ele>1160.2</ele>
        <time>2021-04-01T09:40:00Z</time>
      </trkpt>
      <trkpt lat="42.1721290" lon="-6.6566080">
        <ele>1160.2</ele>
        <time>2021-04-01T09:40:09Z</time>
      </trkpt>
      <trkpt lat="42.1721350" lon="-6.6564970">
        <ele>1160.2</ele>
        <time>2021-04-01T09:40:17Z</time>
      </trkpt>
      <trkpt lat="42.1721380" lon="-6.6564830">
        <ele>1160.2</ele>
        <time>2021-04-01T09:40:18Z</time>
      </trkpt>
      <trkpt lat="42.1721320" lon="-6.6564380">
        <ele>1158.8</ele>
        <time>2021-04-01T09:40:21Z</time>
      </trkpt>
      <trkpt lat="42.1721200" lon="-6.6563750">
        <ele>1158.2</ele>
        <time>2021-04-01T09:40:25Z</time>
      </trkpt>
      <trkpt lat="42.1721090" lon="-6.6563280">
        <ele>1157.8</ele>
        <time>2021-04-01T09:40:29Z</time>
      </trkpt>
      <trkpt lat="42.1720940" lon="-6.6562850">
        <ele>1157.4</ele>
        <time>2021-04-01T09:40:33Z</time>
      </trkpt>
      <trkpt lat="42.1720960" lon="-6.6562710">
        <ele>1157.4</ele>
        <time>2021-04-01T09:40:34Z</time>
      </trkpt>
      <trkpt lat="42.1721050" lon="-6.6562420">
        <ele>1157.2</ele>
        <time>2021-04-01T09:40:37Z</time>
      </trkpt>
      <trkpt lat="42.1721050" lon="-6.6562330">
        <ele>1157.0</ele>
        <time>2021-04-01T09:40:38Z</time>
      </trkpt>
      <trkpt lat="42.1721060" lon="-6.6561920">
        <ele>1157.0</ele>
        <time>2021-04-01T09:40:41Z</time>
      </trkpt>
      <trkpt lat="42.1721130" lon="-6.6561280">
        <ele>1156.8</ele>
        <time>2021-04-01T09:40:45Z</time>
      </trkpt>
      <trkpt lat="42.1721110" lon="-6.6561100">
        <ele>1156.8</ele>
        <time>2021-04-01T09:40:46Z</time>
      </trkpt>
      <trkpt lat="42.1721060" lon="-6.6560810">
        <ele>1156.8</ele>
        <time>2021-04-01T09:40:48Z</time>
      </trkpt>
      <trkpt lat="42.1721050" lon="-6.6560110">
        <ele>1156.4</ele>
        <time>2021-04-01T09:40:52Z</time>
      </trkpt>
      <trkpt lat="42.1721090" lon="-6.6559890">
        <ele>1156.2</ele>
        <time>2021-04-01T09:40:54Z</time>
      </trkpt>
      <trkpt lat="42.1721110" lon="-6.6559740">
        <ele>1155.8</ele>
        <time>2021-04-01T09:40:56Z</time>
      </trkpt>
      <trkpt lat="42.1721100" lon="-6.6559680">
        <ele>1155.4</ele>
        <time>2021-04-01T09:40:57Z</time>
      </trkpt>
      <trkpt lat="42.1721070" lon="-6.6559570">
        <ele>1155.4</ele>
        <time>2021-04-01T09:40:58Z</time>
      </trkpt>
      <trkpt lat="42.1721030" lon="-6.6559420">
        <ele>1155.2</ele>
        <time>2021-04-01T09:40:59Z</time>
      </trkpt>
      <trkpt lat="42.1720900" lon="-6.6558950">
        <ele>1155.0</ele>
        <time>2021-04-01T09:41:03Z</time>
      </trkpt>
      <trkpt lat="42.1720850" lon="-6.6558800">
        <ele>1154.8</ele>
        <time>2021-04-01T09:41:05Z</time>
      </trkpt>
      <trkpt lat="42.1720790" lon="-6.6558590">
        <ele>1154.8</ele>
        <time>2021-04-01T09:41:07Z</time>
      </trkpt>
      <trkpt lat="42.1720690" lon="-6.6558340">
        <ele>1154.6</ele>
        <time>2021-04-01T09:41:09Z</time>
      </trkpt>
      <trkpt lat="42.1720660" lon="-6.6558220">
        <ele>1154.6</ele>
        <time>2021-04-01T09:41:10Z</time>
      </trkpt>
      <trkpt lat="42.1720530" lon="-6.6557980">
        <ele>1154.4</ele>
        <time>2021-04-01T09:41:12Z</time>
      </trkpt>
      <trkpt lat="42.1720480" lon="-6.6557870">
        <ele>1154.2</ele>
        <time>2021-04-01T09:41:13Z</time>
      </trkpt>
      <trkpt lat="42.1720470" lon="-6.6557810">
        <ele>1154.2</ele>
        <time>2021-04-01T09:41:14Z</time>
      </trkpt>
      <trkpt lat="42.1720440" lon="-6.6557630">
        <ele>1153.8</ele>
        <time>2021-04-01T09:41:18Z</time>
      </trkpt>
      <trkpt lat="42.1720470" lon="-6.6557530">
        <ele>1153.8</ele>
        <time>2021-04-01T09:41:19Z</time>
      </trkpt>
      <trkpt lat="42.1720610" lon="-6.6556970">
        <ele>1153.8</ele>
        <time>2021-04-01T09:41:24Z</time>
      </trkpt>
      <trkpt lat="42.1720560" lon="-6.6556760">
        <ele>1153.8</ele>
        <time>2021-04-01T09:41:26Z</time>
      </trkpt>
      <trkpt lat="42.1720460" lon="-6.6556560">
        <ele>1153.8</ele>
        <time>2021-04-01T09:41:28Z</time>
      </trkpt>
      <trkpt lat="42.1720290" lon="-6.6555950">
        <ele>1153.6</ele>
        <time>2021-04-01T09:41:32Z</time>
      </trkpt>
      <trkpt lat="42.1720250" lon="-6.6555740">
        <ele>1153.4</ele>
        <time>2021-04-01T09:41:33Z</time>
      </trkpt>
      <trkpt lat="42.1720210" lon="-6.6555370">
        <ele>1153.4</ele>
        <time>2021-04-01T09:41:35Z</time>
      </trkpt>
      <trkpt lat="42.1720180" lon="-6.6554630">
        <ele>1153.4</ele>
        <time>2021-04-01T09:41:40Z</time>
      </trkpt>
      <trkpt lat="42.1720270" lon="-6.6553630">
        <ele>1153.0</ele>
        <time>2021-04-01T09:41:47Z</time>
      </trkpt>
      <trkpt lat="42.1720300" lon="-6.6552750">
        <ele>1152.4</ele>
        <time>2021-04-01T09:41:53Z</time>
      </trkpt>
      <trkpt lat="42.1720290" lon="-6.6552500">
        <ele>1152.2</ele>
        <time>2021-04-01T09:41:55Z</time>
      </trkpt>
      <trkpt lat="42.1720240" lon="-6.6551220">
        <ele>1152.2</ele>
        <time>2021-04-01T09:42:03Z</time>
      </trkpt>
      <trkpt lat="42.1720250" lon="-6.6550580">
        <ele>1152.0</ele>
        <time>2021-04-01T09:42:08Z</time>
      </trkpt>
      <trkpt lat="42.1720270" lon="-6.6550070">
        <ele>1151.6</ele>
        <time>2021-04-01T09:42:11Z</time>
      </trkpt>
      <trkpt lat="42.1720270" lon="-6.6548770">
        <ele>1151.4</ele>
        <time>2021-04-01T09:42:19Z</time>
      </trkpt>
      <trkpt lat="42.1720250" lon="-6.6548470">
        <ele>1151.2</ele>
        <time>2021-04-01T09:42:21Z</time>
      </trkpt>
      <trkpt lat="42.1720240" lon="-6.6548350">
        <ele>1151.2</ele>
        <time>2021-04-01T09:42:22Z</time>
      </trkpt>
      <trkpt lat="42.1720200" lon="-6.6547840">
        <ele>1151.2</ele>
        <time>2021-04-01T09:42:27Z</time>
      </trkpt>
      <trkpt lat="42.1720230" lon="-6.6547300">
        <ele>1151.4</ele>
        <time>2021-04-01T09:42:30Z</time>
      </trkpt>
      <trkpt lat="42.1720230" lon="-6.6547200">
        <ele>1151.6</ele>
        <time>2021-04-01T09:42:31Z</time>
      </trkpt>
      <trkpt lat="42.1720300" lon="-6.6546930">
        <ele>1151.8</ele>
        <time>2021-04-01T09:42:33Z</time>
      </trkpt>
      <trkpt lat="42.1720370" lon="-6.6546500">
        <ele>1151.8</ele>
        <time>2021-04-01T09:42:36Z</time>
      </trkpt>
      <trkpt lat="42.1720510" lon="-6.6546110">
        <ele>1151.6</ele>
        <time>2021-04-01T09:42:39Z</time>
      </trkpt>
      <trkpt lat="42.1720540" lon="-6.6545840">
        <ele>1151.4</ele>
        <time>2021-04-01T09:42:41Z</time>
      </trkpt>
      <trkpt lat="42.1720510" lon="-6.6545100">
        <ele>1151.4</ele>
        <time>2021-04-01T09:42:46Z</time>
      </trkpt>
      <trkpt lat="42.1720520" lon="-6.6545080">
        <ele>1151.2</ele>
        <time>2021-04-01T09:42:47Z</time>
      </trkpt>
      <trkpt lat="42.1720520" lon="-6.6544960">
        <ele>1151.4</ele>
        <time>2021-04-01T09:42:49Z</time>
      </trkpt>
      <trkpt lat="42.1720580" lon="-6.6544420">
        <ele>1151.2</ele>
        <time>2021-04-01T09:42:53Z</time>
      </trkpt>
      <trkpt lat="42.1720650" lon="-6.6543930">
        <ele>1151.6</ele>
        <time>2021-04-01T09:42:56Z</time>
      </trkpt>
      <trkpt lat="42.1720820" lon="-6.6543610">
        <ele>1151.6</ele>
        <time>2021-04-01T09:42:59Z</time>
      </trkpt>
      <trkpt lat="42.1720910" lon="-6.6543480">
        <ele>1151.4</ele>
        <time>2021-04-01T09:43:00Z</time>
      </trkpt>
      <trkpt lat="42.1721050" lon="-6.6543000">
        <ele>1151.2</ele>
        <time>2021-04-01T09:43:03Z</time>
      </trkpt>
      <trkpt lat="42.1721230" lon="-6.6542530">
        <ele>1151.4</ele>
        <time>2021-04-01T09:43:07Z</time>
      </trkpt>
      <trkpt lat="42.1721510" lon="-6.6541640">
        <ele>1152.0</ele>
        <time>2021-04-01T09:43:14Z</time>
      </trkpt>
      <trkpt lat="42.1721750" lon="-6.6540540">
        <ele>1152.2</ele>
        <time>2021-04-01T09:43:21Z</time>
      </trkpt>
      <trkpt lat="42.1722060" lon="-6.6539530">
        <ele>1152.2</ele>
        <time>2021-04-01T09:43:27Z</time>
      </trkpt>
      <trkpt lat="42.1722130" lon="-6.6539400">
        <ele>1152.2</ele>
        <time>2021-04-01T09:43:28Z</time>
      </trkpt>
      <trkpt lat="42.1722170" lon="-6.6539240">
        <ele>1152.4</ele>
        <time>2021-04-01T09:43:29Z</time>
      </trkpt>
      <trkpt lat="42.1722220" lon="-6.6538740">
        <ele>1152.6</ele>
        <time>2021-04-01T09:43:32Z</time>
      </trkpt>
      <trkpt lat="42.1722450" lon="-6.6538360">
        <ele>1152.2</ele>
        <time>2021-04-01T09:43:35Z</time>
      </trkpt>
      <trkpt lat="42.1722520" lon="-6.6538100">
        <ele>1152.0</ele>
        <time>2021-04-01T09:43:37Z</time>
      </trkpt>
      <trkpt lat="42.1722620" lon="-6.6538020">
        <ele>1152.0</ele>
        <time>2021-04-01T09:43:39Z</time>
      </trkpt>
      <trkpt lat="42.1722640" lon="-6.6537900">
        <ele>1151.8</ele>
        <time>2021-04-01T09:43:40Z</time>
      </trkpt>
      <trkpt lat="42.1722660" lon="-6.6537760">
        <ele>1151.8</ele>
        <time>2021-04-01T09:43:41Z</time>
      </trkpt>
      <trkpt lat="42.1722760" lon="-6.6536850">
        <ele>1151.6</ele>
        <time>2021-04-01T09:43:48Z</time>
      </trkpt>
      <trkpt lat="42.1723180" lon="-6.6536500">
        <ele>1151.2</ele>
        <time>2021-04-01T09:43:52Z</time>
      </trkpt>
      <trkpt lat="42.1723610" lon="-6.6536160">
        <ele>1151.2</ele>
        <time>2021-04-01T09:43:56Z</time>
      </trkpt>
      <trkpt lat="42.1723950" lon="-6.6535240">
        <ele>1151.0</ele>
        <time>2021-04-01T09:44:03Z</time>
      </trkpt>
      <trkpt lat="42.1724320" lon="-6.6534610">
        <ele>1151.2</ele>
        <time>2021-04-01T09:44:10Z</time>
      </trkpt>
      <trkpt lat="42.1724410" lon="-6.6534530">
        <ele>1151.2</ele>
        <time>2021-04-01T09:44:11Z</time>
      </trkpt>
      <trkpt lat="42.1724510" lon="-6.6534250">
        <ele>1151.4</ele>
        <time>2021-04-01T09:44:13Z</time>
      </trkpt>
      <trkpt lat="42.1724640" lon="-6.6533990">
        <ele>1151.4</ele>
        <time>2021-04-01T09:44:15Z</time>
      </trkpt>
      <trkpt lat="42.1724680" lon="-6.6533930">
        <ele>1151.2</ele>
        <time>2021-04-01T09:44:16Z</time>
      </trkpt>
      <trkpt lat="42.1724780" lon="-6.6533420">
        <ele>1151.4</ele>
        <time>2021-04-01T09:44:21Z</time>
      </trkpt>
      <trkpt lat="42.1724810" lon="-6.6533200">
        <ele>1151.4</ele>
        <time>2021-04-01T09:44:22Z</time>
      </trkpt>
      <trkpt lat="42.1724820" lon="-6.6533040">
        <ele>1151.4</ele>
        <time>2021-04-01T09:44:23Z</time>
      </trkpt>
      <trkpt lat="42.1724840" lon="-6.6532890">
        <ele>1151.4</ele>
        <time>2021-04-01T09:44:24Z</time>
      </trkpt>
      <trkpt lat="42.1724840" lon="-6.6532750">
        <ele>1151.4</ele>
        <time>2021-04-01T09:44:25Z</time>
      </trkpt>
      <trkpt lat="42.1724900" lon="-6.6532570">
        <ele>1151.6</ele>
        <time>2021-04-01T09:44:26Z</time>
      </trkpt>
      <trkpt lat="42.1724910" lon="-6.6532420">
        <ele>1151.6</ele>
        <time>2021-04-01T09:44:27Z</time>
      </trkpt>
      <trkpt lat="42.1724870" lon="-6.6532150">
        <ele>1151.4</ele>
        <time>2021-04-01T09:44:28Z</time>
      </trkpt>
      <trkpt lat="42.1724870" lon="-6.6531950">
        <ele>1151.4</ele>
        <time>2021-04-01T09:44:29Z</time>
      </trkpt>
      <trkpt lat="42.1724850" lon="-6.6531410">
        <ele>1151.2</ele>
        <time>2021-04-01T09:44:32Z</time>
      </trkpt>
      <trkpt lat="42.1725110" lon="-6.6530490">
        <ele>1151.2</ele>
        <time>2021-04-01T09:44:40Z</time>
      </trkpt>
      <trkpt lat="42.1725280" lon="-6.6530200">
        <ele>1151.0</ele>
        <time>2021-04-01T09:44:42Z</time>
      </trkpt>
      <trkpt lat="42.1725340" lon="-6.6530070">
        <ele>1151.0</ele>
        <time>2021-04-01T09:44:43Z</time>
      </trkpt>
      <trkpt lat="42.1725490" lon="-6.6529450">
        <ele>1151.2</ele>
        <time>2021-04-01T09:44:47Z</time>
      </trkpt>
      <trkpt lat="42.1725590" lon="-6.6529200">
        <ele>1151.2</ele>
        <time>2021-04-01T09:44:49Z</time>
      </trkpt>
      <trkpt lat="42.1725930" lon="-6.6527950">
        <ele>1151.4</ele>
        <time>2021-04-01T09:44:57Z</time>
      </trkpt>
      <trkpt lat="42.1725950" lon="-6.6527810">
        <ele>1151.4</ele>
        <time>2021-04-01T09:44:58Z</time>
      </trkpt>
      <trkpt lat="42.1726110" lon="-6.6526570">
        <ele>1151.2</ele>
        <time>2021-04-01T09:45:06Z</time>
      </trkpt>
      <trkpt lat="42.1726270" lon="-6.6525780">
        <ele>1151.4</ele>
        <time>2021-04-01T09:45:12Z</time>
      </trkpt>
      <trkpt lat="42.1726290" lon="-6.6525420">
        <ele>1151.4</ele>
        <time>2021-04-01T09:45:14Z</time>
      </trkpt>
      <trkpt lat="42.1726340" lon="-6.6525180">
        <ele>1151.4</ele>
        <time>2021-04-01T09:45:16Z</time>
      </trkpt>
      <trkpt lat="42.1726440" lon="-6.6525070">
        <ele>1151.4</ele>
        <time>2021-04-01T09:45:18Z</time>
      </trkpt>
      <trkpt lat="42.1726470" lon="-6.6524960">
        <ele>1151.4</ele>
        <time>2021-04-01T09:45:19Z</time>
      </trkpt>
      <trkpt lat="42.1726590" lon="-6.6524410">
        <ele>1151.2</ele>
        <time>2021-04-01T09:45:23Z</time>
      </trkpt>
      <trkpt lat="42.1726650" lon="-6.6524280">
        <ele>1151.2</ele>
        <time>2021-04-01T09:45:24Z</time>
      </trkpt>
      <trkpt lat="42.1726760" lon="-6.6523850">
        <ele>1151.2</ele>
        <time>2021-04-01T09:45:27Z</time>
      </trkpt>
      <trkpt lat="42.1726820" lon="-6.6523720">
        <ele>1151.2</ele>
        <time>2021-04-01T09:45:28Z</time>
      </trkpt>
      <trkpt lat="42.1727170" lon="-6.6522680">
        <ele>1151.2</ele>
        <time>2021-04-01T09:45:35Z</time>
      </trkpt>
      <trkpt lat="42.1727240" lon="-6.6522560">
        <ele>1151.4</ele>
        <time>2021-04-01T09:45:36Z</time>
      </trkpt>
      <trkpt lat="42.1727300" lon="-6.6522280">
        <ele>1151.6</ele>
        <time>2021-04-01T09:45:38Z</time>
      </trkpt>
      <trkpt lat="42.1727310" lon="-6.6521990">
        <ele>1151.8</ele>
        <time>2021-04-01T09:45:40Z</time>
      </trkpt>
      <trkpt lat="42.1727340" lon="-6.6521860">
        <ele>1151.8</ele>
        <time>2021-04-01T09:45:41Z</time>
      </trkpt>
      <trkpt lat="42.1727720" lon="-6.6520870">
        <ele>1152.0</ele>
        <time>2021-04-01T09:45:49Z</time>
      </trkpt>
      <trkpt lat="42.1727970" lon="-6.6520060">
        <ele>1151.8</ele>
        <time>2021-04-01T09:45:54Z</time>
      </trkpt>
      <trkpt lat="42.1728110" lon="-6.6519570">
        <ele>1151.6</ele>
        <time>2021-04-01T09:45:57Z</time>
      </trkpt>
      <trkpt lat="42.1728390" lon="-6.6518200">
        <ele>1151.4</ele>
        <time>2021-04-01T09:46:05Z</time>
      </trkpt>
      <trkpt lat="42.1728460" lon="-6.6518040">
        <ele>1151.4</ele>
        <time>2021-04-01T09:46:06Z</time>
      </trkpt>
      <trkpt lat="42.1728850" lon="-6.6516940">
        <ele>1151.4</ele>
        <time>2021-04-01T09:46:14Z</time>
      </trkpt>
      <trkpt lat="42.1728990" lon="-6.6516540">
        <ele>1151.6</ele>
        <time>2021-04-01T09:46:17Z</time>
      </trkpt>
      <trkpt lat="42.1729040" lon="-6.6515840">
        <ele>1151.4</ele>
        <time>2021-04-01T09:46:21Z</time>
      </trkpt>
      <trkpt lat="42.1729090" lon="-6.6515570">
        <ele>1151.2</ele>
        <time>2021-04-01T09:46:23Z</time>
      </trkpt>
      <trkpt lat="42.1729170" lon="-6.6515250">
        <ele>1151.0</ele>
        <time>2021-04-01T09:46:25Z</time>
      </trkpt>
      <trkpt lat="42.1729210" lon="-6.6514530">
        <ele>1151.0</ele>
        <time>2021-04-01T09:46:29Z</time>
      </trkpt>
      <trkpt lat="42.1729240" lon="-6.6514380">
        <ele>1151.0</ele>
        <time>2021-04-01T09:46:30Z</time>
      </trkpt>
      <trkpt lat="42.1729360" lon="-6.6513950">
        <ele>1151.0</ele>
        <time>2021-04-01T09:46:33Z</time>
      </trkpt>
      <trkpt lat="42.1729510" lon="-6.6513600">
        <ele>1151.0</ele>
        <time>2021-04-01T09:46:36Z</time>
      </trkpt>
      <trkpt lat="42.1729810" lon="-6.6513030">
        <ele>1151.4</ele>
        <time>2021-04-01T09:46:41Z</time>
      </trkpt>
      <trkpt lat="42.1729930" lon="-6.6512600">
        <ele>1151.2</ele>
        <time>2021-04-01T09:46:44Z</time>
      </trkpt>
      <trkpt lat="42.1730020" lon="-6.6511500">
        <ele>1150.8</ele>
        <time>2021-04-01T09:46:50Z</time>
      </trkpt>
      <trkpt lat="42.1730060" lon="-6.6511130">
        <ele>1151.0</ele>
        <time>2021-04-01T09:46:52Z</time>
      </trkpt>
      <trkpt lat="42.1730210" lon="-6.6510650">
        <ele>1151.0</ele>
        <time>2021-04-01T09:46:56Z</time>
      </trkpt>
      <trkpt lat="42.1730310" lon="-6.6510480">
        <ele>1151.0</ele>
        <time>2021-04-01T09:46:58Z</time>
      </trkpt>
      <trkpt lat="42.1730380" lon="-6.6510380">
        <ele>1151.0</ele>
        <time>2021-04-01T09:46:59Z</time>
      </trkpt>
      <trkpt lat="42.1730630" lon="-6.6510060">
        <ele>1150.8</ele>
        <time>2021-04-01T09:47:03Z</time>
      </trkpt>
      <trkpt lat="42.1730920" lon="-6.6509610">
        <ele>1151.0</ele>
        <time>2021-04-01T09:47:07Z</time>
      </trkpt>
      <trkpt lat="42.1731220" lon="-6.6509140">
        <ele>1151.0</ele>
        <time>2021-04-01T09:47:11Z</time>
      </trkpt>
      <trkpt lat="42.1731260" lon="-6.6509050">
        <ele>1151.2</ele>
        <time>2021-04-01T09:47:13Z</time>
      </trkpt>
      <trkpt lat="42.1731290" lon="-6.6509040">
        <ele>1151.2</ele>
        <time>2021-04-01T09:47:14Z</time>
      </trkpt>
      <trkpt lat="42.1731410" lon="-6.6508910">
        <ele>1151.6</ele>
        <time>2021-04-01T09:47:17Z</time>
      </trkpt>
      <trkpt lat="42.1731820" lon="-6.6508580">
        <ele>1151.8</ele>
        <time>2021-04-01T09:47:20Z</time>
      </trkpt>
      <trkpt lat="42.1731950" lon="-6.6508390">
        <ele>1152.0</ele>
        <time>2021-04-01T09:47:22Z</time>
      </trkpt>
      <trkpt lat="42.1731970" lon="-6.6508130">
        <ele>1152.0</ele>
        <time>2021-04-01T09:47:25Z</time>
      </trkpt>
      <trkpt lat="42.1731990" lon="-6.6508090">
        <ele>1152.2</ele>
        <time>2021-04-01T09:47:26Z</time>
      </trkpt>
      <trkpt lat="42.1732020" lon="-6.6508030">
        <ele>1152.2</ele>
        <time>2021-04-01T09:47:28Z</time>
      </trkpt>
      <trkpt lat="42.1732030" lon="-6.6508030">
        <ele>1152.2</ele>
        <time>2021-04-01T09:47:29Z</time>
      </trkpt>
      <trkpt lat="42.1732060" lon="-6.6508010">
        <ele>1152.2</ele>
        <time>2021-04-01T09:47:30Z</time>
      </trkpt>
      <trkpt lat="42.1732280" lon="-6.6507740">
        <ele>1152.2</ele>
        <time>2021-04-01T09:47:34Z</time>
      </trkpt>
      <trkpt lat="42.1732420" lon="-6.6507370">
        <ele>1152.0</ele>
        <time>2021-04-01T09:47:37Z</time>
      </trkpt>
      <trkpt lat="42.1732820" lon="-6.6506540">
        <ele>1150.8</ele>
        <time>2021-04-01T09:47:43Z</time>
      </trkpt>
      <trkpt lat="42.1732860" lon="-6.6506360">
        <ele>1150.8</ele>
        <time>2021-04-01T09:47:44Z</time>
      </trkpt>
      <trkpt lat="42.1733570" lon="-6.6505210">
        <ele>1150.8</ele>
        <time>2021-04-01T09:47:54Z</time>
      </trkpt>
      <trkpt lat="42.1734210" lon="-6.6504270">
        <ele>1150.8</ele>
        <time>2021-04-01T09:48:02Z</time>
      </trkpt>
      <trkpt lat="42.1734280" lon="-6.6504160">
        <ele>1150.8</ele>
        <time>2021-04-01T09:48:03Z</time>
      </trkpt>
      <trkpt lat="42.1734690" lon="-6.6503580">
        <ele>1151.0</ele>
        <time>2021-04-01T09:48:08Z</time>
      </trkpt>
      <trkpt lat="42.1734790" lon="-6.6503310">
        <ele>1151.0</ele>
        <time>2021-04-01T09:48:10Z</time>
      </trkpt>
      <trkpt lat="42.1735110" lon="-6.6502070">
        <ele>1151.0</ele>
        <time>2021-04-01T09:48:18Z</time>
      </trkpt>
      <trkpt lat="42.1735400" lon="-6.6501140">
        <ele>1151.2</ele>
        <time>2021-04-01T09:48:26Z</time>
      </trkpt>
      <trkpt lat="42.1735440" lon="-6.6500330">
        <ele>1151.6</ele>
        <time>2021-04-01T09:48:32Z</time>
      </trkpt>
      <trkpt lat="42.1735420" lon="-6.6499980">
        <ele>1151.8</ele>
        <time>2021-04-01T09:48:34Z</time>
      </trkpt>
      <trkpt lat="42.1735430" lon="-6.6499850">
        <ele>1152.0</ele>
        <time>2021-04-01T09:48:35Z</time>
      </trkpt>
      <trkpt lat="42.1735480" lon="-6.6499570">
        <ele>1152.2</ele>
        <time>2021-04-01T09:48:37Z</time>
      </trkpt>
      <trkpt lat="42.1735540" lon="-6.6499350">
        <ele>1152.6</ele>
        <time>2021-04-01T09:48:39Z</time>
      </trkpt>
      <trkpt lat="42.1735570" lon="-6.6499170">
        <ele>1152.8</ele>
        <time>2021-04-01T09:48:41Z</time>
      </trkpt>
      <trkpt lat="42.1735590" lon="-6.6499040">
        <ele>1152.8</ele>
        <time>2021-04-01T09:48:42Z</time>
      </trkpt>
      <trkpt lat="42.1735570" lon="-6.6498920">
        <ele>1152.8</ele>
        <time>2021-04-01T09:48:43Z</time>
      </trkpt>
      <trkpt lat="42.1735740" lon="-6.6498080">
        <ele>1153.0</ele>
        <time>2021-04-01T09:48:50Z</time>
      </trkpt>
      <trkpt lat="42.1736110" lon="-6.6497070">
        <ele>1153.4</ele>
        <time>2021-04-01T09:48:59Z</time>
      </trkpt>
      <trkpt lat="42.1736300" lon="-6.6496770">
        <ele>1153.4</ele>
        <time>2021-04-01T09:49:02Z</time>
      </trkpt>
      <trkpt lat="42.1736390" lon="-6.6496260">
        <ele>1153.6</ele>
        <time>2021-04-01T09:49:06Z</time>
      </trkpt>
      <trkpt lat="42.1736480" lon="-6.6496020">
        <ele>1153.6</ele>
        <time>2021-04-01T09:49:08Z</time>
      </trkpt>
      <trkpt lat="42.1736570" lon="-6.6495780">
        <ele>1153.6</ele>
        <time>2021-04-01T09:49:10Z</time>
      </trkpt>
      <trkpt lat="42.1737030" lon="-6.6494890">
        <ele>1153.8</ele>
        <time>2021-04-01T09:49:17Z</time>
      </trkpt>
      <trkpt lat="42.1737100" lon="-6.6494780">
        <ele>1153.8</ele>
        <time>2021-04-01T09:49:18Z</time>
      </trkpt>
      <trkpt lat="42.1737320" lon="-6.6494410">
        <ele>1154.2</ele>
        <time>2021-04-01T09:49:21Z</time>
      </trkpt>
      <trkpt lat="42.1737380" lon="-6.6494270">
        <ele>1154.4</ele>
        <time>2021-04-01T09:49:23Z</time>
      </trkpt>
      <trkpt lat="42.1737410" lon="-6.6494270">
        <ele>1154.4</ele>
        <time>2021-04-01T09:49:24Z</time>
      </trkpt>
      <trkpt lat="42.1737440" lon="-6.6494290">
        <ele>1154.4</ele>
        <time>2021-04-01T09:49:25Z</time>
      </trkpt>
      <trkpt lat="42.1737550" lon="-6.6494210">
        <ele>1154.2</ele>
        <time>2021-04-01T09:49:27Z</time>
      </trkpt>
      <trkpt lat="42.1737680" lon="-6.6494050">
        <ele>1154.0</ele>
        <time>2021-04-01T09:49:29Z</time>
      </trkpt>
      <trkpt lat="42.1737830" lon="-6.6493850">
        <ele>1154.0</ele>
        <time>2021-04-01T09:49:31Z</time>
      </trkpt>
      <trkpt lat="42.1738300" lon="-6.6493090">
        <ele>1154.6</ele>
        <time>2021-04-01T09:49:38Z</time>
      </trkpt>
      <trkpt lat="42.1738760" lon="-6.6492320">
        <ele>1154.8</ele>
        <time>2021-04-01T09:49:44Z</time>
      </trkpt>
      <trkpt lat="42.1739370" lon="-6.6491310">
        <ele>1155.2</ele>
        <time>2021-04-01T09:49:53Z</time>
      </trkpt>
      <trkpt lat="42.1739950" lon="-6.6490510">
        <ele>1155.0</ele>
        <time>2021-04-01T09:50:01Z</time>
      </trkpt>
      <trkpt lat="42.1740090" lon="-6.6490310">
        <ele>1155.2</ele>
        <time>2021-04-01T09:50:03Z</time>
      </trkpt>
      <trkpt lat="42.1740300" lon="-6.6489990">
        <ele>1155.6</ele>
        <time>2021-04-01T09:50:06Z</time>
      </trkpt>
      <trkpt lat="42.1740340" lon="-6.6489850">
        <ele>1155.6</ele>
        <time>2021-04-01T09:50:07Z</time>
      </trkpt>
      <trkpt lat="42.1740410" lon="-6.6489600">
        <ele>1155.6</ele>
        <time>2021-04-01T09:50:09Z</time>
      </trkpt>
      <trkpt lat="42.1740570" lon="-6.6489390">
        <ele>1155.4</ele>
        <time>2021-04-01T09:50:12Z</time>
      </trkpt>
      <trkpt lat="42.1740720" lon="-6.6489220">
        <ele>1155.4</ele>
        <time>2021-04-01T09:50:14Z</time>
      </trkpt>
      <trkpt lat="42.1740920" lon="-6.6488660">
        <ele>1155.4</ele>
        <time>2021-04-01T09:50:18Z</time>
      </trkpt>
      <trkpt lat="42.1740960" lon="-6.6488520">
        <ele>1155.4</ele>
        <time>2021-04-01T09:50:19Z</time>
      </trkpt>
      <trkpt lat="42.1741150" lon="-6.6487990">
        <ele>1155.8</ele>
        <time>2021-04-01T09:50:23Z</time>
      </trkpt>
      <trkpt lat="42.1741720" lon="-6.6486510">
        <ele>1156.2</ele>
        <time>2021-04-01T09:50:33Z</time>
      </trkpt>
      <trkpt lat="42.1741800" lon="-6.6486410">
        <ele>1156.2</ele>
        <time>2021-04-01T09:50:34Z</time>
      </trkpt>
      <trkpt lat="42.1742140" lon="-6.6485750">
        <ele>1156.4</ele>
        <time>2021-04-01T09:50:39Z</time>
      </trkpt>
      <trkpt lat="42.1742200" lon="-6.6485630">
        <ele>1156.6</ele>
        <time>2021-04-01T09:50:40Z</time>
      </trkpt>
      <trkpt lat="42.1742600" lon="-6.6484460">
        <ele>1156.4</ele>
        <time>2021-04-01T09:50:49Z</time>
      </trkpt>
      <trkpt lat="42.1742930" lon="-6.6483330">
        <ele>1157.0</ele>
        <time>2021-04-01T09:50:57Z</time>
      </trkpt>
      <trkpt lat="42.1743030" lon="-6.6483050">
        <ele>1157.0</ele>
        <time>2021-04-01T09:50:59Z</time>
      </trkpt>
      <trkpt lat="42.1743200" lon="-6.6482600">
        <ele>1157.0</ele>
        <time>2021-04-01T09:51:02Z</time>
      </trkpt>
      <trkpt lat="42.1743390" lon="-6.6482230">
        <ele>1157.0</ele>
        <time>2021-04-01T09:51:05Z</time>
      </trkpt>
      <trkpt lat="42.1743460" lon="-6.6482120">
        <ele>1157.0</ele>
        <time>2021-04-01T09:51:06Z</time>
      </trkpt>
      <trkpt lat="42.1743940" lon="-6.6481420">
        <ele>1157.6</ele>
        <time>2021-04-01T09:51:12Z</time>
      </trkpt>
      <trkpt lat="42.1744030" lon="-6.6481280">
        <ele>1157.8</ele>
        <time>2021-04-01T09:51:13Z</time>
      </trkpt>
      <trkpt lat="42.1744430" lon="-6.6480290">
        <ele>1158.0</ele>
        <time>2021-04-01T09:51:20Z</time>
      </trkpt>
      <trkpt lat="42.1744530" lon="-6.6479970">
        <ele>1158.0</ele>
        <time>2021-04-01T09:51:22Z</time>
      </trkpt>
      <trkpt lat="42.1744810" lon="-6.6479150">
        <ele>1158.4</ele>
        <time>2021-04-01T09:51:28Z</time>
      </trkpt>
      <trkpt lat="42.1744890" lon="-6.6478860">
        <ele>1158.4</ele>
        <time>2021-04-01T09:51:30Z</time>
      </trkpt>
      <trkpt lat="42.1745200" lon="-6.6478140">
        <ele>1158.2</ele>
        <time>2021-04-01T09:51:35Z</time>
      </trkpt>
      <trkpt lat="42.1745450" lon="-6.6477750">
        <ele>1158.2</ele>
        <time>2021-04-01T09:51:38Z</time>
      </trkpt>
      <trkpt lat="42.1745530" lon="-6.6477640">
        <ele>1158.4</ele>
        <time>2021-04-01T09:51:39Z</time>
      </trkpt>
      <trkpt lat="42.1745880" lon="-6.6477130">
        <ele>1158.8</ele>
        <time>2021-04-01T09:51:44Z</time>
      </trkpt>
      <trkpt lat="42.1746020" lon="-6.6476930">
        <ele>1158.8</ele>
        <time>2021-04-01T09:51:46Z</time>
      </trkpt>
      <trkpt lat="42.1746270" lon="-6.6476550">
        <ele>1158.6</ele>
        <time>2021-04-01T09:51:49Z</time>
      </trkpt>
      <trkpt lat="42.1746810" lon="-6.6475580">
        <ele>1158.8</ele>
        <time>2021-04-01T09:51:58Z</time>
      </trkpt>
      <trkpt lat="42.1746960" lon="-6.6475010">
        <ele>1158.8</ele>
        <time>2021-04-01T09:52:02Z</time>
      </trkpt>
      <trkpt lat="42.1746990" lon="-6.6474880">
        <ele>1159.0</ele>
        <time>2021-04-01T09:52:03Z</time>
      </trkpt>
      <trkpt lat="42.1747050" lon="-6.6474770">
        <ele>1159.0</ele>
        <time>2021-04-01T09:52:04Z</time>
      </trkpt>
      <trkpt lat="42.1747150" lon="-6.6474660">
        <ele>1159.0</ele>
        <time>2021-04-01T09:52:05Z</time>
      </trkpt>
      <trkpt lat="42.1747630" lon="-6.6474170">
        <ele>1159.0</ele>
        <time>2021-04-01T09:52:10Z</time>
      </trkpt>
      <trkpt lat="42.1747820" lon="-6.6473870">
        <ele>1159.0</ele>
        <time>2021-04-01T09:52:12Z</time>
      </trkpt>
      <trkpt lat="42.1748750" lon="-6.6472810">
        <ele>1159.4</ele>
        <time>2021-04-01T09:52:22Z</time>
      </trkpt>
      <trkpt lat="42.1749070" lon="-6.6472440">
        <ele>1159.8</ele>
        <time>2021-04-01T09:52:26Z</time>
      </trkpt>
      <trkpt lat="42.1749280" lon="-6.6472090">
        <ele>1160.2</ele>
        <time>2021-04-01T09:52:31Z</time>
      </trkpt>
      <trkpt lat="42.1749480" lon="-6.6471920">
        <ele>1160.2</ele>
        <time>2021-04-01T09:52:34Z</time>
      </trkpt>
      <trkpt lat="42.1749720" lon="-6.6471580">
        <ele>1160.2</ele>
        <time>2021-04-01T09:52:37Z</time>
      </trkpt>
      <trkpt lat="42.1750290" lon="-6.6470380">
        <ele>1160.4</ele>
        <time>2021-04-01T09:52:47Z</time>
      </trkpt>
      <trkpt lat="42.1750580" lon="-6.6469790">
        <ele>1160.6</ele>
        <time>2021-04-01T09:52:52Z</time>
      </trkpt>
      <trkpt lat="42.1750660" lon="-6.6469660">
        <ele>1160.8</ele>
        <time>2021-04-01T09:52:53Z</time>
      </trkpt>
      <trkpt lat="42.1751000" lon="-6.6469020">
        <ele>1161.4</ele>
        <time>2021-04-01T09:52:58Z</time>
      </trkpt>
      <trkpt lat="42.1751280" lon="-6.6468590">
        <ele>1161.4</ele>
        <time>2021-04-01T09:53:02Z</time>
      </trkpt>
      <trkpt lat="42.1751340" lon="-6.6468480">
        <ele>1161.4</ele>
        <time>2021-04-01T09:53:03Z</time>
      </trkpt>
      <trkpt lat="42.1751660" lon="-6.6468030">
        <ele>1161.6</ele>
        <time>2021-04-01T09:53:07Z</time>
      </trkpt>
      <trkpt lat="42.1752550" lon="-6.6466860">
        <ele>1161.8</ele>
        <time>2021-04-01T09:53:18Z</time>
      </trkpt>
      <trkpt lat="42.1752620" lon="-6.6466760">
        <ele>1162.0</ele>
        <time>2021-04-01T09:53:19Z</time>
      </trkpt>
      <trkpt lat="42.1753050" lon="-6.6466010">
        <ele>1162.2</ele>
        <time>2021-04-01T09:53:25Z</time>
      </trkpt>
      <trkpt lat="42.1753120" lon="-6.6465900">
        <ele>1162.2</ele>
        <time>2021-04-01T09:53:26Z</time>
      </trkpt>
      <trkpt lat="42.1753700" lon="-6.6464760">
        <ele>1162.2</ele>
        <time>2021-04-01T09:53:35Z</time>
      </trkpt>
      <trkpt lat="42.1753780" lon="-6.6464640">
        <ele>1162.2</ele>
        <time>2021-04-01T09:53:36Z</time>
      </trkpt>
      <trkpt lat="42.1754210" lon="-6.6463780">
        <ele>1162.2</ele>
        <time>2021-04-01T09:53:43Z</time>
      </trkpt>
      <trkpt lat="42.1754370" lon="-6.6463580">
        <ele>1162.6</ele>
        <time>2021-04-01T09:53:45Z</time>
      </trkpt>
      <trkpt lat="42.1754440" lon="-6.6463470">
        <ele>1163.0</ele>
        <time>2021-04-01T09:53:46Z</time>
      </trkpt>
      <trkpt lat="42.1754720" lon="-6.6463000">
        <ele>1163.4</ele>
        <time>2021-04-01T09:53:50Z</time>
      </trkpt>
      <trkpt lat="42.1754790" lon="-6.6462880">
        <ele>1163.4</ele>
        <time>2021-04-01T09:53:51Z</time>
      </trkpt>
      <trkpt lat="42.1755050" lon="-6.6462430">
        <ele>1163.6</ele>
        <time>2021-04-01T09:53:55Z</time>
      </trkpt>
      <trkpt lat="42.1755270" lon="-6.6462070">
        <ele>1163.8</ele>
        <time>2021-04-01T09:53:58Z</time>
      </trkpt>
      <trkpt lat="42.1755390" lon="-6.6461840">
        <ele>1164.0</ele>
        <time>2021-04-01T09:54:00Z</time>
      </trkpt>
      <trkpt lat="42.1755460" lon="-6.6461710">
        <ele>1164.0</ele>
        <time>2021-04-01T09:54:01Z</time>
      </trkpt>
      <trkpt lat="42.1755800" lon="-6.6460410">
        <ele>1164.4</ele>
        <time>2021-04-01T09:54:10Z</time>
      </trkpt>
      <trkpt lat="42.1755890" lon="-6.6460170">
        <ele>1164.6</ele>
        <time>2021-04-01T09:54:12Z</time>
      </trkpt>
      <trkpt lat="42.1756030" lon="-6.6459330">
        <ele>1165.0</ele>
        <time>2021-04-01T09:54:18Z</time>
      </trkpt>
      <trkpt lat="42.1756110" lon="-6.6458880">
        <ele>1165.2</ele>
        <time>2021-04-01T09:54:21Z</time>
      </trkpt>
      <trkpt lat="42.1756250" lon="-6.6458150">
        <ele>1165.6</ele>
        <time>2021-04-01T09:54:26Z</time>
      </trkpt>
      <trkpt lat="42.1756320" lon="-6.6457780">
        <ele>1166.0</ele>
        <time>2021-04-01T09:54:29Z</time>
      </trkpt>
      <trkpt lat="42.1756440" lon="-6.6457130">
        <ele>1166.8</ele>
        <time>2021-04-01T09:54:35Z</time>
      </trkpt>
      <trkpt lat="42.1756920" lon="-6.6455910">
        <ele>1166.8</ele>
        <time>2021-04-01T09:54:44Z</time>
      </trkpt>
      <trkpt lat="42.1756980" lon="-6.6455810">
        <ele>1166.8</ele>
        <time>2021-04-01T09:54:45Z</time>
      </trkpt>
      <trkpt lat="42.1757050" lon="-6.6455590">
        <ele>1166.6</ele>
        <time>2021-04-01T09:54:47Z</time>
      </trkpt>
      <trkpt lat="42.1757130" lon="-6.6455480">
        <ele>1166.4</ele>
        <time>2021-04-01T09:54:49Z</time>
      </trkpt>
      <trkpt lat="42.1757200" lon="-6.6455470">
        <ele>1166.4</ele>
        <time>2021-04-01T09:54:50Z</time>
      </trkpt>
      <trkpt lat="42.1757240" lon="-6.6455460">
        <ele>1166.4</ele>
        <time>2021-04-01T09:54:51Z</time>
      </trkpt>
      <trkpt lat="42.1757210" lon="-6.6455440">
        <ele>1167.0</ele>
        <time>2021-04-01T09:55:00Z</time>
      </trkpt>
      <trkpt lat="42.1757410" lon="-6.6455210">
        <ele>1167.0</ele>
        <time>2021-04-01T09:55:06Z</time>
      </trkpt>
      <trkpt lat="42.1757460" lon="-6.6455110">
        <ele>1167.2</ele>
        <time>2021-04-01T09:55:07Z</time>
      </trkpt>
      <trkpt lat="42.1757770" lon="-6.6454680">
        <ele>1167.4</ele>
        <time>2021-04-01T09:55:11Z</time>
      </trkpt>
      <trkpt lat="42.1757870" lon="-6.6454590">
        <ele>1167.4</ele>
        <time>2021-04-01T09:55:12Z</time>
      </trkpt>
      <trkpt lat="42.1758600" lon="-6.6453900">
        <ele>1168.0</ele>
        <time>2021-04-01T09:55:19Z</time>
      </trkpt>
      <trkpt lat="42.1758730" lon="-6.6453690">
        <ele>1168.0</ele>
        <time>2021-04-01T09:55:21Z</time>
      </trkpt>
      <trkpt lat="42.1758900" lon="-6.6453300">
        <ele>1168.2</ele>
        <time>2021-04-01T09:55:24Z</time>
      </trkpt>
      <trkpt lat="42.1758980" lon="-6.6453190">
        <ele>1168.4</ele>
        <time>2021-04-01T09:55:25Z</time>
      </trkpt>
      <trkpt lat="42.1759310" lon="-6.6452610">
        <ele>1168.6</ele>
        <time>2021-04-01T09:55:30Z</time>
      </trkpt>
      <trkpt lat="42.1759430" lon="-6.6452550">
        <ele>1168.4</ele>
        <time>2021-04-01T09:55:31Z</time>
      </trkpt>
      <trkpt lat="42.1760090" lon="-6.6452330">
        <ele>1169.2</ele>
        <time>2021-04-01T09:55:37Z</time>
      </trkpt>
      <trkpt lat="42.1760620" lon="-6.6452270">
        <ele>1169.2</ele>
        <time>2021-04-01T09:55:41Z</time>
      </trkpt>
      <trkpt lat="42.1760960" lon="-6.6452250">
        <ele>1169.2</ele>
        <time>2021-04-01T09:55:44Z</time>
      </trkpt>
      <trkpt lat="42.1761460" lon="-6.6451910">
        <ele>1168.8</ele>
        <time>2021-04-01T09:55:50Z</time>
      </trkpt>
      <trkpt lat="42.1762100" lon="-6.6451520">
        <ele>1168.8</ele>
        <time>2021-04-01T09:55:56Z</time>
      </trkpt>
      <trkpt lat="42.1762820" lon="-6.6451110">
        <ele>1169.0</ele>
        <time>2021-04-01T09:56:02Z</time>
      </trkpt>
      <trkpt lat="42.1763050" lon="-6.6451060">
        <ele>1169.0</ele>
        <time>2021-04-01T09:56:04Z</time>
      </trkpt>
      <trkpt lat="42.1763380" lon="-6.6451010">
        <ele>1169.2</ele>
        <time>2021-04-01T09:56:07Z</time>
      </trkpt>
      <trkpt lat="42.1763740" lon="-6.6450990">
        <ele>1169.4</ele>
        <time>2021-04-01T09:56:10Z</time>
      </trkpt>
      <trkpt lat="42.1764080" lon="-6.6450940">
        <ele>1169.6</ele>
        <time>2021-04-01T09:56:14Z</time>
      </trkpt>
      <trkpt lat="42.1764290" lon="-6.6450890">
        <ele>1169.6</ele>
        <time>2021-04-01T09:56:16Z</time>
      </trkpt>
      <trkpt lat="42.1765020" lon="-6.6450450">
        <ele>1169.8</ele>
        <time>2021-04-01T09:56:22Z</time>
      </trkpt>
      <trkpt lat="42.1765210" lon="-6.6450330">
        <ele>1169.8</ele>
        <time>2021-04-01T09:56:24Z</time>
      </trkpt>
      <trkpt lat="42.1765410" lon="-6.6450170">
        <ele>1170.0</ele>
        <time>2021-04-01T09:56:26Z</time>
      </trkpt>
      <trkpt lat="42.1765710" lon="-6.6449820">
        <ele>1170.2</ele>
        <time>2021-04-01T09:56:31Z</time>
      </trkpt>
      <trkpt lat="42.1765740" lon="-6.6449800">
        <ele>1170.4</ele>
        <time>2021-04-01T09:56:32Z</time>
      </trkpt>
      <trkpt lat="42.1765820" lon="-6.6449740">
        <ele>1170.4</ele>
        <time>2021-04-01T09:56:33Z</time>
      </trkpt>
      <trkpt lat="42.1766360" lon="-6.6449020">
        <ele>1169.8</ele>
        <time>2021-04-01T09:56:40Z</time>
      </trkpt>
      <trkpt lat="42.1766640" lon="-6.6448840">
        <ele>1169.6</ele>
        <time>2021-04-01T09:56:42Z</time>
      </trkpt>
      <trkpt lat="42.1767230" lon="-6.6448600">
        <ele>1169.6</ele>
        <time>2021-04-01T09:56:47Z</time>
      </trkpt>
      <trkpt lat="42.1767340" lon="-6.6448520">
        <ele>1169.6</ele>
        <time>2021-04-01T09:56:48Z</time>
      </trkpt>
      <trkpt lat="42.1767680" lon="-6.6448430">
        <ele>1169.2</ele>
        <time>2021-04-01T09:56:51Z</time>
      </trkpt>
      <trkpt lat="42.1768040" lon="-6.6448290">
        <ele>1169.0</ele>
        <time>2021-04-01T09:56:54Z</time>
      </trkpt>
      <trkpt lat="42.1768160" lon="-6.6448220">
        <ele>1168.8</ele>
        <time>2021-04-01T09:56:55Z</time>
      </trkpt>
      <trkpt lat="42.1768870" lon="-6.6447440">
        <ele>1168.6</ele>
        <time>2021-04-01T09:57:03Z</time>
      </trkpt>
      <trkpt lat="42.1769430" lon="-6.6446320">
        <ele>1168.4</ele>
        <time>2021-04-01T09:57:11Z</time>
      </trkpt>
      <trkpt lat="42.1769930" lon="-6.6445160">
        <ele>1168.2</ele>
        <time>2021-04-01T09:57:20Z</time>
      </trkpt>
      <trkpt lat="42.1770140" lon="-6.6444880">
        <ele>1168.0</ele>
        <time>2021-04-01T09:57:23Z</time>
      </trkpt>
      <trkpt lat="42.1770270" lon="-6.6444820">
        <ele>1168.0</ele>
        <time>2021-04-01T09:57:25Z</time>
      </trkpt>
      <trkpt lat="42.1770280" lon="-6.6444720">
        <ele>1168.0</ele>
        <time>2021-04-01T09:57:27Z</time>
      </trkpt>
      <trkpt lat="42.1770340" lon="-6.6444640">
        <ele>1168.0</ele>
        <time>2021-04-01T09:57:29Z</time>
      </trkpt>
      <trkpt lat="42.1770880" lon="-6.6444280">
        <ele>1168.4</ele>
        <time>2021-04-01T09:57:35Z</time>
      </trkpt>
      <trkpt lat="42.1771100" lon="-6.6444160">
        <ele>1168.6</ele>
        <time>2021-04-01T09:57:37Z</time>
      </trkpt>
      <trkpt lat="42.1771170" lon="-6.6444130">
        <ele>1168.8</ele>
        <time>2021-04-01T09:57:38Z</time>
      </trkpt>
      <trkpt lat="42.1771350" lon="-6.6444050">
        <ele>1169.0</ele>
        <time>2021-04-01T09:57:41Z</time>
      </trkpt>
      <trkpt lat="42.1771440" lon="-6.6444020">
        <ele>1169.2</ele>
        <time>2021-04-01T09:57:42Z</time>
      </trkpt>
      <trkpt lat="42.1771530" lon="-6.6444000">
        <ele>1169.2</ele>
        <time>2021-04-01T09:57:43Z</time>
      </trkpt>
      <trkpt lat="42.1771910" lon="-6.6443800">
        <ele>1169.2</ele>
        <time>2021-04-01T09:57:47Z</time>
      </trkpt>
      <trkpt lat="42.1772230" lon="-6.6443730">
        <ele>1169.4</ele>
        <time>2021-04-01T09:57:50Z</time>
      </trkpt>
      <trkpt lat="42.1772450" lon="-6.6443620">
        <ele>1169.6</ele>
        <time>2021-04-01T09:57:53Z</time>
      </trkpt>
      <trkpt lat="42.1772740" lon="-6.6443500">
        <ele>1169.6</ele>
        <time>2021-04-01T09:57:56Z</time>
      </trkpt>
      <trkpt lat="42.1772980" lon="-6.6443300">
        <ele>1169.6</ele>
        <time>2021-04-01T09:57:59Z</time>
      </trkpt>
      <trkpt lat="42.1773150" lon="-6.6443110">
        <ele>1169.4</ele>
        <time>2021-04-01T09:58:01Z</time>
      </trkpt>
      <trkpt lat="42.1773370" lon="-6.6442830">
        <ele>1169.2</ele>
        <time>2021-04-01T09:58:04Z</time>
      </trkpt>
      <trkpt lat="42.1773440" lon="-6.6442750">
        <ele>1169.2</ele>
        <time>2021-04-01T09:58:06Z</time>
      </trkpt>
      <trkpt lat="42.1773560" lon="-6.6442650">
        <ele>1169.2</ele>
        <time>2021-04-01T09:58:08Z</time>
      </trkpt>
      <trkpt lat="42.1773710" lon="-6.6442520">
        <ele>1169.4</ele>
        <time>2021-04-01T09:58:10Z</time>
      </trkpt>
      <trkpt lat="42.1773810" lon="-6.6442480">
        <ele>1169.4</ele>
        <time>2021-04-01T09:58:11Z</time>
      </trkpt>
      <trkpt lat="42.1773940" lon="-6.6442360">
        <ele>1169.4</ele>
        <time>2021-04-01T09:58:13Z</time>
      </trkpt>
      <trkpt lat="42.1774010" lon="-6.6442280">
        <ele>1169.4</ele>
        <time>2021-04-01T09:58:14Z</time>
      </trkpt>
      <trkpt lat="42.1774100" lon="-6.6442190">
        <ele>1169.6</ele>
        <time>2021-04-01T09:58:16Z</time>
      </trkpt>
      <trkpt lat="42.1774200" lon="-6.6442130">
        <ele>1169.6</ele>
        <time>2021-04-01T09:58:18Z</time>
      </trkpt>
      <trkpt lat="42.1774380" lon="-6.6441750">
        <ele>1169.2</ele>
        <time>2021-04-01T09:58:23Z</time>
      </trkpt>
      <trkpt lat="42.1774830" lon="-6.6441130">
        <ele>1169.6</ele>
        <time>2021-04-01T09:58:31Z</time>
      </trkpt>
      <trkpt lat="42.1774840" lon="-6.6441120">
        <ele>1169.4</ele>
        <time>2021-04-01T09:58:38Z</time>
      </trkpt>
      <trkpt lat="42.1774830" lon="-6.6441150">
        <ele>1169.2</ele>
        <time>2021-04-01T09:58:39Z</time>
      </trkpt>
      <trkpt lat="42.1775090" lon="-6.6441430">
        <ele>1168.8</ele>
        <time>2021-04-01T09:58:47Z</time>
      </trkpt>
      <trkpt lat="42.1775130" lon="-6.6441470">
        <ele>1168.6</ele>
        <time>2021-04-01T09:58:48Z</time>
      </trkpt>
      <trkpt lat="42.1775160" lon="-6.6441470">
        <ele>1168.6</ele>
        <time>2021-04-01T09:58:49Z</time>
      </trkpt>
      <trkpt lat="42.1775160" lon="-6.6441490">
        <ele>1168.6</ele>
        <time>2021-04-01T09:58:50Z</time>
      </trkpt>
      <trkpt lat="42.1775170" lon="-6.6441480">
        <ele>1167.8</ele>
        <time>2021-04-01T09:58:54Z</time>
      </trkpt>
      <trkpt lat="42.1775160" lon="-6.6441490">
        <ele>1167.8</ele>
        <time>2021-04-01T09:58:57Z</time>
      </trkpt>
      <trkpt lat="42.1775140" lon="-6.6441490">
        <ele>1167.8</ele>
        <time>2021-04-01T09:59:00Z</time>
      </trkpt>
      <trkpt lat="42.1775250" lon="-6.6441720">
        <ele>1167.8</ele>
        <time>2021-04-01T09:59:06Z</time>
      </trkpt>
      <trkpt lat="42.1775290" lon="-6.6441770">
        <ele>1167.8</ele>
        <time>2021-04-01T09:59:07Z</time>
      </trkpt>
      <trkpt lat="42.1775310" lon="-6.6442020">
        <ele>1167.8</ele>
        <time>2021-04-01T09:59:10Z</time>
      </trkpt>
      <trkpt lat="42.1775240" lon="-6.6442140">
        <ele>1167.8</ele>
        <time>2021-04-01T09:59:15Z</time>
      </trkpt>
      <trkpt lat="42.1775570" lon="-6.6442270">
        <ele>1167.8</ele>
        <time>2021-04-01T09:59:21Z</time>
      </trkpt>
      <trkpt lat="42.1775540" lon="-6.6442280">
        <ele>1167.8</ele>
        <time>2021-04-01T09:59:23Z</time>
      </trkpt>
      <trkpt lat="42.1775560" lon="-6.6442350">
        <ele>1167.8</ele>
        <time>2021-04-01T09:59:27Z</time>
      </trkpt>
      <trkpt lat="42.1775570" lon="-6.6442030">
        <ele>1167.8</ele>
        <time>2021-04-01T09:59:30Z</time>
      </trkpt>
      <trkpt lat="42.1775720" lon="-6.6441580">
        <ele>1167.8</ele>
        <time>2021-04-01T09:59:31Z</time>
      </trkpt>
      <trkpt lat="42.1775840" lon="-6.6440650">
        <ele>1167.8</ele>
        <time>2021-04-01T09:59:37Z</time>
      </trkpt>
      <trkpt lat="42.1776070" lon="-6.6440220">
        <ele>1168.0</ele>
        <time>2021-04-01T09:59:41Z</time>
      </trkpt>
      <trkpt lat="42.1776410" lon="-6.6440000">
        <ele>1168.0</ele>
        <time>2021-04-01T09:59:46Z</time>
      </trkpt>
      <trkpt lat="42.1776550" lon="-6.6439850">
        <ele>1167.8</ele>
        <time>2021-04-01T09:59:52Z</time>
      </trkpt>
      <trkpt lat="42.1776820" lon="-6.6439540">
        <ele>1167.6</ele>
        <time>2021-04-01T10:00:00Z</time>
      </trkpt>
      <trkpt lat="42.1777050" lon="-6.6439410">
        <ele>1167.6</ele>
        <time>2021-04-01T10:00:03Z</time>
      </trkpt>
      <trkpt lat="42.1777550" lon="-6.6439170">
        <ele>1167.8</ele>
        <time>2021-04-01T10:00:08Z</time>
      </trkpt>
      <trkpt lat="42.1778180" lon="-6.6438680">
        <ele>1167.6</ele>
        <time>2021-04-01T10:00:16Z</time>
      </trkpt>
      <trkpt lat="42.1778690" lon="-6.6438150">
        <ele>1167.8</ele>
        <time>2021-04-01T10:00:22Z</time>
      </trkpt>
      <trkpt lat="42.1778820" lon="-6.6437970">
        <ele>1168.0</ele>
        <time>2021-04-01T10:00:24Z</time>
      </trkpt>
      <trkpt lat="42.1779060" lon="-6.6437580">
        <ele>1168.2</ele>
        <time>2021-04-01T10:00:28Z</time>
      </trkpt>
      <trkpt lat="42.1779190" lon="-6.6437370">
        <ele>1168.0</ele>
        <time>2021-04-01T10:00:30Z</time>
      </trkpt>
      <trkpt lat="42.1779250" lon="-6.6437280">
        <ele>1168.0</ele>
        <time>2021-04-01T10:00:31Z</time>
      </trkpt>
      <trkpt lat="42.1779420" lon="-6.6437030">
        <ele>1167.8</ele>
        <time>2021-04-01T10:00:34Z</time>
      </trkpt>
      <trkpt lat="42.1779460" lon="-6.6436970">
        <ele>1168.0</ele>
        <time>2021-04-01T10:00:35Z</time>
      </trkpt>
      <trkpt lat="42.1779560" lon="-6.6436840">
        <ele>1168.2</ele>
        <time>2021-04-01T10:00:38Z</time>
      </trkpt>
      <trkpt lat="42.1779790" lon="-6.6436840">
        <ele>1167.8</ele>
        <time>2021-04-01T10:00:46Z</time>
      </trkpt>
      <trkpt lat="42.1779830" lon="-6.6436220">
        <ele>1167.8</ele>
        <time>2021-04-01T10:00:52Z</time>
      </trkpt>
      <trkpt lat="42.1779950" lon="-6.6435960">
        <ele>1168.0</ele>
        <time>2021-04-01T10:00:54Z</time>
      </trkpt>
      <trkpt lat="42.1780310" lon="-6.6435500">
        <ele>1168.0</ele>
        <time>2021-04-01T10:00:59Z</time>
      </trkpt>
      <trkpt lat="42.1780980" lon="-6.6434880">
        <ele>1168.0</ele>
        <time>2021-04-01T10:01:07Z</time>
      </trkpt>
      <trkpt lat="42.1781250" lon="-6.6434650">
        <ele>1168.0</ele>
        <time>2021-04-01T10:01:11Z</time>
      </trkpt>
      <trkpt lat="42.1781380" lon="-6.6434610">
        <ele>1168.0</ele>
        <time>2021-04-01T10:01:13Z</time>
      </trkpt>
      <trkpt lat="42.1781440" lon="-6.6434550">
        <ele>1168.0</ele>
        <time>2021-04-01T10:01:14Z</time>
      </trkpt>
      <trkpt lat="42.1781620" lon="-6.6434490">
        <ele>1168.0</ele>
        <time>2021-04-01T10:01:16Z</time>
      </trkpt>
      <trkpt lat="42.1781630" lon="-6.6434460">
        <ele>1168.0</ele>
        <time>2021-04-01T10:01:17Z</time>
      </trkpt>
      <trkpt lat="42.1781640" lon="-6.6434420">
        <ele>1167.8</ele>
        <time>2021-04-01T10:01:19Z</time>
      </trkpt>
      <trkpt lat="42.1781670" lon="-6.6434420">
        <ele>1167.8</ele>
        <time>2021-04-01T10:01:20Z</time>
      </trkpt>
      <trkpt lat="42.1781740" lon="-6.6434400">
        <ele>1167.8</ele>
        <time>2021-04-01T10:01:23Z</time>
      </trkpt>
      <trkpt lat="42.1782020" lon="-6.6434320">
        <ele>1167.8</ele>
        <time>2021-04-01T10:01:28Z</time>
      </trkpt>
      <trkpt lat="42.1782740" lon="-6.6434300">
        <ele>1167.8</ele>
        <time>2021-04-01T10:01:36Z</time>
      </trkpt>
      <trkpt lat="42.1782960" lon="-6.6434200">
        <ele>1167.8</ele>
        <time>2021-04-01T10:01:39Z</time>
      </trkpt>
      <trkpt lat="42.1783240" lon="-6.6433810">
        <ele>1167.6</ele>
        <time>2021-04-01T10:01:45Z</time>
      </trkpt>
      <trkpt lat="42.1783410" lon="-6.6433530">
        <ele>1167.4</ele>
        <time>2021-04-01T10:01:49Z</time>
      </trkpt>
      <trkpt lat="42.1783590" lon="-6.6433290">
        <ele>1168.0</ele>
        <time>2021-04-01T10:01:52Z</time>
      </trkpt>
      <trkpt lat="42.1783990" lon="-6.6432740">
        <ele>1168.2</ele>
        <time>2021-04-01T10:01:58Z</time>
      </trkpt>
      <trkpt lat="42.1784100" lon="-6.6432590">
        <ele>1168.6</ele>
        <time>2021-04-01T10:02:00Z</time>
      </trkpt>
      <trkpt lat="42.1784260" lon="-6.6432350">
        <ele>1169.0</ele>
        <time>2021-04-01T10:02:03Z</time>
      </trkpt>
      <trkpt lat="42.1784310" lon="-6.6432300">
        <ele>1169.0</ele>
        <time>2021-04-01T10:02:04Z</time>
      </trkpt>
      <trkpt lat="42.1784350" lon="-6.6432250">
        <ele>1169.2</ele>
        <time>2021-04-01T10:02:05Z</time>
      </trkpt>
      <trkpt lat="42.1784390" lon="-6.6432140">
        <ele>1169.4</ele>
        <time>2021-04-01T10:02:07Z</time>
      </trkpt>
      <trkpt lat="42.1784530" lon="-6.6431950">
        <ele>1169.6</ele>
        <time>2021-04-01T10:02:10Z</time>
      </trkpt>
      <trkpt lat="42.1784620" lon="-6.6431720">
        <ele>1170.0</ele>
        <time>2021-04-01T10:02:12Z</time>
      </trkpt>
      <trkpt lat="42.1784900" lon="-6.6431140">
        <ele>1171.2</ele>
        <time>2021-04-01T10:02:17Z</time>
      </trkpt>
      <trkpt lat="42.1784940" lon="-6.6431000">
        <ele>1171.4</ele>
        <time>2021-04-01T10:02:18Z</time>
      </trkpt>
      <trkpt lat="42.1785070" lon="-6.6430630">
        <ele>1172.0</ele>
        <time>2021-04-01T10:02:21Z</time>
      </trkpt>
      <trkpt lat="42.1785100" lon="-6.6430510">
        <ele>1172.0</ele>
        <time>2021-04-01T10:02:22Z</time>
      </trkpt>
      <trkpt lat="42.1785180" lon="-6.6430370">
        <ele>1172.0</ele>
        <time>2021-04-01T10:02:23Z</time>
      </trkpt>
      <trkpt lat="42.1785220" lon="-6.6430260">
        <ele>1172.0</ele>
        <time>2021-04-01T10:02:24Z</time>
      </trkpt>
      <trkpt lat="42.1785270" lon="-6.6430140">
        <ele>1172.2</ele>
        <time>2021-04-01T10:02:25Z</time>
      </trkpt>
      <trkpt lat="42.1785290" lon="-6.6430010">
        <ele>1172.2</ele>
        <time>2021-04-01T10:02:26Z</time>
      </trkpt>
      <trkpt lat="42.1785360" lon="-6.6429790">
        <ele>1172.2</ele>
        <time>2021-04-01T10:02:28Z</time>
      </trkpt>
      <trkpt lat="42.1785460" lon="-6.6429720">
        <ele>1172.2</ele>
        <time>2021-04-01T10:02:29Z</time>
      </trkpt>
      <trkpt lat="42.1785640" lon="-6.6429530">
        <ele>1172.4</ele>
        <time>2021-04-01T10:02:31Z</time>
      </trkpt>
      <trkpt lat="42.1785710" lon="-6.6429420">
        <ele>1172.6</ele>
        <time>2021-04-01T10:02:32Z</time>
      </trkpt>
      <trkpt lat="42.1785790" lon="-6.6429310">
        <ele>1172.6</ele>
        <time>2021-04-01T10:02:33Z</time>
      </trkpt>
      <trkpt lat="42.1786040" lon="-6.6429020">
        <ele>1172.6</ele>
        <time>2021-04-01T10:02:36Z</time>
      </trkpt>
      <trkpt lat="42.1786230" lon="-6.6428820">
        <ele>1173.0</ele>
        <time>2021-04-01T10:02:39Z</time>
      </trkpt>
      <trkpt lat="42.1786250" lon="-6.6428800">
        <ele>1173.0</ele>
        <time>2021-04-01T10:02:40Z</time>
      </trkpt>
      <trkpt lat="42.1786330" lon="-6.6428840">
        <ele>1173.2</ele>
        <time>2021-04-01T10:02:43Z</time>
      </trkpt>
      <trkpt lat="42.1786360" lon="-6.6428870">
        <ele>1173.2</ele>
        <time>2021-04-01T10:02:44Z</time>
      </trkpt>
      <trkpt lat="42.1786420" lon="-6.6428890">
        <ele>1173.2</ele>
        <time>2021-04-01T10:02:46Z</time>
      </trkpt>
      <trkpt lat="42.1786550" lon="-6.6428740">
        <ele>1173.0</ele>
        <time>2021-04-01T10:02:51Z</time>
      </trkpt>
      <trkpt lat="42.1786690" lon="-6.6428630">
        <ele>1173.0</ele>
        <time>2021-04-01T10:02:54Z</time>
      </trkpt>
      <trkpt lat="42.1786990" lon="-6.6428470">
        <ele>1172.8</ele>
        <time>2021-04-01T10:02:59Z</time>
      </trkpt>
      <trkpt lat="42.1787070" lon="-6.6428500">
        <ele>1172.6</ele>
        <time>2021-04-01T10:03:02Z</time>
      </trkpt>
      <trkpt lat="42.1787230" lon="-6.6428630">
        <ele>1172.8</ele>
        <time>2021-04-01T10:03:09Z</time>
      </trkpt>
      <trkpt lat="42.1787280" lon="-6.6428460">
        <ele>1173.0</ele>
        <time>2021-04-01T10:03:16Z</time>
      </trkpt>
      <trkpt lat="42.1787310" lon="-6.6428560">
        <ele>1173.0</ele>
        <time>2021-04-01T10:03:18Z</time>
      </trkpt>
      <trkpt lat="42.1787320" lon="-6.6428660">
        <ele>1173.0</ele>
        <time>2021-04-01T10:03:23Z</time>
      </trkpt>
      <trkpt lat="42.1787310" lon="-6.6428750">
        <ele>1173.0</ele>
        <time>2021-04-01T10:03:27Z</time>
      </trkpt>
      <trkpt lat="42.1787310" lon="-6.6428790">
        <ele>1173.0</ele>
        <time>2021-04-01T10:03:30Z</time>
      </trkpt>
      <trkpt lat="42.1787370" lon="-6.6428630">
        <ele>1172.8</ele>
        <time>2021-04-01T10:03:36Z</time>
      </trkpt>
      <trkpt lat="42.1787370" lon="-6.6428620">
        <ele>1172.8</ele>
        <time>2021-04-01T10:03:37Z</time>
      </trkpt>
      <trkpt lat="42.1787360" lon="-6.6428600">
        <ele>1172.8</ele>
        <time>2021-04-01T10:03:39Z</time>
      </trkpt>
      <trkpt lat="42.1787390" lon="-6.6428720">
        <ele>1172.8</ele>
        <time>2021-04-01T10:03:44Z</time>
      </trkpt>
      <trkpt lat="42.1787390" lon="-6.6428980">
        <ele>1172.8</ele>
        <time>2021-04-01T10:03:47Z</time>
      </trkpt>
      <trkpt lat="42.1787400" lon="-6.6429170">
        <ele>1173.0</ele>
        <time>2021-04-01T10:03:49Z</time>
      </trkpt>
      <trkpt lat="42.1787330" lon="-6.6429940">
        <ele>1173.6</ele>
        <time>2021-04-01T10:03:57Z</time>
      </trkpt>
      <trkpt lat="42.1787360" lon="-6.6429450">
        <ele>1173.4</ele>
        <time>2021-04-01T10:04:02Z</time>
      </trkpt>
      <trkpt lat="42.1787410" lon="-6.6429360">
        <ele>1173.4</ele>
        <time>2021-04-01T10:04:03Z</time>
      </trkpt>
      <trkpt lat="42.1787520" lon="-6.6429160">
        <ele>1173.2</ele>
        <time>2021-04-01T10:04:05Z</time>
      </trkpt>
      <trkpt lat="42.1787700" lon="-6.6428780">
        <ele>1172.8</ele>
        <time>2021-04-01T10:04:09Z</time>
      </trkpt>
      <trkpt lat="42.1787710" lon="-6.6428750">
        <ele>1172.8</ele>
        <time>2021-04-01T10:04:10Z</time>
      </trkpt>
      <trkpt lat="42.1788390" lon="-6.6428110">
        <ele>1172.2</ele>
        <time>2021-04-01T10:04:18Z</time>
      </trkpt>
      <trkpt lat="42.1788410" lon="-6.6427870">
        <ele>1172.2</ele>
        <time>2021-04-01T10:04:19Z</time>
      </trkpt>
      <trkpt lat="42.1788460" lon="-6.6427690">
        <ele>1172.2</ele>
        <time>2021-04-01T10:04:20Z</time>
      </trkpt>
      <trkpt lat="42.1788640" lon="-6.6427500">
        <ele>1171.8</ele>
        <time>2021-04-01T10:04:22Z</time>
      </trkpt>
      <trkpt lat="42.1788780" lon="-6.6427370">
        <ele>1171.8</ele>
        <time>2021-04-01T10:04:24Z</time>
      </trkpt>
      <trkpt lat="42.1788800" lon="-6.6427350">
        <ele>1171.8</ele>
        <time>2021-04-01T10:04:25Z</time>
      </trkpt>
      <trkpt lat="42.1788800" lon="-6.6427370">
        <ele>1171.6</ele>
        <time>2021-04-01T10:04:26Z</time>
      </trkpt>
      <trkpt lat="42.1788810" lon="-6.6427430">
        <ele>1171.6</ele>
        <time>2021-04-01T10:04:28Z</time>
      </trkpt>
      <trkpt lat="42.1788960" lon="-6.6427420">
        <ele>1172.0</ele>
        <time>2021-04-01T10:04:33Z</time>
      </trkpt>
      <trkpt lat="42.1789310" lon="-6.6427200">
        <ele>1172.2</ele>
        <time>2021-04-01T10:04:37Z</time>
      </trkpt>
      <trkpt lat="42.1789360" lon="-6.6427710">
        <ele>1172.2</ele>
        <time>2021-04-01T10:04:40Z</time>
      </trkpt>
      <trkpt lat="42.1789440" lon="-6.6427810">
        <ele>1172.2</ele>
        <time>2021-04-01T10:04:43Z</time>
      </trkpt>
      <trkpt lat="42.1789520" lon="-6.6427750">
        <ele>1172.2</ele>
        <time>2021-04-01T10:04:44Z</time>
      </trkpt>
      <trkpt lat="42.1789650" lon="-6.6427640">
        <ele>1172.2</ele>
        <time>2021-04-01T10:04:46Z</time>
      </trkpt>
      <trkpt lat="42.1789870" lon="-6.6427470">
        <ele>1172.2</ele>
        <time>2021-04-01T10:04:48Z</time>
      </trkpt>
      <trkpt lat="42.1790330" lon="-6.6427220">
        <ele>1172.2</ele>
        <time>2021-04-01T10:04:52Z</time>
      </trkpt>
      <trkpt lat="42.1790880" lon="-6.6426880">
        <ele>1172.4</ele>
        <time>2021-04-01T10:04:55Z</time>
      </trkpt>
      <trkpt lat="42.1790960" lon="-6.6426860">
        <ele>1172.4</ele>
        <time>2021-04-01T10:04:56Z</time>
      </trkpt>
      <trkpt lat="42.1791030" lon="-6.6426840">
        <ele>1172.6</ele>
        <time>2021-04-01T10:04:57Z</time>
      </trkpt>
      <trkpt lat="42.1791630" lon="-6.6426540">
        <ele>1173.0</ele>
        <time>2021-04-01T10:05:03Z</time>
      </trkpt>
      <trkpt lat="42.1791720" lon="-6.6426510">
        <ele>1173.0</ele>
        <time>2021-04-01T10:05:04Z</time>
      </trkpt>
      <trkpt lat="42.1792070" lon="-6.6426190">
        <ele>1173.0</ele>
        <time>2021-04-01T10:05:07Z</time>
      </trkpt>
      <trkpt lat="42.1792430" lon="-6.6425880">
        <ele>1172.8</ele>
        <time>2021-04-01T10:05:11Z</time>
      </trkpt>
      <trkpt lat="42.1792510" lon="-6.6425830">
        <ele>1172.8</ele>
        <time>2021-04-01T10:05:12Z</time>
      </trkpt>
      <trkpt lat="42.1792710" lon="-6.6425800">
        <ele>1173.4</ele>
        <time>2021-04-01T10:05:15Z</time>
      </trkpt>
      <trkpt lat="42.1792790" lon="-6.6425770">
        <ele>1173.4</ele>
        <time>2021-04-01T10:05:16Z</time>
      </trkpt>
      <trkpt lat="42.1793100" lon="-6.6425550">
        <ele>1173.6</ele>
        <time>2021-04-01T10:05:19Z</time>
      </trkpt>
      <trkpt lat="42.1793200" lon="-6.6425500">
        <ele>1173.8</ele>
        <time>2021-04-01T10:05:20Z</time>
      </trkpt>
      <trkpt lat="42.1793410" lon="-6.6425390">
        <ele>1174.2</ele>
        <time>2021-04-01T10:05:23Z</time>
      </trkpt>
      <trkpt lat="42.1793490" lon="-6.6425400">
        <ele>1174.4</ele>
        <time>2021-04-01T10:05:24Z</time>
      </trkpt>
      <trkpt lat="42.1793660" lon="-6.6425330">
        <ele>1174.6</ele>
        <time>2021-04-01T10:05:26Z</time>
      </trkpt>
      <trkpt lat="42.1793890" lon="-6.6425230">
        <ele>1174.8</ele>
        <time>2021-04-01T10:05:28Z</time>
      </trkpt>
      <trkpt lat="42.1794440" lon="-6.6424880">
        <ele>1174.8</ele>
        <time>2021-04-01T10:05:31Z</time>
      </trkpt>
      <trkpt lat="42.1794710" lon="-6.6424780">
        <ele>1175.0</ele>
        <time>2021-04-01T10:05:33Z</time>
      </trkpt>
      <trkpt lat="42.1794810" lon="-6.6424740">
        <ele>1175.2</ele>
        <time>2021-04-01T10:05:34Z</time>
      </trkpt>
      <trkpt lat="42.1795020" lon="-6.6424830">
        <ele>1175.2</ele>
        <time>2021-04-01T10:05:36Z</time>
      </trkpt>
      <trkpt lat="42.1795160" lon="-6.6424920">
        <ele>1175.2</ele>
        <time>2021-04-01T10:05:38Z</time>
      </trkpt>
      <trkpt lat="42.1795250" lon="-6.6424920">
        <ele>1175.2</ele>
        <time>2021-04-01T10:05:39Z</time>
      </trkpt>
      <trkpt lat="42.1795370" lon="-6.6425030">
        <ele>1175.0</ele>
        <time>2021-04-01T10:05:40Z</time>
      </trkpt>
      <trkpt lat="42.1795610" lon="-6.6424980">
        <ele>1175.0</ele>
        <time>2021-04-01T10:05:42Z</time>
      </trkpt>
      <trkpt lat="42.1795850" lon="-6.6424880">
        <ele>1175.2</ele>
        <time>2021-04-01T10:05:44Z</time>
      </trkpt>
      <trkpt lat="42.1796220" lon="-6.6424670">
        <ele>1175.4</ele>
        <time>2021-04-01T10:05:47Z</time>
      </trkpt>
      <trkpt lat="42.1796300" lon="-6.6424610">
        <ele>1175.4</ele>
        <time>2021-04-01T10:05:48Z</time>
      </trkpt>
      <trkpt lat="42.1796690" lon="-6.6425020">
        <ele>1175.8</ele>
        <time>2021-04-01T10:05:52Z</time>
      </trkpt>
      <trkpt lat="42.1796820" lon="-6.6425160">
        <ele>1176.0</ele>
        <time>2021-04-01T10:05:54Z</time>
      </trkpt>
      <trkpt lat="42.1796860" lon="-6.6425210">
        <ele>1176.0</ele>
        <time>2021-04-01T10:05:55Z</time>
      </trkpt>
      <trkpt lat="42.1797020" lon="-6.6425280">
        <ele>1176.4</ele>
        <time>2021-04-01T10:05:58Z</time>
      </trkpt>
      <trkpt lat="42.1797110" lon="-6.6425250">
        <ele>1176.4</ele>
        <time>2021-04-01T10:05:59Z</time>
      </trkpt>
      <trkpt lat="42.1797230" lon="-6.6425420">
        <ele>1176.6</ele>
        <time>2021-04-01T10:06:00Z</time>
      </trkpt>
      <trkpt lat="42.1797610" lon="-6.6425590">
        <ele>1176.8</ele>
        <time>2021-04-01T10:06:03Z</time>
      </trkpt>
      <trkpt lat="42.1797820" lon="-6.6425740">
        <ele>1176.8</ele>
        <time>2021-04-01T10:06:05Z</time>
      </trkpt>
      <trkpt lat="42.1798280" lon="-6.6425900">
        <ele>1177.2</ele>
        <time>2021-04-01T10:06:10Z</time>
      </trkpt>
      <trkpt lat="42.1798340" lon="-6.6425930">
        <ele>1177.2</ele>
        <time>2021-04-01T10:06:11Z</time>
      </trkpt>
      <trkpt lat="42.1798370" lon="-6.6426080">
        <ele>1177.0</ele>
        <time>2021-04-01T10:06:13Z</time>
      </trkpt>
      <trkpt lat="42.1798370" lon="-6.6426180">
        <ele>1177.0</ele>
        <time>2021-04-01T10:06:14Z</time>
      </trkpt>
      <trkpt lat="42.1798420" lon="-6.6426130">
        <ele>1177.0</ele>
        <time>2021-04-01T10:06:16Z</time>
      </trkpt>
      <trkpt lat="42.1798480" lon="-6.6426090">
        <ele>1176.8</ele>
        <time>2021-04-01T10:06:17Z</time>
      </trkpt>
      <trkpt lat="42.1798540" lon="-6.6426060">
        <ele>1176.8</ele>
        <time>2021-04-01T10:06:18Z</time>
      </trkpt>
      <trkpt lat="42.1798550" lon="-6.6426210">
        <ele>1176.8</ele>
        <time>2021-04-01T10:06:20Z</time>
      </trkpt>
      <trkpt lat="42.1798560" lon="-6.6426400">
        <ele>1177.0</ele>
        <time>2021-04-01T10:06:22Z</time>
      </trkpt>
      <trkpt lat="42.1798800" lon="-6.6426330">
        <ele>1177.0</ele>
        <time>2021-04-01T10:06:27Z</time>
      </trkpt>
      <trkpt lat="42.1799430" lon="-6.6426630">
        <ele>1177.0</ele>
        <time>2021-04-01T10:06:35Z</time>
      </trkpt>
      <trkpt lat="42.1800120" lon="-6.6427050">
        <ele>1176.8</ele>
        <time>2021-04-01T10:06:41Z</time>
      </trkpt>
      <trkpt lat="42.1800320" lon="-6.6427170">
        <ele>1176.8</ele>
        <time>2021-04-01T10:06:43Z</time>
      </trkpt>
      <trkpt lat="42.1801030" lon="-6.6427720">
        <ele>1177.0</ele>
        <time>2021-04-01T10:06:50Z</time>
      </trkpt>
      <trkpt lat="42.1801260" lon="-6.6427950">
        <ele>1177.0</ele>
        <time>2021-04-01T10:06:53Z</time>
      </trkpt>
      <trkpt lat="42.1801340" lon="-6.6428050">
        <ele>1176.8</ele>
        <time>2021-04-01T10:06:54Z</time>
      </trkpt>
      <trkpt lat="42.1801450" lon="-6.6428140">
        <ele>1176.8</ele>
        <time>2021-04-01T10:06:55Z</time>
      </trkpt>
      <trkpt lat="42.1801540" lon="-6.6428190">
        <ele>1176.8</ele>
        <time>2021-04-01T10:06:56Z</time>
      </trkpt>
      <trkpt lat="42.1801980" lon="-6.6428330">
        <ele>1176.6</ele>
        <time>2021-04-01T10:07:00Z</time>
      </trkpt>
      <trkpt lat="42.1802060" lon="-6.6428400">
        <ele>1176.6</ele>
        <time>2021-04-01T10:07:02Z</time>
      </trkpt>
      <trkpt lat="42.1802260" lon="-6.6428390">
        <ele>1176.6</ele>
        <time>2021-04-01T10:07:04Z</time>
      </trkpt>
      <trkpt lat="42.1802390" lon="-6.6428420">
        <ele>1176.6</ele>
        <time>2021-04-01T10:07:06Z</time>
      </trkpt>
      <trkpt lat="42.1802560" lon="-6.6428550">
        <ele>1176.6</ele>
        <time>2021-04-01T10:07:08Z</time>
      </trkpt>
      <trkpt lat="42.1803030" lon="-6.6428920">
        <ele>1176.2</ele>
        <time>2021-04-01T10:07:14Z</time>
      </trkpt>
      <trkpt lat="42.1803070" lon="-6.6428940">
        <ele>1176.2</ele>
        <time>2021-04-01T10:07:15Z</time>
      </trkpt>
      <trkpt lat="42.1803030" lon="-6.6429250">
        <ele>1176.4</ele>
        <time>2021-04-01T10:07:17Z</time>
      </trkpt>
      <trkpt lat="42.1802850" lon="-6.6429760">
        <ele>1176.6</ele>
        <time>2021-04-01T10:07:19Z</time>
      </trkpt>
      <trkpt lat="42.1802850" lon="-6.6429630">
        <ele>1176.6</ele>
        <time>2021-04-01T10:07:21Z</time>
      </trkpt>
      <trkpt lat="42.1802820" lon="-6.6429490">
        <ele>1176.4</ele>
        <time>2021-04-01T10:07:25Z</time>
      </trkpt>
      <trkpt lat="42.1802930" lon="-6.6429440">
        <ele>1176.4</ele>
        <time>2021-04-01T10:07:28Z</time>
      </trkpt>
      <trkpt lat="42.1803030" lon="-6.6429510">
        <ele>1176.4</ele>
        <time>2021-04-01T10:07:30Z</time>
      </trkpt>
      <trkpt lat="42.1803170" lon="-6.6429820">
        <ele>1176.4</ele>
        <time>2021-04-01T10:07:34Z</time>
      </trkpt>
      <trkpt lat="42.1802800" lon="-6.6430180">
        <ele>1176.2</ele>
        <time>2021-04-01T10:07:37Z</time>
      </trkpt>
      <trkpt lat="42.1802720" lon="-6.6430330">
        <ele>1176.2</ele>
        <time>2021-04-01T10:07:42Z</time>
      </trkpt>
      <trkpt lat="42.1802570" lon="-6.6430260">
        <ele>1176.4</ele>
        <time>2021-04-01T10:07:45Z</time>
      </trkpt>
      <trkpt lat="42.1802540" lon="-6.6429930">
        <ele>1176.4</ele>
        <time>2021-04-01T10:07:53Z</time>
      </trkpt>
      <trkpt lat="42.1802540" lon="-6.6429780">
        <ele>1176.6</ele>
        <time>2021-04-01T10:07:59Z</time>
      </trkpt>
      <trkpt lat="42.1802620" lon="-6.6429490">
        <ele>1176.4</ele>
        <time>2021-04-01T10:08:05Z</time>
      </trkpt>
      <trkpt lat="42.1802630" lon="-6.6429480">
        <ele>1176.2</ele>
        <time>2021-04-01T10:08:07Z</time>
      </trkpt>
      <trkpt lat="42.1802770" lon="-6.6429420">
        <ele>1176.4</ele>
        <time>2021-04-01T10:08:16Z</time>
      </trkpt>
      <trkpt lat="42.1803000" lon="-6.6429140">
        <ele>1176.4</ele>
        <time>2021-04-01T10:08:24Z</time>
      </trkpt>
      <trkpt lat="42.1803190" lon="-6.6429110">
        <ele>1176.4</ele>
        <time>2021-04-01T10:08:29Z</time>
      </trkpt>
      <trkpt lat="42.1803290" lon="-6.6429310">
        <ele>1176.4</ele>
        <time>2021-04-01T10:08:31Z</time>
      </trkpt>
      <trkpt lat="42.1803190" lon="-6.6430410">
        <ele>1176.6</ele>
        <time>2021-04-01T10:08:37Z</time>
      </trkpt>
      <trkpt lat="42.1803220" lon="-6.6430820">
        <ele>1176.4</ele>
        <time>2021-04-01T10:08:45Z</time>
      </trkpt>
      <trkpt lat="42.1803260" lon="-6.6430640">
        <ele>1176.4</ele>
        <time>2021-04-01T10:08:51Z</time>
      </trkpt>
      <trkpt lat="42.1803770" lon="-6.6430310">
        <ele>1177.2</ele>
        <time>2021-04-01T10:08:58Z</time>
      </trkpt>
      <trkpt lat="42.1803800" lon="-6.6430140">
        <ele>1177.2</ele>
        <time>2021-04-01T10:08:59Z</time>
      </trkpt>
      <trkpt lat="42.1803830" lon="-6.6430080">
        <ele>1177.2</ele>
        <time>2021-04-01T10:09:00Z</time>
      </trkpt>
      <trkpt lat="42.1804030" lon="-6.6429560">
        <ele>1177.2</ele>
        <time>2021-04-01T10:09:02Z</time>
      </trkpt>
      <trkpt lat="42.1804230" lon="-6.6429550">
        <ele>1177.2</ele>
        <time>2021-04-01T10:09:04Z</time>
      </trkpt>
      <trkpt lat="42.1804390" lon="-6.6429900">
        <ele>1177.2</ele>
        <time>2021-04-01T10:09:06Z</time>
      </trkpt>
      <trkpt lat="42.1804450" lon="-6.6429920">
        <ele>1177.0</ele>
        <time>2021-04-01T10:09:07Z</time>
      </trkpt>
      <trkpt lat="42.1804480" lon="-6.6430000">
        <ele>1177.0</ele>
        <time>2021-04-01T10:09:09Z</time>
      </trkpt>
      <trkpt lat="42.1804530" lon="-6.6430400">
        <ele>1177.0</ele>
        <time>2021-04-01T10:09:17Z</time>
      </trkpt>
      <trkpt lat="42.1804750" lon="-6.6430730">
        <ele>1176.8</ele>
        <time>2021-04-01T10:09:23Z</time>
      </trkpt>
      <trkpt lat="42.1804800" lon="-6.6430770">
        <ele>1176.8</ele>
        <time>2021-04-01T10:09:24Z</time>
      </trkpt>
      <trkpt lat="42.1805140" lon="-6.6430900">
        <ele>1177.0</ele>
        <time>2021-04-01T10:09:32Z</time>
      </trkpt>
      <trkpt lat="42.1805180" lon="-6.6430930">
        <ele>1177.2</ele>
        <time>2021-04-01T10:09:33Z</time>
      </trkpt>
      <trkpt lat="42.1805400" lon="-6.6431220">
        <ele>1177.6</ele>
        <time>2021-04-01T10:09:37Z</time>
      </trkpt>
      <trkpt lat="42.1805570" lon="-6.6431280">
        <ele>1177.8</ele>
        <time>2021-04-01T10:09:39Z</time>
      </trkpt>
      <trkpt lat="42.1805670" lon="-6.6431290">
        <ele>1178.0</ele>
        <time>2021-04-01T10:09:40Z</time>
      </trkpt>
      <trkpt lat="42.1805900" lon="-6.6431320">
        <ele>1178.2</ele>
        <time>2021-04-01T10:09:42Z</time>
      </trkpt>
      <trkpt lat="42.1806000" lon="-6.6431400">
        <ele>1178.2</ele>
        <time>2021-04-01T10:09:43Z</time>
      </trkpt>
      <trkpt lat="42.1806080" lon="-6.6431460">
        <ele>1178.4</ele>
        <time>2021-04-01T10:09:44Z</time>
      </trkpt>
      <trkpt lat="42.1806170" lon="-6.6431490">
        <ele>1178.4</ele>
        <time>2021-04-01T10:09:45Z</time>
      </trkpt>
      <trkpt lat="42.1806340" lon="-6.6431640">
        <ele>1178.6</ele>
        <time>2021-04-01T10:09:47Z</time>
      </trkpt>
      <trkpt lat="42.1806410" lon="-6.6431720">
        <ele>1178.6</ele>
        <time>2021-04-01T10:09:48Z</time>
      </trkpt>
      <trkpt lat="42.1806880" lon="-6.6431920">
        <ele>1179.6</ele>
        <time>2021-04-01T10:09:55Z</time>
      </trkpt>
      <trkpt lat="42.1806940" lon="-6.6432030">
        <ele>1179.6</ele>
        <time>2021-04-01T10:09:56Z</time>
      </trkpt>
      <trkpt lat="42.1807070" lon="-6.6432210">
        <ele>1179.8</ele>
        <time>2021-04-01T10:09:59Z</time>
      </trkpt>
      <trkpt lat="42.1807160" lon="-6.6432320">
        <ele>1180.2</ele>
        <time>2021-04-01T10:10:01Z</time>
      </trkpt>
      <trkpt lat="42.1807220" lon="-6.6432380">
        <ele>1180.4</ele>
        <time>2021-04-01T10:10:02Z</time>
      </trkpt>
      <trkpt lat="42.1807360" lon="-6.6432500">
        <ele>1180.6</ele>
        <time>2021-04-01T10:10:04Z</time>
      </trkpt>
      <trkpt lat="42.1807400" lon="-6.6432560">
        <ele>1180.6</ele>
        <time>2021-04-01T10:10:05Z</time>
      </trkpt>
      <trkpt lat="42.1807500" lon="-6.6432930">
        <ele>1180.8</ele>
        <time>2021-04-01T10:10:08Z</time>
      </trkpt>
      <trkpt lat="42.1807690" lon="-6.6433160">
        <ele>1180.8</ele>
        <time>2021-04-01T10:10:10Z</time>
      </trkpt>
      <trkpt lat="42.1808330" lon="-6.6433580">
        <ele>1180.6</ele>
        <time>2021-04-01T10:10:15Z</time>
      </trkpt>
      <trkpt lat="42.1809140" lon="-6.6434250">
        <ele>1181.2</ele>
        <time>2021-04-01T10:10:22Z</time>
      </trkpt>
      <trkpt lat="42.1809600" lon="-6.6434610">
        <ele>1181.0</ele>
        <time>2021-04-01T10:10:26Z</time>
      </trkpt>
      <trkpt lat="42.1809790" lon="-6.6434850">
        <ele>1181.0</ele>
        <time>2021-04-01T10:10:28Z</time>
      </trkpt>
      <trkpt lat="42.1810420" lon="-6.6435340">
        <ele>1181.4</ele>
        <time>2021-04-01T10:10:36Z</time>
      </trkpt>
      <trkpt lat="42.1810590" lon="-6.6435430">
        <ele>1181.4</ele>
        <time>2021-04-01T10:10:38Z</time>
      </trkpt>
      <trkpt lat="42.1810680" lon="-6.6435420">
        <ele>1181.4</ele>
        <time>2021-04-01T10:10:40Z</time>
      </trkpt>
      <trkpt lat="42.1810620" lon="-6.6435460">
        <ele>1181.6</ele>
        <time>2021-04-01T10:10:42Z</time>
      </trkpt>
      <trkpt lat="42.1810550" lon="-6.6435390">
        <ele>1181.6</ele>
        <time>2021-04-01T10:10:44Z</time>
      </trkpt>
      <trkpt lat="42.1810710" lon="-6.6435340">
        <ele>1181.8</ele>
        <time>2021-04-01T10:10:47Z</time>
      </trkpt>
      <trkpt lat="42.1810780" lon="-6.6435390">
        <ele>1181.6</ele>
        <time>2021-04-01T10:10:48Z</time>
      </trkpt>
      <trkpt lat="42.1810860" lon="-6.6435370">
        <ele>1181.6</ele>
        <time>2021-04-01T10:10:49Z</time>
      </trkpt>
      <trkpt lat="42.1811050" lon="-6.6435290">
        <ele>1181.6</ele>
        <time>2021-04-01T10:10:51Z</time>
      </trkpt>
      <trkpt lat="42.1811580" lon="-6.6435280">
        <ele>1181.2</ele>
        <time>2021-04-01T10:10:56Z</time>
      </trkpt>
      <trkpt lat="42.1811810" lon="-6.6435610">
        <ele>1181.2</ele>
        <time>2021-04-01T10:10:59Z</time>
      </trkpt>
      <trkpt lat="42.1812130" lon="-6.6435660">
        <ele>1181.4</ele>
        <time>2021-04-01T10:11:02Z</time>
      </trkpt>
      <trkpt lat="42.1812340" lon="-6.6435650">
        <ele>1181.4</ele>
        <time>2021-04-01T10:11:04Z</time>
      </trkpt>
      <trkpt lat="42.1812480" lon="-6.6435750">
        <ele>1181.4</ele>
        <time>2021-04-01T10:11:06Z</time>
      </trkpt>
      <trkpt lat="42.1812770" lon="-6.6436110">
        <ele>1181.0</ele>
        <time>2021-04-01T10:11:09Z</time>
      </trkpt>
      <trkpt lat="42.1813310" lon="-6.6436690">
        <ele>1181.2</ele>
        <time>2021-04-01T10:11:14Z</time>
      </trkpt>
      <trkpt lat="42.1813440" lon="-6.6437030">
        <ele>1181.2</ele>
        <time>2021-04-01T10:11:16Z</time>
      </trkpt>
      <trkpt lat="42.1814000" lon="-6.6437740">
        <ele>1181.4</ele>
        <time>2021-04-01T10:11:22Z</time>
      </trkpt>
      <trkpt lat="42.1814190" lon="-6.6437690">
        <ele>1181.6</ele>
        <time>2021-04-01T10:11:23Z</time>
      </trkpt>
      <trkpt lat="42.1814790" lon="-6.6437820">
        <ele>1181.6</ele>
        <time>2021-04-01T10:11:28Z</time>
      </trkpt>
      <trkpt lat="42.1814960" lon="-6.6437940">
        <ele>1181.4</ele>
        <time>2021-04-01T10:11:30Z</time>
      </trkpt>
      <trkpt lat="42.1815280" lon="-6.6437930">
        <ele>1181.6</ele>
        <time>2021-04-01T10:11:33Z</time>
      </trkpt>
      <trkpt lat="42.1815940" lon="-6.6437750">
        <ele>1181.6</ele>
        <time>2021-04-01T10:11:37Z</time>
      </trkpt>
      <trkpt lat="42.1816210" lon="-6.6438290">
        <ele>1182.2</ele>
        <time>2021-04-01T10:11:43Z</time>
      </trkpt>
      <trkpt lat="42.1816980" lon="-6.6438660">
        <ele>1182.4</ele>
        <time>2021-04-01T10:11:51Z</time>
      </trkpt>
      <trkpt lat="42.1817900" lon="-6.6438610">
        <ele>1182.8</ele>
        <time>2021-04-01T10:11:58Z</time>
      </trkpt>
      <trkpt lat="42.1818270" lon="-6.6438520">
        <ele>1182.8</ele>
        <time>2021-04-01T10:12:01Z</time>
      </trkpt>
      <trkpt lat="42.1818530" lon="-6.6438640">
        <ele>1183.0</ele>
        <time>2021-04-01T10:12:04Z</time>
      </trkpt>
      <trkpt lat="42.1818870" lon="-6.6438850">
        <ele>1183.4</ele>
        <time>2021-04-01T10:12:08Z</time>
      </trkpt>
      <trkpt lat="42.1818950" lon="-6.6438900">
        <ele>1183.6</ele>
        <time>2021-04-01T10:12:10Z</time>
      </trkpt>
      <trkpt lat="42.1819000" lon="-6.6438920">
        <ele>1183.8</ele>
        <time>2021-04-01T10:12:11Z</time>
      </trkpt>
      <trkpt lat="42.1819050" lon="-6.6438970">
        <ele>1184.0</ele>
        <time>2021-04-01T10:12:12Z</time>
      </trkpt>
      <trkpt lat="42.1819230" lon="-6.6439370">
        <ele>1184.4</ele>
        <time>2021-04-01T10:12:15Z</time>
      </trkpt>
      <trkpt lat="42.1819530" lon="-6.6439570">
        <ele>1184.6</ele>
        <time>2021-04-01T10:12:18Z</time>
      </trkpt>
      <trkpt lat="42.1820190" lon="-6.6440090">
        <ele>1185.0</ele>
        <time>2021-04-01T10:12:24Z</time>
      </trkpt>
      <trkpt lat="42.1820280" lon="-6.6440190">
        <ele>1185.2</ele>
        <time>2021-04-01T10:12:25Z</time>
      </trkpt>
      <trkpt lat="42.1820370" lon="-6.6440260">
        <ele>1185.4</ele>
        <time>2021-04-01T10:12:26Z</time>
      </trkpt>
      <trkpt lat="42.1820490" lon="-6.6440320">
        <ele>1185.6</ele>
        <time>2021-04-01T10:12:27Z</time>
      </trkpt>
      <trkpt lat="42.1820710" lon="-6.6440470">
        <ele>1185.4</ele>
        <time>2021-04-01T10:12:29Z</time>
      </trkpt>
      <trkpt lat="42.1820930" lon="-6.6440500">
        <ele>1185.6</ele>
        <time>2021-04-01T10:12:31Z</time>
      </trkpt>
      <trkpt lat="42.1821030" lon="-6.6440570">
        <ele>1185.6</ele>
        <time>2021-04-01T10:12:32Z</time>
      </trkpt>
      <trkpt lat="42.1821210" lon="-6.6440710">
        <ele>1185.8</ele>
        <time>2021-04-01T10:12:34Z</time>
      </trkpt>
      <trkpt lat="42.1821410" lon="-6.6440650">
        <ele>1186.0</ele>
        <time>2021-04-01T10:12:36Z</time>
      </trkpt>
      <trkpt lat="42.1821380" lon="-6.6440570">
        <ele>1186.4</ele>
        <time>2021-04-01T10:12:38Z</time>
      </trkpt>
      <trkpt lat="42.1821510" lon="-6.6440540">
        <ele>1186.4</ele>
        <time>2021-04-01T10:12:40Z</time>
      </trkpt>
      <trkpt lat="42.1821560" lon="-6.6440540">
        <ele>1186.4</ele>
        <time>2021-04-01T10:12:41Z</time>
      </trkpt>
      <trkpt lat="42.1821770" lon="-6.6440530">
        <ele>1186.8</ele>
        <time>2021-04-01T10:12:44Z</time>
      </trkpt>
      <trkpt lat="42.1821940" lon="-6.6440650">
        <ele>1187.2</ele>
        <time>2021-04-01T10:12:46Z</time>
      </trkpt>
      <trkpt lat="42.1822160" lon="-6.6440700">
        <ele>1187.6</ele>
        <time>2021-04-01T10:12:48Z</time>
      </trkpt>
      <trkpt lat="42.1822330" lon="-6.6440590">
        <ele>1187.8</ele>
        <time>2021-04-01T10:12:49Z</time>
      </trkpt>
      <trkpt lat="42.1822690" lon="-6.6440450">
        <ele>1188.0</ele>
        <time>2021-04-01T10:12:52Z</time>
      </trkpt>
      <trkpt lat="42.1822750" lon="-6.6440440">
        <ele>1188.2</ele>
        <time>2021-04-01T10:12:53Z</time>
      </trkpt>
      <trkpt lat="42.1823300" lon="-6.6440460">
        <ele>1189.2</ele>
        <time>2021-04-01T10:12:59Z</time>
      </trkpt>
      <trkpt lat="42.1823410" lon="-6.6440450">
        <ele>1189.4</ele>
        <time>2021-04-01T10:13:00Z</time>
      </trkpt>
      <trkpt lat="42.1823590" lon="-6.6440500">
        <ele>1189.6</ele>
        <time>2021-04-01T10:13:02Z</time>
      </trkpt>
      <trkpt lat="42.1824100" lon="-6.6440380">
        <ele>1190.4</ele>
        <time>2021-04-01T10:13:06Z</time>
      </trkpt>
      <trkpt lat="42.1824230" lon="-6.6440360">
        <ele>1190.6</ele>
        <time>2021-04-01T10:13:07Z</time>
      </trkpt>
      <trkpt lat="42.1824510" lon="-6.6440330">
        <ele>1191.0</ele>
        <time>2021-04-01T10:13:10Z</time>
      </trkpt>
      <trkpt lat="42.1824820" lon="-6.6440410">
        <ele>1191.4</ele>
        <time>2021-04-01T10:13:14Z</time>
      </trkpt>
      <trkpt lat="42.1824930" lon="-6.6440410">
        <ele>1191.6</ele>
        <time>2021-04-01T10:13:15Z</time>
      </trkpt>
      <trkpt lat="42.1825530" lon="-6.6440580">
        <ele>1191.8</ele>
        <time>2021-04-01T10:13:21Z</time>
      </trkpt>
      <trkpt lat="42.1825990" lon="-6.6440630">
        <ele>1192.2</ele>
        <time>2021-04-01T10:13:26Z</time>
      </trkpt>
      <trkpt lat="42.1826080" lon="-6.6440590">
        <ele>1192.4</ele>
        <time>2021-04-01T10:13:27Z</time>
      </trkpt>
      <trkpt lat="42.1826160" lon="-6.6440590">
        <ele>1192.6</ele>
        <time>2021-04-01T10:13:28Z</time>
      </trkpt>
      <trkpt lat="42.1826540" lon="-6.6440510">
        <ele>1193.6</ele>
        <time>2021-04-01T10:13:32Z</time>
      </trkpt>
      <trkpt lat="42.1826630" lon="-6.6440500">
        <ele>1193.8</ele>
        <time>2021-04-01T10:13:33Z</time>
      </trkpt>
      <trkpt lat="42.1826780" lon="-6.6440340">
        <ele>1194.0</ele>
        <time>2021-04-01T10:13:35Z</time>
      </trkpt>
      <trkpt lat="42.1827000" lon="-6.6440180">
        <ele>1194.4</ele>
        <time>2021-04-01T10:13:38Z</time>
      </trkpt>
      <trkpt lat="42.1827110" lon="-6.6440150">
        <ele>1194.8</ele>
        <time>2021-04-01T10:13:40Z</time>
      </trkpt>
      <trkpt lat="42.1827340" lon="-6.6440200">
        <ele>1195.2</ele>
        <time>2021-04-01T10:13:43Z</time>
      </trkpt>
      <trkpt lat="42.1827560" lon="-6.6440190">
        <ele>1195.6</ele>
        <time>2021-04-01T10:13:46Z</time>
      </trkpt>
      <trkpt lat="42.1827600" lon="-6.6440240">
        <ele>1195.8</ele>
        <time>2021-04-01T10:13:47Z</time>
      </trkpt>
      <trkpt lat="42.1827680" lon="-6.6440310">
        <ele>1195.8</ele>
        <time>2021-04-01T10:13:48Z</time>
      </trkpt>
      <trkpt lat="42.1827800" lon="-6.6440420">
        <ele>1196.2</ele>
        <time>2021-04-01T10:13:50Z</time>
      </trkpt>
      <trkpt lat="42.1828240" lon="-6.6440590">
        <ele>1197.0</ele>
        <time>2021-04-01T10:13:56Z</time>
      </trkpt>
      <trkpt lat="42.1828410" lon="-6.6440540">
        <ele>1197.2</ele>
        <time>2021-04-01T10:13:58Z</time>
      </trkpt>
      <trkpt lat="42.1828850" lon="-6.6440510">
        <ele>1198.2</ele>
        <time>2021-04-01T10:14:03Z</time>
      </trkpt>
      <trkpt lat="42.1828890" lon="-6.6440590">
        <ele>1198.4</ele>
        <time>2021-04-01T10:14:04Z</time>
      </trkpt>
      <trkpt lat="42.1829300" lon="-6.6440560">
        <ele>1199.2</ele>
        <time>2021-04-01T10:14:09Z</time>
      </trkpt>
      <trkpt lat="42.1829480" lon="-6.6440670">
        <ele>1199.6</ele>
        <time>2021-04-01T10:14:12Z</time>
      </trkpt>
      <trkpt lat="42.1829600" lon="-6.6440630">
        <ele>1199.8</ele>
        <time>2021-04-01T10:14:14Z</time>
      </trkpt>
      <trkpt lat="42.1829670" lon="-6.6440530">
        <ele>1199.8</ele>
        <time>2021-04-01T10:14:15Z</time>
      </trkpt>
      <trkpt lat="42.1829700" lon="-6.6440470">
        <ele>1200.0</ele>
        <time>2021-04-01T10:14:16Z</time>
      </trkpt>
      <trkpt lat="42.1829860" lon="-6.6440470">
        <ele>1200.4</ele>
        <time>2021-04-01T10:14:18Z</time>
      </trkpt>
      <trkpt lat="42.1830090" lon="-6.6440540">
        <ele>1201.0</ele>
        <time>2021-04-01T10:14:21Z</time>
      </trkpt>
      <trkpt lat="42.1830320" lon="-6.6440540">
        <ele>1201.6</ele>
        <time>2021-04-01T10:14:25Z</time>
      </trkpt>
      <trkpt lat="42.1830490" lon="-6.6440560">
        <ele>1202.0</ele>
        <time>2021-04-01T10:14:27Z</time>
      </trkpt>
      <trkpt lat="42.1830890" lon="-6.6440400">
        <ele>1202.6</ele>
        <time>2021-04-01T10:14:32Z</time>
      </trkpt>
      <trkpt lat="42.1830980" lon="-6.6440340">
        <ele>1203.0</ele>
        <time>2021-04-01T10:14:34Z</time>
      </trkpt>
      <trkpt lat="42.1831440" lon="-6.6440270">
        <ele>1203.6</ele>
        <time>2021-04-01T10:14:40Z</time>
      </trkpt>
      <trkpt lat="42.1831510" lon="-6.6440230">
        <ele>1203.8</ele>
        <time>2021-04-01T10:14:41Z</time>
      </trkpt>
      <trkpt lat="42.1831820" lon="-6.6440170">
        <ele>1204.8</ele>
        <time>2021-04-01T10:14:46Z</time>
      </trkpt>
      <trkpt lat="42.1832330" lon="-6.6439920">
        <ele>1205.2</ele>
        <time>2021-04-01T10:14:52Z</time>
      </trkpt>
      <trkpt lat="42.1832500" lon="-6.6439890">
        <ele>1205.6</ele>
        <time>2021-04-01T10:14:54Z</time>
      </trkpt>
      <trkpt lat="42.1832640" lon="-6.6440050">
        <ele>1206.0</ele>
        <time>2021-04-01T10:14:56Z</time>
      </trkpt>
      <trkpt lat="42.1832820" lon="-6.6440120">
        <ele>1206.6</ele>
        <time>2021-04-01T10:14:59Z</time>
      </trkpt>
      <trkpt lat="42.1832990" lon="-6.6440050">
        <ele>1207.0</ele>
        <time>2021-04-01T10:15:01Z</time>
      </trkpt>
      <trkpt lat="42.1833320" lon="-6.6440010">
        <ele>1208.0</ele>
        <time>2021-04-01T10:15:05Z</time>
      </trkpt>
      <trkpt lat="42.1833400" lon="-6.6439980">
        <ele>1208.2</ele>
        <time>2021-04-01T10:15:06Z</time>
      </trkpt>
      <trkpt lat="42.1833680" lon="-6.6440120">
        <ele>1209.0</ele>
        <time>2021-04-01T10:15:11Z</time>
      </trkpt>
      <trkpt lat="42.1833790" lon="-6.6440240">
        <ele>1209.0</ele>
        <time>2021-04-01T10:15:14Z</time>
      </trkpt>
      <trkpt lat="42.1833980" lon="-6.6440350">
        <ele>1209.6</ele>
        <time>2021-04-01T10:15:17Z</time>
      </trkpt>
      <trkpt lat="42.1834190" lon="-6.6440460">
        <ele>1210.2</ele>
        <time>2021-04-01T10:15:22Z</time>
      </trkpt>
      <trkpt lat="42.1834360" lon="-6.6440450">
        <ele>1210.8</ele>
        <time>2021-04-01T10:15:24Z</time>
      </trkpt>
      <trkpt lat="42.1834650" lon="-6.6440280">
        <ele>1211.4</ele>
        <time>2021-04-01T10:15:27Z</time>
      </trkpt>
      <trkpt lat="42.1835040" lon="-6.6440170">
        <ele>1211.8</ele>
        <time>2021-04-01T10:15:32Z</time>
      </trkpt>
      <trkpt lat="42.1835200" lon="-6.6440340">
        <ele>1212.4</ele>
        <time>2021-04-01T10:15:35Z</time>
      </trkpt>
      <trkpt lat="42.1835150" lon="-6.6440390">
        <ele>1212.6</ele>
        <time>2021-04-01T10:15:36Z</time>
      </trkpt>
      <trkpt lat="42.1835180" lon="-6.6440300">
        <ele>1212.8</ele>
        <time>2021-04-01T10:15:38Z</time>
      </trkpt>
      <trkpt lat="42.1835370" lon="-6.6440140">
        <ele>1213.0</ele>
        <time>2021-04-01T10:15:40Z</time>
      </trkpt>
      <trkpt lat="42.1835610" lon="-6.6439990">
        <ele>1213.6</ele>
        <time>2021-04-01T10:15:43Z</time>
      </trkpt>
      <trkpt lat="42.1835670" lon="-6.6439930">
        <ele>1213.6</ele>
        <time>2021-04-01T10:15:44Z</time>
      </trkpt>
      <trkpt lat="42.1835920" lon="-6.6439780">
        <ele>1213.8</ele>
        <time>2021-04-01T10:15:50Z</time>
      </trkpt>
      <trkpt lat="42.1835980" lon="-6.6439880">
        <ele>1214.0</ele>
        <time>2021-04-01T10:15:59Z</time>
      </trkpt>
      <trkpt lat="42.1836070" lon="-6.6439690">
        <ele>1214.2</ele>
        <time>2021-04-01T10:16:06Z</time>
      </trkpt>
      <trkpt lat="42.1836120" lon="-6.6439630">
        <ele>1214.0</ele>
        <time>2021-04-01T10:16:07Z</time>
      </trkpt>
      <trkpt lat="42.1836160" lon="-6.6439480">
        <ele>1214.0</ele>
        <time>2021-04-01T10:16:11Z</time>
      </trkpt>
      <trkpt lat="42.1836090" lon="-6.6439520">
        <ele>1214.0</ele>
        <time>2021-04-01T10:16:14Z</time>
      </trkpt>
      <trkpt lat="42.1835980" lon="-6.6439610">
        <ele>1214.0</ele>
        <time>2021-04-01T10:16:16Z</time>
      </trkpt>
      <trkpt lat="42.1835810" lon="-6.6439990">
        <ele>1214.2</ele>
        <time>2021-04-01T10:16:18Z</time>
      </trkpt>
      <trkpt lat="42.1835540" lon="-6.6440440">
        <ele>1214.0</ele>
        <time>2021-04-01T10:16:24Z</time>
      </trkpt>
      <trkpt lat="42.1835650" lon="-6.6440410">
        <ele>1214.0</ele>
        <time>2021-04-01T10:16:25Z</time>
      </trkpt>
      <trkpt lat="42.1835930" lon="-6.6440270">
        <ele>1214.0</ele>
        <time>2021-04-01T10:16:27Z</time>
      </trkpt>
      <trkpt lat="42.1836550" lon="-6.6440190">
        <ele>1214.6</ele>
        <time>2021-04-01T10:16:32Z</time>
      </trkpt>
      <trkpt lat="42.1836660" lon="-6.6440170">
        <ele>1214.8</ele>
        <time>2021-04-01T10:16:33Z</time>
      </trkpt>
      <trkpt lat="42.1837340" lon="-6.6439990">
        <ele>1215.2</ele>
        <time>2021-04-01T10:16:39Z</time>
      </trkpt>
      <trkpt lat="42.1837450" lon="-6.6439890">
        <ele>1215.2</ele>
        <time>2021-04-01T10:16:40Z</time>
      </trkpt>
      <trkpt lat="42.1837650" lon="-6.6439910">
        <ele>1215.6</ele>
        <time>2021-04-01T10:16:42Z</time>
      </trkpt>
      <trkpt lat="42.1837880" lon="-6.6439780">
        <ele>1216.0</ele>
        <time>2021-04-01T10:16:44Z</time>
      </trkpt>
      <trkpt lat="42.1838110" lon="-6.6439750">
        <ele>1216.2</ele>
        <time>2021-04-01T10:16:46Z</time>
      </trkpt>
      <trkpt lat="42.1838830" lon="-6.6439460">
        <ele>1217.0</ele>
        <time>2021-04-01T10:16:53Z</time>
      </trkpt>
      <trkpt lat="42.1839020" lon="-6.6439480">
        <ele>1217.6</ele>
        <time>2021-04-01T10:16:55Z</time>
      </trkpt>
      <trkpt lat="42.1839090" lon="-6.6439500">
        <ele>1217.8</ele>
        <time>2021-04-01T10:16:56Z</time>
      </trkpt>
      <trkpt lat="42.1839290" lon="-6.6439510">
        <ele>1218.2</ele>
        <time>2021-04-01T10:16:58Z</time>
      </trkpt>
      <trkpt lat="42.1839390" lon="-6.6439510">
        <ele>1218.2</ele>
        <time>2021-04-01T10:16:59Z</time>
      </trkpt>
      <trkpt lat="42.1839470" lon="-6.6439500">
        <ele>1218.4</ele>
        <time>2021-04-01T10:17:00Z</time>
      </trkpt>
      <trkpt lat="42.1839540" lon="-6.6439530">
        <ele>1218.4</ele>
        <time>2021-04-01T10:17:01Z</time>
      </trkpt>
      <trkpt lat="42.1839940" lon="-6.6439640">
        <ele>1219.2</ele>
        <time>2021-04-01T10:17:07Z</time>
      </trkpt>
      <trkpt lat="42.1840020" lon="-6.6439660">
        <ele>1219.6</ele>
        <time>2021-04-01T10:17:08Z</time>
      </trkpt>
      <trkpt lat="42.1840290" lon="-6.6439650">
        <ele>1220.0</ele>
        <time>2021-04-01T10:17:11Z</time>
      </trkpt>
      <trkpt lat="42.1840480" lon="-6.6439700">
        <ele>1220.2</ele>
        <time>2021-04-01T10:17:13Z</time>
      </trkpt>
      <trkpt lat="42.1840570" lon="-6.6439630">
        <ele>1220.2</ele>
        <time>2021-04-01T10:17:14Z</time>
      </trkpt>
      <trkpt lat="42.1840620" lon="-6.6439670">
        <ele>1220.4</ele>
        <time>2021-04-01T10:17:15Z</time>
      </trkpt>
      <trkpt lat="42.1840660" lon="-6.6439670">
        <ele>1220.4</ele>
        <time>2021-04-01T10:17:16Z</time>
      </trkpt>
      <trkpt lat="42.1840700" lon="-6.6439710">
        <ele>1220.4</ele>
        <time>2021-04-01T10:17:17Z</time>
      </trkpt>
      <trkpt lat="42.1840780" lon="-6.6439730">
        <ele>1220.4</ele>
        <time>2021-04-01T10:17:18Z</time>
      </trkpt>
      <trkpt lat="42.1840910" lon="-6.6439780">
        <ele>1220.6</ele>
        <time>2021-04-01T10:17:20Z</time>
      </trkpt>
      <trkpt lat="42.1841080" lon="-6.6439730">
        <ele>1220.8</ele>
        <time>2021-04-01T10:17:22Z</time>
      </trkpt>
      <trkpt lat="42.1841140" lon="-6.6439670">
        <ele>1220.8</ele>
        <time>2021-04-01T10:17:23Z</time>
      </trkpt>
      <trkpt lat="42.1841360" lon="-6.6439640">
        <ele>1221.2</ele>
        <time>2021-04-01T10:17:26Z</time>
      </trkpt>
      <trkpt lat="42.1841430" lon="-6.6439620">
        <ele>1221.4</ele>
        <time>2021-04-01T10:17:27Z</time>
      </trkpt>
      <trkpt lat="42.1841510" lon="-6.6439620">
        <ele>1221.6</ele>
        <time>2021-04-01T10:17:28Z</time>
      </trkpt>
      <trkpt lat="42.1841580" lon="-6.6439670">
        <ele>1221.8</ele>
        <time>2021-04-01T10:17:29Z</time>
      </trkpt>
      <trkpt lat="42.1841840" lon="-6.6439860">
        <ele>1222.2</ele>
        <time>2021-04-01T10:17:33Z</time>
      </trkpt>
      <trkpt lat="42.1842170" lon="-6.6440050">
        <ele>1223.0</ele>
        <time>2021-04-01T10:17:37Z</time>
      </trkpt>
      <trkpt lat="42.1842340" lon="-6.6440090">
        <ele>1223.2</ele>
        <time>2021-04-01T10:17:39Z</time>
      </trkpt>
      <trkpt lat="42.1842380" lon="-6.6440140">
        <ele>1223.4</ele>
        <time>2021-04-01T10:17:40Z</time>
      </trkpt>
      <trkpt lat="42.1842450" lon="-6.6440240">
        <ele>1223.6</ele>
        <time>2021-04-01T10:17:41Z</time>
      </trkpt>
      <trkpt lat="42.1842510" lon="-6.6440290">
        <ele>1223.8</ele>
        <time>2021-04-01T10:17:42Z</time>
      </trkpt>
      <trkpt lat="42.1842630" lon="-6.6440330">
        <ele>1224.2</ele>
        <time>2021-04-01T10:17:45Z</time>
      </trkpt>
      <trkpt lat="42.1842690" lon="-6.6440360">
        <ele>1224.4</ele>
        <time>2021-04-01T10:17:46Z</time>
      </trkpt>
      <trkpt lat="42.1842760" lon="-6.6440500">
        <ele>1224.6</ele>
        <time>2021-04-01T10:17:49Z</time>
      </trkpt>
      <trkpt lat="42.1842780" lon="-6.6440600">
        <ele>1224.6</ele>
        <time>2021-04-01T10:17:51Z</time>
      </trkpt>
      <trkpt lat="42.1843220" lon="-6.6440710">
        <ele>1225.4</ele>
        <time>2021-04-01T10:17:59Z</time>
      </trkpt>
      <trkpt lat="42.1843310" lon="-6.6440760">
        <ele>1225.6</ele>
        <time>2021-04-01T10:18:00Z</time>
      </trkpt>
      <trkpt lat="42.1843520" lon="-6.6440790">
        <ele>1226.0</ele>
        <time>2021-04-01T10:18:03Z</time>
      </trkpt>
      <trkpt lat="42.1843710" lon="-6.6440810">
        <ele>1226.6</ele>
        <time>2021-04-01T10:18:05Z</time>
      </trkpt>
      <trkpt lat="42.1843800" lon="-6.6440820">
        <ele>1226.8</ele>
        <time>2021-04-01T10:18:06Z</time>
      </trkpt>
      <trkpt lat="42.1843870" lon="-6.6440840">
        <ele>1227.0</ele>
        <time>2021-04-01T10:18:07Z</time>
      </trkpt>
      <trkpt lat="42.1843980" lon="-6.6440990">
        <ele>1227.2</ele>
        <time>2021-04-01T10:18:09Z</time>
      </trkpt>
      <trkpt lat="42.1844190" lon="-6.6441040">
        <ele>1227.4</ele>
        <time>2021-04-01T10:18:12Z</time>
      </trkpt>
      <trkpt lat="42.1844330" lon="-6.6441310">
        <ele>1228.0</ele>
        <time>2021-04-01T10:18:17Z</time>
      </trkpt>
      <trkpt lat="42.1844770" lon="-6.6441310">
        <ele>1229.0</ele>
        <time>2021-04-01T10:18:25Z</time>
      </trkpt>
      <trkpt lat="42.1844920" lon="-6.6441270">
        <ele>1229.0</ele>
        <time>2021-04-01T10:18:27Z</time>
      </trkpt>
      <trkpt lat="42.1845430" lon="-6.6441150">
        <ele>1229.2</ele>
        <time>2021-04-01T10:18:34Z</time>
      </trkpt>
      <trkpt lat="42.1845690" lon="-6.6441140">
        <ele>1230.0</ele>
        <time>2021-04-01T10:18:38Z</time>
      </trkpt>
      <trkpt lat="42.1845840" lon="-6.6441280">
        <ele>1230.4</ele>
        <time>2021-04-01T10:18:41Z</time>
      </trkpt>
      <trkpt lat="42.1845950" lon="-6.6441300">
        <ele>1231.0</ele>
        <time>2021-04-01T10:18:44Z</time>
      </trkpt>
      <trkpt lat="42.1846050" lon="-6.6441380">
        <ele>1231.2</ele>
        <time>2021-04-01T10:18:46Z</time>
      </trkpt>
      <trkpt lat="42.1846140" lon="-6.6441500">
        <ele>1231.4</ele>
        <time>2021-04-01T10:18:48Z</time>
      </trkpt>
      <trkpt lat="42.1846270" lon="-6.6441590">
        <ele>1231.4</ele>
        <time>2021-04-01T10:18:50Z</time>
      </trkpt>
      <trkpt lat="42.1846660" lon="-6.6441830">
        <ele>1231.8</ele>
        <time>2021-04-01T10:18:53Z</time>
      </trkpt>
      <trkpt lat="42.1846940" lon="-6.6441760">
        <ele>1232.0</ele>
        <time>2021-04-01T10:18:55Z</time>
      </trkpt>
      <trkpt lat="42.1847090" lon="-6.6441740">
        <ele>1232.4</ele>
        <time>2021-04-01T10:18:56Z</time>
      </trkpt>
      <trkpt lat="42.1847400" lon="-6.6441800">
        <ele>1233.0</ele>
        <time>2021-04-01T10:18:58Z</time>
      </trkpt>
      <trkpt lat="42.1847720" lon="-6.6441830">
        <ele>1233.8</ele>
        <time>2021-04-01T10:19:00Z</time>
      </trkpt>
      <trkpt lat="42.1848030" lon="-6.6441990">
        <ele>1235.0</ele>
        <time>2021-04-01T10:19:02Z</time>
      </trkpt>
      <trkpt lat="42.1848290" lon="-6.6441950">
        <ele>1236.2</ele>
        <time>2021-04-01T10:19:05Z</time>
      </trkpt>
      <trkpt lat="42.1848290" lon="-6.6442360">
        <ele>1236.6</ele>
        <time>2021-04-01T10:19:12Z</time>
      </trkpt>
      <trkpt lat="42.1848090" lon="-6.6442490">
        <ele>1236.4</ele>
        <time>2021-04-01T10:19:20Z</time>
      </trkpt>
      <trkpt lat="42.1848000" lon="-6.6442570">
        <ele>1236.6</ele>
        <time>2021-04-01T10:19:24Z</time>
      </trkpt>
      <trkpt lat="42.1848260" lon="-6.6442170">
        <ele>1236.8</ele>
        <time>2021-04-01T10:19:27Z</time>
      </trkpt>
      <trkpt lat="42.1848340" lon="-6.6442250">
        <ele>1236.8</ele>
        <time>2021-04-01T10:19:33Z</time>
      </trkpt>
      <trkpt lat="42.1848490" lon="-6.6442290">
        <ele>1236.8</ele>
        <time>2021-04-01T10:19:39Z</time>
      </trkpt>
      <trkpt lat="42.1848580" lon="-6.6442410">
        <ele>1237.0</ele>
        <time>2021-04-01T10:19:42Z</time>
      </trkpt>
      <trkpt lat="42.1848840" lon="-6.6442510">
        <ele>1237.4</ele>
        <time>2021-04-01T10:19:45Z</time>
      </trkpt>
      <trkpt lat="42.1849290" lon="-6.6442500">
        <ele>1238.4</ele>
        <time>2021-04-01T10:19:50Z</time>
      </trkpt>
      <trkpt lat="42.1849370" lon="-6.6442490">
        <ele>1238.8</ele>
        <time>2021-04-01T10:19:51Z</time>
      </trkpt>
      <trkpt lat="42.1849570" lon="-6.6442400">
        <ele>1239.0</ele>
        <time>2021-04-01T10:19:53Z</time>
      </trkpt>
      <trkpt lat="42.1850060" lon="-6.6442390">
        <ele>1239.2</ele>
        <time>2021-04-01T10:19:58Z</time>
      </trkpt>
      <trkpt lat="42.1850070" lon="-6.6442450">
        <ele>1239.2</ele>
        <time>2021-04-01T10:19:59Z</time>
      </trkpt>
      <trkpt lat="42.1850050" lon="-6.6442530">
        <ele>1239.4</ele>
        <time>2021-04-01T10:20:00Z</time>
      </trkpt>
      <trkpt lat="42.1850020" lon="-6.6442650">
        <ele>1239.4</ele>
        <time>2021-04-01T10:20:04Z</time>
      </trkpt>
      <trkpt lat="42.1850000" lon="-6.6442640">
        <ele>1239.6</ele>
        <time>2021-04-01T10:20:05Z</time>
      </trkpt>
      <trkpt lat="42.1850100" lon="-6.6442600">
        <ele>1239.6</ele>
        <time>2021-04-01T10:20:09Z</time>
      </trkpt>
      <trkpt lat="42.1850820" lon="-6.6442740">
        <ele>1239.8</ele>
        <time>2021-04-01T10:20:17Z</time>
      </trkpt>
      <trkpt lat="42.1850880" lon="-6.6442750">
        <ele>1239.8</ele>
        <time>2021-04-01T10:20:18Z</time>
      </trkpt>
      <trkpt lat="42.1850950" lon="-6.6442850">
        <ele>1239.8</ele>
        <time>2021-04-01T10:20:19Z</time>
      </trkpt>
      <trkpt lat="42.1851160" lon="-6.6442930">
        <ele>1239.8</ele>
        <time>2021-04-01T10:20:21Z</time>
      </trkpt>
      <trkpt lat="42.1851290" lon="-6.6442950">
        <ele>1239.8</ele>
        <time>2021-04-01T10:20:22Z</time>
      </trkpt>
      <trkpt lat="42.1851490" lon="-6.6443020">
        <ele>1240.0</ele>
        <time>2021-04-01T10:20:25Z</time>
      </trkpt>
      <trkpt lat="42.1851530" lon="-6.6442970">
        <ele>1240.2</ele>
        <time>2021-04-01T10:20:26Z</time>
      </trkpt>
      <trkpt lat="42.1851690" lon="-6.6442930">
        <ele>1240.4</ele>
        <time>2021-04-01T10:20:28Z</time>
      </trkpt>
      <trkpt lat="42.1851770" lon="-6.6442910">
        <ele>1240.8</ele>
        <time>2021-04-01T10:20:29Z</time>
      </trkpt>
      <trkpt lat="42.1851960" lon="-6.6442830">
        <ele>1241.0</ele>
        <time>2021-04-01T10:20:31Z</time>
      </trkpt>
      <trkpt lat="42.1852060" lon="-6.6442770">
        <ele>1241.2</ele>
        <time>2021-04-01T10:20:32Z</time>
      </trkpt>
      <trkpt lat="42.1852200" lon="-6.6442610">
        <ele>1241.8</ele>
        <time>2021-04-01T10:20:35Z</time>
      </trkpt>
      <trkpt lat="42.1852400" lon="-6.6442540">
        <ele>1242.6</ele>
        <time>2021-04-01T10:20:40Z</time>
      </trkpt>
      <trkpt lat="42.1852400" lon="-6.6442630">
        <ele>1243.0</ele>
        <time>2021-04-01T10:20:42Z</time>
      </trkpt>
      <trkpt lat="42.1852590" lon="-6.6442670">
        <ele>1243.6</ele>
        <time>2021-04-01T10:20:44Z</time>
      </trkpt>
      <trkpt lat="42.1852740" lon="-6.6442550">
        <ele>1243.6</ele>
        <time>2021-04-01T10:20:47Z</time>
      </trkpt>
      <trkpt lat="42.1852820" lon="-6.6442460">
        <ele>1243.6</ele>
        <time>2021-04-01T10:20:48Z</time>
      </trkpt>
      <trkpt lat="42.1852890" lon="-6.6442280">
        <ele>1243.4</ele>
        <time>2021-04-01T10:20:51Z</time>
      </trkpt>
      <trkpt lat="42.1852900" lon="-6.6442150">
        <ele>1243.6</ele>
        <time>2021-04-01T10:20:55Z</time>
      </trkpt>
      <trkpt lat="42.1853250" lon="-6.6442200">
        <ele>1243.6</ele>
        <time>2021-04-01T10:21:01Z</time>
      </trkpt>
      <trkpt lat="42.1853290" lon="-6.6442120">
        <ele>1243.8</ele>
        <time>2021-04-01T10:21:02Z</time>
      </trkpt>
      <trkpt lat="42.1853390" lon="-6.6441930">
        <ele>1243.8</ele>
        <time>2021-04-01T10:21:04Z</time>
      </trkpt>
      <trkpt lat="42.1853600" lon="-6.6441680">
        <ele>1243.8</ele>
        <time>2021-04-01T10:21:08Z</time>
      </trkpt>
      <trkpt lat="42.1853700" lon="-6.6441490">
        <ele>1244.0</ele>
        <time>2021-04-01T10:21:11Z</time>
      </trkpt>
      <trkpt lat="42.1853810" lon="-6.6441340">
        <ele>1244.0</ele>
        <time>2021-04-01T10:21:12Z</time>
      </trkpt>
      <trkpt lat="42.1854020" lon="-6.6441130">
        <ele>1244.4</ele>
        <time>2021-04-01T10:21:14Z</time>
      </trkpt>
      <trkpt lat="42.1854300" lon="-6.6440870">
        <ele>1245.0</ele>
        <time>2021-04-01T10:21:17Z</time>
      </trkpt>
      <trkpt lat="42.1854420" lon="-6.6440770">
        <ele>1245.2</ele>
        <time>2021-04-01T10:21:18Z</time>
      </trkpt>
      <trkpt lat="42.1854780" lon="-6.6440490">
        <ele>1245.4</ele>
        <time>2021-04-01T10:21:21Z</time>
      </trkpt>
      <trkpt lat="42.1854920" lon="-6.6440300">
        <ele>1245.4</ele>
        <time>2021-04-01T10:21:23Z</time>
      </trkpt>
      <trkpt lat="42.1855150" lon="-6.6440160">
        <ele>1245.2</ele>
        <time>2021-04-01T10:21:26Z</time>
      </trkpt>
      <trkpt lat="42.1855200" lon="-6.6440060">
        <ele>1245.4</ele>
        <time>2021-04-01T10:21:27Z</time>
      </trkpt>
      <trkpt lat="42.1855400" lon="-6.6439820">
        <ele>1245.4</ele>
        <time>2021-04-01T10:21:30Z</time>
      </trkpt>
      <trkpt lat="42.1855510" lon="-6.6439690">
        <ele>1245.4</ele>
        <time>2021-04-01T10:21:33Z</time>
      </trkpt>
      <trkpt lat="42.1855690" lon="-6.6439540">
        <ele>1245.0</ele>
        <time>2021-04-01T10:21:35Z</time>
      </trkpt>
      <trkpt lat="42.1855730" lon="-6.6439520">
        <ele>1244.8</ele>
        <time>2021-04-01T10:21:36Z</time>
      </trkpt>
      <trkpt lat="42.1855910" lon="-6.6439500">
        <ele>1244.6</ele>
        <time>2021-04-01T10:21:39Z</time>
      </trkpt>
      <trkpt lat="42.1856030" lon="-6.6439530">
        <ele>1245.0</ele>
        <time>2021-04-01T10:21:41Z</time>
      </trkpt>
      <trkpt lat="42.1856230" lon="-6.6439590">
        <ele>1245.6</ele>
        <time>2021-04-01T10:21:44Z</time>
      </trkpt>
      <trkpt lat="42.1856570" lon="-6.6439380">
        <ele>1246.2</ele>
        <time>2021-04-01T10:21:50Z</time>
      </trkpt>
      <trkpt lat="42.1856950" lon="-6.6439660">
        <ele>1245.8</ele>
        <time>2021-04-01T10:21:56Z</time>
      </trkpt>
      <trkpt lat="42.1857050" lon="-6.6439650">
        <ele>1245.6</ele>
        <time>2021-04-01T10:21:57Z</time>
      </trkpt>
      <trkpt lat="42.1857590" lon="-6.6439980">
        <ele>1245.6</ele>
        <time>2021-04-01T10:22:02Z</time>
      </trkpt>
      <trkpt lat="42.1858400" lon="-6.6440180">
        <ele>1245.2</ele>
        <time>2021-04-01T10:22:09Z</time>
      </trkpt>
      <trkpt lat="42.1858650" lon="-6.6440230">
        <ele>1245.0</ele>
        <time>2021-04-01T10:22:11Z</time>
      </trkpt>
      <trkpt lat="42.1859460" lon="-6.6440550">
        <ele>1244.6</ele>
        <time>2021-04-01T10:22:19Z</time>
      </trkpt>
      <trkpt lat="42.1859900" lon="-6.6440690">
        <ele>1244.6</ele>
        <time>2021-04-01T10:22:23Z</time>
      </trkpt>
      <trkpt lat="42.1860410" lon="-6.6440690">
        <ele>1244.6</ele>
        <time>2021-04-01T10:22:27Z</time>
      </trkpt>
      <trkpt lat="42.1861010" lon="-6.6440880">
        <ele>1244.0</ele>
        <time>2021-04-01T10:22:33Z</time>
      </trkpt>
      <trkpt lat="42.1861080" lon="-6.6440970">
        <ele>1243.8</ele>
        <time>2021-04-01T10:22:34Z</time>
      </trkpt>
      <trkpt lat="42.1861380" lon="-6.6441560">
        <ele>1243.8</ele>
        <time>2021-04-01T10:22:38Z</time>
      </trkpt>
      <trkpt lat="42.1861550" lon="-6.6441750">
        <ele>1244.0</ele>
        <time>2021-04-01T10:22:41Z</time>
      </trkpt>
      <trkpt lat="42.1861870" lon="-6.6442110">
        <ele>1244.2</ele>
        <time>2021-04-01T10:22:46Z</time>
      </trkpt>
      <trkpt lat="42.1862000" lon="-6.6442270">
        <ele>1244.4</ele>
        <time>2021-04-01T10:22:48Z</time>
      </trkpt>
      <trkpt lat="42.1862120" lon="-6.6442440">
        <ele>1244.8</ele>
        <time>2021-04-01T10:22:51Z</time>
      </trkpt>
      <trkpt lat="42.1862090" lon="-6.6442450">
        <ele>1244.8</ele>
        <time>2021-04-01T10:22:54Z</time>
      </trkpt>
      <trkpt lat="42.1862120" lon="-6.6442490">
        <ele>1244.8</ele>
        <time>2021-04-01T10:22:55Z</time>
      </trkpt>
      <trkpt lat="42.1862220" lon="-6.6442600">
        <ele>1244.8</ele>
        <time>2021-04-01T10:22:57Z</time>
      </trkpt>
      <trkpt lat="42.1862350" lon="-6.6442690">
        <ele>1244.8</ele>
        <time>2021-04-01T10:22:59Z</time>
      </trkpt>
      <trkpt lat="42.1862730" lon="-6.6443070">
        <ele>1244.6</ele>
        <time>2021-04-01T10:23:04Z</time>
      </trkpt>
      <trkpt lat="42.1863210" lon="-6.6443820">
        <ele>1245.2</ele>
        <time>2021-04-01T10:23:11Z</time>
      </trkpt>
      <trkpt lat="42.1863300" lon="-6.6443850">
        <ele>1245.2</ele>
        <time>2021-04-01T10:23:12Z</time>
      </trkpt>
      <trkpt lat="42.1863840" lon="-6.6444330">
        <ele>1246.0</ele>
        <time>2021-04-01T10:23:19Z</time>
      </trkpt>
      <trkpt lat="42.1863900" lon="-6.6444450">
        <ele>1246.2</ele>
        <time>2021-04-01T10:23:20Z</time>
      </trkpt>
      <trkpt lat="42.1863970" lon="-6.6444520">
        <ele>1246.2</ele>
        <time>2021-04-01T10:23:21Z</time>
      </trkpt>
      <trkpt lat="42.1864380" lon="-6.6444670">
        <ele>1246.8</ele>
        <time>2021-04-01T10:23:26Z</time>
      </trkpt>
      <trkpt lat="42.1864480" lon="-6.6444690">
        <ele>1247.0</ele>
        <time>2021-04-01T10:23:27Z</time>
      </trkpt>
      <trkpt lat="42.1864580" lon="-6.6444710">
        <ele>1247.0</ele>
        <time>2021-04-01T10:23:28Z</time>
      </trkpt>
      <trkpt lat="42.1864860" lon="-6.6444790">
        <ele>1247.2</ele>
        <time>2021-04-01T10:23:31Z</time>
      </trkpt>
      <trkpt lat="42.1865050" lon="-6.6444910">
        <ele>1247.2</ele>
        <time>2021-04-01T10:23:33Z</time>
      </trkpt>
      <trkpt lat="42.1865450" lon="-6.6445140">
        <ele>1247.4</ele>
        <time>2021-04-01T10:23:37Z</time>
      </trkpt>
      <trkpt lat="42.1865610" lon="-6.6445310">
        <ele>1247.8</ele>
        <time>2021-04-01T10:23:39Z</time>
      </trkpt>
      <trkpt lat="42.1865680" lon="-6.6445380">
        <ele>1247.8</ele>
        <time>2021-04-01T10:23:40Z</time>
      </trkpt>
      <trkpt lat="42.1865840" lon="-6.6445480">
        <ele>1248.0</ele>
        <time>2021-04-01T10:23:42Z</time>
      </trkpt>
      <trkpt lat="42.1865920" lon="-6.6445510">
        <ele>1248.2</ele>
        <time>2021-04-01T10:23:43Z</time>
      </trkpt>
      <trkpt lat="42.1866120" lon="-6.6445620">
        <ele>1248.4</ele>
        <time>2021-04-01T10:23:45Z</time>
      </trkpt>
      <trkpt lat="42.1866340" lon="-6.6445750">
        <ele>1248.4</ele>
        <time>2021-04-01T10:23:47Z</time>
      </trkpt>
      <trkpt lat="42.1866430" lon="-6.6445830">
        <ele>1248.4</ele>
        <time>2021-04-01T10:23:48Z</time>
      </trkpt>
      <trkpt lat="42.1866590" lon="-6.6446040">
        <ele>1248.6</ele>
        <time>2021-04-01T10:23:50Z</time>
      </trkpt>
      <trkpt lat="42.1866690" lon="-6.6446170">
        <ele>1248.6</ele>
        <time>2021-04-01T10:23:51Z</time>
      </trkpt>
      <trkpt lat="42.1867010" lon="-6.6446430">
        <ele>1248.8</ele>
        <time>2021-04-01T10:23:55Z</time>
      </trkpt>
      <trkpt lat="42.1867100" lon="-6.6446470">
        <ele>1249.0</ele>
        <time>2021-04-01T10:23:56Z</time>
      </trkpt>
      <trkpt lat="42.1867290" lon="-6.6446600">
        <ele>1249.4</ele>
        <time>2021-04-01T10:23:58Z</time>
      </trkpt>
      <trkpt lat="42.1867730" lon="-6.6446830">
        <ele>1249.8</ele>
        <time>2021-04-01T10:24:03Z</time>
      </trkpt>
      <trkpt lat="42.1867790" lon="-6.6446870">
        <ele>1249.8</ele>
        <time>2021-04-01T10:24:04Z</time>
      </trkpt>
      <trkpt lat="42.1867900" lon="-6.6446930">
        <ele>1250.0</ele>
        <time>2021-04-01T10:24:06Z</time>
      </trkpt>
      <trkpt lat="42.1868040" lon="-6.6446900">
        <ele>1250.0</ele>
        <time>2021-04-01T10:24:08Z</time>
      </trkpt>
      <trkpt lat="42.1868130" lon="-6.6446910">
        <ele>1250.2</ele>
        <time>2021-04-01T10:24:09Z</time>
      </trkpt>
      <trkpt lat="42.1868430" lon="-6.6446980">
        <ele>1250.4</ele>
        <time>2021-04-01T10:24:12Z</time>
      </trkpt>
      <trkpt lat="42.1868660" lon="-6.6447060">
        <ele>1250.8</ele>
        <time>2021-04-01T10:24:15Z</time>
      </trkpt>
      <trkpt lat="42.1868790" lon="-6.6447000">
        <ele>1251.0</ele>
        <time>2021-04-01T10:24:17Z</time>
      </trkpt>
      <trkpt lat="42.1869180" lon="-6.6447320">
        <ele>1251.4</ele>
        <time>2021-04-01T10:24:23Z</time>
      </trkpt>
      <trkpt lat="42.1869270" lon="-6.6447380">
        <ele>1251.4</ele>
        <time>2021-04-01T10:24:24Z</time>
      </trkpt>
      <trkpt lat="42.1869570" lon="-6.6447720">
        <ele>1251.6</ele>
        <time>2021-04-01T10:24:28Z</time>
      </trkpt>
      <trkpt lat="42.1869630" lon="-6.6447720">
        <ele>1251.8</ele>
        <time>2021-04-01T10:24:29Z</time>
      </trkpt>
      <trkpt lat="42.1869860" lon="-6.6447730">
        <ele>1252.2</ele>
        <time>2021-04-01T10:24:32Z</time>
      </trkpt>
      <trkpt lat="42.1870100" lon="-6.6447770">
        <ele>1252.2</ele>
        <time>2021-04-01T10:24:35Z</time>
      </trkpt>
      <trkpt lat="42.1870270" lon="-6.6447890">
        <ele>1252.6</ele>
        <time>2021-04-01T10:24:37Z</time>
      </trkpt>
      <trkpt lat="42.1870440" lon="-6.6447960">
        <ele>1253.2</ele>
        <time>2021-04-01T10:24:39Z</time>
      </trkpt>
      <trkpt lat="42.1870630" lon="-6.6447950">
        <ele>1253.6</ele>
        <time>2021-04-01T10:24:41Z</time>
      </trkpt>
      <trkpt lat="42.1870710" lon="-6.6448140">
        <ele>1253.6</ele>
        <time>2021-04-01T10:24:43Z</time>
      </trkpt>
      <trkpt lat="42.1870750" lon="-6.6448140">
        <ele>1253.8</ele>
        <time>2021-04-01T10:24:44Z</time>
      </trkpt>
      <trkpt lat="42.1871070" lon="-6.6448390">
        <ele>1254.6</ele>
        <time>2021-04-01T10:24:50Z</time>
      </trkpt>
      <trkpt lat="42.1871150" lon="-6.6448430">
        <ele>1254.6</ele>
        <time>2021-04-01T10:24:51Z</time>
      </trkpt>
      <trkpt lat="42.1871660" lon="-6.6448700">
        <ele>1254.8</ele>
        <time>2021-04-01T10:24:57Z</time>
      </trkpt>
      <trkpt lat="42.1872120" lon="-6.6448950">
        <ele>1255.6</ele>
        <time>2021-04-01T10:25:04Z</time>
      </trkpt>
      <trkpt lat="42.1872200" lon="-6.6449040">
        <ele>1255.8</ele>
        <time>2021-04-01T10:25:05Z</time>
      </trkpt>
      <trkpt lat="42.1872590" lon="-6.6449380">
        <ele>1256.2</ele>
        <time>2021-04-01T10:25:10Z</time>
      </trkpt>
      <trkpt lat="42.1872760" lon="-6.6449670">
        <ele>1256.2</ele>
        <time>2021-04-01T10:25:13Z</time>
      </trkpt>
      <trkpt lat="42.1872860" lon="-6.6449760">
        <ele>1256.0</ele>
        <time>2021-04-01T10:25:15Z</time>
      </trkpt>
      <trkpt lat="42.1873170" lon="-6.6450040">
        <ele>1255.8</ele>
        <time>2021-04-01T10:25:19Z</time>
      </trkpt>
      <trkpt lat="42.1873470" lon="-6.6450220">
        <ele>1256.6</ele>
        <time>2021-04-01T10:25:23Z</time>
      </trkpt>
      <trkpt lat="42.1873550" lon="-6.6450290">
        <ele>1256.8</ele>
        <time>2021-04-01T10:25:24Z</time>
      </trkpt>
      <trkpt lat="42.1873640" lon="-6.6450320">
        <ele>1257.2</ele>
        <time>2021-04-01T10:25:25Z</time>
      </trkpt>
      <trkpt lat="42.1873710" lon="-6.6450370">
        <ele>1257.2</ele>
        <time>2021-04-01T10:25:26Z</time>
      </trkpt>
      <trkpt lat="42.1873770" lon="-6.6450410">
        <ele>1257.4</ele>
        <time>2021-04-01T10:25:27Z</time>
      </trkpt>
      <trkpt lat="42.1873960" lon="-6.6450380">
        <ele>1257.6</ele>
        <time>2021-04-01T10:25:29Z</time>
      </trkpt>
      <trkpt lat="42.1874300" lon="-6.6450500">
        <ele>1257.8</ele>
        <time>2021-04-01T10:25:33Z</time>
      </trkpt>
      <trkpt lat="42.1874470" lon="-6.6450620">
        <ele>1258.0</ele>
        <time>2021-04-01T10:25:35Z</time>
      </trkpt>
      <trkpt lat="42.1874800" lon="-6.6450950">
        <ele>1258.8</ele>
        <time>2021-04-01T10:25:40Z</time>
      </trkpt>
      <trkpt lat="42.1874890" lon="-6.6451030">
        <ele>1259.0</ele>
        <time>2021-04-01T10:25:41Z</time>
      </trkpt>
      <trkpt lat="42.1874940" lon="-6.6451160">
        <ele>1259.2</ele>
        <time>2021-04-01T10:25:42Z</time>
      </trkpt>
      <trkpt lat="42.1875090" lon="-6.6451270">
        <ele>1259.4</ele>
        <time>2021-04-01T10:25:44Z</time>
      </trkpt>
      <trkpt lat="42.1875160" lon="-6.6451280">
        <ele>1259.4</ele>
        <time>2021-04-01T10:25:45Z</time>
      </trkpt>
      <trkpt lat="42.1875180" lon="-6.6451330">
        <ele>1259.6</ele>
        <time>2021-04-01T10:25:46Z</time>
      </trkpt>
      <trkpt lat="42.1875310" lon="-6.6451440">
        <ele>1260.0</ele>
        <time>2021-04-01T10:25:48Z</time>
      </trkpt>
      <trkpt lat="42.1875360" lon="-6.6451630">
        <ele>1260.2</ele>
        <time>2021-04-01T10:25:50Z</time>
      </trkpt>
      <trkpt lat="42.1875370" lon="-6.6451680">
        <ele>1260.2</ele>
        <time>2021-04-01T10:25:51Z</time>
      </trkpt>
      <trkpt lat="42.1875440" lon="-6.6451720">
        <ele>1260.4</ele>
        <time>2021-04-01T10:25:53Z</time>
      </trkpt>
      <trkpt lat="42.1875620" lon="-6.6451790">
        <ele>1260.8</ele>
        <time>2021-04-01T10:25:56Z</time>
      </trkpt>
      <trkpt lat="42.1875820" lon="-6.6451890">
        <ele>1261.2</ele>
        <time>2021-04-01T10:25:59Z</time>
      </trkpt>
      <trkpt lat="42.1875890" lon="-6.6451880">
        <ele>1261.4</ele>
        <time>2021-04-01T10:26:00Z</time>
      </trkpt>
      <trkpt lat="42.1876160" lon="-6.6452060">
        <ele>1262.4</ele>
        <time>2021-04-01T10:26:06Z</time>
      </trkpt>
      <trkpt lat="42.1876210" lon="-6.6452110">
        <ele>1262.4</ele>
        <time>2021-04-01T10:26:07Z</time>
      </trkpt>
      <trkpt lat="42.1876570" lon="-6.6452280">
        <ele>1263.4</ele>
        <time>2021-04-01T10:26:14Z</time>
      </trkpt>
      <trkpt lat="42.1876610" lon="-6.6452250">
        <ele>1263.4</ele>
        <time>2021-04-01T10:26:15Z</time>
      </trkpt>
      <trkpt lat="42.1876890" lon="-6.6452540">
        <ele>1264.4</ele>
        <time>2021-04-01T10:26:21Z</time>
      </trkpt>
      <trkpt lat="42.1877100" lon="-6.6452670">
        <ele>1265.4</ele>
        <time>2021-04-01T10:26:28Z</time>
      </trkpt>
      <trkpt lat="42.1877310" lon="-6.6452620">
        <ele>1266.0</ele>
        <time>2021-04-01T10:26:34Z</time>
      </trkpt>
      <trkpt lat="42.1877470" lon="-6.6452700">
        <ele>1266.2</ele>
        <time>2021-04-01T10:26:36Z</time>
      </trkpt>
      <trkpt lat="42.1877600" lon="-6.6452700">
        <ele>1266.6</ele>
        <time>2021-04-01T10:26:37Z</time>
      </trkpt>
      <trkpt lat="42.1877870" lon="-6.6452930">
        <ele>1267.8</ele>
        <time>2021-04-01T10:26:41Z</time>
      </trkpt>
      <trkpt lat="42.1878210" lon="-6.6453070">
        <ele>1269.0</ele>
        <time>2021-04-01T10:26:47Z</time>
      </trkpt>
      <trkpt lat="42.1878240" lon="-6.6453100">
        <ele>1269.2</ele>
        <time>2021-04-01T10:26:48Z</time>
      </trkpt>
      <trkpt lat="42.1878500" lon="-6.6453130">
        <ele>1269.0</ele>
        <time>2021-04-01T10:26:55Z</time>
      </trkpt>
      <trkpt lat="42.1878690" lon="-6.6453250">
        <ele>1269.4</ele>
        <time>2021-04-01T10:27:00Z</time>
      </trkpt>
      <trkpt lat="42.1878670" lon="-6.6453290">
        <ele>1269.4</ele>
        <time>2021-04-01T10:27:01Z</time>
      </trkpt>
      <trkpt lat="42.1878530" lon="-6.6453480">
        <ele>1269.4</ele>
        <time>2021-04-01T10:27:09Z</time>
      </trkpt>
      <trkpt lat="42.1878560" lon="-6.6453480">
        <ele>1269.4</ele>
        <time>2021-04-01T10:27:10Z</time>
      </trkpt>
      <trkpt lat="42.1878840" lon="-6.6453450">
        <ele>1269.8</ele>
        <time>2021-04-01T10:27:13Z</time>
      </trkpt>
      <trkpt lat="42.1878890" lon="-6.6453480">
        <ele>1270.0</ele>
        <time>2021-04-01T10:27:14Z</time>
      </trkpt>
      <trkpt lat="42.1878970" lon="-6.6453690">
        <ele>1270.4</ele>
        <time>2021-04-01T10:27:16Z</time>
      </trkpt>
      <trkpt lat="42.1879290" lon="-6.6453850">
        <ele>1271.2</ele>
        <time>2021-04-01T10:27:20Z</time>
      </trkpt>
      <trkpt lat="42.1879430" lon="-6.6454010">
        <ele>1271.4</ele>
        <time>2021-04-01T10:27:22Z</time>
      </trkpt>
      <trkpt lat="42.1879750" lon="-6.6453990">
        <ele>1272.2</ele>
        <time>2021-04-01T10:27:26Z</time>
      </trkpt>
      <trkpt lat="42.1879850" lon="-6.6454050">
        <ele>1272.6</ele>
        <time>2021-04-01T10:27:28Z</time>
      </trkpt>
      <trkpt lat="42.1879940" lon="-6.6454080">
        <ele>1272.6</ele>
        <time>2021-04-01T10:27:29Z</time>
      </trkpt>
      <trkpt lat="42.1880260" lon="-6.6454020">
        <ele>1273.2</ele>
        <time>2021-04-01T10:27:33Z</time>
      </trkpt>
      <trkpt lat="42.1880360" lon="-6.6454060">
        <ele>1273.6</ele>
        <time>2021-04-01T10:27:35Z</time>
      </trkpt>
      <trkpt lat="42.1880630" lon="-6.6454130">
        <ele>1274.4</ele>
        <time>2021-04-01T10:27:39Z</time>
      </trkpt>
      <trkpt lat="42.1880700" lon="-6.6454170">
        <ele>1274.6</ele>
        <time>2021-04-01T10:27:40Z</time>
      </trkpt>
      <trkpt lat="42.1881300" lon="-6.6454380">
        <ele>1275.2</ele>
        <time>2021-04-01T10:27:47Z</time>
      </trkpt>
      <trkpt lat="42.1881700" lon="-6.6454610">
        <ele>1275.4</ele>
        <time>2021-04-01T10:27:52Z</time>
      </trkpt>
      <trkpt lat="42.1881800" lon="-6.6454630">
        <ele>1275.4</ele>
        <time>2021-04-01T10:27:53Z</time>
      </trkpt>
      <trkpt lat="42.1881920" lon="-6.6454770">
        <ele>1275.6</ele>
        <time>2021-04-01T10:27:55Z</time>
      </trkpt>
      <trkpt lat="42.1881900" lon="-6.6454840">
        <ele>1275.6</ele>
        <time>2021-04-01T10:27:56Z</time>
      </trkpt>
      <trkpt lat="42.1881820" lon="-6.6455010">
        <ele>1275.6</ele>
        <time>2021-04-01T10:27:59Z</time>
      </trkpt>
      <trkpt lat="42.1881880" lon="-6.6455070">
        <ele>1275.8</ele>
        <time>2021-04-01T10:28:00Z</time>
      </trkpt>
      <trkpt lat="42.1882360" lon="-6.6455410">
        <ele>1275.6</ele>
        <time>2021-04-01T10:28:07Z</time>
      </trkpt>
      <trkpt lat="42.1882680" lon="-6.6455440">
        <ele>1275.6</ele>
        <time>2021-04-01T10:28:10Z</time>
      </trkpt>
      <trkpt lat="42.1882940" lon="-6.6455450">
        <ele>1276.2</ele>
        <time>2021-04-01T10:28:13Z</time>
      </trkpt>
      <trkpt lat="42.1883290" lon="-6.6455400">
        <ele>1276.4</ele>
        <time>2021-04-01T10:28:16Z</time>
      </trkpt>
      <trkpt lat="42.1883640" lon="-6.6455590">
        <ele>1276.6</ele>
        <time>2021-04-01T10:28:20Z</time>
      </trkpt>
      <trkpt lat="42.1883660" lon="-6.6455630">
        <ele>1276.6</ele>
        <time>2021-04-01T10:28:21Z</time>
      </trkpt>
      <trkpt lat="42.1883760" lon="-6.6455590">
        <ele>1276.8</ele>
        <time>2021-04-01T10:28:23Z</time>
      </trkpt>
      <trkpt lat="42.1884150" lon="-6.6455530">
        <ele>1277.2</ele>
        <time>2021-04-01T10:28:28Z</time>
      </trkpt>
      <trkpt lat="42.1884140" lon="-6.6455590">
        <ele>1277.4</ele>
        <time>2021-04-01T10:28:30Z</time>
      </trkpt>
      <trkpt lat="42.1883860" lon="-6.6455900">
        <ele>1278.2</ele>
        <time>2021-04-01T10:28:34Z</time>
      </trkpt>
      <trkpt lat="42.1883940" lon="-6.6455900">
        <ele>1278.4</ele>
        <time>2021-04-01T10:28:37Z</time>
      </trkpt>
      <trkpt lat="42.1884330" lon="-6.6455810">
        <ele>1279.0</ele>
        <time>2021-04-01T10:28:41Z</time>
      </trkpt>
      <trkpt lat="42.1884860" lon="-6.6456420">
        <ele>1279.6</ele>
        <time>2021-04-01T10:28:48Z</time>
      </trkpt>
      <trkpt lat="42.1884940" lon="-6.6456560">
        <ele>1279.6</ele>
        <time>2021-04-01T10:28:49Z</time>
      </trkpt>
      <trkpt lat="42.1885560" lon="-6.6457090">
        <ele>1280.6</ele>
        <time>2021-04-01T10:28:56Z</time>
      </trkpt>
      <trkpt lat="42.1885760" lon="-6.6457280">
        <ele>1280.8</ele>
        <time>2021-04-01T10:28:59Z</time>
      </trkpt>
      <trkpt lat="42.1886670" lon="-6.6456850">
        <ele>1281.2</ele>
        <time>2021-04-01T10:29:03Z</time>
      </trkpt>
      <trkpt lat="42.1886800" lon="-6.6456870">
        <ele>1281.2</ele>
        <time>2021-04-01T10:29:04Z</time>
      </trkpt>
      <trkpt lat="42.1887170" lon="-6.6456820">
        <ele>1281.6</ele>
        <time>2021-04-01T10:29:06Z</time>
      </trkpt>
      <trkpt lat="42.1887530" lon="-6.6456890">
        <ele>1282.6</ele>
        <time>2021-04-01T10:29:10Z</time>
      </trkpt>
      <trkpt lat="42.1887640" lon="-6.6456790">
        <ele>1282.6</ele>
        <time>2021-04-01T10:29:11Z</time>
      </trkpt>
      <trkpt lat="42.1887800" lon="-6.6456680">
        <ele>1282.8</ele>
        <time>2021-04-01T10:29:14Z</time>
      </trkpt>
      <trkpt lat="42.1887840" lon="-6.6456700">
        <ele>1282.8</ele>
        <time>2021-04-01T10:29:15Z</time>
      </trkpt>
      <trkpt lat="42.1888090" lon="-6.6456770">
        <ele>1283.0</ele>
        <time>2021-04-01T10:29:19Z</time>
      </trkpt>
      <trkpt lat="42.1888190" lon="-6.6456930">
        <ele>1283.2</ele>
        <time>2021-04-01T10:29:21Z</time>
      </trkpt>
      <trkpt lat="42.1888350" lon="-6.6456900">
        <ele>1284.0</ele>
        <time>2021-04-01T10:29:23Z</time>
      </trkpt>
      <trkpt lat="42.1888370" lon="-6.6456930">
        <ele>1284.2</ele>
        <time>2021-04-01T10:29:24Z</time>
      </trkpt>
      <trkpt lat="42.1888420" lon="-6.6456890">
        <ele>1284.6</ele>
        <time>2021-04-01T10:29:26Z</time>
      </trkpt>
      <trkpt lat="42.1888480" lon="-6.6457020">
        <ele>1285.2</ele>
        <time>2021-04-01T10:29:28Z</time>
      </trkpt>
      <trkpt lat="42.1888630" lon="-6.6457060">
        <ele>1285.6</ele>
        <time>2021-04-01T10:29:30Z</time>
      </trkpt>
      <trkpt lat="42.1888740" lon="-6.6457070">
        <ele>1285.8</ele>
        <time>2021-04-01T10:29:32Z</time>
      </trkpt>
      <trkpt lat="42.1888840" lon="-6.6457170">
        <ele>1286.0</ele>
        <time>2021-04-01T10:29:34Z</time>
      </trkpt>
      <trkpt lat="42.1888900" lon="-6.6457230">
        <ele>1286.0</ele>
        <time>2021-04-01T10:29:35Z</time>
      </trkpt>
      <trkpt lat="42.1888970" lon="-6.6457250">
        <ele>1286.0</ele>
        <time>2021-04-01T10:29:36Z</time>
      </trkpt>
      <trkpt lat="42.1889040" lon="-6.6457280">
        <ele>1286.2</ele>
        <time>2021-04-01T10:29:37Z</time>
      </trkpt>
      <trkpt lat="42.1889100" lon="-6.6457320">
        <ele>1286.2</ele>
        <time>2021-04-01T10:29:38Z</time>
      </trkpt>
      <trkpt lat="42.1889090" lon="-6.6457460">
        <ele>1286.4</ele>
        <time>2021-04-01T10:29:41Z</time>
      </trkpt>
      <trkpt lat="42.1889320" lon="-6.6457830">
        <ele>1287.2</ele>
        <time>2021-04-01T10:29:47Z</time>
      </trkpt>
      <trkpt lat="42.1889390" lon="-6.6457920">
        <ele>1287.2</ele>
        <time>2021-04-01T10:29:48Z</time>
      </trkpt>
      <trkpt lat="42.1889950" lon="-6.6458220">
        <ele>1287.6</ele>
        <time>2021-04-01T10:29:55Z</time>
      </trkpt>
      <trkpt lat="42.1890170" lon="-6.6458190">
        <ele>1288.2</ele>
        <time>2021-04-01T10:29:58Z</time>
      </trkpt>
      <trkpt lat="42.1890520" lon="-6.6458260">
        <ele>1289.2</ele>
        <time>2021-04-01T10:30:02Z</time>
      </trkpt>
      <trkpt lat="42.1890630" lon="-6.6458160">
        <ele>1289.4</ele>
        <time>2021-04-01T10:30:03Z</time>
      </trkpt>
      <trkpt lat="42.1890910" lon="-6.6458020">
        <ele>1289.6</ele>
        <time>2021-04-01T10:30:06Z</time>
      </trkpt>
      <trkpt lat="42.1890990" lon="-6.6458010">
        <ele>1289.6</ele>
        <time>2021-04-01T10:30:07Z</time>
      </trkpt>
      <trkpt lat="42.1891150" lon="-6.6458060">
        <ele>1289.6</ele>
        <time>2021-04-01T10:30:09Z</time>
      </trkpt>
      <trkpt lat="42.1891230" lon="-6.6458100">
        <ele>1289.8</ele>
        <time>2021-04-01T10:30:10Z</time>
      </trkpt>
      <trkpt lat="42.1891380" lon="-6.6458070">
        <ele>1290.0</ele>
        <time>2021-04-01T10:30:12Z</time>
      </trkpt>
      <trkpt lat="42.1891440" lon="-6.6458060">
        <ele>1290.0</ele>
        <time>2021-04-01T10:30:13Z</time>
      </trkpt>
      <trkpt lat="42.1891560" lon="-6.6458040">
        <ele>1290.2</ele>
        <time>2021-04-01T10:30:15Z</time>
      </trkpt>
      <trkpt lat="42.1891740" lon="-6.6457950">
        <ele>1290.4</ele>
        <time>2021-04-01T10:30:17Z</time>
      </trkpt>
      <trkpt lat="42.1891950" lon="-6.6458040">
        <ele>1291.0</ele>
        <time>2021-04-01T10:30:20Z</time>
      </trkpt>
      <trkpt lat="42.1892020" lon="-6.6458100">
        <ele>1291.4</ele>
        <time>2021-04-01T10:30:21Z</time>
      </trkpt>
      <trkpt lat="42.1892210" lon="-6.6458120">
        <ele>1291.8</ele>
        <time>2021-04-01T10:30:23Z</time>
      </trkpt>
      <trkpt lat="42.1892560" lon="-6.6458160">
        <ele>1292.8</ele>
        <time>2021-04-01T10:30:27Z</time>
      </trkpt>
      <trkpt lat="42.1892780" lon="-6.6458220">
        <ele>1293.2</ele>
        <time>2021-04-01T10:30:30Z</time>
      </trkpt>
      <trkpt lat="42.1892820" lon="-6.6458290">
        <ele>1293.6</ele>
        <time>2021-04-01T10:30:31Z</time>
      </trkpt>
      <trkpt lat="42.1892930" lon="-6.6458400">
        <ele>1293.8</ele>
        <time>2021-04-01T10:30:33Z</time>
      </trkpt>
      <trkpt lat="42.1893310" lon="-6.6458420">
        <ele>1294.2</ele>
        <time>2021-04-01T10:30:38Z</time>
      </trkpt>
      <trkpt lat="42.1893600" lon="-6.6458530">
        <ele>1294.6</ele>
        <time>2021-04-01T10:30:42Z</time>
      </trkpt>
      <trkpt lat="42.1893740" lon="-6.6458580">
        <ele>1294.8</ele>
        <time>2021-04-01T10:30:44Z</time>
      </trkpt>
      <trkpt lat="42.1893940" lon="-6.6458610">
        <ele>1294.8</ele>
        <time>2021-04-01T10:30:47Z</time>
      </trkpt>
      <trkpt lat="42.1894560" lon="-6.6458640">
        <ele>1294.8</ele>
        <time>2021-04-01T10:30:53Z</time>
      </trkpt>
      <trkpt lat="42.1894750" lon="-6.6458650">
        <ele>1295.2</ele>
        <time>2021-04-01T10:30:55Z</time>
      </trkpt>
      <trkpt lat="42.1894920" lon="-6.6458750">
        <ele>1295.2</ele>
        <time>2021-04-01T10:30:58Z</time>
      </trkpt>
      <trkpt lat="42.1895170" lon="-6.6458600">
        <ele>1295.4</ele>
        <time>2021-04-01T10:31:01Z</time>
      </trkpt>
      <trkpt lat="42.1895260" lon="-6.6458560">
        <ele>1295.4</ele>
        <time>2021-04-01T10:31:02Z</time>
      </trkpt>
      <trkpt lat="42.1895350" lon="-6.6458540">
        <ele>1295.4</ele>
        <time>2021-04-01T10:31:03Z</time>
      </trkpt>
      <trkpt lat="42.1895450" lon="-6.6458510">
        <ele>1295.6</ele>
        <time>2021-04-01T10:31:04Z</time>
      </trkpt>
      <trkpt lat="42.1895530" lon="-6.6458470">
        <ele>1295.6</ele>
        <time>2021-04-01T10:31:05Z</time>
      </trkpt>
      <trkpt lat="42.1895680" lon="-6.6458440">
        <ele>1295.8</ele>
        <time>2021-04-01T10:31:07Z</time>
      </trkpt>
      <trkpt lat="42.1895750" lon="-6.6458410">
        <ele>1296.0</ele>
        <time>2021-04-01T10:31:08Z</time>
      </trkpt>
      <trkpt lat="42.1895830" lon="-6.6458390">
        <ele>1296.0</ele>
        <time>2021-04-01T10:31:09Z</time>
      </trkpt>
      <trkpt lat="42.1896490" lon="-6.6458370">
        <ele>1296.4</ele>
        <time>2021-04-01T10:31:16Z</time>
      </trkpt>
      <trkpt lat="42.1896910" lon="-6.6458320">
        <ele>1296.6</ele>
        <time>2021-04-01T10:31:21Z</time>
      </trkpt>
      <trkpt lat="42.1897300" lon="-6.6458360">
        <ele>1296.6</ele>
        <time>2021-04-01T10:31:26Z</time>
      </trkpt>
      <trkpt lat="42.1897490" lon="-6.6458360">
        <ele>1296.6</ele>
        <time>2021-04-01T10:31:28Z</time>
      </trkpt>
      <trkpt lat="42.1897790" lon="-6.6458460">
        <ele>1297.0</ele>
        <time>2021-04-01T10:31:31Z</time>
      </trkpt>
      <trkpt lat="42.1897980" lon="-6.6458510">
        <ele>1297.2</ele>
        <time>2021-04-01T10:31:33Z</time>
      </trkpt>
      <trkpt lat="42.1898080" lon="-6.6458540">
        <ele>1297.2</ele>
        <time>2021-04-01T10:31:34Z</time>
      </trkpt>
      <trkpt lat="42.1898180" lon="-6.6458560">
        <ele>1297.2</ele>
        <time>2021-04-01T10:31:35Z</time>
      </trkpt>
      <trkpt lat="42.1898230" lon="-6.6458610">
        <ele>1297.4</ele>
        <time>2021-04-01T10:31:36Z</time>
      </trkpt>
      <trkpt lat="42.1898330" lon="-6.6458580">
        <ele>1297.8</ele>
        <time>2021-04-01T10:31:38Z</time>
      </trkpt>
      <trkpt lat="42.1898630" lon="-6.6458600">
        <ele>1298.0</ele>
        <time>2021-04-01T10:31:42Z</time>
      </trkpt>
      <trkpt lat="42.1899190" lon="-6.6458630">
        <ele>1298.2</ele>
        <time>2021-04-01T10:31:47Z</time>
      </trkpt>
      <trkpt lat="42.1899310" lon="-6.6458670">
        <ele>1298.2</ele>
        <time>2021-04-01T10:31:48Z</time>
      </trkpt>
      <trkpt lat="42.1899510" lon="-6.6458700">
        <ele>1298.4</ele>
        <time>2021-04-01T10:31:50Z</time>
      </trkpt>
      <trkpt lat="42.1900020" lon="-6.6458650">
        <ele>1299.0</ele>
        <time>2021-04-01T10:31:55Z</time>
      </trkpt>
      <trkpt lat="42.1900120" lon="-6.6458650">
        <ele>1299.2</ele>
        <time>2021-04-01T10:31:56Z</time>
      </trkpt>
      <trkpt lat="42.1900210" lon="-6.6458610">
        <ele>1299.4</ele>
        <time>2021-04-01T10:31:57Z</time>
      </trkpt>
      <trkpt lat="42.1901040" lon="-6.6458470">
        <ele>1299.8</ele>
        <time>2021-04-01T10:32:05Z</time>
      </trkpt>
      <trkpt lat="42.1901320" lon="-6.6458510">
        <ele>1300.4</ele>
        <time>2021-04-01T10:32:09Z</time>
      </trkpt>
      <trkpt lat="42.1901680" lon="-6.6458520">
        <ele>1300.8</ele>
        <time>2021-04-01T10:32:14Z</time>
      </trkpt>
      <trkpt lat="42.1901670" lon="-6.6458580">
        <ele>1301.0</ele>
        <time>2021-04-01T10:32:19Z</time>
      </trkpt>
      <trkpt lat="42.1901630" lon="-6.6458590">
        <ele>1301.0</ele>
        <time>2021-04-01T10:32:21Z</time>
      </trkpt>
      <trkpt lat="42.1901580" lon="-6.6458580">
        <ele>1301.4</ele>
        <time>2021-04-01T10:32:27Z</time>
      </trkpt>
      <trkpt lat="42.1901550" lon="-6.6458660">
        <ele>1301.4</ele>
        <time>2021-04-01T10:32:31Z</time>
      </trkpt>
      <trkpt lat="42.1901520" lon="-6.6458680">
        <ele>1301.2</ele>
        <time>2021-04-01T10:32:37Z</time>
      </trkpt>
      <trkpt lat="42.1901500" lon="-6.6458670">
        <ele>1301.2</ele>
        <time>2021-04-01T10:32:39Z</time>
      </trkpt>
      <trkpt lat="42.1901500" lon="-6.6458670">
        <ele>1301.4</ele>
        <time>2021-04-01T10:32:40Z</time>
      </trkpt>
      <trkpt lat="42.1901480" lon="-6.6458610">
        <ele>1301.4</ele>
        <time>2021-04-01T10:32:46Z</time>
      </trkpt>
      <trkpt lat="42.1901490" lon="-6.6458610">
        <ele>1301.2</ele>
        <time>2021-04-01T10:32:50Z</time>
      </trkpt>
      <trkpt lat="42.1901500" lon="-6.6458610">
        <ele>1301.4</ele>
        <time>2021-04-01T10:33:02Z</time>
      </trkpt>
      <trkpt lat="42.1901500" lon="-6.6458610">
        <ele>1301.4</ele>
        <time>2021-04-01T10:33:11Z</time>
      </trkpt>
      <trkpt lat="42.1901500" lon="-6.6458610">
        <ele>1301.6</ele>
        <time>2021-04-01T10:33:12Z</time>
      </trkpt>
      <trkpt lat="42.1901540" lon="-6.6458630">
        <ele>1301.8</ele>
        <time>2021-04-01T10:33:20Z</time>
      </trkpt>
      <trkpt lat="42.1901780" lon="-6.6458590">
        <ele>1301.6</ele>
        <time>2021-04-01T10:33:26Z</time>
      </trkpt>
      <trkpt lat="42.1901870" lon="-6.6458650">
        <ele>1301.6</ele>
        <time>2021-04-01T10:33:27Z</time>
      </trkpt>
      <trkpt lat="42.1902470" lon="-6.6458850">
        <ele>1301.6</ele>
        <time>2021-04-01T10:33:34Z</time>
      </trkpt>
      <trkpt lat="42.1902620" lon="-6.6458690">
        <ele>1301.6</ele>
        <time>2021-04-01T10:33:37Z</time>
      </trkpt>
      <trkpt lat="42.1902720" lon="-6.6458630">
        <ele>1301.6</ele>
        <time>2021-04-01T10:33:38Z</time>
      </trkpt>
      <trkpt lat="42.1903000" lon="-6.6458510">
        <ele>1301.6</ele>
        <time>2021-04-01T10:33:40Z</time>
      </trkpt>
      <trkpt lat="42.1903220" lon="-6.6458410">
        <ele>1301.6</ele>
        <time>2021-04-01T10:33:42Z</time>
      </trkpt>
      <trkpt lat="42.1903580" lon="-6.6458160">
        <ele>1301.6</ele>
        <time>2021-04-01T10:33:46Z</time>
      </trkpt>
      <trkpt lat="42.1904010" lon="-6.6457770">
        <ele>1301.2</ele>
        <time>2021-04-01T10:33:50Z</time>
      </trkpt>
      <trkpt lat="42.1904350" lon="-6.6457350">
        <ele>1300.6</ele>
        <time>2021-04-01T10:33:54Z</time>
      </trkpt>
      <trkpt lat="42.1904300" lon="-6.6457230">
        <ele>1300.6</ele>
        <time>2021-04-01T10:33:55Z</time>
      </trkpt>
      <trkpt lat="42.1904410" lon="-6.6457110">
        <ele>1300.4</ele>
        <time>2021-04-01T10:33:57Z</time>
      </trkpt>
      <trkpt lat="42.1904530" lon="-6.6457020">
        <ele>1300.4</ele>
        <time>2021-04-01T10:34:00Z</time>
      </trkpt>
      <trkpt lat="42.1904540" lon="-6.6456990">
        <ele>1300.4</ele>
        <time>2021-04-01T10:34:01Z</time>
      </trkpt>
      <trkpt lat="42.1904550" lon="-6.6456950">
        <ele>1300.4</ele>
        <time>2021-04-01T10:34:02Z</time>
      </trkpt>
      <trkpt lat="42.1904870" lon="-6.6456620">
        <ele>1300.6</ele>
        <time>2021-04-01T10:34:08Z</time>
      </trkpt>
      <trkpt lat="42.1905000" lon="-6.6456380">
        <ele>1301.0</ele>
        <time>2021-04-01T10:34:10Z</time>
      </trkpt>
      <trkpt lat="42.1905150" lon="-6.6456260">
        <ele>1301.0</ele>
        <time>2021-04-01T10:34:12Z</time>
      </trkpt>
      <trkpt lat="42.1905250" lon="-6.6456250">
        <ele>1301.2</ele>
        <time>2021-04-01T10:34:15Z</time>
      </trkpt>
      <trkpt lat="42.1905060" lon="-6.6456430">
        <ele>1300.6</ele>
        <time>2021-04-01T10:34:18Z</time>
      </trkpt>
      <trkpt lat="42.1905050" lon="-6.6456490">
        <ele>1300.8</ele>
        <time>2021-04-01T10:34:21Z</time>
      </trkpt>
      <trkpt lat="42.1905080" lon="-6.6456480">
        <ele>1300.6</ele>
        <time>2021-04-01T10:34:22Z</time>
      </trkpt>
      <trkpt lat="42.1905100" lon="-6.6456510">
        <ele>1300.6</ele>
        <time>2021-04-01T10:34:23Z</time>
      </trkpt>
      <trkpt lat="42.1905100" lon="-6.6456520">
        <ele>1300.6</ele>
        <time>2021-04-01T10:34:24Z</time>
      </trkpt>
      <trkpt lat="42.1905240" lon="-6.6456490">
        <ele>1300.8</ele>
        <time>2021-04-01T10:34:29Z</time>
      </trkpt>
      <trkpt lat="42.1905250" lon="-6.6456440">
        <ele>1300.8</ele>
        <time>2021-04-01T10:34:30Z</time>
      </trkpt>
      <trkpt lat="42.1905610" lon="-6.6455930">
        <ele>1300.8</ele>
        <time>2021-04-01T10:34:34Z</time>
      </trkpt>
      <trkpt lat="42.1906240" lon="-6.6455090">
        <ele>1301.4</ele>
        <time>2021-04-01T10:34:40Z</time>
      </trkpt>
      <trkpt lat="42.1906320" lon="-6.6454980">
        <ele>1301.4</ele>
        <time>2021-04-01T10:34:41Z</time>
      </trkpt>
      <trkpt lat="42.1906750" lon="-6.6454410">
        <ele>1301.8</ele>
        <time>2021-04-01T10:34:46Z</time>
      </trkpt>
      <trkpt lat="42.1907390" lon="-6.6453700">
        <ele>1302.0</ele>
        <time>2021-04-01T10:34:52Z</time>
      </trkpt>
      <trkpt lat="42.1907490" lon="-6.6453600">
        <ele>1302.0</ele>
        <time>2021-04-01T10:34:53Z</time>
      </trkpt>
      <trkpt lat="42.1908010" lon="-6.6453260">
        <ele>1301.8</ele>
        <time>2021-04-01T10:34:58Z</time>
      </trkpt>
      <trkpt lat="42.1908090" lon="-6.6453180">
        <ele>1301.6</ele>
        <time>2021-04-01T10:34:59Z</time>
      </trkpt>
      <trkpt lat="42.1908340" lon="-6.6452860">
        <ele>1301.6</ele>
        <time>2021-04-01T10:35:03Z</time>
      </trkpt>
      <trkpt lat="42.1908650" lon="-6.6452570">
        <ele>1301.8</ele>
        <time>2021-04-01T10:35:07Z</time>
      </trkpt>
      <trkpt lat="42.1909440" lon="-6.6452280">
        <ele>1302.2</ele>
        <time>2021-04-01T10:35:13Z</time>
      </trkpt>
      <trkpt lat="42.1909660" lon="-6.6452090">
        <ele>1302.4</ele>
        <time>2021-04-01T10:35:15Z</time>
      </trkpt>
      <trkpt lat="42.1909920" lon="-6.6451530">
        <ele>1302.8</ele>
        <time>2021-04-01T10:35:20Z</time>
      </trkpt>
      <trkpt lat="42.1910230" lon="-6.6450890">
        <ele>1303.4</ele>
        <time>2021-04-01T10:35:27Z</time>
      </trkpt>
      <trkpt lat="42.1910410" lon="-6.6450720">
        <ele>1303.8</ele>
        <time>2021-04-01T10:35:29Z</time>
      </trkpt>
      <trkpt lat="42.1910460" lon="-6.6450670">
        <ele>1303.8</ele>
        <time>2021-04-01T10:35:30Z</time>
      </trkpt>
      <trkpt lat="42.1910500" lon="-6.6450630">
        <ele>1304.0</ele>
        <time>2021-04-01T10:35:32Z</time>
      </trkpt>
      <trkpt lat="42.1910610" lon="-6.6450520">
        <ele>1304.2</ele>
        <time>2021-04-01T10:35:34Z</time>
      </trkpt>
      <trkpt lat="42.1910910" lon="-6.6450090">
        <ele>1304.4</ele>
        <time>2021-04-01T10:35:39Z</time>
      </trkpt>
      <trkpt lat="42.1911070" lon="-6.6450000">
        <ele>1304.4</ele>
        <time>2021-04-01T10:35:41Z</time>
      </trkpt>
      <trkpt lat="42.1911150" lon="-6.6449960">
        <ele>1304.4</ele>
        <time>2021-04-01T10:35:42Z</time>
      </trkpt>
      <trkpt lat="42.1911260" lon="-6.6449900">
        <ele>1304.6</ele>
        <time>2021-04-01T10:35:44Z</time>
      </trkpt>
      <trkpt lat="42.1911260" lon="-6.6449940">
        <ele>1304.4</ele>
        <time>2021-04-01T10:35:47Z</time>
      </trkpt>
      <trkpt lat="42.1911580" lon="-6.6449780">
        <ele>1304.4</ele>
        <time>2021-04-01T10:35:49Z</time>
      </trkpt>
      <trkpt lat="42.1912160" lon="-6.6449580">
        <ele>1304.2</ele>
        <time>2021-04-01T10:35:53Z</time>
      </trkpt>
      <trkpt lat="42.1912290" lon="-6.6449520">
        <ele>1304.8</ele>
        <time>2021-04-01T10:35:55Z</time>
      </trkpt>
      <trkpt lat="42.1912600" lon="-6.6449360">
        <ele>1305.6</ele>
        <time>2021-04-01T10:35:59Z</time>
      </trkpt>
      <trkpt lat="42.1912620" lon="-6.6449310">
        <ele>1305.8</ele>
        <time>2021-04-01T10:36:00Z</time>
      </trkpt>
      <trkpt lat="42.1912850" lon="-6.6449170">
        <ele>1306.4</ele>
        <time>2021-04-01T10:36:04Z</time>
      </trkpt>
      <trkpt lat="42.1912870" lon="-6.6449110">
        <ele>1306.6</ele>
        <time>2021-04-01T10:36:05Z</time>
      </trkpt>
      <trkpt lat="42.1912910" lon="-6.6449050">
        <ele>1306.6</ele>
        <time>2021-04-01T10:36:06Z</time>
      </trkpt>
      <trkpt lat="42.1912920" lon="-6.6449000">
        <ele>1306.6</ele>
        <time>2021-04-01T10:36:07Z</time>
      </trkpt>
      <trkpt lat="42.1912980" lon="-6.6448930">
        <ele>1306.8</ele>
        <time>2021-04-01T10:36:08Z</time>
      </trkpt>
      <trkpt lat="42.1912960" lon="-6.6448860">
        <ele>1307.0</ele>
        <time>2021-04-01T10:36:09Z</time>
      </trkpt>
      <trkpt lat="42.1912950" lon="-6.6448740">
        <ele>1307.6</ele>
        <time>2021-04-01T10:36:11Z</time>
      </trkpt>
      <trkpt lat="42.1912970" lon="-6.6448700">
        <ele>1307.8</ele>
        <time>2021-04-01T10:36:12Z</time>
      </trkpt>
      <trkpt lat="42.1912990" lon="-6.6448650">
        <ele>1308.0</ele>
        <time>2021-04-01T10:36:13Z</time>
      </trkpt>
      <trkpt lat="42.1912610" lon="-6.6448420">
        <ele>1309.0</ele>
        <time>2021-04-01T10:36:17Z</time>
      </trkpt>
      <trkpt lat="42.1912540" lon="-6.6448360">
        <ele>1309.2</ele>
        <time>2021-04-01T10:36:18Z</time>
      </trkpt>
      <trkpt lat="42.1912490" lon="-6.6448280">
        <ele>1309.4</ele>
        <time>2021-04-01T10:36:19Z</time>
      </trkpt>
      <trkpt lat="42.1912420" lon="-6.6448100">
        <ele>1309.6</ele>
        <time>2021-04-01T10:36:21Z</time>
      </trkpt>
      <trkpt lat="42.1912550" lon="-6.6447770">
        <ele>1310.0</ele>
        <time>2021-04-01T10:36:24Z</time>
      </trkpt>
      <trkpt lat="42.1912620" lon="-6.6447680">
        <ele>1310.2</ele>
        <time>2021-04-01T10:36:25Z</time>
      </trkpt>
      <trkpt lat="42.1912700" lon="-6.6447560">
        <ele>1310.2</ele>
        <time>2021-04-01T10:36:26Z</time>
      </trkpt>
      <trkpt lat="42.1912830" lon="-6.6447320">
        <ele>1310.2</ele>
        <time>2021-04-01T10:36:28Z</time>
      </trkpt>
      <trkpt lat="42.1912960" lon="-6.6447060">
        <ele>1310.4</ele>
        <time>2021-04-01T10:36:31Z</time>
      </trkpt>
      <trkpt lat="42.1912980" lon="-6.6447020">
        <ele>1310.6</ele>
        <time>2021-04-01T10:36:32Z</time>
      </trkpt>
      <trkpt lat="42.1912980" lon="-6.6446920">
        <ele>1311.2</ele>
        <time>2021-04-01T10:36:34Z</time>
      </trkpt>
      <trkpt lat="42.1913160" lon="-6.6446490">
        <ele>1312.2</ele>
        <time>2021-04-01T10:36:39Z</time>
      </trkpt>
      <trkpt lat="42.1913450" lon="-6.6446250">
        <ele>1312.2</ele>
        <time>2021-04-01T10:36:41Z</time>
      </trkpt>
      <trkpt lat="42.1913520" lon="-6.6446140">
        <ele>1312.4</ele>
        <time>2021-04-01T10:36:42Z</time>
      </trkpt>
      <trkpt lat="42.1913700" lon="-6.6445800">
        <ele>1312.4</ele>
        <time>2021-04-01T10:36:45Z</time>
      </trkpt>
      <trkpt lat="42.1914260" lon="-6.6445230">
        <ele>1313.0</ele>
        <time>2021-04-01T10:36:51Z</time>
      </trkpt>
      <trkpt lat="42.1914470" lon="-6.6445070">
        <ele>1313.2</ele>
        <time>2021-04-01T10:36:53Z</time>
      </trkpt>
      <trkpt lat="42.1914790" lon="-6.6444840">
        <ele>1313.4</ele>
        <time>2021-04-01T10:36:55Z</time>
      </trkpt>
      <trkpt lat="42.1914990" lon="-6.6444620">
        <ele>1313.6</ele>
        <time>2021-04-01T10:36:57Z</time>
      </trkpt>
      <trkpt lat="42.1914890" lon="-6.6444560">
        <ele>1313.8</ele>
        <time>2021-04-01T10:36:58Z</time>
      </trkpt>
      <trkpt lat="42.1915510" lon="-6.6444070">
        <ele>1314.0</ele>
        <time>2021-04-01T10:37:05Z</time>
      </trkpt>
      <trkpt lat="42.1916010" lon="-6.6443570">
        <ele>1313.8</ele>
        <time>2021-04-01T10:37:13Z</time>
      </trkpt>
      <trkpt lat="42.1916230" lon="-6.6443200">
        <ele>1313.8</ele>
        <time>2021-04-01T10:37:17Z</time>
      </trkpt>
      <trkpt lat="42.1916320" lon="-6.6443010">
        <ele>1313.8</ele>
        <time>2021-04-01T10:37:19Z</time>
      </trkpt>
      <trkpt lat="42.1916860" lon="-6.6442380">
        <ele>1313.6</ele>
        <time>2021-04-01T10:37:25Z</time>
      </trkpt>
      <trkpt lat="42.1917260" lon="-6.6442120">
        <ele>1313.8</ele>
        <time>2021-04-01T10:37:29Z</time>
      </trkpt>
      <trkpt lat="42.1917430" lon="-6.6441860">
        <ele>1313.6</ele>
        <time>2021-04-01T10:37:31Z</time>
      </trkpt>
      <trkpt lat="42.1917680" lon="-6.6441500">
        <ele>1312.6</ele>
        <time>2021-04-01T10:37:35Z</time>
      </trkpt>
      <trkpt lat="42.1917880" lon="-6.6441300">
        <ele>1312.4</ele>
        <time>2021-04-01T10:37:37Z</time>
      </trkpt>
      <trkpt lat="42.1918100" lon="-6.6440880">
        <ele>1312.2</ele>
        <time>2021-04-01T10:37:40Z</time>
      </trkpt>
      <trkpt lat="42.1918280" lon="-6.6440680">
        <ele>1312.4</ele>
        <time>2021-04-01T10:37:43Z</time>
      </trkpt>
      <trkpt lat="42.1918560" lon="-6.6440410">
        <ele>1312.6</ele>
        <time>2021-04-01T10:37:46Z</time>
      </trkpt>
      <trkpt lat="42.1918640" lon="-6.6440210">
        <ele>1312.8</ele>
        <time>2021-04-01T10:37:48Z</time>
      </trkpt>
      <trkpt lat="42.1918830" lon="-6.6439940">
        <ele>1312.8</ele>
        <time>2021-04-01T10:37:51Z</time>
      </trkpt>
      <trkpt lat="42.1919250" lon="-6.6439120">
        <ele>1312.4</ele>
        <time>2021-04-01T10:37:57Z</time>
      </trkpt>
      <trkpt lat="42.1919870" lon="-6.6438450">
        <ele>1313.0</ele>
        <time>2021-04-01T10:38:03Z</time>
      </trkpt>
      <trkpt lat="42.1919960" lon="-6.6438190">
        <ele>1312.8</ele>
        <time>2021-04-01T10:38:05Z</time>
      </trkpt>
      <trkpt lat="42.1920260" lon="-6.6437470">
        <ele>1313.0</ele>
        <time>2021-04-01T10:38:12Z</time>
      </trkpt>
      <trkpt lat="42.1920340" lon="-6.6437350">
        <ele>1313.0</ele>
        <time>2021-04-01T10:38:13Z</time>
      </trkpt>
      <trkpt lat="42.1920380" lon="-6.6437270">
        <ele>1313.0</ele>
        <time>2021-04-01T10:38:14Z</time>
      </trkpt>
      <trkpt lat="42.1920420" lon="-6.6437190">
        <ele>1313.0</ele>
        <time>2021-04-01T10:38:15Z</time>
      </trkpt>
      <trkpt lat="42.1920600" lon="-6.6436730">
        <ele>1313.0</ele>
        <time>2021-04-01T10:38:19Z</time>
      </trkpt>
      <trkpt lat="42.1920830" lon="-6.6435840">
        <ele>1312.8</ele>
        <time>2021-04-01T10:38:26Z</time>
      </trkpt>
      <trkpt lat="42.1920920" lon="-6.6435260">
        <ele>1313.0</ele>
        <time>2021-04-01T10:38:31Z</time>
      </trkpt>
      <trkpt lat="42.1920990" lon="-6.6435150">
        <ele>1313.0</ele>
        <time>2021-04-01T10:38:32Z</time>
      </trkpt>
      <trkpt lat="42.1921070" lon="-6.6434940">
        <ele>1312.8</ele>
        <time>2021-04-01T10:38:34Z</time>
      </trkpt>
      <trkpt lat="42.1921160" lon="-6.6434880">
        <ele>1312.8</ele>
        <time>2021-04-01T10:38:35Z</time>
      </trkpt>
      <trkpt lat="42.1921350" lon="-6.6434650">
        <ele>1313.0</ele>
        <time>2021-04-01T10:38:37Z</time>
      </trkpt>
      <trkpt lat="42.1921570" lon="-6.6434290">
        <ele>1313.4</ele>
        <time>2021-04-01T10:38:40Z</time>
      </trkpt>
      <trkpt lat="42.1921780" lon="-6.6433810">
        <ele>1314.6</ele>
        <time>2021-04-01T10:38:44Z</time>
      </trkpt>
      <trkpt lat="42.1921990" lon="-6.6433100">
        <ele>1315.4</ele>
        <time>2021-04-01T10:38:50Z</time>
      </trkpt>
      <trkpt lat="42.1922050" lon="-6.6432990">
        <ele>1315.8</ele>
        <time>2021-04-01T10:38:51Z</time>
      </trkpt>
      <trkpt lat="42.1922140" lon="-6.6432590">
        <ele>1316.4</ele>
        <time>2021-04-01T10:38:54Z</time>
      </trkpt>
      <trkpt lat="42.1922090" lon="-6.6432550">
        <ele>1316.4</ele>
        <time>2021-04-01T10:38:55Z</time>
      </trkpt>
      <trkpt lat="42.1922070" lon="-6.6432480">
        <ele>1316.4</ele>
        <time>2021-04-01T10:38:56Z</time>
      </trkpt>
      <trkpt lat="42.1922110" lon="-6.6432390">
        <ele>1316.6</ele>
        <time>2021-04-01T10:38:57Z</time>
      </trkpt>
      <trkpt lat="42.1922110" lon="-6.6432310">
        <ele>1316.6</ele>
        <time>2021-04-01T10:38:59Z</time>
      </trkpt>
      <trkpt lat="42.1922100" lon="-6.6432220">
        <ele>1316.8</ele>
        <time>2021-04-01T10:39:01Z</time>
      </trkpt>
      <trkpt lat="42.1922150" lon="-6.6432180">
        <ele>1317.2</ele>
        <time>2021-04-01T10:39:04Z</time>
      </trkpt>
      <trkpt lat="42.1922190" lon="-6.6431960">
        <ele>1318.0</ele>
        <time>2021-04-01T10:39:07Z</time>
      </trkpt>
      <trkpt lat="42.1922250" lon="-6.6431890">
        <ele>1318.2</ele>
        <time>2021-04-01T10:39:08Z</time>
      </trkpt>
      <trkpt lat="42.1922280" lon="-6.6431830">
        <ele>1318.6</ele>
        <time>2021-04-01T10:39:10Z</time>
      </trkpt>
      <trkpt lat="42.1922280" lon="-6.6431870">
        <ele>1318.6</ele>
        <time>2021-04-01T10:39:14Z</time>
      </trkpt>
      <trkpt lat="42.1922480" lon="-6.6431550">
        <ele>1319.0</ele>
        <time>2021-04-01T10:39:18Z</time>
      </trkpt>
      <trkpt lat="42.1922650" lon="-6.6431490">
        <ele>1319.2</ele>
        <time>2021-04-01T10:39:20Z</time>
      </trkpt>
      <trkpt lat="42.1922980" lon="-6.6430950">
        <ele>1319.8</ele>
        <time>2021-04-01T10:39:25Z</time>
      </trkpt>
      <trkpt lat="42.1923040" lon="-6.6430800">
        <ele>1320.0</ele>
        <time>2021-04-01T10:39:26Z</time>
      </trkpt>
      <trkpt lat="42.1923040" lon="-6.6430800">
        <ele>1321.2</ele>
        <time>2021-04-01T10:39:32Z</time>
      </trkpt>
      <trkpt lat="42.1923500" lon="-6.6430200">
        <ele>1321.4</ele>
        <time>2021-04-01T10:39:34Z</time>
      </trkpt>
      <trkpt lat="42.1923680" lon="-6.6429790">
        <ele>1322.2</ele>
        <time>2021-04-01T10:39:41Z</time>
      </trkpt>
      <trkpt lat="42.1923690" lon="-6.6429750">
        <ele>1322.4</ele>
        <time>2021-04-01T10:39:42Z</time>
      </trkpt>
      <trkpt lat="42.1923840" lon="-6.6429450">
        <ele>1323.4</ele>
        <time>2021-04-01T10:39:48Z</time>
      </trkpt>
      <trkpt lat="42.1923970" lon="-6.6429280">
        <ele>1323.6</ele>
        <time>2021-04-01T10:39:50Z</time>
      </trkpt>
      <trkpt lat="42.1924080" lon="-6.6429120">
        <ele>1323.6</ele>
        <time>2021-04-01T10:39:52Z</time>
      </trkpt>
      <trkpt lat="42.1924110" lon="-6.6429020">
        <ele>1324.0</ele>
        <time>2021-04-01T10:39:54Z</time>
      </trkpt>
      <trkpt lat="42.1924290" lon="-6.6428580">
        <ele>1324.0</ele>
        <time>2021-04-01T10:40:00Z</time>
      </trkpt>
      <trkpt lat="42.1924390" lon="-6.6428390">
        <ele>1324.4</ele>
        <time>2021-04-01T10:40:02Z</time>
      </trkpt>
      <trkpt lat="42.1924430" lon="-6.6428350">
        <ele>1324.6</ele>
        <time>2021-04-01T10:40:03Z</time>
      </trkpt>
      <trkpt lat="42.1924510" lon="-6.6428200">
        <ele>1325.2</ele>
        <time>2021-04-01T10:40:06Z</time>
      </trkpt>
      <trkpt lat="42.1924600" lon="-6.6428020">
        <ele>1326.0</ele>
        <time>2021-04-01T10:40:10Z</time>
      </trkpt>
      <trkpt lat="42.1924710" lon="-6.6427830">
        <ele>1326.4</ele>
        <time>2021-04-01T10:40:13Z</time>
      </trkpt>
      <trkpt lat="42.1925010" lon="-6.6427660">
        <ele>1326.4</ele>
        <time>2021-04-01T10:40:16Z</time>
      </trkpt>
      <trkpt lat="42.1925330" lon="-6.6427400">
        <ele>1327.0</ele>
        <time>2021-04-01T10:40:20Z</time>
      </trkpt>
      <trkpt lat="42.1925480" lon="-6.6427210">
        <ele>1327.2</ele>
        <time>2021-04-01T10:40:22Z</time>
      </trkpt>
      <trkpt lat="42.1925610" lon="-6.6426950">
        <ele>1326.8</ele>
        <time>2021-04-01T10:40:24Z</time>
      </trkpt>
      <trkpt lat="42.1925760" lon="-6.6426590">
        <ele>1326.6</ele>
        <time>2021-04-01T10:40:26Z</time>
      </trkpt>
      <trkpt lat="42.1925930" lon="-6.6426270">
        <ele>1326.2</ele>
        <time>2021-04-01T10:40:28Z</time>
      </trkpt>
      <trkpt lat="42.1926030" lon="-6.6426140">
        <ele>1326.0</ele>
        <time>2021-04-01T10:40:29Z</time>
      </trkpt>
      <trkpt lat="42.1926310" lon="-6.6425800">
        <ele>1324.6</ele>
        <time>2021-04-01T10:40:32Z</time>
      </trkpt>
      <trkpt lat="42.1926460" lon="-6.6425490">
        <ele>1324.2</ele>
        <time>2021-04-01T10:40:34Z</time>
      </trkpt>
      <trkpt lat="42.1927090" lon="-6.6424390">
        <ele>1324.4</ele>
        <time>2021-04-01T10:40:41Z</time>
      </trkpt>
      <trkpt lat="42.1927260" lon="-6.6423930">
        <ele>1323.8</ele>
        <time>2021-04-01T10:40:44Z</time>
      </trkpt>
      <trkpt lat="42.1927270" lon="-6.6423800">
        <ele>1323.6</ele>
        <time>2021-04-01T10:40:45Z</time>
      </trkpt>
      <trkpt lat="42.1927350" lon="-6.6423480">
        <ele>1323.4</ele>
        <time>2021-04-01T10:40:47Z</time>
      </trkpt>
      <trkpt lat="42.1927350" lon="-6.6423230">
        <ele>1323.2</ele>
        <time>2021-04-01T10:40:49Z</time>
      </trkpt>
      <trkpt lat="42.1927340" lon="-6.6423110">
        <ele>1323.2</ele>
        <time>2021-04-01T10:40:50Z</time>
      </trkpt>
      <trkpt lat="42.1927430" lon="-6.6422820">
        <ele>1322.6</ele>
        <time>2021-04-01T10:40:53Z</time>
      </trkpt>
      <trkpt lat="42.1927410" lon="-6.6422710">
        <ele>1322.4</ele>
        <time>2021-04-01T10:40:54Z</time>
      </trkpt>
      <trkpt lat="42.1927390" lon="-6.6422570">
        <ele>1322.4</ele>
        <time>2021-04-01T10:40:57Z</time>
      </trkpt>
      <trkpt lat="42.1927590" lon="-6.6422490">
        <ele>1322.2</ele>
        <time>2021-04-01T10:40:59Z</time>
      </trkpt>
      <trkpt lat="42.1927710" lon="-6.6422430">
        <ele>1322.0</ele>
        <time>2021-04-01T10:41:00Z</time>
      </trkpt>
      <trkpt lat="42.1927910" lon="-6.6422250">
        <ele>1321.4</ele>
        <time>2021-04-01T10:41:02Z</time>
      </trkpt>
      <trkpt lat="42.1928000" lon="-6.6422130">
        <ele>1321.0</ele>
        <time>2021-04-01T10:41:03Z</time>
      </trkpt>
      <trkpt lat="42.1928000" lon="-6.6422130">
        <ele>1320.8</ele>
        <time>2021-04-01T10:41:04Z</time>
      </trkpt>
      <trkpt lat="42.1928360" lon="-6.6421890">
        <ele>1320.6</ele>
        <time>2021-04-01T10:41:07Z</time>
      </trkpt>
      <trkpt lat="42.1928420" lon="-6.6421830">
        <ele>1320.6</ele>
        <time>2021-04-01T10:41:08Z</time>
      </trkpt>
      <trkpt lat="42.1928480" lon="-6.6421790">
        <ele>1320.8</ele>
        <time>2021-04-01T10:41:09Z</time>
      </trkpt>
      <trkpt lat="42.1928590" lon="-6.6421670">
        <ele>1321.0</ele>
        <time>2021-04-01T10:41:11Z</time>
      </trkpt>
      <trkpt lat="42.1928650" lon="-6.6421590">
        <ele>1321.0</ele>
        <time>2021-04-01T10:41:12Z</time>
      </trkpt>
      <trkpt lat="42.1928870" lon="-6.6421300">
        <ele>1320.6</ele>
        <time>2021-04-01T10:41:15Z</time>
      </trkpt>
      <trkpt lat="42.1928960" lon="-6.6421190">
        <ele>1320.4</ele>
        <time>2021-04-01T10:41:16Z</time>
      </trkpt>
      <trkpt lat="42.1929070" lon="-6.6421090">
        <ele>1320.4</ele>
        <time>2021-04-01T10:41:17Z</time>
      </trkpt>
      <trkpt lat="42.1929590" lon="-6.6420310">
        <ele>1320.2</ele>
        <time>2021-04-01T10:41:24Z</time>
      </trkpt>
      <trkpt lat="42.1929620" lon="-6.6420240">
        <ele>1320.0</ele>
        <time>2021-04-01T10:41:25Z</time>
      </trkpt>
      <trkpt lat="42.1929730" lon="-6.6420030">
        <ele>1319.6</ele>
        <time>2021-04-01T10:41:27Z</time>
      </trkpt>
      <trkpt lat="42.1929720" lon="-6.6419880">
        <ele>1319.6</ele>
        <time>2021-04-01T10:41:28Z</time>
      </trkpt>
      <trkpt lat="42.1930010" lon="-6.6419550">
        <ele>1319.2</ele>
        <time>2021-04-01T10:41:32Z</time>
      </trkpt>
      <trkpt lat="42.1930270" lon="-6.6419120">
        <ele>1318.8</ele>
        <time>2021-04-01T10:41:36Z</time>
      </trkpt>
      <trkpt lat="42.1930440" lon="-6.6419070">
        <ele>1318.6</ele>
        <time>2021-04-01T10:41:38Z</time>
      </trkpt>
      <trkpt lat="42.1930640" lon="-6.6418840">
        <ele>1318.4</ele>
        <time>2021-04-01T10:41:42Z</time>
      </trkpt>
      <trkpt lat="42.1930720" lon="-6.6418850">
        <ele>1318.0</ele>
        <time>2021-04-01T10:41:44Z</time>
      </trkpt>
      <trkpt lat="42.1931100" lon="-6.6418830">
        <ele>1317.2</ele>
        <time>2021-04-01T10:41:47Z</time>
      </trkpt>
      <trkpt lat="42.1931180" lon="-6.6418940">
        <ele>1317.0</ele>
        <time>2021-04-01T10:41:49Z</time>
      </trkpt>
      <trkpt lat="42.1930970" lon="-6.6418860">
        <ele>1317.0</ele>
        <time>2021-04-01T10:41:50Z</time>
      </trkpt>
      <trkpt lat="42.1930800" lon="-6.6418670">
        <ele>1317.0</ele>
        <time>2021-04-01T10:41:55Z</time>
      </trkpt>
      <trkpt lat="42.1931290" lon="-6.6418800">
        <ele>1317.0</ele>
        <time>2021-04-01T10:41:58Z</time>
      </trkpt>
      <trkpt lat="42.1931460" lon="-6.6418860">
        <ele>1317.0</ele>
        <time>2021-04-01T10:41:59Z</time>
      </trkpt>
      <trkpt lat="42.1931700" lon="-6.6418680">
        <ele>1317.6</ele>
        <time>2021-04-01T10:42:02Z</time>
      </trkpt>
      <trkpt lat="42.1931700" lon="-6.6418580">
        <ele>1317.8</ele>
        <time>2021-04-01T10:42:03Z</time>
      </trkpt>
      <trkpt lat="42.1931630" lon="-6.6418530">
        <ele>1318.0</ele>
        <time>2021-04-01T10:42:04Z</time>
      </trkpt>
      <trkpt lat="42.1931510" lon="-6.6418300">
        <ele>1318.2</ele>
        <time>2021-04-01T10:42:06Z</time>
      </trkpt>
      <trkpt lat="42.1931650" lon="-6.6417940">
        <ele>1317.6</ele>
        <time>2021-04-01T10:42:11Z</time>
      </trkpt>
      <trkpt lat="42.1931590" lon="-6.6418000">
        <ele>1317.2</ele>
        <time>2021-04-01T10:42:12Z</time>
      </trkpt>
      <trkpt lat="42.1931540" lon="-6.6418050">
        <ele>1317.0</ele>
        <time>2021-04-01T10:42:13Z</time>
      </trkpt>
      <trkpt lat="42.1931430" lon="-6.6418160">
        <ele>1316.6</ele>
        <time>2021-04-01T10:42:18Z</time>
      </trkpt>
      <trkpt lat="42.1931730" lon="-6.6418200">
        <ele>1316.4</ele>
        <time>2021-04-01T10:42:22Z</time>
      </trkpt>
      <trkpt lat="42.1931700" lon="-6.6418400">
        <ele>1316.4</ele>
        <time>2021-04-01T10:42:26Z</time>
      </trkpt>
      <trkpt lat="42.1932000" lon="-6.6418650">
        <ele>1316.8</ele>
        <time>2021-04-01T10:42:33Z</time>
      </trkpt>
      <trkpt lat="42.1932040" lon="-6.6418590">
        <ele>1316.8</ele>
        <time>2021-04-01T10:42:36Z</time>
      </trkpt>
      <trkpt lat="42.1931780" lon="-6.6418590">
        <ele>1316.6</ele>
        <time>2021-04-01T10:42:39Z</time>
      </trkpt>
      <trkpt lat="42.1931540" lon="-6.6418420">
        <ele>1316.8</ele>
        <time>2021-04-01T10:42:45Z</time>
      </trkpt>
      <trkpt lat="42.1931600" lon="-6.6418270">
        <ele>1317.2</ele>
        <time>2021-04-01T10:42:47Z</time>
      </trkpt>
      <trkpt lat="42.1931720" lon="-6.6417900">
        <ele>1316.6</ele>
        <time>2021-04-01T10:42:51Z</time>
      </trkpt>
      <trkpt lat="42.1931850" lon="-6.6417900">
        <ele>1316.6</ele>
        <time>2021-04-01T10:42:54Z</time>
      </trkpt>
      <trkpt lat="42.1931870" lon="-6.6418010">
        <ele>1316.8</ele>
        <time>2021-04-01T10:42:57Z</time>
      </trkpt>
      <trkpt lat="42.1931930" lon="-6.6418120">
        <ele>1316.8</ele>
        <time>2021-04-01T10:43:00Z</time>
      </trkpt>
      <trkpt lat="42.1931630" lon="-6.6418280">
        <ele>1317.2</ele>
        <time>2021-04-01T10:43:05Z</time>
      </trkpt>
      <trkpt lat="42.1931320" lon="-6.6418120">
        <ele>1317.0</ele>
        <time>2021-04-01T10:43:11Z</time>
      </trkpt>
      <trkpt lat="42.1931160" lon="-6.6417950">
        <ele>1317.0</ele>
        <time>2021-04-01T10:43:18Z</time>
      </trkpt>
      <trkpt lat="42.1930620" lon="-6.6418060">
        <ele>1317.0</ele>
        <time>2021-04-01T10:43:25Z</time>
      </trkpt>
      <trkpt lat="42.1930670" lon="-6.6417990">
        <ele>1317.0</ele>
        <time>2021-04-01T10:43:31Z</time>
      </trkpt>
      <trkpt lat="42.1931010" lon="-6.6417930">
        <ele>1317.0</ele>
        <time>2021-04-01T10:43:35Z</time>
      </trkpt>
      <trkpt lat="42.1931180" lon="-6.6417880">
        <ele>1316.8</ele>
        <time>2021-04-01T10:43:37Z</time>
      </trkpt>
      <trkpt lat="42.1931320" lon="-6.6417860">
        <ele>1316.8</ele>
        <time>2021-04-01T10:43:39Z</time>
      </trkpt>
      <trkpt lat="42.1931660" lon="-6.6417800">
        <ele>1316.8</ele>
        <time>2021-04-01T10:43:44Z</time>
      </trkpt>
      <trkpt lat="42.1931930" lon="-6.6417670">
        <ele>1316.8</ele>
        <time>2021-04-01T10:43:52Z</time>
      </trkpt>
      <trkpt lat="42.1932130" lon="-6.6417660">
        <ele>1316.6</ele>
        <time>2021-04-01T10:43:57Z</time>
      </trkpt>
      <trkpt lat="42.1932160" lon="-6.6417660">
        <ele>1316.6</ele>
        <time>2021-04-01T10:43:58Z</time>
      </trkpt>
      <trkpt lat="42.1932410" lon="-6.6417650">
        <ele>1316.6</ele>
        <time>2021-04-01T10:44:02Z</time>
      </trkpt>
      <trkpt lat="42.1932530" lon="-6.6417640">
        <ele>1316.6</ele>
        <time>2021-04-01T10:44:04Z</time>
      </trkpt>
      <trkpt lat="42.1932630" lon="-6.6417700">
        <ele>1316.6</ele>
        <time>2021-04-01T10:44:07Z</time>
      </trkpt>
      <trkpt lat="42.1932620" lon="-6.6417730">
        <ele>1316.6</ele>
        <time>2021-04-01T10:44:10Z</time>
      </trkpt>
      <trkpt lat="42.1932770" lon="-6.6417740">
        <ele>1316.6</ele>
        <time>2021-04-01T10:44:13Z</time>
      </trkpt>
      <trkpt lat="42.1932810" lon="-6.6418240">
        <ele>1316.6</ele>
        <time>2021-04-01T10:44:18Z</time>
      </trkpt>
      <trkpt lat="42.1932910" lon="-6.6418050">
        <ele>1316.6</ele>
        <time>2021-04-01T10:44:24Z</time>
      </trkpt>
      <trkpt lat="42.1933040" lon="-6.6417940">
        <ele>1316.6</ele>
        <time>2021-04-01T10:44:28Z</time>
      </trkpt>
      <trkpt lat="42.1933090" lon="-6.6417910">
        <ele>1316.6</ele>
        <time>2021-04-01T10:44:29Z</time>
      </trkpt>
      <trkpt lat="42.1933120" lon="-6.6417790">
        <ele>1316.6</ele>
        <time>2021-04-01T10:44:31Z</time>
      </trkpt>
      <trkpt lat="42.1933150" lon="-6.6417750">
        <ele>1316.6</ele>
        <time>2021-04-01T10:44:32Z</time>
      </trkpt>
      <trkpt lat="42.1933110" lon="-6.6417690">
        <ele>1316.6</ele>
        <time>2021-04-01T10:44:33Z</time>
      </trkpt>
      <trkpt lat="42.1933010" lon="-6.6417520">
        <ele>1316.6</ele>
        <time>2021-04-01T10:44:35Z</time>
      </trkpt>
      <trkpt lat="42.1932980" lon="-6.6417480">
        <ele>1316.6</ele>
        <time>2021-04-01T10:44:36Z</time>
      </trkpt>
      <trkpt lat="42.1932900" lon="-6.6417440">
        <ele>1316.6</ele>
        <time>2021-04-01T10:44:37Z</time>
      </trkpt>
      <trkpt lat="42.1932860" lon="-6.6417370">
        <ele>1316.6</ele>
        <time>2021-04-01T10:44:39Z</time>
      </trkpt>
      <trkpt lat="42.1932930" lon="-6.6417500">
        <ele>1316.6</ele>
        <time>2021-04-01T10:44:41Z</time>
      </trkpt>
      <trkpt lat="42.1932900" lon="-6.6417700">
        <ele>1316.6</ele>
        <time>2021-04-01T10:44:43Z</time>
      </trkpt>
      <trkpt lat="42.1932910" lon="-6.6417810">
        <ele>1316.6</ele>
        <time>2021-04-01T10:44:46Z</time>
      </trkpt>
      <trkpt lat="42.1933190" lon="-6.6417810">
        <ele>1316.6</ele>
        <time>2021-04-01T10:44:49Z</time>
      </trkpt>
      <trkpt lat="42.1933440" lon="-6.6417890">
        <ele>1316.6</ele>
        <time>2021-04-01T10:44:54Z</time>
      </trkpt>
      <trkpt lat="42.1933550" lon="-6.6417910">
        <ele>1316.6</ele>
        <time>2021-04-01T10:44:55Z</time>
      </trkpt>
      <trkpt lat="42.1933750" lon="-6.6417950">
        <ele>1320.6</ele>
        <time>2021-04-01T10:44:57Z</time>
      </trkpt>
      <trkpt lat="42.1934180" lon="-6.6417930">
        <ele>1321.6</ele>
        <time>2021-04-01T10:45:01Z</time>
      </trkpt>
      <trkpt lat="42.1934260" lon="-6.6417940">
        <ele>1321.8</ele>
        <time>2021-04-01T10:45:02Z</time>
      </trkpt>
      <trkpt lat="42.1934570" lon="-6.6417970">
        <ele>1321.8</ele>
        <time>2021-04-01T10:45:05Z</time>
      </trkpt>
      <trkpt lat="42.1934720" lon="-6.6418350">
        <ele>1322.2</ele>
        <time>2021-04-01T10:45:09Z</time>
      </trkpt>
      <trkpt lat="42.1934760" lon="-6.6418520">
        <ele>1322.2</ele>
        <time>2021-04-01T10:45:10Z</time>
      </trkpt>
      <trkpt lat="42.1934800" lon="-6.6418830">
        <ele>1322.2</ele>
        <time>2021-04-01T10:45:12Z</time>
      </trkpt>
      <trkpt lat="42.1934890" lon="-6.6419320">
        <ele>1322.0</ele>
        <time>2021-04-01T10:45:16Z</time>
      </trkpt>
      <trkpt lat="42.1934950" lon="-6.6419410">
        <ele>1322.0</ele>
        <time>2021-04-01T10:45:17Z</time>
      </trkpt>
      <trkpt lat="42.1935170" lon="-6.6419650">
        <ele>1321.8</ele>
        <time>2021-04-01T10:45:19Z</time>
      </trkpt>
      <trkpt lat="42.1935100" lon="-6.6419580">
        <ele>1321.8</ele>
        <time>2021-04-01T10:45:23Z</time>
      </trkpt>
      <trkpt lat="42.1935110" lon="-6.6419570">
        <ele>1321.8</ele>
        <time>2021-04-01T10:45:24Z</time>
      </trkpt>
      <trkpt lat="42.1935180" lon="-6.6419410">
        <ele>1322.4</ele>
        <time>2021-04-01T10:45:26Z</time>
      </trkpt>
      <trkpt lat="42.1935520" lon="-6.6419240">
        <ele>1322.6</ele>
        <time>2021-04-01T10:45:29Z</time>
      </trkpt>
      <trkpt lat="42.1935760" lon="-6.6419200">
        <ele>1322.6</ele>
        <time>2021-04-01T10:45:31Z</time>
      </trkpt>
      <trkpt lat="42.1936090" lon="-6.6419320">
        <ele>1322.4</ele>
        <time>2021-04-01T10:45:33Z</time>
      </trkpt>
      <trkpt lat="42.1936290" lon="-6.6419350">
        <ele>1322.4</ele>
        <time>2021-04-01T10:45:34Z</time>
      </trkpt>
      <trkpt lat="42.1936650" lon="-6.6419570">
        <ele>1322.4</ele>
        <time>2021-04-01T10:45:37Z</time>
      </trkpt>
      <trkpt lat="42.1936750" lon="-6.6419680">
        <ele>1322.4</ele>
        <time>2021-04-01T10:45:38Z</time>
      </trkpt>
      <trkpt lat="42.1936900" lon="-6.6419850">
        <ele>1322.4</ele>
        <time>2021-04-01T10:45:40Z</time>
      </trkpt>
      <trkpt lat="42.1936940" lon="-6.6419920">
        <ele>1322.2</ele>
        <time>2021-04-01T10:45:41Z</time>
      </trkpt>
      <trkpt lat="42.1937050" lon="-6.6419960">
        <ele>1322.2</ele>
        <time>2021-04-01T10:45:43Z</time>
      </trkpt>
      <trkpt lat="42.1937110" lon="-6.6420000">
        <ele>1322.2</ele>
        <time>2021-04-01T10:45:44Z</time>
      </trkpt>
      <trkpt lat="42.1937420" lon="-6.6419900">
        <ele>1322.2</ele>
        <time>2021-04-01T10:45:48Z</time>
      </trkpt>
      <trkpt lat="42.1937380" lon="-6.6419450">
        <ele>1322.2</ele>
        <time>2021-04-01T10:45:53Z</time>
      </trkpt>
      <trkpt lat="42.1937590" lon="-6.6418640">
        <ele>1322.4</ele>
        <time>2021-04-01T10:45:59Z</time>
      </trkpt>
      <trkpt lat="42.1937540" lon="-6.6418850">
        <ele>1322.6</ele>
        <time>2021-04-01T10:46:02Z</time>
      </trkpt>
      <trkpt lat="42.1937560" lon="-6.6419290">
        <ele>1322.8</ele>
        <time>2021-04-01T10:46:05Z</time>
      </trkpt>
      <trkpt lat="42.1937520" lon="-6.6419340">
        <ele>1322.8</ele>
        <time>2021-04-01T10:46:06Z</time>
      </trkpt>
      <trkpt lat="42.1937510" lon="-6.6419350">
        <ele>1322.8</ele>
        <time>2021-04-01T10:46:07Z</time>
      </trkpt>
      <trkpt lat="42.1936830" lon="-6.6419110">
        <ele>1322.6</ele>
        <time>2021-04-01T10:46:12Z</time>
      </trkpt>
      <trkpt lat="42.1936750" lon="-6.6419060">
        <ele>1322.6</ele>
        <time>2021-04-01T10:46:14Z</time>
      </trkpt>
      <trkpt lat="42.1936450" lon="-6.6419090">
        <ele>1322.6</ele>
        <time>2021-04-01T10:46:16Z</time>
      </trkpt>
      <trkpt lat="42.1936200" lon="-6.6419110">
        <ele>1322.4</ele>
        <time>2021-04-01T10:46:18Z</time>
      </trkpt>
      <trkpt lat="42.1935990" lon="-6.6419060">
        <ele>1322.2</ele>
        <time>2021-04-01T10:46:19Z</time>
      </trkpt>
      <trkpt lat="42.1935610" lon="-6.6418890">
        <ele>1322.0</ele>
        <time>2021-04-01T10:46:22Z</time>
      </trkpt>
      <trkpt lat="42.1934950" lon="-6.6418590">
        <ele>1322.0</ele>
        <time>2021-04-01T10:46:26Z</time>
      </trkpt>
      <trkpt lat="42.1934700" lon="-6.6418490">
        <ele>1321.8</ele>
        <time>2021-04-01T10:46:27Z</time>
      </trkpt>
      <trkpt lat="42.1934210" lon="-6.6418400">
        <ele>1321.4</ele>
        <time>2021-04-01T10:46:30Z</time>
      </trkpt>
      <trkpt lat="42.1934060" lon="-6.6418340">
        <ele>1321.2</ele>
        <time>2021-04-01T10:46:31Z</time>
      </trkpt>
      <trkpt lat="42.1933930" lon="-6.6418290">
        <ele>1321.0</ele>
        <time>2021-04-01T10:46:32Z</time>
      </trkpt>
      <trkpt lat="42.1933560" lon="-6.6418200">
        <ele>1320.4</ele>
        <time>2021-04-01T10:46:35Z</time>
      </trkpt>
      <trkpt lat="42.1933150" lon="-6.6418020">
        <ele>1320.0</ele>
        <time>2021-04-01T10:46:38Z</time>
      </trkpt>
      <trkpt lat="42.1932980" lon="-6.6417910">
        <ele>1320.0</ele>
        <time>2021-04-01T10:46:39Z</time>
      </trkpt>
      <trkpt lat="42.1932640" lon="-6.6417650">
        <ele>1319.2</ele>
        <time>2021-04-01T10:46:42Z</time>
      </trkpt>
      <trkpt lat="42.1932550" lon="-6.6417560">
        <ele>1319.0</ele>
        <time>2021-04-01T10:46:43Z</time>
      </trkpt>
      <trkpt lat="42.1932550" lon="-6.6417490">
        <ele>1318.8</ele>
        <time>2021-04-01T10:46:44Z</time>
      </trkpt>
      <trkpt lat="42.1932480" lon="-6.6417440">
        <ele>1318.2</ele>
        <time>2021-04-01T10:46:46Z</time>
      </trkpt>
      <trkpt lat="42.1932550" lon="-6.6417410">
        <ele>1318.0</ele>
        <time>2021-04-01T10:46:48Z</time>
      </trkpt>
      <trkpt lat="42.1932690" lon="-6.6417380">
        <ele>1318.0</ele>
        <time>2021-04-01T10:46:49Z</time>
      </trkpt>
      <trkpt lat="42.1932710" lon="-6.6417110">
        <ele>1318.6</ele>
        <time>2021-04-01T10:46:56Z</time>
      </trkpt>
      <trkpt lat="42.1932540" lon="-6.6417080">
        <ele>1318.6</ele>
        <time>2021-04-01T10:47:00Z</time>
      </trkpt>
      <trkpt lat="42.1932510" lon="-6.6417100">
        <ele>1318.6</ele>
        <time>2021-04-01T10:47:01Z</time>
      </trkpt>
      <trkpt lat="42.1932310" lon="-6.6417090">
        <ele>1319.0</ele>
        <time>2021-04-01T10:47:05Z</time>
      </trkpt>
      <trkpt lat="42.1932240" lon="-6.6417160">
        <ele>1319.0</ele>
        <time>2021-04-01T10:47:07Z</time>
      </trkpt>
      <trkpt lat="42.1931750" lon="-6.6417390">
        <ele>1319.2</ele>
        <time>2021-04-01T10:47:15Z</time>
      </trkpt>
      <trkpt lat="42.1931430" lon="-6.6417390">
        <ele>1319.0</ele>
        <time>2021-04-01T10:47:22Z</time>
      </trkpt>
      <trkpt lat="42.1931380" lon="-6.6417240">
        <ele>1319.4</ele>
        <time>2021-04-01T10:47:25Z</time>
      </trkpt>
      <trkpt lat="42.1931320" lon="-6.6417180">
        <ele>1320.0</ele>
        <time>2021-04-01T10:47:29Z</time>
      </trkpt>
      <trkpt lat="42.1931190" lon="-6.6417360">
        <ele>1320.0</ele>
        <time>2021-04-01T10:47:34Z</time>
      </trkpt>
      <trkpt lat="42.1931410" lon="-6.6416880">
        <ele>1319.6</ele>
        <time>2021-04-01T10:47:41Z</time>
      </trkpt>
      <trkpt lat="42.1931470" lon="-6.6416660">
        <ele>1319.4</ele>
        <time>2021-04-01T10:47:47Z</time>
      </trkpt>
      <trkpt lat="42.1931610" lon="-6.6416660">
        <ele>1319.2</ele>
        <time>2021-04-01T10:47:49Z</time>
      </trkpt>
      <trkpt lat="42.1929980" lon="-6.6417730">
        <ele>1324.8</ele>
        <time>2021-04-01T11:04:43Z</time>
      </trkpt>
      <trkpt lat="42.1929980" lon="-6.6417740">
        <ele>1324.8</ele>
        <time>2021-04-01T11:04:44Z</time>
      </trkpt>
      <trkpt lat="42.1929600" lon="-6.6417920">
        <ele>1324.4</ele>
        <time>2021-04-01T11:04:47Z</time>
      </trkpt>
      <trkpt lat="42.1929490" lon="-6.6418410">
        <ele>1324.8</ele>
        <time>2021-04-01T11:04:50Z</time>
      </trkpt>
      <trkpt lat="42.1929300" lon="-6.6418970">
        <ele>1325.0</ele>
        <time>2021-04-01T11:04:55Z</time>
      </trkpt>
      <trkpt lat="42.1929190" lon="-6.6419180">
        <ele>1325.2</ele>
        <time>2021-04-01T11:04:57Z</time>
      </trkpt>
      <trkpt lat="42.1929110" lon="-6.6419650">
        <ele>1325.4</ele>
        <time>2021-04-01T11:05:01Z</time>
      </trkpt>
      <trkpt lat="42.1929100" lon="-6.6419820">
        <ele>1325.6</ele>
        <time>2021-04-01T11:05:03Z</time>
      </trkpt>
      <trkpt lat="42.1928950" lon="-6.6420140">
        <ele>1326.0</ele>
        <time>2021-04-01T11:05:05Z</time>
      </trkpt>
      <trkpt lat="42.1928830" lon="-6.6420290">
        <ele>1326.0</ele>
        <time>2021-04-01T11:05:06Z</time>
      </trkpt>
      <trkpt lat="42.1928800" lon="-6.6420460">
        <ele>1326.0</ele>
        <time>2021-04-01T11:05:07Z</time>
      </trkpt>
      <trkpt lat="42.1927740" lon="-6.6421480">
        <ele>1326.0</ele>
        <time>2021-04-01T11:05:13Z</time>
      </trkpt>
      <trkpt lat="42.1927410" lon="-6.6421800">
        <ele>1326.4</ele>
        <time>2021-04-01T11:05:16Z</time>
      </trkpt>
      <trkpt lat="42.1927230" lon="-6.6422050">
        <ele>1326.4</ele>
        <time>2021-04-01T11:05:19Z</time>
      </trkpt>
      <trkpt lat="42.1927130" lon="-6.6422460">
        <ele>1326.8</ele>
        <time>2021-04-01T11:05:23Z</time>
      </trkpt>
      <trkpt lat="42.1927090" lon="-6.6422580">
        <ele>1327.2</ele>
        <time>2021-04-01T11:05:24Z</time>
      </trkpt>
      <trkpt lat="42.1927050" lon="-6.6422940">
        <ele>1327.6</ele>
        <time>2021-04-01T11:05:27Z</time>
      </trkpt>
      <trkpt lat="42.1927030" lon="-6.6423060">
        <ele>1327.8</ele>
        <time>2021-04-01T11:05:28Z</time>
      </trkpt>
      <trkpt lat="42.1927010" lon="-6.6423130">
        <ele>1327.8</ele>
        <time>2021-04-01T11:05:29Z</time>
      </trkpt>
      <trkpt lat="42.1926930" lon="-6.6423390">
        <ele>1327.8</ele>
        <time>2021-04-01T11:05:32Z</time>
      </trkpt>
      <trkpt lat="42.1926900" lon="-6.6423490">
        <ele>1328.0</ele>
        <time>2021-04-01T11:05:34Z</time>
      </trkpt>
      <trkpt lat="42.1926330" lon="-6.6423450">
        <ele>1328.2</ele>
        <time>2021-04-01T11:05:35Z</time>
      </trkpt>
      <trkpt lat="42.1926150" lon="-6.6423540">
        <ele>1328.4</ele>
        <time>2021-04-01T11:05:37Z</time>
      </trkpt>
      <trkpt lat="42.1925930" lon="-6.6424180">
        <ele>1328.6</ele>
        <time>2021-04-01T11:05:39Z</time>
      </trkpt>
      <trkpt lat="42.1925890" lon="-6.6424510">
        <ele>1328.6</ele>
        <time>2021-04-01T11:05:40Z</time>
      </trkpt>
      <trkpt lat="42.1925890" lon="-6.6424970">
        <ele>1328.8</ele>
        <time>2021-04-01T11:05:42Z</time>
      </trkpt>
      <trkpt lat="42.1925760" lon="-6.6425310">
        <ele>1328.8</ele>
        <time>2021-04-01T11:05:44Z</time>
      </trkpt>
      <trkpt lat="42.1925600" lon="-6.6425990">
        <ele>1329.2</ele>
        <time>2021-04-01T11:05:48Z</time>
      </trkpt>
      <trkpt lat="42.1925530" lon="-6.6426140">
        <ele>1329.2</ele>
        <time>2021-04-01T11:05:49Z</time>
      </trkpt>
      <trkpt lat="42.1925220" lon="-6.6426910">
        <ele>1330.2</ele>
        <time>2021-04-01T11:05:56Z</time>
      </trkpt>
      <trkpt lat="42.1925230" lon="-6.6426970">
        <ele>1330.4</ele>
        <time>2021-04-01T11:05:57Z</time>
      </trkpt>
      <trkpt lat="42.1925040" lon="-6.6427300">
        <ele>1330.8</ele>
        <time>2021-04-01T11:06:01Z</time>
      </trkpt>
      <trkpt lat="42.1924710" lon="-6.6427640">
        <ele>1330.8</ele>
        <time>2021-04-01T11:06:08Z</time>
      </trkpt>
      <trkpt lat="42.1924470" lon="-6.6427760">
        <ele>1331.4</ele>
        <time>2021-04-01T11:06:16Z</time>
      </trkpt>
      <trkpt lat="42.1924410" lon="-6.6427850">
        <ele>1331.6</ele>
        <time>2021-04-01T11:06:17Z</time>
      </trkpt>
      <trkpt lat="42.1924190" lon="-6.6428160">
        <ele>1332.4</ele>
        <time>2021-04-01T11:06:20Z</time>
      </trkpt>
      <trkpt lat="42.1923980" lon="-6.6428300">
        <ele>1332.8</ele>
        <time>2021-04-01T11:06:22Z</time>
      </trkpt>
      <trkpt lat="42.1923890" lon="-6.6428330">
        <ele>1332.8</ele>
        <time>2021-04-01T11:06:23Z</time>
      </trkpt>
      <trkpt lat="42.1923550" lon="-6.6428580">
        <ele>1333.6</ele>
        <time>2021-04-01T11:06:27Z</time>
      </trkpt>
      <trkpt lat="42.1923490" lon="-6.6428680">
        <ele>1333.2</ele>
        <time>2021-04-01T11:06:28Z</time>
      </trkpt>
      <trkpt lat="42.1923260" lon="-6.6428960">
        <ele>1331.4</ele>
        <time>2021-04-01T11:06:31Z</time>
      </trkpt>
      <trkpt lat="42.1923190" lon="-6.6429110">
        <ele>1330.2</ele>
        <time>2021-04-01T11:06:32Z</time>
      </trkpt>
      <trkpt lat="42.1922790" lon="-6.6429390">
        <ele>1329.2</ele>
        <time>2021-04-01T11:06:34Z</time>
      </trkpt>
      <trkpt lat="42.1922310" lon="-6.6430320">
        <ele>1327.8</ele>
        <time>2021-04-01T11:06:41Z</time>
      </trkpt>
      <trkpt lat="42.1922290" lon="-6.6430710">
        <ele>1326.8</ele>
        <time>2021-04-01T11:06:43Z</time>
      </trkpt>
      <trkpt lat="42.1922230" lon="-6.6430990">
        <ele>1326.0</ele>
        <time>2021-04-01T11:06:45Z</time>
      </trkpt>
      <trkpt lat="42.1922130" lon="-6.6431300">
        <ele>1325.6</ele>
        <time>2021-04-01T11:06:48Z</time>
      </trkpt>
      <trkpt lat="42.1922120" lon="-6.6431280">
        <ele>1325.2</ele>
        <time>2021-04-01T11:06:49Z</time>
      </trkpt>
      <trkpt lat="42.1922040" lon="-6.6431210">
        <ele>1324.6</ele>
        <time>2021-04-01T11:06:51Z</time>
      </trkpt>
      <trkpt lat="42.1922060" lon="-6.6431130">
        <ele>1324.6</ele>
        <time>2021-04-01T11:06:54Z</time>
      </trkpt>
      <trkpt lat="42.1922210" lon="-6.6431210">
        <ele>1324.6</ele>
        <time>2021-04-01T11:06:57Z</time>
      </trkpt>
      <trkpt lat="42.1921720" lon="-6.6431110">
        <ele>1324.6</ele>
        <time>2021-04-01T11:06:59Z</time>
      </trkpt>
      <trkpt lat="42.1921860" lon="-6.6431430">
        <ele>1324.6</ele>
        <time>2021-04-01T11:07:02Z</time>
      </trkpt>
      <trkpt lat="42.1921860" lon="-6.6431740">
        <ele>1324.6</ele>
        <time>2021-04-01T11:07:05Z</time>
      </trkpt>
      <trkpt lat="42.1921720" lon="-6.6432320">
        <ele>1324.6</ele>
        <time>2021-04-01T11:07:10Z</time>
      </trkpt>
      <trkpt lat="42.1921700" lon="-6.6432430">
        <ele>1324.6</ele>
        <time>2021-04-01T11:07:11Z</time>
      </trkpt>
      <trkpt lat="42.1921670" lon="-6.6432560">
        <ele>1324.6</ele>
        <time>2021-04-01T11:07:13Z</time>
      </trkpt>
      <trkpt lat="42.1921520" lon="-6.6432750">
        <ele>1323.6</ele>
        <time>2021-04-01T11:07:16Z</time>
      </trkpt>
      <trkpt lat="42.1921440" lon="-6.6433150">
        <ele>1322.2</ele>
        <time>2021-04-01T11:07:18Z</time>
      </trkpt>
      <trkpt lat="42.1921410" lon="-6.6433290">
        <ele>1322.0</ele>
        <time>2021-04-01T11:07:19Z</time>
      </trkpt>
      <trkpt lat="42.1921440" lon="-6.6433400">
        <ele>1321.6</ele>
        <time>2021-04-01T11:07:21Z</time>
      </trkpt>
      <trkpt lat="42.1921430" lon="-6.6433310">
        <ele>1321.2</ele>
        <time>2021-04-01T11:07:25Z</time>
      </trkpt>
      <trkpt lat="42.1921410" lon="-6.6433480">
        <ele>1321.4</ele>
        <time>2021-04-01T11:07:29Z</time>
      </trkpt>
      <trkpt lat="42.1921410" lon="-6.6433570">
        <ele>1321.4</ele>
        <time>2021-04-01T11:07:30Z</time>
      </trkpt>
      <trkpt lat="42.1920990" lon="-6.6434170">
        <ele>1320.6</ele>
        <time>2021-04-01T11:07:36Z</time>
      </trkpt>
      <trkpt lat="42.1920920" lon="-6.6434280">
        <ele>1320.4</ele>
        <time>2021-04-01T11:07:37Z</time>
      </trkpt>
      <trkpt lat="42.1920790" lon="-6.6434610">
        <ele>1320.2</ele>
        <time>2021-04-01T11:07:40Z</time>
      </trkpt>
      <trkpt lat="42.1920640" lon="-6.6435110">
        <ele>1319.6</ele>
        <time>2021-04-01T11:07:44Z</time>
      </trkpt>
      <trkpt lat="42.1920400" lon="-6.6435610">
        <ele>1319.2</ele>
        <time>2021-04-01T11:07:47Z</time>
      </trkpt>
      <trkpt lat="42.1920330" lon="-6.6435850">
        <ele>1319.0</ele>
        <time>2021-04-01T11:07:49Z</time>
      </trkpt>
      <trkpt lat="42.1920200" lon="-6.6436450">
        <ele>1318.8</ele>
        <time>2021-04-01T11:07:55Z</time>
      </trkpt>
      <trkpt lat="42.1919680" lon="-6.6437410">
        <ele>1318.4</ele>
        <time>2021-04-01T11:08:01Z</time>
      </trkpt>
      <trkpt lat="42.1919490" lon="-6.6437610">
        <ele>1318.4</ele>
        <time>2021-04-01T11:08:03Z</time>
      </trkpt>
      <trkpt lat="42.1919430" lon="-6.6437710">
        <ele>1318.4</ele>
        <time>2021-04-01T11:08:05Z</time>
      </trkpt>
      <trkpt lat="42.1919440" lon="-6.6437710">
        <ele>1318.0</ele>
        <time>2021-04-01T11:08:07Z</time>
      </trkpt>
      <trkpt lat="42.1919450" lon="-6.6437670">
        <ele>1318.0</ele>
        <time>2021-04-01T11:08:10Z</time>
      </trkpt>
      <trkpt lat="42.1919400" lon="-6.6437880">
        <ele>1318.2</ele>
        <time>2021-04-01T11:08:14Z</time>
      </trkpt>
      <trkpt lat="42.1919170" lon="-6.6438430">
        <ele>1318.0</ele>
        <time>2021-04-01T11:08:22Z</time>
      </trkpt>
      <trkpt lat="42.1918950" lon="-6.6438830">
        <ele>1318.0</ele>
        <time>2021-04-01T11:08:26Z</time>
      </trkpt>
      <trkpt lat="42.1918790" lon="-6.6439330">
        <ele>1318.2</ele>
        <time>2021-04-01T11:08:29Z</time>
      </trkpt>
      <trkpt lat="42.1918640" lon="-6.6439700">
        <ele>1318.2</ele>
        <time>2021-04-01T11:08:31Z</time>
      </trkpt>
      <trkpt lat="42.1918170" lon="-6.6440490">
        <ele>1318.4</ele>
        <time>2021-04-01T11:08:36Z</time>
      </trkpt>
      <trkpt lat="42.1918080" lon="-6.6440610">
        <ele>1318.6</ele>
        <time>2021-04-01T11:08:37Z</time>
      </trkpt>
      <trkpt lat="42.1917290" lon="-6.6441290">
        <ele>1318.6</ele>
        <time>2021-04-01T11:08:43Z</time>
      </trkpt>
      <trkpt lat="42.1917200" lon="-6.6441490">
        <ele>1318.6</ele>
        <time>2021-04-01T11:08:44Z</time>
      </trkpt>
      <trkpt lat="42.1916780" lon="-6.6442130">
        <ele>1318.6</ele>
        <time>2021-04-01T11:08:50Z</time>
      </trkpt>
      <trkpt lat="42.1916740" lon="-6.6442160">
        <ele>1318.6</ele>
        <time>2021-04-01T11:08:51Z</time>
      </trkpt>
      <trkpt lat="42.1916660" lon="-6.6442260">
        <ele>1318.6</ele>
        <time>2021-04-01T11:08:53Z</time>
      </trkpt>
      <trkpt lat="42.1916460" lon="-6.6442460">
        <ele>1318.4</ele>
        <time>2021-04-01T11:08:56Z</time>
      </trkpt>
      <trkpt lat="42.1916130" lon="-6.6442900">
        <ele>1318.2</ele>
        <time>2021-04-01T11:09:00Z</time>
      </trkpt>
      <trkpt lat="42.1916030" lon="-6.6443070">
        <ele>1318.2</ele>
        <time>2021-04-01T11:09:01Z</time>
      </trkpt>
      <trkpt lat="42.1915880" lon="-6.6443450">
        <ele>1318.4</ele>
        <time>2021-04-01T11:09:03Z</time>
      </trkpt>
      <trkpt lat="42.1915530" lon="-6.6443940">
        <ele>1318.6</ele>
        <time>2021-04-01T11:09:07Z</time>
      </trkpt>
      <trkpt lat="42.1914920" lon="-6.6444750">
        <ele>1318.6</ele>
        <time>2021-04-01T11:09:13Z</time>
      </trkpt>
      <trkpt lat="42.1914650" lon="-6.6444950">
        <ele>1318.4</ele>
        <time>2021-04-01T11:09:15Z</time>
      </trkpt>
      <trkpt lat="42.1914210" lon="-6.6445300">
        <ele>1318.6</ele>
        <time>2021-04-01T11:09:19Z</time>
      </trkpt>
      <trkpt lat="42.1913490" lon="-6.6445690">
        <ele>1318.6</ele>
        <time>2021-04-01T11:09:26Z</time>
      </trkpt>
      <trkpt lat="42.1913050" lon="-6.6446130">
        <ele>1318.6</ele>
        <time>2021-04-01T11:09:30Z</time>
      </trkpt>
      <trkpt lat="42.1912960" lon="-6.6446450">
        <ele>1318.4</ele>
        <time>2021-04-01T11:09:32Z</time>
      </trkpt>
      <trkpt lat="42.1912370" lon="-6.6447240">
        <ele>1317.2</ele>
        <time>2021-04-01T11:09:39Z</time>
      </trkpt>
      <trkpt lat="42.1912200" lon="-6.6447480">
        <ele>1316.8</ele>
        <time>2021-04-01T11:09:41Z</time>
      </trkpt>
      <trkpt lat="42.1911980" lon="-6.6448050">
        <ele>1315.8</ele>
        <time>2021-04-01T11:09:45Z</time>
      </trkpt>
      <trkpt lat="42.1911900" lon="-6.6448720">
        <ele>1314.8</ele>
        <time>2021-04-01T11:09:51Z</time>
      </trkpt>
      <trkpt lat="42.1911850" lon="-6.6448840">
        <ele>1314.2</ele>
        <time>2021-04-01T11:09:52Z</time>
      </trkpt>
      <trkpt lat="42.1911830" lon="-6.6448890">
        <ele>1313.8</ele>
        <time>2021-04-01T11:09:53Z</time>
      </trkpt>
      <trkpt lat="42.1911810" lon="-6.6448900">
        <ele>1313.2</ele>
        <time>2021-04-01T11:09:55Z</time>
      </trkpt>
      <trkpt lat="42.1911790" lon="-6.6448930">
        <ele>1313.0</ele>
        <time>2021-04-01T11:09:56Z</time>
      </trkpt>
      <trkpt lat="42.1911750" lon="-6.6449020">
        <ele>1312.8</ele>
        <time>2021-04-01T11:09:57Z</time>
      </trkpt>
      <trkpt lat="42.1911490" lon="-6.6449280">
        <ele>1312.4</ele>
        <time>2021-04-01T11:10:01Z</time>
      </trkpt>
      <trkpt lat="42.1911400" lon="-6.6449340">
        <ele>1312.4</ele>
        <time>2021-04-01T11:10:02Z</time>
      </trkpt>
      <trkpt lat="42.1911310" lon="-6.6449380">
        <ele>1312.4</ele>
        <time>2021-04-01T11:10:03Z</time>
      </trkpt>
      <trkpt lat="42.1910890" lon="-6.6449490">
        <ele>1312.0</ele>
        <time>2021-04-01T11:10:07Z</time>
      </trkpt>
      <trkpt lat="42.1910790" lon="-6.6449530">
        <ele>1312.0</ele>
        <time>2021-04-01T11:10:08Z</time>
      </trkpt>
      <trkpt lat="42.1910410" lon="-6.6449760">
        <ele>1311.6</ele>
        <time>2021-04-01T11:10:11Z</time>
      </trkpt>
      <trkpt lat="42.1910090" lon="-6.6450040">
        <ele>1311.4</ele>
        <time>2021-04-01T11:10:14Z</time>
      </trkpt>
      <trkpt lat="42.1909930" lon="-6.6450200">
        <ele>1310.6</ele>
        <time>2021-04-01T11:10:16Z</time>
      </trkpt>
      <trkpt lat="42.1909560" lon="-6.6450520">
        <ele>1310.2</ele>
        <time>2021-04-01T11:10:20Z</time>
      </trkpt>
      <trkpt lat="42.1909510" lon="-6.6450680">
        <ele>1310.0</ele>
        <time>2021-04-01T11:10:21Z</time>
      </trkpt>
      <trkpt lat="42.1909210" lon="-6.6451200">
        <ele>1309.8</ele>
        <time>2021-04-01T11:10:25Z</time>
      </trkpt>
      <trkpt lat="42.1909050" lon="-6.6451400">
        <ele>1309.4</ele>
        <time>2021-04-01T11:10:27Z</time>
      </trkpt>
      <trkpt lat="42.1908830" lon="-6.6451840">
        <ele>1309.0</ele>
        <time>2021-04-01T11:10:30Z</time>
      </trkpt>
      <trkpt lat="42.1908630" lon="-6.6452040">
        <ele>1308.8</ele>
        <time>2021-04-01T11:10:32Z</time>
      </trkpt>
      <trkpt lat="42.1908420" lon="-6.6452260">
        <ele>1308.4</ele>
        <time>2021-04-01T11:10:34Z</time>
      </trkpt>
      <trkpt lat="42.1907850" lon="-6.6452690">
        <ele>1307.6</ele>
        <time>2021-04-01T11:10:40Z</time>
      </trkpt>
      <trkpt lat="42.1907740" lon="-6.6452760">
        <ele>1307.6</ele>
        <time>2021-04-01T11:10:41Z</time>
      </trkpt>
      <trkpt lat="42.1907500" lon="-6.6452810">
        <ele>1307.4</ele>
        <time>2021-04-01T11:10:43Z</time>
      </trkpt>
      <trkpt lat="42.1907000" lon="-6.6453320">
        <ele>1307.6</ele>
        <time>2021-04-01T11:10:48Z</time>
      </trkpt>
      <trkpt lat="42.1906230" lon="-6.6454040">
        <ele>1307.4</ele>
        <time>2021-04-01T11:10:55Z</time>
      </trkpt>
      <trkpt lat="42.1905560" lon="-6.6454730">
        <ele>1307.8</ele>
        <time>2021-04-01T11:11:02Z</time>
      </trkpt>
      <trkpt lat="42.1905090" lon="-6.6455280">
        <ele>1307.6</ele>
        <time>2021-04-01T11:11:08Z</time>
      </trkpt>
      <trkpt lat="42.1904570" lon="-6.6456200">
        <ele>1307.2</ele>
        <time>2021-04-01T11:11:14Z</time>
      </trkpt>
      <trkpt lat="42.1904230" lon="-6.6457150">
        <ele>1306.8</ele>
        <time>2021-04-01T11:11:20Z</time>
      </trkpt>
      <trkpt lat="42.1903770" lon="-6.6457730">
        <ele>1306.4</ele>
        <time>2021-04-01T11:11:25Z</time>
      </trkpt>
      <trkpt lat="42.1903670" lon="-6.6457870">
        <ele>1306.2</ele>
        <time>2021-04-01T11:11:26Z</time>
      </trkpt>
      <trkpt lat="42.1903480" lon="-6.6458090">
        <ele>1306.0</ele>
        <time>2021-04-01T11:11:28Z</time>
      </trkpt>
      <trkpt lat="42.1903000" lon="-6.6458460">
        <ele>1306.0</ele>
        <time>2021-04-01T11:11:32Z</time>
      </trkpt>
      <trkpt lat="42.1902810" lon="-6.6458560">
        <ele>1306.0</ele>
        <time>2021-04-01T11:11:34Z</time>
      </trkpt>
      <trkpt lat="42.1902390" lon="-6.6458880">
        <ele>1306.8</ele>
        <time>2021-04-01T11:11:38Z</time>
      </trkpt>
      <trkpt lat="42.1902180" lon="-6.6458900">
        <ele>1307.4</ele>
        <time>2021-04-01T11:11:40Z</time>
      </trkpt>
      <trkpt lat="42.1901750" lon="-6.6459140">
        <ele>1308.4</ele>
        <time>2021-04-01T11:11:44Z</time>
      </trkpt>
      <trkpt lat="42.1901620" lon="-6.6459200">
        <ele>1308.4</ele>
        <time>2021-04-01T11:11:45Z</time>
      </trkpt>
      <trkpt lat="42.1901060" lon="-6.6459270">
        <ele>1308.2</ele>
        <time>2021-04-01T11:11:49Z</time>
      </trkpt>
      <trkpt lat="42.1900770" lon="-6.6459300">
        <ele>1307.8</ele>
        <time>2021-04-01T11:11:51Z</time>
      </trkpt>
      <trkpt lat="42.1900450" lon="-6.6459360">
        <ele>1307.2</ele>
        <time>2021-04-01T11:11:53Z</time>
      </trkpt>
      <trkpt lat="42.1899580" lon="-6.6459530">
        <ele>1306.0</ele>
        <time>2021-04-01T11:11:59Z</time>
      </trkpt>
      <trkpt lat="42.1899160" lon="-6.6459420">
        <ele>1305.2</ele>
        <time>2021-04-01T11:12:02Z</time>
      </trkpt>
      <trkpt lat="42.1899040" lon="-6.6459410">
        <ele>1305.0</ele>
        <time>2021-04-01T11:12:03Z</time>
      </trkpt>
      <trkpt lat="42.1898780" lon="-6.6459320">
        <ele>1303.8</ele>
        <time>2021-04-01T11:12:05Z</time>
      </trkpt>
      <trkpt lat="42.1898560" lon="-6.6459270">
        <ele>1303.4</ele>
        <time>2021-04-01T11:12:07Z</time>
      </trkpt>
      <trkpt lat="42.1897930" lon="-6.6459220">
        <ele>1303.4</ele>
        <time>2021-04-01T11:12:12Z</time>
      </trkpt>
      <trkpt lat="42.1897720" lon="-6.6459250">
        <ele>1303.4</ele>
        <time>2021-04-01T11:12:14Z</time>
      </trkpt>
      <trkpt lat="42.1897510" lon="-6.6459160">
        <ele>1302.8</ele>
        <time>2021-04-01T11:12:16Z</time>
      </trkpt>
      <trkpt lat="42.1897170" lon="-6.6459070">
        <ele>1302.2</ele>
        <time>2021-04-01T11:12:19Z</time>
      </trkpt>
      <trkpt lat="42.1896810" lon="-6.6459100">
        <ele>1302.0</ele>
        <time>2021-04-01T11:12:22Z</time>
      </trkpt>
      <trkpt lat="42.1896460" lon="-6.6459110">
        <ele>1301.8</ele>
        <time>2021-04-01T11:12:25Z</time>
      </trkpt>
      <trkpt lat="42.1895690" lon="-6.6459130">
        <ele>1302.0</ele>
        <time>2021-04-01T11:12:31Z</time>
      </trkpt>
      <trkpt lat="42.1895080" lon="-6.6459240">
        <ele>1302.2</ele>
        <time>2021-04-01T11:12:36Z</time>
      </trkpt>
      <trkpt lat="42.1894850" lon="-6.6459160">
        <ele>1302.2</ele>
        <time>2021-04-01T11:12:38Z</time>
      </trkpt>
      <trkpt lat="42.1894210" lon="-6.6459080">
        <ele>1300.6</ele>
        <time>2021-04-01T11:12:43Z</time>
      </trkpt>
      <trkpt lat="42.1894000" lon="-6.6459090">
        <ele>1300.6</ele>
        <time>2021-04-01T11:12:45Z</time>
      </trkpt>
      <trkpt lat="42.1893250" lon="-6.6458970">
        <ele>1300.6</ele>
        <time>2021-04-01T11:12:51Z</time>
      </trkpt>
      <trkpt lat="42.1893050" lon="-6.6458890">
        <ele>1300.4</ele>
        <time>2021-04-01T11:12:53Z</time>
      </trkpt>
      <trkpt lat="42.1892860" lon="-6.6458880">
        <ele>1300.6</ele>
        <time>2021-04-01T11:12:55Z</time>
      </trkpt>
      <trkpt lat="42.1892420" lon="-6.6459030">
        <ele>1299.8</ele>
        <time>2021-04-01T11:12:59Z</time>
      </trkpt>
      <trkpt lat="42.1892340" lon="-6.6459050">
        <ele>1299.2</ele>
        <time>2021-04-01T11:13:00Z</time>
      </trkpt>
      <trkpt lat="42.1892240" lon="-6.6458940">
        <ele>1298.4</ele>
        <time>2021-04-01T11:13:02Z</time>
      </trkpt>
      <trkpt lat="42.1892120" lon="-6.6458920">
        <ele>1298.0</ele>
        <time>2021-04-01T11:13:04Z</time>
      </trkpt>
      <trkpt lat="42.1892080" lon="-6.6458920">
        <ele>1298.2</ele>
        <time>2021-04-01T11:13:05Z</time>
      </trkpt>
      <trkpt lat="42.1891740" lon="-6.6459010">
        <ele>1297.4</ele>
        <time>2021-04-01T11:13:10Z</time>
      </trkpt>
      <trkpt lat="42.1891670" lon="-6.6459000">
        <ele>1297.4</ele>
        <time>2021-04-01T11:13:11Z</time>
      </trkpt>
      <trkpt lat="42.1891490" lon="-6.6458980">
        <ele>1297.4</ele>
        <time>2021-04-01T11:13:14Z</time>
      </trkpt>
      <trkpt lat="42.1891130" lon="-6.6458920">
        <ele>1297.0</ele>
        <time>2021-04-01T11:13:18Z</time>
      </trkpt>
      <trkpt lat="42.1891010" lon="-6.6458930">
        <ele>1297.0</ele>
        <time>2021-04-01T11:13:20Z</time>
      </trkpt>
      <trkpt lat="42.1890990" lon="-6.6458990">
        <ele>1296.2</ele>
        <time>2021-04-01T11:13:24Z</time>
      </trkpt>
      <trkpt lat="42.1891010" lon="-6.6459000">
        <ele>1296.0</ele>
        <time>2021-04-01T11:13:26Z</time>
      </trkpt>
      <trkpt lat="42.1891000" lon="-6.6458970">
        <ele>1295.8</ele>
        <time>2021-04-01T11:13:32Z</time>
      </trkpt>
      <trkpt lat="42.1890860" lon="-6.6458920">
        <ele>1295.8</ele>
        <time>2021-04-01T11:13:39Z</time>
      </trkpt>
      <trkpt lat="42.1890460" lon="-6.6458920">
        <ele>1294.8</ele>
        <time>2021-04-01T11:13:44Z</time>
      </trkpt>
      <trkpt lat="42.1889980" lon="-6.6458880">
        <ele>1294.2</ele>
        <time>2021-04-01T11:13:49Z</time>
      </trkpt>
      <trkpt lat="42.1889840" lon="-6.6458780">
        <ele>1293.6</ele>
        <time>2021-04-01T11:13:52Z</time>
      </trkpt>
      <trkpt lat="42.1889860" lon="-6.6458770">
        <ele>1293.2</ele>
        <time>2021-04-01T11:13:54Z</time>
      </trkpt>
      <trkpt lat="42.1889870" lon="-6.6458750">
        <ele>1292.8</ele>
        <time>2021-04-01T11:13:57Z</time>
      </trkpt>
      <trkpt lat="42.1889720" lon="-6.6458670">
        <ele>1292.4</ele>
        <time>2021-04-01T11:14:00Z</time>
      </trkpt>
      <trkpt lat="42.1889260" lon="-6.6458520">
        <ele>1291.8</ele>
        <time>2021-04-01T11:14:05Z</time>
      </trkpt>
      <trkpt lat="42.1889220" lon="-6.6458510">
        <ele>1291.8</ele>
        <time>2021-04-01T11:14:07Z</time>
      </trkpt>
      <trkpt lat="42.1889420" lon="-6.6458290">
        <ele>1291.8</ele>
        <time>2021-04-01T11:14:15Z</time>
      </trkpt>
      <trkpt lat="42.1889500" lon="-6.6458230">
        <ele>1291.6</ele>
        <time>2021-04-01T11:14:17Z</time>
      </trkpt>
      <trkpt lat="42.1889520" lon="-6.6458220">
        <ele>1291.6</ele>
        <time>2021-04-01T11:14:18Z</time>
      </trkpt>
      <trkpt lat="42.1889510" lon="-6.6458290">
        <ele>1291.8</ele>
        <time>2021-04-01T11:14:20Z</time>
      </trkpt>
      <trkpt lat="42.1889510" lon="-6.6458390">
        <ele>1292.0</ele>
        <time>2021-04-01T11:14:22Z</time>
      </trkpt>
      <trkpt lat="42.1889490" lon="-6.6458470">
        <ele>1292.2</ele>
        <time>2021-04-01T11:14:32Z</time>
      </trkpt>
      <trkpt lat="42.1889410" lon="-6.6458440">
        <ele>1292.4</ele>
        <time>2021-04-01T11:14:37Z</time>
      </trkpt>
      <trkpt lat="42.1889430" lon="-6.6458400">
        <ele>1292.2</ele>
        <time>2021-04-01T11:14:40Z</time>
      </trkpt>
      <trkpt lat="42.1889400" lon="-6.6458360">
        <ele>1292.2</ele>
        <time>2021-04-01T11:14:43Z</time>
      </trkpt>
      <trkpt lat="42.1889160" lon="-6.6458230">
        <ele>1292.0</ele>
        <time>2021-04-01T11:14:47Z</time>
      </trkpt>
      <trkpt lat="42.1889050" lon="-6.6458090">
        <ele>1292.0</ele>
        <time>2021-04-01T11:14:49Z</time>
      </trkpt>
      <trkpt lat="42.1888830" lon="-6.6458020">
        <ele>1291.6</ele>
        <time>2021-04-01T11:14:52Z</time>
      </trkpt>
      <trkpt lat="42.1888640" lon="-6.6457990">
        <ele>1291.2</ele>
        <time>2021-04-01T11:14:54Z</time>
      </trkpt>
      <trkpt lat="42.1888530" lon="-6.6457980">
        <ele>1291.0</ele>
        <time>2021-04-01T11:14:55Z</time>
      </trkpt>
      <trkpt lat="42.1888240" lon="-6.6457900">
        <ele>1290.2</ele>
        <time>2021-04-01T11:14:58Z</time>
      </trkpt>
      <trkpt lat="42.1888170" lon="-6.6457890">
        <ele>1290.0</ele>
        <time>2021-04-01T11:14:59Z</time>
      </trkpt>
      <trkpt lat="42.1888100" lon="-6.6457870">
        <ele>1289.6</ele>
        <time>2021-04-01T11:15:01Z</time>
      </trkpt>
      <trkpt lat="42.1887940" lon="-6.6457780">
        <ele>1289.2</ele>
        <time>2021-04-01T11:15:03Z</time>
      </trkpt>
      <trkpt lat="42.1887810" lon="-6.6457760">
        <ele>1289.2</ele>
        <time>2021-04-01T11:15:04Z</time>
      </trkpt>
      <trkpt lat="42.1887730" lon="-6.6457620">
        <ele>1289.0</ele>
        <time>2021-04-01T11:15:05Z</time>
      </trkpt>
      <trkpt lat="42.1887700" lon="-6.6457530">
        <ele>1289.0</ele>
        <time>2021-04-01T11:15:06Z</time>
      </trkpt>
      <trkpt lat="42.1887460" lon="-6.6457480">
        <ele>1288.6</ele>
        <time>2021-04-01T11:15:09Z</time>
      </trkpt>
      <trkpt lat="42.1887320" lon="-6.6457530">
        <ele>1288.0</ele>
        <time>2021-04-01T11:15:11Z</time>
      </trkpt>
      <trkpt lat="42.1887270" lon="-6.6457580">
        <ele>1287.8</ele>
        <time>2021-04-01T11:15:12Z</time>
      </trkpt>
      <trkpt lat="42.1887090" lon="-6.6457630">
        <ele>1287.6</ele>
        <time>2021-04-01T11:15:15Z</time>
      </trkpt>
      <trkpt lat="42.1886780" lon="-6.6457490">
        <ele>1287.2</ele>
        <time>2021-04-01T11:15:19Z</time>
      </trkpt>
      <trkpt lat="42.1886670" lon="-6.6457470">
        <ele>1287.0</ele>
        <time>2021-04-01T11:15:21Z</time>
      </trkpt>
      <trkpt lat="42.1886470" lon="-6.6457150">
        <ele>1286.2</ele>
        <time>2021-04-01T11:15:27Z</time>
      </trkpt>
      <trkpt lat="42.1886320" lon="-6.6457070">
        <ele>1286.0</ele>
        <time>2021-04-01T11:15:29Z</time>
      </trkpt>
      <trkpt lat="42.1885840" lon="-6.6456750">
        <ele>1285.6</ele>
        <time>2021-04-01T11:15:33Z</time>
      </trkpt>
      <trkpt lat="42.1885240" lon="-6.6456370">
        <ele>1285.0</ele>
        <time>2021-04-01T11:15:39Z</time>
      </trkpt>
      <trkpt lat="42.1884720" lon="-6.6456130">
        <ele>1284.4</ele>
        <time>2021-04-01T11:15:44Z</time>
      </trkpt>
      <trkpt lat="42.1884500" lon="-6.6456040">
        <ele>1283.8</ele>
        <time>2021-04-01T11:15:46Z</time>
      </trkpt>
      <trkpt lat="42.1883960" lon="-6.6455990">
        <ele>1282.6</ele>
        <time>2021-04-01T11:15:53Z</time>
      </trkpt>
      <trkpt lat="42.1883900" lon="-6.6455950">
        <ele>1282.6</ele>
        <time>2021-04-01T11:15:54Z</time>
      </trkpt>
      <trkpt lat="42.1883820" lon="-6.6455910">
        <ele>1282.4</ele>
        <time>2021-04-01T11:15:55Z</time>
      </trkpt>
      <trkpt lat="42.1883520" lon="-6.6455910">
        <ele>1281.8</ele>
        <time>2021-04-01T11:15:58Z</time>
      </trkpt>
      <trkpt lat="42.1883440" lon="-6.6455920">
        <ele>1281.6</ele>
        <time>2021-04-01T11:15:59Z</time>
      </trkpt>
      <trkpt lat="42.1883350" lon="-6.6455920">
        <ele>1281.6</ele>
        <time>2021-04-01T11:16:00Z</time>
      </trkpt>
      <trkpt lat="42.1883090" lon="-6.6455800">
        <ele>1281.4</ele>
        <time>2021-04-01T11:16:03Z</time>
      </trkpt>
      <trkpt lat="42.1882870" lon="-6.6455730">
        <ele>1281.4</ele>
        <time>2021-04-01T11:16:05Z</time>
      </trkpt>
      <trkpt lat="42.1882720" lon="-6.6455620">
        <ele>1281.4</ele>
        <time>2021-04-01T11:16:07Z</time>
      </trkpt>
      <trkpt lat="42.1882110" lon="-6.6455510">
        <ele>1281.0</ele>
        <time>2021-04-01T11:16:13Z</time>
      </trkpt>
      <trkpt lat="42.1881820" lon="-6.6455350">
        <ele>1281.0</ele>
        <time>2021-04-01T11:16:16Z</time>
      </trkpt>
      <trkpt lat="42.1881810" lon="-6.6455270">
        <ele>1281.2</ele>
        <time>2021-04-01T11:16:18Z</time>
      </trkpt>
      <trkpt lat="42.1881810" lon="-6.6455260">
        <ele>1281.2</ele>
        <time>2021-04-01T11:16:19Z</time>
      </trkpt>
      <trkpt lat="42.1881810" lon="-6.6455240">
        <ele>1280.8</ele>
        <time>2021-04-01T11:16:22Z</time>
      </trkpt>
      <trkpt lat="42.1881500" lon="-6.6455250">
        <ele>1281.0</ele>
        <time>2021-04-01T11:16:26Z</time>
      </trkpt>
      <trkpt lat="42.1881400" lon="-6.6455160">
        <ele>1281.0</ele>
        <time>2021-04-01T11:16:27Z</time>
      </trkpt>
      <trkpt lat="42.1881350" lon="-6.6455150">
        <ele>1281.2</ele>
        <time>2021-04-01T11:16:28Z</time>
      </trkpt>
      <trkpt lat="42.1881060" lon="-6.6455090">
        <ele>1281.4</ele>
        <time>2021-04-01T11:16:31Z</time>
      </trkpt>
      <trkpt lat="42.1880940" lon="-6.6455100">
        <ele>1281.4</ele>
        <time>2021-04-01T11:16:32Z</time>
      </trkpt>
      <trkpt lat="42.1880610" lon="-6.6454780">
        <ele>1280.6</ele>
        <time>2021-04-01T11:16:36Z</time>
      </trkpt>
      <trkpt lat="42.1880560" lon="-6.6454700">
        <ele>1280.4</ele>
        <time>2021-04-01T11:16:37Z</time>
      </trkpt>
      <trkpt lat="42.1880530" lon="-6.6454690">
        <ele>1280.2</ele>
        <time>2021-04-01T11:16:38Z</time>
      </trkpt>
      <trkpt lat="42.1880540" lon="-6.6454720">
        <ele>1280.4</ele>
        <time>2021-04-01T11:16:39Z</time>
      </trkpt>
      <trkpt lat="42.1880560" lon="-6.6454730">
        <ele>1280.4</ele>
        <time>2021-04-01T11:16:40Z</time>
      </trkpt>
      <trkpt lat="42.1880270" lon="-6.6454630">
        <ele>1280.2</ele>
        <time>2021-04-01T11:16:46Z</time>
      </trkpt>
      <trkpt lat="42.1880010" lon="-6.6454640">
        <ele>1279.2</ele>
        <time>2021-04-01T11:16:49Z</time>
      </trkpt>
      <trkpt lat="42.1879750" lon="-6.6454570">
        <ele>1279.0</ele>
        <time>2021-04-01T11:16:52Z</time>
      </trkpt>
      <trkpt lat="42.1879690" lon="-6.6454510">
        <ele>1279.0</ele>
        <time>2021-04-01T11:16:53Z</time>
      </trkpt>
      <trkpt lat="42.1879550" lon="-6.6454430">
        <ele>1278.8</ele>
        <time>2021-04-01T11:16:55Z</time>
      </trkpt>
      <trkpt lat="42.1879360" lon="-6.6454340">
        <ele>1278.0</ele>
        <time>2021-04-01T11:16:58Z</time>
      </trkpt>
      <trkpt lat="42.1879260" lon="-6.6454180">
        <ele>1277.4</ele>
        <time>2021-04-01T11:17:00Z</time>
      </trkpt>
      <trkpt lat="42.1879150" lon="-6.6454120">
        <ele>1277.0</ele>
        <time>2021-04-01T11:17:02Z</time>
      </trkpt>
      <trkpt lat="42.1879010" lon="-6.6454080">
        <ele>1277.0</ele>
        <time>2021-04-01T11:17:04Z</time>
      </trkpt>
      <trkpt lat="42.1878660" lon="-6.6453870">
        <ele>1276.2</ele>
        <time>2021-04-01T11:17:10Z</time>
      </trkpt>
      <trkpt lat="42.1878250" lon="-6.6453810">
        <ele>1275.8</ele>
        <time>2021-04-01T11:17:14Z</time>
      </trkpt>
      <trkpt lat="42.1878100" lon="-6.6453760">
        <ele>1274.8</ele>
        <time>2021-04-01T11:17:17Z</time>
      </trkpt>
      <trkpt lat="42.1878110" lon="-6.6453640">
        <ele>1274.6</ele>
        <time>2021-04-01T11:17:20Z</time>
      </trkpt>
      <trkpt lat="42.1878010" lon="-6.6453570">
        <ele>1273.4</ele>
        <time>2021-04-01T11:17:24Z</time>
      </trkpt>
      <trkpt lat="42.1877980" lon="-6.6453580">
        <ele>1273.2</ele>
        <time>2021-04-01T11:17:25Z</time>
      </trkpt>
      <trkpt lat="42.1877990" lon="-6.6453570">
        <ele>1273.0</ele>
        <time>2021-04-01T11:17:26Z</time>
      </trkpt>
      <trkpt lat="42.1877800" lon="-6.6453520">
        <ele>1273.4</ele>
        <time>2021-04-01T11:17:32Z</time>
      </trkpt>
      <trkpt lat="42.1877700" lon="-6.6453520">
        <ele>1273.2</ele>
        <time>2021-04-01T11:17:39Z</time>
      </trkpt>
      <trkpt lat="42.1877700" lon="-6.6453490">
        <ele>1273.2</ele>
        <time>2021-04-01T11:17:40Z</time>
      </trkpt>
      <trkpt lat="42.1877650" lon="-6.6453450">
        <ele>1273.2</ele>
        <time>2021-04-01T11:17:42Z</time>
      </trkpt>
      <trkpt lat="42.1877610" lon="-6.6453440">
        <ele>1273.2</ele>
        <time>2021-04-01T11:17:43Z</time>
      </trkpt>
      <trkpt lat="42.1877420" lon="-6.6453390">
        <ele>1272.4</ele>
        <time>2021-04-01T11:17:46Z</time>
      </trkpt>
      <trkpt lat="42.1876900" lon="-6.6453080">
        <ele>1271.4</ele>
        <time>2021-04-01T11:17:51Z</time>
      </trkpt>
      <trkpt lat="42.1876670" lon="-6.6453010">
        <ele>1271.2</ele>
        <time>2021-04-01T11:17:53Z</time>
      </trkpt>
      <trkpt lat="42.1876570" lon="-6.6452900">
        <ele>1271.0</ele>
        <time>2021-04-01T11:17:54Z</time>
      </trkpt>
      <trkpt lat="42.1876190" lon="-6.6452790">
        <ele>1270.8</ele>
        <time>2021-04-01T11:17:57Z</time>
      </trkpt>
      <trkpt lat="42.1876040" lon="-6.6452700">
        <ele>1270.4</ele>
        <time>2021-04-01T11:17:58Z</time>
      </trkpt>
      <trkpt lat="42.1875700" lon="-6.6452490">
        <ele>1269.0</ele>
        <time>2021-04-01T11:18:01Z</time>
      </trkpt>
      <trkpt lat="42.1875360" lon="-6.6452240">
        <ele>1268.4</ele>
        <time>2021-04-01T11:18:04Z</time>
      </trkpt>
      <trkpt lat="42.1875160" lon="-6.6452120">
        <ele>1268.0</ele>
        <time>2021-04-01T11:18:06Z</time>
      </trkpt>
      <trkpt lat="42.1874970" lon="-6.6451870">
        <ele>1267.4</ele>
        <time>2021-04-01T11:18:08Z</time>
      </trkpt>
      <trkpt lat="42.1874840" lon="-6.6451780">
        <ele>1267.2</ele>
        <time>2021-04-01T11:18:09Z</time>
      </trkpt>
      <trkpt lat="42.1874750" lon="-6.6451700">
        <ele>1267.0</ele>
        <time>2021-04-01T11:18:10Z</time>
      </trkpt>
      <trkpt lat="42.1874660" lon="-6.6451590">
        <ele>1266.8</ele>
        <time>2021-04-01T11:18:11Z</time>
      </trkpt>
      <trkpt lat="42.1874310" lon="-6.6451320">
        <ele>1266.0</ele>
        <time>2021-04-01T11:18:14Z</time>
      </trkpt>
      <trkpt lat="42.1874210" lon="-6.6451260">
        <ele>1265.6</ele>
        <time>2021-04-01T11:18:15Z</time>
      </trkpt>
      <trkpt lat="42.1874080" lon="-6.6451210">
        <ele>1265.4</ele>
        <time>2021-04-01T11:18:16Z</time>
      </trkpt>
      <trkpt lat="42.1873780" lon="-6.6451090">
        <ele>1264.8</ele>
        <time>2021-04-01T11:18:18Z</time>
      </trkpt>
      <trkpt lat="42.1873420" lon="-6.6450790">
        <ele>1263.6</ele>
        <time>2021-04-01T11:18:21Z</time>
      </trkpt>
      <trkpt lat="42.1873370" lon="-6.6450700">
        <ele>1263.4</ele>
        <time>2021-04-01T11:18:22Z</time>
      </trkpt>
      <trkpt lat="42.1873340" lon="-6.6450590">
        <ele>1263.2</ele>
        <time>2021-04-01T11:18:23Z</time>
      </trkpt>
      <trkpt lat="42.1873130" lon="-6.6450360">
        <ele>1262.6</ele>
        <time>2021-04-01T11:18:26Z</time>
      </trkpt>
      <trkpt lat="42.1872860" lon="-6.6450260">
        <ele>1261.6</ele>
        <time>2021-04-01T11:18:29Z</time>
      </trkpt>
      <trkpt lat="42.1872770" lon="-6.6450280">
        <ele>1261.2</ele>
        <time>2021-04-01T11:18:30Z</time>
      </trkpt>
      <trkpt lat="42.1872450" lon="-6.6450190">
        <ele>1260.6</ele>
        <time>2021-04-01T11:18:34Z</time>
      </trkpt>
      <trkpt lat="42.1872100" lon="-6.6449960">
        <ele>1260.4</ele>
        <time>2021-04-01T11:18:38Z</time>
      </trkpt>
      <trkpt lat="42.1871500" lon="-6.6449550">
        <ele>1260.6</ele>
        <time>2021-04-01T11:18:45Z</time>
      </trkpt>
      <trkpt lat="42.1871440" lon="-6.6449450">
        <ele>1260.6</ele>
        <time>2021-04-01T11:18:46Z</time>
      </trkpt>
      <trkpt lat="42.1871300" lon="-6.6449240">
        <ele>1260.6</ele>
        <time>2021-04-01T11:18:48Z</time>
      </trkpt>
      <trkpt lat="42.1870970" lon="-6.6449070">
        <ele>1260.6</ele>
        <time>2021-04-01T11:18:51Z</time>
      </trkpt>
      <trkpt lat="42.1870500" lon="-6.6448850">
        <ele>1259.6</ele>
        <time>2021-04-01T11:18:55Z</time>
      </trkpt>
      <trkpt lat="42.1870350" lon="-6.6448820">
        <ele>1259.2</ele>
        <time>2021-04-01T11:18:56Z</time>
      </trkpt>
      <trkpt lat="42.1870040" lon="-6.6448710">
        <ele>1258.8</ele>
        <time>2021-04-01T11:18:58Z</time>
      </trkpt>
      <trkpt lat="42.1869920" lon="-6.6448680">
        <ele>1258.6</ele>
        <time>2021-04-01T11:18:59Z</time>
      </trkpt>
      <trkpt lat="42.1869400" lon="-6.6448360">
        <ele>1258.2</ele>
        <time>2021-04-01T11:19:03Z</time>
      </trkpt>
      <trkpt lat="42.1869140" lon="-6.6448240">
        <ele>1257.8</ele>
        <time>2021-04-01T11:19:05Z</time>
      </trkpt>
      <trkpt lat="42.1869010" lon="-6.6448240">
        <ele>1257.6</ele>
        <time>2021-04-01T11:19:06Z</time>
      </trkpt>
      <trkpt lat="42.1868770" lon="-6.6448270">
        <ele>1257.0</ele>
        <time>2021-04-01T11:19:08Z</time>
      </trkpt>
      <trkpt lat="42.1868010" lon="-6.6447930">
        <ele>1256.4</ele>
        <time>2021-04-01T11:19:14Z</time>
      </trkpt>
      <trkpt lat="42.1867530" lon="-6.6447670">
        <ele>1256.0</ele>
        <time>2021-04-01T11:19:18Z</time>
      </trkpt>
      <trkpt lat="42.1867410" lon="-6.6447600">
        <ele>1255.8</ele>
        <time>2021-04-01T11:19:19Z</time>
      </trkpt>
      <trkpt lat="42.1867160" lon="-6.6447420">
        <ele>1255.6</ele>
        <time>2021-04-01T11:19:21Z</time>
      </trkpt>
      <trkpt lat="42.1867030" lon="-6.6447310">
        <ele>1255.6</ele>
        <time>2021-04-01T11:19:22Z</time>
      </trkpt>
      <trkpt lat="42.1866900" lon="-6.6447230">
        <ele>1255.6</ele>
        <time>2021-04-01T11:19:23Z</time>
      </trkpt>
      <trkpt lat="42.1866790" lon="-6.6447140">
        <ele>1255.4</ele>
        <time>2021-04-01T11:19:24Z</time>
      </trkpt>
      <trkpt lat="42.1866580" lon="-6.6446970">
        <ele>1255.6</ele>
        <time>2021-04-01T11:19:26Z</time>
      </trkpt>
      <trkpt lat="42.1866470" lon="-6.6446840">
        <ele>1255.8</ele>
        <time>2021-04-01T11:19:27Z</time>
      </trkpt>
      <trkpt lat="42.1866270" lon="-6.6446570">
        <ele>1256.2</ele>
        <time>2021-04-01T11:19:29Z</time>
      </trkpt>
      <trkpt lat="42.1865280" lon="-6.6445980">
        <ele>1255.2</ele>
        <time>2021-04-01T11:19:38Z</time>
      </trkpt>
      <trkpt lat="42.1865100" lon="-6.6445850">
        <ele>1254.8</ele>
        <time>2021-04-01T11:19:40Z</time>
      </trkpt>
      <trkpt lat="42.1864660" lon="-6.6445490">
        <ele>1254.2</ele>
        <time>2021-04-01T11:19:44Z</time>
      </trkpt>
      <trkpt lat="42.1864350" lon="-6.6445230">
        <ele>1253.8</ele>
        <time>2021-04-01T11:19:48Z</time>
      </trkpt>
      <trkpt lat="42.1864180" lon="-6.6445160">
        <ele>1253.4</ele>
        <time>2021-04-01T11:19:50Z</time>
      </trkpt>
      <trkpt lat="42.1864030" lon="-6.6445060">
        <ele>1253.2</ele>
        <time>2021-04-01T11:19:52Z</time>
      </trkpt>
      <trkpt lat="42.1863960" lon="-6.6444970">
        <ele>1253.2</ele>
        <time>2021-04-01T11:19:53Z</time>
      </trkpt>
      <trkpt lat="42.1863870" lon="-6.6444750">
        <ele>1253.0</ele>
        <time>2021-04-01T11:19:55Z</time>
      </trkpt>
      <trkpt lat="42.1863890" lon="-6.6444660">
        <ele>1252.8</ele>
        <time>2021-04-01T11:19:57Z</time>
      </trkpt>
      <trkpt lat="42.1863930" lon="-6.6444620">
        <ele>1252.8</ele>
        <time>2021-04-01T11:19:59Z</time>
      </trkpt>
      <trkpt lat="42.1863920" lon="-6.6444660">
        <ele>1252.6</ele>
        <time>2021-04-01T11:20:00Z</time>
      </trkpt>
      <trkpt lat="42.1863890" lon="-6.6444860">
        <ele>1252.2</ele>
        <time>2021-04-01T11:20:05Z</time>
      </trkpt>
      <trkpt lat="42.1863760" lon="-6.6445190">
        <ele>1252.2</ele>
        <time>2021-04-01T11:20:14Z</time>
      </trkpt>
      <trkpt lat="42.1863910" lon="-6.6445130">
        <ele>1252.2</ele>
        <time>2021-04-01T11:20:21Z</time>
      </trkpt>
      <trkpt lat="42.1863930" lon="-6.6445080">
        <ele>1252.2</ele>
        <time>2021-04-01T11:20:22Z</time>
      </trkpt>
      <trkpt lat="42.1863840" lon="-6.6444820">
        <ele>1252.0</ele>
        <time>2021-04-01T11:20:28Z</time>
      </trkpt>
      <trkpt lat="42.1863260" lon="-6.6444370">
        <ele>1252.2</ele>
        <time>2021-04-01T11:20:34Z</time>
      </trkpt>
      <trkpt lat="42.1862950" lon="-6.6444220">
        <ele>1252.0</ele>
        <time>2021-04-01T11:20:38Z</time>
      </trkpt>
      <trkpt lat="42.1862620" lon="-6.6443920">
        <ele>1252.2</ele>
        <time>2021-04-01T11:20:41Z</time>
      </trkpt>
      <trkpt lat="42.1862150" lon="-6.6443320">
        <ele>1251.6</ele>
        <time>2021-04-01T11:20:45Z</time>
      </trkpt>
      <trkpt lat="42.1861960" lon="-6.6443080">
        <ele>1251.4</ele>
        <time>2021-04-01T11:20:47Z</time>
      </trkpt>
      <trkpt lat="42.1861390" lon="-6.6442290">
        <ele>1251.0</ele>
        <time>2021-04-01T11:20:54Z</time>
      </trkpt>
      <trkpt lat="42.1860960" lon="-6.6441860">
        <ele>1250.6</ele>
        <time>2021-04-01T11:20:58Z</time>
      </trkpt>
      <trkpt lat="42.1860900" lon="-6.6441760">
        <ele>1250.4</ele>
        <time>2021-04-01T11:20:59Z</time>
      </trkpt>
      <trkpt lat="42.1860800" lon="-6.6441650">
        <ele>1250.4</ele>
        <time>2021-04-01T11:21:00Z</time>
      </trkpt>
      <trkpt lat="42.1859940" lon="-6.6441270">
        <ele>1250.6</ele>
        <time>2021-04-01T11:21:07Z</time>
      </trkpt>
      <trkpt lat="42.1859580" lon="-6.6441100">
        <ele>1250.8</ele>
        <time>2021-04-01T11:21:10Z</time>
      </trkpt>
      <trkpt lat="42.1859350" lon="-6.6440970">
        <ele>1251.0</ele>
        <time>2021-04-01T11:21:12Z</time>
      </trkpt>
      <trkpt lat="42.1859110" lon="-6.6440810">
        <ele>1251.0</ele>
        <time>2021-04-01T11:21:14Z</time>
      </trkpt>
      <trkpt lat="42.1858720" lon="-6.6440540">
        <ele>1251.0</ele>
        <time>2021-04-01T11:21:17Z</time>
      </trkpt>
      <trkpt lat="42.1858360" lon="-6.6440380">
        <ele>1250.8</ele>
        <time>2021-04-01T11:21:20Z</time>
      </trkpt>
      <trkpt lat="42.1857880" lon="-6.6440310">
        <ele>1251.4</ele>
        <time>2021-04-01T11:21:24Z</time>
      </trkpt>
      <trkpt lat="42.1857550" lon="-6.6440060">
        <ele>1251.6</ele>
        <time>2021-04-01T11:21:27Z</time>
      </trkpt>
      <trkpt lat="42.1856830" lon="-6.6439820">
        <ele>1252.0</ele>
        <time>2021-04-01T11:21:32Z</time>
      </trkpt>
      <trkpt lat="42.1856420" lon="-6.6439660">
        <ele>1252.6</ele>
        <time>2021-04-01T11:21:35Z</time>
      </trkpt>
      <trkpt lat="42.1856280" lon="-6.6439630">
        <ele>1252.8</ele>
        <time>2021-04-01T11:21:36Z</time>
      </trkpt>
      <trkpt lat="42.1855170" lon="-6.6439690">
        <ele>1252.6</ele>
        <time>2021-04-01T11:21:43Z</time>
      </trkpt>
      <trkpt lat="42.1854840" lon="-6.6439880">
        <ele>1251.8</ele>
        <time>2021-04-01T11:21:45Z</time>
      </trkpt>
      <trkpt lat="42.1854670" lon="-6.6440000">
        <ele>1251.6</ele>
        <time>2021-04-01T11:21:46Z</time>
      </trkpt>
      <trkpt lat="42.1854380" lon="-6.6440180">
        <ele>1251.4</ele>
        <time>2021-04-01T11:21:48Z</time>
      </trkpt>
      <trkpt lat="42.1854300" lon="-6.6440230">
        <ele>1251.4</ele>
        <time>2021-04-01T11:21:49Z</time>
      </trkpt>
      <trkpt lat="42.1854240" lon="-6.6440190">
        <ele>1251.4</ele>
        <time>2021-04-01T11:21:50Z</time>
      </trkpt>
      <trkpt lat="42.1854220" lon="-6.6440140">
        <ele>1251.2</ele>
        <time>2021-04-01T11:21:51Z</time>
      </trkpt>
      <trkpt lat="42.1854220" lon="-6.6440120">
        <ele>1251.2</ele>
        <time>2021-04-01T11:21:52Z</time>
      </trkpt>
      <trkpt lat="42.1854210" lon="-6.6440000">
        <ele>1251.2</ele>
        <time>2021-04-01T11:21:58Z</time>
      </trkpt>
      <trkpt lat="42.1854300" lon="-6.6440160">
        <ele>1251.4</ele>
        <time>2021-04-01T11:22:05Z</time>
      </trkpt>
      <trkpt lat="42.1854300" lon="-6.6440170">
        <ele>1251.4</ele>
        <time>2021-04-01T11:22:06Z</time>
      </trkpt>
      <trkpt lat="42.1854210" lon="-6.6440370">
        <ele>1251.8</ele>
        <time>2021-04-01T11:22:13Z</time>
      </trkpt>
      <trkpt lat="42.1854200" lon="-6.6440360">
        <ele>1251.8</ele>
        <time>2021-04-01T11:22:16Z</time>
      </trkpt>
      <trkpt lat="42.1853980" lon="-6.6440420">
        <ele>1251.6</ele>
        <time>2021-04-01T11:22:19Z</time>
      </trkpt>
      <trkpt lat="42.1853380" lon="-6.6441430">
        <ele>1251.2</ele>
        <time>2021-04-01T11:22:27Z</time>
      </trkpt>
      <trkpt lat="42.1852820" lon="-6.6442180">
        <ele>1251.2</ele>
        <time>2021-04-01T11:22:32Z</time>
      </trkpt>
      <trkpt lat="42.1852280" lon="-6.6442670">
        <ele>1250.6</ele>
        <time>2021-04-01T11:22:37Z</time>
      </trkpt>
      <trkpt lat="42.1852180" lon="-6.6442760">
        <ele>1250.4</ele>
        <time>2021-04-01T11:22:38Z</time>
      </trkpt>
      <trkpt lat="42.1851790" lon="-6.6443340">
        <ele>1249.0</ele>
        <time>2021-04-01T11:22:43Z</time>
      </trkpt>
      <trkpt lat="42.1851700" lon="-6.6443410">
        <ele>1248.8</ele>
        <time>2021-04-01T11:22:44Z</time>
      </trkpt>
      <trkpt lat="42.1851240" lon="-6.6443570">
        <ele>1247.8</ele>
        <time>2021-04-01T11:22:48Z</time>
      </trkpt>
      <trkpt lat="42.1850710" lon="-6.6443590">
        <ele>1246.6</ele>
        <time>2021-04-01T11:22:52Z</time>
      </trkpt>
      <trkpt lat="42.1850380" lon="-6.6443510">
        <ele>1246.6</ele>
        <time>2021-04-01T11:22:55Z</time>
      </trkpt>
      <trkpt lat="42.1850250" lon="-6.6443460">
        <ele>1246.6</ele>
        <time>2021-04-01T11:22:56Z</time>
      </trkpt>
      <trkpt lat="42.1849710" lon="-6.6443400">
        <ele>1245.4</ele>
        <time>2021-04-01T11:23:00Z</time>
      </trkpt>
      <trkpt lat="42.1849600" lon="-6.6443440">
        <ele>1245.0</ele>
        <time>2021-04-01T11:23:01Z</time>
      </trkpt>
      <trkpt lat="42.1848780" lon="-6.6443250">
        <ele>1245.6</ele>
        <time>2021-04-01T11:23:08Z</time>
      </trkpt>
      <trkpt lat="42.1848160" lon="-6.6442910">
        <ele>1245.0</ele>
        <time>2021-04-01T11:23:14Z</time>
      </trkpt>
      <trkpt lat="42.1848090" lon="-6.6442730">
        <ele>1244.6</ele>
        <time>2021-04-01T11:23:15Z</time>
      </trkpt>
      <trkpt lat="42.1848000" lon="-6.6442630">
        <ele>1244.4</ele>
        <time>2021-04-01T11:23:16Z</time>
      </trkpt>
      <trkpt lat="42.1847890" lon="-6.6442640">
        <ele>1243.8</ele>
        <time>2021-04-01T11:23:17Z</time>
      </trkpt>
      <trkpt lat="42.1847680" lon="-6.6442700">
        <ele>1243.4</ele>
        <time>2021-04-01T11:23:19Z</time>
      </trkpt>
      <trkpt lat="42.1846860" lon="-6.6442460">
        <ele>1242.8</ele>
        <time>2021-04-01T11:23:25Z</time>
      </trkpt>
      <trkpt lat="42.1846740" lon="-6.6442400">
        <ele>1242.2</ele>
        <time>2021-04-01T11:23:26Z</time>
      </trkpt>
      <trkpt lat="42.1846490" lon="-6.6442270">
        <ele>1241.0</ele>
        <time>2021-04-01T11:23:28Z</time>
      </trkpt>
      <trkpt lat="42.1846350" lon="-6.6442260">
        <ele>1240.6</ele>
        <time>2021-04-01T11:23:29Z</time>
      </trkpt>
      <trkpt lat="42.1846070" lon="-6.6442290">
        <ele>1240.0</ele>
        <time>2021-04-01T11:23:31Z</time>
      </trkpt>
      <trkpt lat="42.1845950" lon="-6.6442290">
        <ele>1239.6</ele>
        <time>2021-04-01T11:23:32Z</time>
      </trkpt>
      <trkpt lat="42.1845740" lon="-6.6442180">
        <ele>1239.4</ele>
        <time>2021-04-01T11:23:34Z</time>
      </trkpt>
      <trkpt lat="42.1845670" lon="-6.6442090">
        <ele>1239.2</ele>
        <time>2021-04-01T11:23:35Z</time>
      </trkpt>
      <trkpt lat="42.1845580" lon="-6.6442040">
        <ele>1239.0</ele>
        <time>2021-04-01T11:23:36Z</time>
      </trkpt>
      <trkpt lat="42.1845430" lon="-6.6441950">
        <ele>1238.6</ele>
        <time>2021-04-01T11:23:38Z</time>
      </trkpt>
      <trkpt lat="42.1845190" lon="-6.6441930">
        <ele>1237.8</ele>
        <time>2021-04-01T11:23:40Z</time>
      </trkpt>
      <trkpt lat="42.1845010" lon="-6.6442000">
        <ele>1237.6</ele>
        <time>2021-04-01T11:23:42Z</time>
      </trkpt>
      <trkpt lat="42.1844810" lon="-6.6441930">
        <ele>1237.4</ele>
        <time>2021-04-01T11:23:44Z</time>
      </trkpt>
      <trkpt lat="42.1844310" lon="-6.6441830">
        <ele>1236.2</ele>
        <time>2021-04-01T11:23:48Z</time>
      </trkpt>
      <trkpt lat="42.1844230" lon="-6.6441790">
        <ele>1235.8</ele>
        <time>2021-04-01T11:23:49Z</time>
      </trkpt>
      <trkpt lat="42.1844030" lon="-6.6441710">
        <ele>1235.6</ele>
        <time>2021-04-01T11:23:51Z</time>
      </trkpt>
      <trkpt lat="42.1843760" lon="-6.6441570">
        <ele>1235.2</ele>
        <time>2021-04-01T11:23:53Z</time>
      </trkpt>
      <trkpt lat="42.1843640" lon="-6.6441520">
        <ele>1235.0</ele>
        <time>2021-04-01T11:23:54Z</time>
      </trkpt>
      <trkpt lat="42.1843490" lon="-6.6441470">
        <ele>1234.8</ele>
        <time>2021-04-01T11:23:55Z</time>
      </trkpt>
      <trkpt lat="42.1842910" lon="-6.6441200">
        <ele>1233.8</ele>
        <time>2021-04-01T11:24:00Z</time>
      </trkpt>
      <trkpt lat="42.1842690" lon="-6.6441030">
        <ele>1233.4</ele>
        <time>2021-04-01T11:24:02Z</time>
      </trkpt>
      <trkpt lat="42.1842290" lon="-6.6440780">
        <ele>1232.6</ele>
        <time>2021-04-01T11:24:05Z</time>
      </trkpt>
      <trkpt lat="42.1841640" lon="-6.6440460">
        <ele>1231.6</ele>
        <time>2021-04-01T11:24:10Z</time>
      </trkpt>
      <trkpt lat="42.1841540" lon="-6.6440430">
        <ele>1231.2</ele>
        <time>2021-04-01T11:24:11Z</time>
      </trkpt>
      <trkpt lat="42.1841210" lon="-6.6440340">
        <ele>1230.4</ele>
        <time>2021-04-01T11:24:14Z</time>
      </trkpt>
      <trkpt lat="42.1841110" lon="-6.6440250">
        <ele>1230.2</ele>
        <time>2021-04-01T11:24:15Z</time>
      </trkpt>
      <trkpt lat="42.1840520" lon="-6.6439970">
        <ele>1229.2</ele>
        <time>2021-04-01T11:24:21Z</time>
      </trkpt>
      <trkpt lat="42.1840500" lon="-6.6439940">
        <ele>1229.0</ele>
        <time>2021-04-01T11:24:22Z</time>
      </trkpt>
      <trkpt lat="42.1840250" lon="-6.6440090">
        <ele>1228.6</ele>
        <time>2021-04-01T11:24:25Z</time>
      </trkpt>
      <trkpt lat="42.1839770" lon="-6.6440170">
        <ele>1227.8</ele>
        <time>2021-04-01T11:24:29Z</time>
      </trkpt>
      <trkpt lat="42.1839480" lon="-6.6440130">
        <ele>1227.0</ele>
        <time>2021-04-01T11:24:32Z</time>
      </trkpt>
      <trkpt lat="42.1839370" lon="-6.6440050">
        <ele>1226.8</ele>
        <time>2021-04-01T11:24:33Z</time>
      </trkpt>
      <trkpt lat="42.1839250" lon="-6.6439990">
        <ele>1226.6</ele>
        <time>2021-04-01T11:24:34Z</time>
      </trkpt>
      <trkpt lat="42.1839100" lon="-6.6439990">
        <ele>1226.4</ele>
        <time>2021-04-01T11:24:36Z</time>
      </trkpt>
      <trkpt lat="42.1838960" lon="-6.6440000">
        <ele>1226.0</ele>
        <time>2021-04-01T11:24:38Z</time>
      </trkpt>
      <trkpt lat="42.1838710" lon="-6.6439960">
        <ele>1225.8</ele>
        <time>2021-04-01T11:24:40Z</time>
      </trkpt>
      <trkpt lat="42.1838250" lon="-6.6439940">
        <ele>1225.2</ele>
        <time>2021-04-01T11:24:45Z</time>
      </trkpt>
      <trkpt lat="42.1838030" lon="-6.6439960">
        <ele>1224.6</ele>
        <time>2021-04-01T11:24:47Z</time>
      </trkpt>
      <trkpt lat="42.1837530" lon="-6.6440040">
        <ele>1223.8</ele>
        <time>2021-04-01T11:24:51Z</time>
      </trkpt>
      <trkpt lat="42.1836950" lon="-6.6440220">
        <ele>1223.6</ele>
        <time>2021-04-01T11:24:55Z</time>
      </trkpt>
      <trkpt lat="42.1836680" lon="-6.6440240">
        <ele>1223.4</ele>
        <time>2021-04-01T11:24:57Z</time>
      </trkpt>
      <trkpt lat="42.1835820" lon="-6.6440020">
        <ele>1222.4</ele>
        <time>2021-04-01T11:25:05Z</time>
      </trkpt>
      <trkpt lat="42.1835690" lon="-6.6439940">
        <ele>1222.0</ele>
        <time>2021-04-01T11:25:06Z</time>
      </trkpt>
      <trkpt lat="42.1835440" lon="-6.6439840">
        <ele>1221.4</ele>
        <time>2021-04-01T11:25:08Z</time>
      </trkpt>
      <trkpt lat="42.1835340" lon="-6.6439880">
        <ele>1221.2</ele>
        <time>2021-04-01T11:25:09Z</time>
      </trkpt>
      <trkpt lat="42.1835050" lon="-6.6440070">
        <ele>1220.8</ele>
        <time>2021-04-01T11:25:12Z</time>
      </trkpt>
      <trkpt lat="42.1834960" lon="-6.6440100">
        <ele>1220.8</ele>
        <time>2021-04-01T11:25:13Z</time>
      </trkpt>
      <trkpt lat="42.1834870" lon="-6.6440140">
        <ele>1220.8</ele>
        <time>2021-04-01T11:25:14Z</time>
      </trkpt>
      <trkpt lat="42.1834480" lon="-6.6440350">
        <ele>1220.2</ele>
        <time>2021-04-01T11:25:17Z</time>
      </trkpt>
      <trkpt lat="42.1834350" lon="-6.6440500">
        <ele>1219.8</ele>
        <time>2021-04-01T11:25:18Z</time>
      </trkpt>
      <trkpt lat="42.1834020" lon="-6.6440730">
        <ele>1219.2</ele>
        <time>2021-04-01T11:25:20Z</time>
      </trkpt>
      <trkpt lat="42.1833500" lon="-6.6440810">
        <ele>1218.4</ele>
        <time>2021-04-01T11:25:23Z</time>
      </trkpt>
      <trkpt lat="42.1833220" lon="-6.6440840">
        <ele>1218.0</ele>
        <time>2021-04-01T11:25:25Z</time>
      </trkpt>
      <trkpt lat="42.1833090" lon="-6.6440860">
        <ele>1217.8</ele>
        <time>2021-04-01T11:25:26Z</time>
      </trkpt>
      <trkpt lat="42.1832860" lon="-6.6440800">
        <ele>1216.6</ele>
        <time>2021-04-01T11:25:28Z</time>
      </trkpt>
      <trkpt lat="42.1832650" lon="-6.6440690">
        <ele>1215.6</ele>
        <time>2021-04-01T11:25:30Z</time>
      </trkpt>
      <trkpt lat="42.1832410" lon="-6.6440790">
        <ele>1215.2</ele>
        <time>2021-04-01T11:25:32Z</time>
      </trkpt>
      <trkpt lat="42.1832050" lon="-6.6440860">
        <ele>1214.8</ele>
        <time>2021-04-01T11:25:35Z</time>
      </trkpt>
      <trkpt lat="42.1831910" lon="-6.6440910">
        <ele>1214.6</ele>
        <time>2021-04-01T11:25:36Z</time>
      </trkpt>
      <trkpt lat="42.1831600" lon="-6.6441140">
        <ele>1213.8</ele>
        <time>2021-04-01T11:25:39Z</time>
      </trkpt>
      <trkpt lat="42.1831460" lon="-6.6441100">
        <ele>1213.6</ele>
        <time>2021-04-01T11:25:40Z</time>
      </trkpt>
      <trkpt lat="42.1831240" lon="-6.6441160">
        <ele>1212.0</ele>
        <time>2021-04-01T11:25:43Z</time>
      </trkpt>
      <trkpt lat="42.1831000" lon="-6.6441030">
        <ele>1211.4</ele>
        <time>2021-04-01T11:25:45Z</time>
      </trkpt>
      <trkpt lat="42.1830910" lon="-6.6441010">
        <ele>1211.0</ele>
        <time>2021-04-01T11:25:46Z</time>
      </trkpt>
      <trkpt lat="42.1830810" lon="-6.6440900">
        <ele>1210.6</ele>
        <time>2021-04-01T11:25:47Z</time>
      </trkpt>
      <trkpt lat="42.1830580" lon="-6.6440950">
        <ele>1210.2</ele>
        <time>2021-04-01T11:25:49Z</time>
      </trkpt>
      <trkpt lat="42.1830110" lon="-6.6441020">
        <ele>1210.0</ele>
        <time>2021-04-01T11:25:53Z</time>
      </trkpt>
      <trkpt lat="42.1830010" lon="-6.6441050">
        <ele>1209.6</ele>
        <time>2021-04-01T11:25:54Z</time>
      </trkpt>
      <trkpt lat="42.1829920" lon="-6.6441050">
        <ele>1209.4</ele>
        <time>2021-04-01T11:25:55Z</time>
      </trkpt>
      <trkpt lat="42.1829750" lon="-6.6441050">
        <ele>1209.0</ele>
        <time>2021-04-01T11:25:57Z</time>
      </trkpt>
      <trkpt lat="42.1829090" lon="-6.6440850">
        <ele>1208.0</ele>
        <time>2021-04-01T11:26:03Z</time>
      </trkpt>
      <trkpt lat="42.1828980" lon="-6.6440810">
        <ele>1207.6</ele>
        <time>2021-04-01T11:26:04Z</time>
      </trkpt>
      <trkpt lat="42.1828510" lon="-6.6440650">
        <ele>1207.0</ele>
        <time>2021-04-01T11:26:09Z</time>
      </trkpt>
      <trkpt lat="42.1828420" lon="-6.6440670">
        <ele>1206.8</ele>
        <time>2021-04-01T11:26:10Z</time>
      </trkpt>
      <trkpt lat="42.1828320" lon="-6.6440630">
        <ele>1206.8</ele>
        <time>2021-04-01T11:26:11Z</time>
      </trkpt>
      <trkpt lat="42.1828240" lon="-6.6440640">
        <ele>1206.6</ele>
        <time>2021-04-01T11:26:12Z</time>
      </trkpt>
      <trkpt lat="42.1827680" lon="-6.6440440">
        <ele>1205.4</ele>
        <time>2021-04-01T11:26:17Z</time>
      </trkpt>
      <trkpt lat="42.1827460" lon="-6.6440230">
        <ele>1205.0</ele>
        <time>2021-04-01T11:26:19Z</time>
      </trkpt>
      <trkpt lat="42.1827250" lon="-6.6440210">
        <ele>1204.8</ele>
        <time>2021-04-01T11:26:21Z</time>
      </trkpt>
      <trkpt lat="42.1827080" lon="-6.6440360">
        <ele>1204.2</ele>
        <time>2021-04-01T11:26:24Z</time>
      </trkpt>
      <trkpt lat="42.1826990" lon="-6.6440470">
        <ele>1203.6</ele>
        <time>2021-04-01T11:26:26Z</time>
      </trkpt>
      <trkpt lat="42.1826830" lon="-6.6440410">
        <ele>1203.4</ele>
        <time>2021-04-01T11:26:28Z</time>
      </trkpt>
      <trkpt lat="42.1826720" lon="-6.6440410">
        <ele>1203.4</ele>
        <time>2021-04-01T11:26:29Z</time>
      </trkpt>
      <trkpt lat="42.1826340" lon="-6.6440440">
        <ele>1203.2</ele>
        <time>2021-04-01T11:26:32Z</time>
      </trkpt>
      <trkpt lat="42.1825930" lon="-6.6440630">
        <ele>1202.2</ele>
        <time>2021-04-01T11:26:36Z</time>
      </trkpt>
      <trkpt lat="42.1825350" lon="-6.6440620">
        <ele>1201.6</ele>
        <time>2021-04-01T11:26:41Z</time>
      </trkpt>
      <trkpt lat="42.1825030" lon="-6.6440620">
        <ele>1201.0</ele>
        <time>2021-04-01T11:26:44Z</time>
      </trkpt>
      <trkpt lat="42.1824230" lon="-6.6440430">
        <ele>1200.2</ele>
        <time>2021-04-01T11:26:50Z</time>
      </trkpt>
      <trkpt lat="42.1824130" lon="-6.6440530">
        <ele>1200.2</ele>
        <time>2021-04-01T11:26:51Z</time>
      </trkpt>
      <trkpt lat="42.1824030" lon="-6.6440520">
        <ele>1200.0</ele>
        <time>2021-04-01T11:26:52Z</time>
      </trkpt>
      <trkpt lat="42.1823830" lon="-6.6440500">
        <ele>1199.6</ele>
        <time>2021-04-01T11:26:54Z</time>
      </trkpt>
      <trkpt lat="42.1823370" lon="-6.6440610">
        <ele>1199.4</ele>
        <time>2021-04-01T11:26:57Z</time>
      </trkpt>
      <trkpt lat="42.1823060" lon="-6.6440780">
        <ele>1198.8</ele>
        <time>2021-04-01T11:27:00Z</time>
      </trkpt>
      <trkpt lat="42.1822930" lon="-6.6440850">
        <ele>1198.4</ele>
        <time>2021-04-01T11:27:02Z</time>
      </trkpt>
      <trkpt lat="42.1822820" lon="-6.6440830">
        <ele>1198.0</ele>
        <time>2021-04-01T11:27:04Z</time>
      </trkpt>
      <trkpt lat="42.1822720" lon="-6.6440830">
        <ele>1197.8</ele>
        <time>2021-04-01T11:27:06Z</time>
      </trkpt>
      <trkpt lat="42.1822570" lon="-6.6440850">
        <ele>1197.6</ele>
        <time>2021-04-01T11:27:08Z</time>
      </trkpt>
      <trkpt lat="42.1822010" lon="-6.6440770">
        <ele>1197.2</ele>
        <time>2021-04-01T11:27:13Z</time>
      </trkpt>
      <trkpt lat="42.1821600" lon="-6.6440810">
        <ele>1196.8</ele>
        <time>2021-04-01T11:27:16Z</time>
      </trkpt>
      <trkpt lat="42.1821480" lon="-6.6440830">
        <ele>1196.8</ele>
        <time>2021-04-01T11:27:17Z</time>
      </trkpt>
      <trkpt lat="42.1820960" lon="-6.6440890">
        <ele>1195.6</ele>
        <time>2021-04-01T11:27:21Z</time>
      </trkpt>
      <trkpt lat="42.1820640" lon="-6.6440900">
        <ele>1195.0</ele>
        <time>2021-04-01T11:27:24Z</time>
      </trkpt>
      <trkpt lat="42.1820130" lon="-6.6440670">
        <ele>1194.6</ele>
        <time>2021-04-01T11:27:28Z</time>
      </trkpt>
      <trkpt lat="42.1820050" lon="-6.6440650">
        <ele>1194.6</ele>
        <time>2021-04-01T11:27:29Z</time>
      </trkpt>
      <trkpt lat="42.1819870" lon="-6.6440560">
        <ele>1194.2</ele>
        <time>2021-04-01T11:27:31Z</time>
      </trkpt>
      <trkpt lat="42.1819540" lon="-6.6440310">
        <ele>1193.8</ele>
        <time>2021-04-01T11:27:35Z</time>
      </trkpt>
      <trkpt lat="42.1819230" lon="-6.6440090">
        <ele>1193.8</ele>
        <time>2021-04-01T11:27:39Z</time>
      </trkpt>
      <trkpt lat="42.1819110" lon="-6.6440000">
        <ele>1193.6</ele>
        <time>2021-04-01T11:27:40Z</time>
      </trkpt>
      <trkpt lat="42.1818990" lon="-6.6439880">
        <ele>1193.2</ele>
        <time>2021-04-01T11:27:41Z</time>
      </trkpt>
      <trkpt lat="42.1818570" lon="-6.6439730">
        <ele>1192.2</ele>
        <time>2021-04-01T11:27:45Z</time>
      </trkpt>
      <trkpt lat="42.1818460" lon="-6.6439600">
        <ele>1192.0</ele>
        <time>2021-04-01T11:27:46Z</time>
      </trkpt>
      <trkpt lat="42.1818110" lon="-6.6439260">
        <ele>1191.8</ele>
        <time>2021-04-01T11:27:50Z</time>
      </trkpt>
      <trkpt lat="42.1817990" lon="-6.6439190">
        <ele>1191.8</ele>
        <time>2021-04-01T11:27:51Z</time>
      </trkpt>
      <trkpt lat="42.1817450" lon="-6.6439060">
        <ele>1191.8</ele>
        <time>2021-04-01T11:27:56Z</time>
      </trkpt>
      <trkpt lat="42.1817330" lon="-6.6438980">
        <ele>1191.6</ele>
        <time>2021-04-01T11:27:57Z</time>
      </trkpt>
      <trkpt lat="42.1817240" lon="-6.6438910">
        <ele>1191.6</ele>
        <time>2021-04-01T11:27:58Z</time>
      </trkpt>
      <trkpt lat="42.1816880" lon="-6.6438730">
        <ele>1191.4</ele>
        <time>2021-04-01T11:28:01Z</time>
      </trkpt>
      <trkpt lat="42.1816790" lon="-6.6438710">
        <ele>1191.2</ele>
        <time>2021-04-01T11:28:02Z</time>
      </trkpt>
      <trkpt lat="42.1816570" lon="-6.6438710">
        <ele>1190.6</ele>
        <time>2021-04-01T11:28:05Z</time>
      </trkpt>
      <trkpt lat="42.1816220" lon="-6.6438720">
        <ele>1190.6</ele>
        <time>2021-04-01T11:28:08Z</time>
      </trkpt>
      <trkpt lat="42.1815290" lon="-6.6438560">
        <ele>1190.2</ele>
        <time>2021-04-01T11:28:15Z</time>
      </trkpt>
      <trkpt lat="42.1815170" lon="-6.6438530">
        <ele>1189.8</ele>
        <time>2021-04-01T11:28:17Z</time>
      </trkpt>
      <trkpt lat="42.1815280" lon="-6.6438630">
        <ele>1190.0</ele>
        <time>2021-04-01T11:28:21Z</time>
      </trkpt>
      <trkpt lat="42.1815340" lon="-6.6438650">
        <ele>1190.0</ele>
        <time>2021-04-01T11:28:22Z</time>
      </trkpt>
      <trkpt lat="42.1815060" lon="-6.6438180">
        <ele>1190.2</ele>
        <time>2021-04-01T11:28:24Z</time>
      </trkpt>
      <trkpt lat="42.1814700" lon="-6.6438370">
        <ele>1190.0</ele>
        <time>2021-04-01T11:28:27Z</time>
      </trkpt>
      <trkpt lat="42.1814530" lon="-6.6438360">
        <ele>1190.0</ele>
        <time>2021-04-01T11:28:28Z</time>
      </trkpt>
      <trkpt lat="42.1813790" lon="-6.6438380">
        <ele>1189.6</ele>
        <time>2021-04-01T11:28:33Z</time>
      </trkpt>
      <trkpt lat="42.1813490" lon="-6.6438290">
        <ele>1189.8</ele>
        <time>2021-04-01T11:28:35Z</time>
      </trkpt>
      <trkpt lat="42.1813280" lon="-6.6438310">
        <ele>1190.2</ele>
        <time>2021-04-01T11:28:37Z</time>
      </trkpt>
      <trkpt lat="42.1812760" lon="-6.6438190">
        <ele>1190.2</ele>
        <time>2021-04-01T11:28:42Z</time>
      </trkpt>
      <trkpt lat="42.1812660" lon="-6.6438150">
        <ele>1190.2</ele>
        <time>2021-04-01T11:28:43Z</time>
      </trkpt>
      <trkpt lat="42.1812160" lon="-6.6437850">
        <ele>1189.8</ele>
        <time>2021-04-01T11:28:49Z</time>
      </trkpt>
      <trkpt lat="42.1812050" lon="-6.6437750">
        <ele>1189.8</ele>
        <time>2021-04-01T11:28:50Z</time>
      </trkpt>
      <trkpt lat="42.1811590" lon="-6.6437180">
        <ele>1189.8</ele>
        <time>2021-04-01T11:28:54Z</time>
      </trkpt>
      <trkpt lat="42.1811200" lon="-6.6436870">
        <ele>1189.2</ele>
        <time>2021-04-01T11:28:58Z</time>
      </trkpt>
      <trkpt lat="42.1811110" lon="-6.6436820">
        <ele>1189.2</ele>
        <time>2021-04-01T11:28:59Z</time>
      </trkpt>
      <trkpt lat="42.1810990" lon="-6.6436690">
        <ele>1189.2</ele>
        <time>2021-04-01T11:29:00Z</time>
      </trkpt>
      <trkpt lat="42.1810870" lon="-6.6436530">
        <ele>1189.0</ele>
        <time>2021-04-01T11:29:01Z</time>
      </trkpt>
      <trkpt lat="42.1810510" lon="-6.6436230">
        <ele>1189.2</ele>
        <time>2021-04-01T11:29:04Z</time>
      </trkpt>
      <trkpt lat="42.1810400" lon="-6.6436200">
        <ele>1189.2</ele>
        <time>2021-04-01T11:29:05Z</time>
      </trkpt>
      <trkpt lat="42.1809710" lon="-6.6435480">
        <ele>1189.0</ele>
        <time>2021-04-01T11:29:10Z</time>
      </trkpt>
      <trkpt lat="42.1809620" lon="-6.6435370">
        <ele>1189.0</ele>
        <time>2021-04-01T11:29:11Z</time>
      </trkpt>
      <trkpt lat="42.1808760" lon="-6.6434550">
        <ele>1188.8</ele>
        <time>2021-04-01T11:29:18Z</time>
      </trkpt>
      <trkpt lat="42.1807870" lon="-6.6434050">
        <ele>1188.6</ele>
        <time>2021-04-01T11:29:25Z</time>
      </trkpt>
      <trkpt lat="42.1807090" lon="-6.6433650">
        <ele>1189.2</ele>
        <time>2021-04-01T11:29:31Z</time>
      </trkpt>
      <trkpt lat="42.1806860" lon="-6.6433580">
        <ele>1189.2</ele>
        <time>2021-04-01T11:29:33Z</time>
      </trkpt>
      <trkpt lat="42.1805630" lon="-6.6432510">
        <ele>1188.6</ele>
        <time>2021-04-01T11:29:41Z</time>
      </trkpt>
      <trkpt lat="42.1805510" lon="-6.6432450">
        <ele>1188.6</ele>
        <time>2021-04-01T11:29:42Z</time>
      </trkpt>
      <trkpt lat="42.1805300" lon="-6.6432350">
        <ele>1188.4</ele>
        <time>2021-04-01T11:29:44Z</time>
      </trkpt>
      <trkpt lat="42.1805120" lon="-6.6432290">
        <ele>1188.2</ele>
        <time>2021-04-01T11:29:46Z</time>
      </trkpt>
      <trkpt lat="42.1804940" lon="-6.6432130">
        <ele>1187.8</ele>
        <time>2021-04-01T11:29:48Z</time>
      </trkpt>
      <trkpt lat="42.1804420" lon="-6.6431630">
        <ele>1187.2</ele>
        <time>2021-04-01T11:29:54Z</time>
      </trkpt>
      <trkpt lat="42.1804310" lon="-6.6431490">
        <ele>1187.0</ele>
        <time>2021-04-01T11:29:55Z</time>
      </trkpt>
      <trkpt lat="42.1803970" lon="-6.6431130">
        <ele>1187.0</ele>
        <time>2021-04-01T11:29:58Z</time>
      </trkpt>
      <trkpt lat="42.1803480" lon="-6.6430580">
        <ele>1187.0</ele>
        <time>2021-04-01T11:30:02Z</time>
      </trkpt>
      <trkpt lat="42.1802620" lon="-6.6429860">
        <ele>1186.2</ele>
        <time>2021-04-01T11:30:10Z</time>
      </trkpt>
      <trkpt lat="42.1802170" lon="-6.6429660">
        <ele>1186.0</ele>
        <time>2021-04-01T11:30:13Z</time>
      </trkpt>
      <trkpt lat="42.1801740" lon="-6.6429670">
        <ele>1186.2</ele>
        <time>2021-04-01T11:30:16Z</time>
      </trkpt>
      <trkpt lat="42.1801590" lon="-6.6429670">
        <ele>1186.2</ele>
        <time>2021-04-01T11:30:17Z</time>
      </trkpt>
      <trkpt lat="42.1801110" lon="-6.6429530">
        <ele>1186.4</ele>
        <time>2021-04-01T11:30:22Z</time>
      </trkpt>
      <trkpt lat="42.1800280" lon="-6.6429180">
        <ele>1186.4</ele>
        <time>2021-04-01T11:30:30Z</time>
      </trkpt>
      <trkpt lat="42.1799630" lon="-6.6428450">
        <ele>1186.8</ele>
        <time>2021-04-01T11:30:36Z</time>
      </trkpt>
      <trkpt lat="42.1799500" lon="-6.6428370">
        <ele>1186.8</ele>
        <time>2021-04-01T11:30:37Z</time>
      </trkpt>
      <trkpt lat="42.1798930" lon="-6.6427890">
        <ele>1187.0</ele>
        <time>2021-04-01T11:30:43Z</time>
      </trkpt>
      <trkpt lat="42.1798380" lon="-6.6426830">
        <ele>1186.6</ele>
        <time>2021-04-01T11:30:50Z</time>
      </trkpt>
      <trkpt lat="42.1798330" lon="-6.6426710">
        <ele>1186.6</ele>
        <time>2021-04-01T11:30:51Z</time>
      </trkpt>
      <trkpt lat="42.1798300" lon="-6.6426570">
        <ele>1186.6</ele>
        <time>2021-04-01T11:30:52Z</time>
      </trkpt>
      <trkpt lat="42.1798180" lon="-6.6426360">
        <ele>1187.0</ele>
        <time>2021-04-01T11:30:54Z</time>
      </trkpt>
      <trkpt lat="42.1798100" lon="-6.6426260">
        <ele>1187.0</ele>
        <time>2021-04-01T11:30:55Z</time>
      </trkpt>
      <trkpt lat="42.1798030" lon="-6.6426170">
        <ele>1187.2</ele>
        <time>2021-04-01T11:30:56Z</time>
      </trkpt>
      <trkpt lat="42.1797580" lon="-6.6425640">
        <ele>1187.2</ele>
        <time>2021-04-01T11:31:01Z</time>
      </trkpt>
      <trkpt lat="42.1797450" lon="-6.6425570">
        <ele>1187.0</ele>
        <time>2021-04-01T11:31:02Z</time>
      </trkpt>
      <trkpt lat="42.1796370" lon="-6.6424940">
        <ele>1186.4</ele>
        <time>2021-04-01T11:31:11Z</time>
      </trkpt>
      <trkpt lat="42.1795980" lon="-6.6424970">
        <ele>1186.4</ele>
        <time>2021-04-01T11:31:14Z</time>
      </trkpt>
      <trkpt lat="42.1795600" lon="-6.6424940">
        <ele>1186.0</ele>
        <time>2021-04-01T11:31:17Z</time>
      </trkpt>
      <trkpt lat="42.1795490" lon="-6.6424870">
        <ele>1186.0</ele>
        <time>2021-04-01T11:31:18Z</time>
      </trkpt>
      <trkpt lat="42.1795380" lon="-6.6424820">
        <ele>1185.8</ele>
        <time>2021-04-01T11:31:19Z</time>
      </trkpt>
      <trkpt lat="42.1794870" lon="-6.6424650">
        <ele>1185.2</ele>
        <time>2021-04-01T11:31:24Z</time>
      </trkpt>
      <trkpt lat="42.1794660" lon="-6.6424520">
        <ele>1185.2</ele>
        <time>2021-04-01T11:31:26Z</time>
      </trkpt>
      <trkpt lat="42.1794290" lon="-6.6424570">
        <ele>1185.0</ele>
        <time>2021-04-01T11:31:30Z</time>
      </trkpt>
      <trkpt lat="42.1794060" lon="-6.6424590">
        <ele>1185.0</ele>
        <time>2021-04-01T11:31:32Z</time>
      </trkpt>
      <trkpt lat="42.1793790" lon="-6.6424770">
        <ele>1184.6</ele>
        <time>2021-04-01T11:31:34Z</time>
      </trkpt>
      <trkpt lat="42.1793560" lon="-6.6424900">
        <ele>1184.6</ele>
        <time>2021-04-01T11:31:36Z</time>
      </trkpt>
      <trkpt lat="42.1793440" lon="-6.6424860">
        <ele>1184.6</ele>
        <time>2021-04-01T11:31:37Z</time>
      </trkpt>
      <trkpt lat="42.1793140" lon="-6.6424830">
        <ele>1184.4</ele>
        <time>2021-04-01T11:31:40Z</time>
      </trkpt>
      <trkpt lat="42.1793020" lon="-6.6424880">
        <ele>1184.4</ele>
        <time>2021-04-01T11:31:41Z</time>
      </trkpt>
      <trkpt lat="42.1792490" lon="-6.6424980">
        <ele>1184.2</ele>
        <time>2021-04-01T11:31:45Z</time>
      </trkpt>
      <trkpt lat="42.1792210" lon="-6.6425230">
        <ele>1183.8</ele>
        <time>2021-04-01T11:31:47Z</time>
      </trkpt>
      <trkpt lat="42.1791720" lon="-6.6425590">
        <ele>1183.2</ele>
        <time>2021-04-01T11:31:51Z</time>
      </trkpt>
      <trkpt lat="42.1791390" lon="-6.6425730">
        <ele>1183.2</ele>
        <time>2021-04-01T11:31:54Z</time>
      </trkpt>
      <trkpt lat="42.1790660" lon="-6.6425960">
        <ele>1183.0</ele>
        <time>2021-04-01T11:32:00Z</time>
      </trkpt>
      <trkpt lat="42.1790390" lon="-6.6426030">
        <ele>1182.8</ele>
        <time>2021-04-01T11:32:02Z</time>
      </trkpt>
      <trkpt lat="42.1790300" lon="-6.6426080">
        <ele>1182.6</ele>
        <time>2021-04-01T11:32:03Z</time>
      </trkpt>
      <trkpt lat="42.1790140" lon="-6.6426250">
        <ele>1182.6</ele>
        <time>2021-04-01T11:32:05Z</time>
      </trkpt>
      <trkpt lat="42.1789500" lon="-6.6426370">
        <ele>1182.6</ele>
        <time>2021-04-01T11:32:11Z</time>
      </trkpt>
      <trkpt lat="42.1788850" lon="-6.6426710">
        <ele>1182.2</ele>
        <time>2021-04-01T11:32:17Z</time>
      </trkpt>
      <trkpt lat="42.1788130" lon="-6.6426950">
        <ele>1182.4</ele>
        <time>2021-04-01T11:32:23Z</time>
      </trkpt>
      <trkpt lat="42.1788030" lon="-6.6427010">
        <ele>1182.4</ele>
        <time>2021-04-01T11:32:24Z</time>
      </trkpt>
      <trkpt lat="42.1787620" lon="-6.6427200">
        <ele>1182.6</ele>
        <time>2021-04-01T11:32:28Z</time>
      </trkpt>
      <trkpt lat="42.1787440" lon="-6.6427340">
        <ele>1182.6</ele>
        <time>2021-04-01T11:32:30Z</time>
      </trkpt>
      <trkpt lat="42.1786980" lon="-6.6427740">
        <ele>1183.2</ele>
        <time>2021-04-01T11:32:34Z</time>
      </trkpt>
      <trkpt lat="42.1786740" lon="-6.6427950">
        <ele>1183.6</ele>
        <time>2021-04-01T11:32:36Z</time>
      </trkpt>
      <trkpt lat="42.1786600" lon="-6.6428070">
        <ele>1183.8</ele>
        <time>2021-04-01T11:32:37Z</time>
      </trkpt>
      <trkpt lat="42.1786170" lon="-6.6428360">
        <ele>1184.2</ele>
        <time>2021-04-01T11:32:40Z</time>
      </trkpt>
      <trkpt lat="42.1786000" lon="-6.6428400">
        <ele>1184.2</ele>
        <time>2021-04-01T11:32:41Z</time>
      </trkpt>
      <trkpt lat="42.1785350" lon="-6.6428900">
        <ele>1183.8</ele>
        <time>2021-04-01T11:32:46Z</time>
      </trkpt>
      <trkpt lat="42.1785130" lon="-6.6429040">
        <ele>1183.6</ele>
        <time>2021-04-01T11:32:48Z</time>
      </trkpt>
      <trkpt lat="42.1784930" lon="-6.6429330">
        <ele>1183.8</ele>
        <time>2021-04-01T11:32:50Z</time>
      </trkpt>
      <trkpt lat="42.1784490" lon="-6.6430210">
        <ele>1183.6</ele>
        <time>2021-04-01T11:32:56Z</time>
      </trkpt>
      <trkpt lat="42.1784190" lon="-6.6430840">
        <ele>1182.8</ele>
        <time>2021-04-01T11:33:00Z</time>
      </trkpt>
      <trkpt lat="42.1783960" lon="-6.6431700">
        <ele>1181.8</ele>
        <time>2021-04-01T11:33:04Z</time>
      </trkpt>
      <trkpt lat="42.1783490" lon="-6.6432730">
        <ele>1180.6</ele>
        <time>2021-04-01T11:33:10Z</time>
      </trkpt>
      <trkpt lat="42.1783210" lon="-6.6432870">
        <ele>1179.2</ele>
        <time>2021-04-01T11:33:13Z</time>
      </trkpt>
      <trkpt lat="42.1782960" lon="-6.6433020">
        <ele>1178.6</ele>
        <time>2021-04-01T11:33:15Z</time>
      </trkpt>
      <trkpt lat="42.1782380" lon="-6.6433420">
        <ele>1178.6</ele>
        <time>2021-04-01T11:33:20Z</time>
      </trkpt>
      <trkpt lat="42.1782270" lon="-6.6433490">
        <ele>1178.6</ele>
        <time>2021-04-01T11:33:21Z</time>
      </trkpt>
      <trkpt lat="42.1782060" lon="-6.6433700">
        <ele>1178.6</ele>
        <time>2021-04-01T11:33:23Z</time>
      </trkpt>
      <trkpt lat="42.1781580" lon="-6.6433990">
        <ele>1178.8</ele>
        <time>2021-04-01T11:33:27Z</time>
      </trkpt>
      <trkpt lat="42.1781490" lon="-6.6434130">
        <ele>1178.8</ele>
        <time>2021-04-01T11:33:28Z</time>
      </trkpt>
      <trkpt lat="42.1781270" lon="-6.6434170">
        <ele>1178.8</ele>
        <time>2021-04-01T11:33:30Z</time>
      </trkpt>
      <trkpt lat="42.1780980" lon="-6.6434210">
        <ele>1178.6</ele>
        <time>2021-04-01T11:33:33Z</time>
      </trkpt>
      <trkpt lat="42.1780500" lon="-6.6434660">
        <ele>1178.6</ele>
        <time>2021-04-01T11:33:37Z</time>
      </trkpt>
      <trkpt lat="42.1780360" lon="-6.6434790">
        <ele>1178.6</ele>
        <time>2021-04-01T11:33:38Z</time>
      </trkpt>
      <trkpt lat="42.1780110" lon="-6.6434950">
        <ele>1178.8</ele>
        <time>2021-04-01T11:33:40Z</time>
      </trkpt>
      <trkpt lat="42.1779900" lon="-6.6435720">
        <ele>1178.8</ele>
        <time>2021-04-01T11:33:43Z</time>
      </trkpt>
      <trkpt lat="42.1779780" lon="-6.6435900">
        <ele>1178.8</ele>
        <time>2021-04-01T11:33:44Z</time>
      </trkpt>
      <trkpt lat="42.1779110" lon="-6.6436670">
        <ele>1178.8</ele>
        <time>2021-04-01T11:33:50Z</time>
      </trkpt>
      <trkpt lat="42.1778920" lon="-6.6436980">
        <ele>1178.8</ele>
        <time>2021-04-01T11:33:52Z</time>
      </trkpt>
      <trkpt lat="42.1778480" lon="-6.6437490">
        <ele>1179.0</ele>
        <time>2021-04-01T11:33:57Z</time>
      </trkpt>
      <trkpt lat="42.1778420" lon="-6.6437580">
        <ele>1179.0</ele>
        <time>2021-04-01T11:33:58Z</time>
      </trkpt>
      <trkpt lat="42.1777960" lon="-6.6437960">
        <ele>1179.0</ele>
        <time>2021-04-01T11:34:03Z</time>
      </trkpt>
      <trkpt lat="42.1777550" lon="-6.6438140">
        <ele>1178.4</ele>
        <time>2021-04-01T11:34:06Z</time>
      </trkpt>
      <trkpt lat="42.1777300" lon="-6.6438290">
        <ele>1178.0</ele>
        <time>2021-04-01T11:34:08Z</time>
      </trkpt>
      <trkpt lat="42.1776920" lon="-6.6438460">
        <ele>1177.8</ele>
        <time>2021-04-01T11:34:11Z</time>
      </trkpt>
      <trkpt lat="42.1776610" lon="-6.6438550">
        <ele>1177.8</ele>
        <time>2021-04-01T11:34:14Z</time>
      </trkpt>
      <trkpt lat="42.1776050" lon="-6.6439140">
        <ele>1178.2</ele>
        <time>2021-04-01T11:34:19Z</time>
      </trkpt>
      <trkpt lat="42.1775800" lon="-6.6439290">
        <ele>1178.4</ele>
        <time>2021-04-01T11:34:21Z</time>
      </trkpt>
      <trkpt lat="42.1775460" lon="-6.6439590">
        <ele>1178.2</ele>
        <time>2021-04-01T11:34:24Z</time>
      </trkpt>
      <trkpt lat="42.1775280" lon="-6.6439700">
        <ele>1178.0</ele>
        <time>2021-04-01T11:34:26Z</time>
      </trkpt>
      <trkpt lat="42.1775120" lon="-6.6439840">
        <ele>1178.0</ele>
        <time>2021-04-01T11:34:28Z</time>
      </trkpt>
      <trkpt lat="42.1774590" lon="-6.6440320">
        <ele>1178.2</ele>
        <time>2021-04-01T11:34:33Z</time>
      </trkpt>
      <trkpt lat="42.1774410" lon="-6.6440570">
        <ele>1178.2</ele>
        <time>2021-04-01T11:34:36Z</time>
      </trkpt>
      <trkpt lat="42.1774070" lon="-6.6441050">
        <ele>1178.2</ele>
        <time>2021-04-01T11:34:40Z</time>
      </trkpt>
      <trkpt lat="42.1773960" lon="-6.6441220">
        <ele>1178.0</ele>
        <time>2021-04-01T11:34:42Z</time>
      </trkpt>
      <trkpt lat="42.1773650" lon="-6.6441660">
        <ele>1178.0</ele>
        <time>2021-04-01T11:34:45Z</time>
      </trkpt>
      <trkpt lat="42.1773490" lon="-6.6441880">
        <ele>1178.0</ele>
        <time>2021-04-01T11:34:47Z</time>
      </trkpt>
      <trkpt lat="42.1773100" lon="-6.6442460">
        <ele>1178.6</ele>
        <time>2021-04-01T11:34:51Z</time>
      </trkpt>
      <trkpt lat="42.1772690" lon="-6.6442960">
        <ele>1179.0</ele>
        <time>2021-04-01T11:34:55Z</time>
      </trkpt>
      <trkpt lat="42.1772440" lon="-6.6443170">
        <ele>1179.0</ele>
        <time>2021-04-01T11:34:57Z</time>
      </trkpt>
      <trkpt lat="42.1771750" lon="-6.6443660">
        <ele>1178.4</ele>
        <time>2021-04-01T11:35:02Z</time>
      </trkpt>
      <trkpt lat="42.1770770" lon="-6.6443850">
        <ele>1178.6</ele>
        <time>2021-04-01T11:35:09Z</time>
      </trkpt>
      <trkpt lat="42.1770550" lon="-6.6443950">
        <ele>1178.6</ele>
        <time>2021-04-01T11:35:11Z</time>
      </trkpt>
      <trkpt lat="42.1769930" lon="-6.6444350">
        <ele>1178.2</ele>
        <time>2021-04-01T11:35:17Z</time>
      </trkpt>
      <trkpt lat="42.1769800" lon="-6.6444450">
        <ele>1178.2</ele>
        <time>2021-04-01T11:35:18Z</time>
      </trkpt>
      <trkpt lat="42.1769560" lon="-6.6444690">
        <ele>1178.0</ele>
        <time>2021-04-01T11:35:20Z</time>
      </trkpt>
      <trkpt lat="42.1769070" lon="-6.6445590">
        <ele>1177.2</ele>
        <time>2021-04-01T11:35:26Z</time>
      </trkpt>
      <trkpt lat="42.1768810" lon="-6.6446400">
        <ele>1177.0</ele>
        <time>2021-04-01T11:35:30Z</time>
      </trkpt>
      <trkpt lat="42.1768780" lon="-6.6446680">
        <ele>1176.8</ele>
        <time>2021-04-01T11:35:32Z</time>
      </trkpt>
      <trkpt lat="42.1768230" lon="-6.6447600">
        <ele>1177.4</ele>
        <time>2021-04-01T11:35:39Z</time>
      </trkpt>
      <trkpt lat="42.1767400" lon="-6.6447980">
        <ele>1177.4</ele>
        <time>2021-04-01T11:35:46Z</time>
      </trkpt>
      <trkpt lat="42.1767310" lon="-6.6448040">
        <ele>1177.2</ele>
        <time>2021-04-01T11:35:47Z</time>
      </trkpt>
      <trkpt lat="42.1766530" lon="-6.6448520">
        <ele>1177.4</ele>
        <time>2021-04-01T11:35:54Z</time>
      </trkpt>
      <trkpt lat="42.1766140" lon="-6.6448880">
        <ele>1177.8</ele>
        <time>2021-04-01T11:35:58Z</time>
      </trkpt>
      <trkpt lat="42.1766040" lon="-6.6448940">
        <ele>1178.2</ele>
        <time>2021-04-01T11:35:59Z</time>
      </trkpt>
      <trkpt lat="42.1765870" lon="-6.6449080">
        <ele>1178.4</ele>
        <time>2021-04-01T11:36:01Z</time>
      </trkpt>
      <trkpt lat="42.1765380" lon="-6.6449750">
        <ele>1178.6</ele>
        <time>2021-04-01T11:36:06Z</time>
      </trkpt>
      <trkpt lat="42.1765280" lon="-6.6449900">
        <ele>1178.6</ele>
        <time>2021-04-01T11:36:07Z</time>
      </trkpt>
      <trkpt lat="42.1765040" lon="-6.6450270">
        <ele>1178.6</ele>
        <time>2021-04-01T11:36:10Z</time>
      </trkpt>
      <trkpt lat="42.1764630" lon="-6.6450650">
        <ele>1178.4</ele>
        <time>2021-04-01T11:36:14Z</time>
      </trkpt>
      <trkpt lat="42.1763740" lon="-6.6451170">
        <ele>1178.0</ele>
        <time>2021-04-01T11:36:21Z</time>
      </trkpt>
      <trkpt lat="42.1763000" lon="-6.6451480">
        <ele>1177.0</ele>
        <time>2021-04-01T11:36:27Z</time>
      </trkpt>
      <trkpt lat="42.1762790" lon="-6.6451590">
        <ele>1177.0</ele>
        <time>2021-04-01T11:36:29Z</time>
      </trkpt>
      <trkpt lat="42.1762310" lon="-6.6451780">
        <ele>1177.2</ele>
        <time>2021-04-01T11:36:33Z</time>
      </trkpt>
      <trkpt lat="42.1761960" lon="-6.6451870">
        <ele>1177.4</ele>
        <time>2021-04-01T11:36:36Z</time>
      </trkpt>
      <trkpt lat="42.1761230" lon="-6.6452010">
        <ele>1177.2</ele>
        <time>2021-04-01T11:36:42Z</time>
      </trkpt>
      <trkpt lat="42.1760470" lon="-6.6452150">
        <ele>1177.2</ele>
        <time>2021-04-01T11:36:48Z</time>
      </trkpt>
      <trkpt lat="42.1760200" lon="-6.6452200">
        <ele>1177.2</ele>
        <time>2021-04-01T11:36:50Z</time>
      </trkpt>
      <trkpt lat="42.1759530" lon="-6.6452370">
        <ele>1177.4</ele>
        <time>2021-04-01T11:36:55Z</time>
      </trkpt>
      <trkpt lat="42.1759390" lon="-6.6452460">
        <ele>1177.4</ele>
        <time>2021-04-01T11:36:56Z</time>
      </trkpt>
      <trkpt lat="42.1758850" lon="-6.6453170">
        <ele>1176.4</ele>
        <time>2021-04-01T11:37:01Z</time>
      </trkpt>
      <trkpt lat="42.1758770" lon="-6.6453330">
        <ele>1176.2</ele>
        <time>2021-04-01T11:37:02Z</time>
      </trkpt>
      <trkpt lat="42.1758680" lon="-6.6453490">
        <ele>1176.0</ele>
        <time>2021-04-01T11:37:03Z</time>
      </trkpt>
      <trkpt lat="42.1758480" lon="-6.6453840">
        <ele>1175.8</ele>
        <time>2021-04-01T11:37:05Z</time>
      </trkpt>
      <trkpt lat="42.1757940" lon="-6.6454480">
        <ele>1175.6</ele>
        <time>2021-04-01T11:37:10Z</time>
      </trkpt>
      <trkpt lat="42.1757090" lon="-6.6455150">
        <ele>1175.6</ele>
        <time>2021-04-01T11:37:18Z</time>
      </trkpt>
      <trkpt lat="42.1756940" lon="-6.6455450">
        <ele>1175.0</ele>
        <time>2021-04-01T11:37:21Z</time>
      </trkpt>
      <trkpt lat="42.1756920" lon="-6.6455520">
        <ele>1175.0</ele>
        <time>2021-04-01T11:37:22Z</time>
      </trkpt>
      <trkpt lat="42.1756890" lon="-6.6455590">
        <ele>1174.8</ele>
        <time>2021-04-01T11:37:23Z</time>
      </trkpt>
      <trkpt lat="42.1756790" lon="-6.6455640">
        <ele>1174.8</ele>
        <time>2021-04-01T11:37:25Z</time>
      </trkpt>
      <trkpt lat="42.1756560" lon="-6.6455880">
        <ele>1174.0</ele>
        <time>2021-04-01T11:37:30Z</time>
      </trkpt>
      <trkpt lat="42.1756510" lon="-6.6456010">
        <ele>1174.0</ele>
        <time>2021-04-01T11:37:31Z</time>
      </trkpt>
      <trkpt lat="42.1756150" lon="-6.6456990">
        <ele>1174.2</ele>
        <time>2021-04-01T11:37:38Z</time>
      </trkpt>
      <trkpt lat="42.1756110" lon="-6.6457170">
        <ele>1174.2</ele>
        <time>2021-04-01T11:37:39Z</time>
      </trkpt>
      <trkpt lat="42.1756070" lon="-6.6457360">
        <ele>1174.4</ele>
        <time>2021-04-01T11:37:40Z</time>
      </trkpt>
      <trkpt lat="42.1755900" lon="-6.6458010">
        <ele>1173.6</ele>
        <time>2021-04-01T11:37:45Z</time>
      </trkpt>
      <trkpt lat="42.1755810" lon="-6.6458480">
        <ele>1173.2</ele>
        <time>2021-04-01T11:37:48Z</time>
      </trkpt>
      <trkpt lat="42.1755660" lon="-6.6459020">
        <ele>1173.0</ele>
        <time>2021-04-01T11:37:51Z</time>
      </trkpt>
      <trkpt lat="42.1755630" lon="-6.6459180">
        <ele>1172.8</ele>
        <time>2021-04-01T11:37:52Z</time>
      </trkpt>
      <trkpt lat="42.1755420" lon="-6.6460540">
        <ele>1172.6</ele>
        <time>2021-04-01T11:37:59Z</time>
      </trkpt>
      <trkpt lat="42.1755110" lon="-6.6461670">
        <ele>1172.6</ele>
        <time>2021-04-01T11:38:06Z</time>
      </trkpt>
      <trkpt lat="42.1755070" lon="-6.6461770">
        <ele>1172.4</ele>
        <time>2021-04-01T11:38:07Z</time>
      </trkpt>
      <trkpt lat="42.1754930" lon="-6.6462040">
        <ele>1171.6</ele>
        <time>2021-04-01T11:38:09Z</time>
      </trkpt>
      <trkpt lat="42.1754430" lon="-6.6462700">
        <ele>1171.0</ele>
        <time>2021-04-01T11:38:15Z</time>
      </trkpt>
      <trkpt lat="42.1753840" lon="-6.6463560">
        <ele>1170.8</ele>
        <time>2021-04-01T11:38:22Z</time>
      </trkpt>
      <trkpt lat="42.1753760" lon="-6.6463700">
        <ele>1170.8</ele>
        <time>2021-04-01T11:38:23Z</time>
      </trkpt>
      <trkpt lat="42.1753700" lon="-6.6463820">
        <ele>1170.6</ele>
        <time>2021-04-01T11:38:24Z</time>
      </trkpt>
      <trkpt lat="42.1753410" lon="-6.6464340">
        <ele>1170.0</ele>
        <time>2021-04-01T11:38:28Z</time>
      </trkpt>
      <trkpt lat="42.1753190" lon="-6.6464720">
        <ele>1169.6</ele>
        <time>2021-04-01T11:38:31Z</time>
      </trkpt>
      <trkpt lat="42.1753060" lon="-6.6464980">
        <ele>1169.6</ele>
        <time>2021-04-01T11:38:33Z</time>
      </trkpt>
      <trkpt lat="42.1752750" lon="-6.6465710">
        <ele>1169.4</ele>
        <time>2021-04-01T11:38:38Z</time>
      </trkpt>
      <trkpt lat="42.1752350" lon="-6.6466660">
        <ele>1169.0</ele>
        <time>2021-04-01T11:38:45Z</time>
      </trkpt>
      <trkpt lat="42.1752300" lon="-6.6466750">
        <ele>1169.2</ele>
        <time>2021-04-01T11:38:46Z</time>
      </trkpt>
      <trkpt lat="42.1752020" lon="-6.6467320">
        <ele>1169.6</ele>
        <time>2021-04-01T11:38:50Z</time>
      </trkpt>
      <trkpt lat="42.1751860" lon="-6.6467610">
        <ele>1169.8</ele>
        <time>2021-04-01T11:38:52Z</time>
      </trkpt>
      <trkpt lat="42.1751100" lon="-6.6468660">
        <ele>1169.0</ele>
        <time>2021-04-01T11:39:01Z</time>
      </trkpt>
      <trkpt lat="42.1750940" lon="-6.6468830">
        <ele>1169.0</ele>
        <time>2021-04-01T11:39:03Z</time>
      </trkpt>
      <trkpt lat="42.1750760" lon="-6.6469040">
        <ele>1169.0</ele>
        <time>2021-04-01T11:39:05Z</time>
      </trkpt>
      <trkpt lat="42.1750520" lon="-6.6469510">
        <ele>1169.0</ele>
        <time>2021-04-01T11:39:08Z</time>
      </trkpt>
      <trkpt lat="42.1750310" lon="-6.6469910">
        <ele>1169.0</ele>
        <time>2021-04-01T11:39:11Z</time>
      </trkpt>
      <trkpt lat="42.1750010" lon="-6.6470370">
        <ele>1168.8</ele>
        <time>2021-04-01T11:39:15Z</time>
      </trkpt>
      <trkpt lat="42.1749460" lon="-6.6471440">
        <ele>1169.0</ele>
        <time>2021-04-01T11:39:22Z</time>
      </trkpt>
      <trkpt lat="42.1749190" lon="-6.6471900">
        <ele>1168.6</ele>
        <time>2021-04-01T11:39:26Z</time>
      </trkpt>
      <trkpt lat="42.1749120" lon="-6.6472010">
        <ele>1168.4</ele>
        <time>2021-04-01T11:39:27Z</time>
      </trkpt>
      <trkpt lat="42.1749060" lon="-6.6472140">
        <ele>1168.4</ele>
        <time>2021-04-01T11:39:28Z</time>
      </trkpt>
      <trkpt lat="42.1749010" lon="-6.6472260">
        <ele>1168.4</ele>
        <time>2021-04-01T11:39:29Z</time>
      </trkpt>
      <trkpt lat="42.1748680" lon="-6.6472880">
        <ele>1168.2</ele>
        <time>2021-04-01T11:39:34Z</time>
      </trkpt>
      <trkpt lat="42.1748610" lon="-6.6473000">
        <ele>1168.2</ele>
        <time>2021-04-01T11:39:35Z</time>
      </trkpt>
      <trkpt lat="42.1748350" lon="-6.6473330">
        <ele>1168.2</ele>
        <time>2021-04-01T11:39:38Z</time>
      </trkpt>
      <trkpt lat="42.1747890" lon="-6.6473790">
        <ele>1168.6</ele>
        <time>2021-04-01T11:39:42Z</time>
      </trkpt>
      <trkpt lat="42.1747670" lon="-6.6474010">
        <ele>1168.6</ele>
        <time>2021-04-01T11:39:44Z</time>
      </trkpt>
      <trkpt lat="42.1747030" lon="-6.6474790">
        <ele>1167.6</ele>
        <time>2021-04-01T11:39:50Z</time>
      </trkpt>
      <trkpt lat="42.1746820" lon="-6.6475060">
        <ele>1167.4</ele>
        <time>2021-04-01T11:39:52Z</time>
      </trkpt>
      <trkpt lat="42.1746750" lon="-6.6475180">
        <ele>1167.4</ele>
        <time>2021-04-01T11:39:53Z</time>
      </trkpt>
      <trkpt lat="42.1746530" lon="-6.6475660">
        <ele>1167.4</ele>
        <time>2021-04-01T11:39:56Z</time>
      </trkpt>
      <trkpt lat="42.1746420" lon="-6.6475800">
        <ele>1167.2</ele>
        <time>2021-04-01T11:39:57Z</time>
      </trkpt>
      <trkpt lat="42.1746170" lon="-6.6476290">
        <ele>1167.6</ele>
        <time>2021-04-01T11:40:00Z</time>
      </trkpt>
      <trkpt lat="42.1746070" lon="-6.6476470">
        <ele>1167.6</ele>
        <time>2021-04-01T11:40:01Z</time>
      </trkpt>
      <trkpt lat="42.1745900" lon="-6.6476820">
        <ele>1167.4</ele>
        <time>2021-04-01T11:40:03Z</time>
      </trkpt>
      <trkpt lat="42.1745630" lon="-6.6477310">
        <ele>1166.8</ele>
        <time>2021-04-01T11:40:06Z</time>
      </trkpt>
      <trkpt lat="42.1745300" lon="-6.6477730">
        <ele>1166.6</ele>
        <time>2021-04-01T11:40:09Z</time>
      </trkpt>
      <trkpt lat="42.1745190" lon="-6.6477880">
        <ele>1166.4</ele>
        <time>2021-04-01T11:40:10Z</time>
      </trkpt>
      <trkpt lat="42.1744640" lon="-6.6478930">
        <ele>1166.0</ele>
        <time>2021-04-01T11:40:17Z</time>
      </trkpt>
      <trkpt lat="42.1744270" lon="-6.6479620">
        <ele>1165.6</ele>
        <time>2021-04-01T11:40:22Z</time>
      </trkpt>
      <trkpt lat="42.1744220" lon="-6.6479760">
        <ele>1165.4</ele>
        <time>2021-04-01T11:40:23Z</time>
      </trkpt>
      <trkpt lat="42.1744160" lon="-6.6480050">
        <ele>1165.0</ele>
        <time>2021-04-01T11:40:25Z</time>
      </trkpt>
      <trkpt lat="42.1744050" lon="-6.6480460">
        <ele>1165.0</ele>
        <time>2021-04-01T11:40:28Z</time>
      </trkpt>
      <trkpt lat="42.1743970" lon="-6.6481030">
        <ele>1165.0</ele>
        <time>2021-04-01T11:40:31Z</time>
      </trkpt>
      <trkpt lat="42.1743530" lon="-6.6482100">
        <ele>1165.8</ele>
        <time>2021-04-01T11:40:37Z</time>
      </trkpt>
      <trkpt lat="42.1742910" lon="-6.6483180">
        <ele>1165.8</ele>
        <time>2021-04-01T11:40:45Z</time>
      </trkpt>
      <trkpt lat="42.1742480" lon="-6.6483920">
        <ele>1165.4</ele>
        <time>2021-04-01T11:40:50Z</time>
      </trkpt>
      <trkpt lat="42.1742360" lon="-6.6484230">
        <ele>1165.6</ele>
        <time>2021-04-01T11:40:52Z</time>
      </trkpt>
      <trkpt lat="42.1742290" lon="-6.6484430">
        <ele>1165.6</ele>
        <time>2021-04-01T11:40:53Z</time>
      </trkpt>
      <trkpt lat="42.1741840" lon="-6.6485860">
        <ele>1166.0</ele>
        <time>2021-04-01T11:41:00Z</time>
      </trkpt>
      <trkpt lat="42.1741710" lon="-6.6486400">
        <ele>1165.6</ele>
        <time>2021-04-01T11:41:03Z</time>
      </trkpt>
      <trkpt lat="42.1741190" lon="-6.6487070">
        <ele>1165.0</ele>
        <time>2021-04-01T11:41:08Z</time>
      </trkpt>
      <trkpt lat="42.1741060" lon="-6.6487370">
        <ele>1164.2</ele>
        <time>2021-04-01T11:41:10Z</time>
      </trkpt>
      <trkpt lat="42.1740730" lon="-6.6487890">
        <ele>1163.8</ele>
        <time>2021-04-01T11:41:14Z</time>
      </trkpt>
      <trkpt lat="42.1740530" lon="-6.6488600">
        <ele>1163.2</ele>
        <time>2021-04-01T11:41:19Z</time>
      </trkpt>
      <trkpt lat="42.1740450" lon="-6.6489090">
        <ele>1163.0</ele>
        <time>2021-04-01T11:41:23Z</time>
      </trkpt>
      <trkpt lat="42.1740410" lon="-6.6489230">
        <ele>1163.0</ele>
        <time>2021-04-01T11:41:24Z</time>
      </trkpt>
      <trkpt lat="42.1740210" lon="-6.6489840">
        <ele>1162.8</ele>
        <time>2021-04-01T11:41:28Z</time>
      </trkpt>
      <trkpt lat="42.1740080" lon="-6.6490040">
        <ele>1162.8</ele>
        <time>2021-04-01T11:41:30Z</time>
      </trkpt>
      <trkpt lat="42.1739560" lon="-6.6490810">
        <ele>1162.6</ele>
        <time>2021-04-01T11:41:36Z</time>
      </trkpt>
      <trkpt lat="42.1739360" lon="-6.6491090">
        <ele>1162.4</ele>
        <time>2021-04-01T11:41:38Z</time>
      </trkpt>
      <trkpt lat="42.1739180" lon="-6.6491310">
        <ele>1162.4</ele>
        <time>2021-04-01T11:41:40Z</time>
      </trkpt>
      <trkpt lat="42.1738850" lon="-6.6491600">
        <ele>1162.2</ele>
        <time>2021-04-01T11:41:43Z</time>
      </trkpt>
      <trkpt lat="42.1738750" lon="-6.6491710">
        <ele>1162.2</ele>
        <time>2021-04-01T11:41:44Z</time>
      </trkpt>
      <trkpt lat="42.1738430" lon="-6.6492180">
        <ele>1162.4</ele>
        <time>2021-04-01T11:41:48Z</time>
      </trkpt>
      <trkpt lat="42.1738260" lon="-6.6492830">
        <ele>1162.2</ele>
        <time>2021-04-01T11:41:52Z</time>
      </trkpt>
      <trkpt lat="42.1738090" lon="-6.6493070">
        <ele>1162.2</ele>
        <time>2021-04-01T11:41:54Z</time>
      </trkpt>
      <trkpt lat="42.1738020" lon="-6.6493220">
        <ele>1162.4</ele>
        <time>2021-04-01T11:41:55Z</time>
      </trkpt>
      <trkpt lat="42.1737750" lon="-6.6493710">
        <ele>1163.0</ele>
        <time>2021-04-01T11:42:00Z</time>
      </trkpt>
      <trkpt lat="42.1737290" lon="-6.6494350">
        <ele>1162.2</ele>
        <time>2021-04-01T11:42:06Z</time>
      </trkpt>
      <trkpt lat="42.1737200" lon="-6.6494650">
        <ele>1161.6</ele>
        <time>2021-04-01T11:42:08Z</time>
      </trkpt>
      <trkpt lat="42.1736990" lon="-6.6495040">
        <ele>1161.0</ele>
        <time>2021-04-01T11:42:11Z</time>
      </trkpt>
      <trkpt lat="42.1736900" lon="-6.6495190">
        <ele>1161.0</ele>
        <time>2021-04-01T11:42:12Z</time>
      </trkpt>
      <trkpt lat="42.1736280" lon="-6.6496290">
        <ele>1161.2</ele>
        <time>2021-04-01T11:42:19Z</time>
      </trkpt>
      <trkpt lat="42.1735990" lon="-6.6497220">
        <ele>1161.6</ele>
        <time>2021-04-01T11:42:24Z</time>
      </trkpt>
      <trkpt lat="42.1735890" lon="-6.6497530">
        <ele>1161.6</ele>
        <time>2021-04-01T11:42:26Z</time>
      </trkpt>
      <trkpt lat="42.1735560" lon="-6.6498750">
        <ele>1161.0</ele>
        <time>2021-04-01T11:42:34Z</time>
      </trkpt>
      <trkpt lat="42.1735460" lon="-6.6499200">
        <ele>1161.0</ele>
        <time>2021-04-01T11:42:37Z</time>
      </trkpt>
      <trkpt lat="42.1735310" lon="-6.6500030">
        <ele>1160.6</ele>
        <time>2021-04-01T11:42:42Z</time>
      </trkpt>
      <trkpt lat="42.1735250" lon="-6.6500600">
        <ele>1160.0</ele>
        <time>2021-04-01T11:42:45Z</time>
      </trkpt>
      <trkpt lat="42.1735290" lon="-6.6501470">
        <ele>1159.8</ele>
        <time>2021-04-01T11:42:50Z</time>
      </trkpt>
      <trkpt lat="42.1735290" lon="-6.6501780">
        <ele>1159.6</ele>
        <time>2021-04-01T11:42:52Z</time>
      </trkpt>
      <trkpt lat="42.1735280" lon="-6.6501920">
        <ele>1159.6</ele>
        <time>2021-04-01T11:42:53Z</time>
      </trkpt>
      <trkpt lat="42.1735220" lon="-6.6502360">
        <ele>1159.0</ele>
        <time>2021-04-01T11:42:56Z</time>
      </trkpt>
      <trkpt lat="42.1735160" lon="-6.6502640">
        <ele>1159.0</ele>
        <time>2021-04-01T11:42:58Z</time>
      </trkpt>
      <trkpt lat="42.1734770" lon="-6.6503480">
        <ele>1159.0</ele>
        <time>2021-04-01T11:43:04Z</time>
      </trkpt>
      <trkpt lat="42.1734520" lon="-6.6504130">
        <ele>1157.8</ele>
        <time>2021-04-01T11:43:10Z</time>
      </trkpt>
      <trkpt lat="42.1734420" lon="-6.6504340">
        <ele>1157.4</ele>
        <time>2021-04-01T11:43:12Z</time>
      </trkpt>
      <trkpt lat="42.1734340" lon="-6.6504470">
        <ele>1157.2</ele>
        <time>2021-04-01T11:43:13Z</time>
      </trkpt>
      <trkpt lat="42.1733850" lon="-6.6505260">
        <ele>1158.8</ele>
        <time>2021-04-01T11:43:20Z</time>
      </trkpt>
      <trkpt lat="42.1733790" lon="-6.6505310">
        <ele>1158.8</ele>
        <time>2021-04-01T11:43:21Z</time>
      </trkpt>
      <trkpt lat="42.1733790" lon="-6.6505340">
        <ele>1158.8</ele>
        <time>2021-04-01T11:43:23Z</time>
      </trkpt>
      <trkpt lat="42.1733690" lon="-6.6505460">
        <ele>1158.6</ele>
        <time>2021-04-01T11:43:25Z</time>
      </trkpt>
      <trkpt lat="42.1733450" lon="-6.6505700">
        <ele>1158.6</ele>
        <time>2021-04-01T11:43:27Z</time>
      </trkpt>
      <trkpt lat="42.1732950" lon="-6.6506190">
        <ele>1158.6</ele>
        <time>2021-04-01T11:43:32Z</time>
      </trkpt>
      <trkpt lat="42.1732860" lon="-6.6506300">
        <ele>1158.4</ele>
        <time>2021-04-01T11:43:33Z</time>
      </trkpt>
      <trkpt lat="42.1732790" lon="-6.6506400">
        <ele>1158.4</ele>
        <time>2021-04-01T11:43:34Z</time>
      </trkpt>
      <trkpt lat="42.1732240" lon="-6.6507210">
        <ele>1158.0</ele>
        <time>2021-04-01T11:43:41Z</time>
      </trkpt>
      <trkpt lat="42.1731850" lon="-6.6507960">
        <ele>1158.6</ele>
        <time>2021-04-01T11:43:48Z</time>
      </trkpt>
      <trkpt lat="42.1731820" lon="-6.6508050">
        <ele>1158.6</ele>
        <time>2021-04-01T11:43:49Z</time>
      </trkpt>
      <trkpt lat="42.1731800" lon="-6.6508120">
        <ele>1158.6</ele>
        <time>2021-04-01T11:43:50Z</time>
      </trkpt>
      <trkpt lat="42.1731720" lon="-6.6508430">
        <ele>1158.8</ele>
        <time>2021-04-01T11:43:54Z</time>
      </trkpt>
      <trkpt lat="42.1731570" lon="-6.6508910">
        <ele>1158.8</ele>
        <time>2021-04-01T11:43:58Z</time>
      </trkpt>
      <trkpt lat="42.1730970" lon="-6.6509900">
        <ele>1158.6</ele>
        <time>2021-04-01T11:44:05Z</time>
      </trkpt>
      <trkpt lat="42.1730410" lon="-6.6511040">
        <ele>1158.2</ele>
        <time>2021-04-01T11:44:12Z</time>
      </trkpt>
      <trkpt lat="42.1730220" lon="-6.6511670">
        <ele>1158.2</ele>
        <time>2021-04-01T11:44:16Z</time>
      </trkpt>
      <trkpt lat="42.1730150" lon="-6.6511870">
        <ele>1158.0</ele>
        <time>2021-04-01T11:44:17Z</time>
      </trkpt>
      <trkpt lat="42.1729990" lon="-6.6512340">
        <ele>1158.0</ele>
        <time>2021-04-01T11:44:20Z</time>
      </trkpt>
      <trkpt lat="42.1729800" lon="-6.6512750">
        <ele>1158.0</ele>
        <time>2021-04-01T11:44:23Z</time>
      </trkpt>
      <trkpt lat="42.1729530" lon="-6.6513570">
        <ele>1158.2</ele>
        <time>2021-04-01T11:44:29Z</time>
      </trkpt>
      <trkpt lat="42.1729470" lon="-6.6513750">
        <ele>1158.0</ele>
        <time>2021-04-01T11:44:30Z</time>
      </trkpt>
      <trkpt lat="42.1729280" lon="-6.6514520">
        <ele>1158.0</ele>
        <time>2021-04-01T11:44:34Z</time>
      </trkpt>
      <trkpt lat="42.1729150" lon="-6.6514950">
        <ele>1158.0</ele>
        <time>2021-04-01T11:44:36Z</time>
      </trkpt>
      <trkpt lat="42.1729000" lon="-6.6515870">
        <ele>1158.4</ele>
        <time>2021-04-01T11:44:41Z</time>
      </trkpt>
      <trkpt lat="42.1728860" lon="-6.6516370">
        <ele>1158.2</ele>
        <time>2021-04-01T11:44:44Z</time>
      </trkpt>
      <trkpt lat="42.1728750" lon="-6.6516690">
        <ele>1158.4</ele>
        <time>2021-04-01T11:44:46Z</time>
      </trkpt>
      <trkpt lat="42.1728630" lon="-6.6517190">
        <ele>1158.6</ele>
        <time>2021-04-01T11:44:49Z</time>
      </trkpt>
      <trkpt lat="42.1728580" lon="-6.6517570">
        <ele>1158.8</ele>
        <time>2021-04-01T11:44:52Z</time>
      </trkpt>
      <trkpt lat="42.1728550" lon="-6.6517710">
        <ele>1158.8</ele>
        <time>2021-04-01T11:44:53Z</time>
      </trkpt>
      <trkpt lat="42.1728490" lon="-6.6518030">
        <ele>1158.6</ele>
        <time>2021-04-01T11:44:55Z</time>
      </trkpt>
      <trkpt lat="42.1728180" lon="-6.6518980">
        <ele>1158.2</ele>
        <time>2021-04-01T11:45:01Z</time>
      </trkpt>
      <trkpt lat="42.1727790" lon="-6.6520220">
        <ele>1158.8</ele>
        <time>2021-04-01T11:45:09Z</time>
      </trkpt>
      <trkpt lat="42.1727540" lon="-6.6521230">
        <ele>1158.6</ele>
        <time>2021-04-01T11:45:16Z</time>
      </trkpt>
      <trkpt lat="42.1727500" lon="-6.6521380">
        <ele>1158.6</ele>
        <time>2021-04-01T11:45:17Z</time>
      </trkpt>
      <trkpt lat="42.1727210" lon="-6.6522430">
        <ele>1158.6</ele>
        <time>2021-04-01T11:45:23Z</time>
      </trkpt>
      <trkpt lat="42.1726900" lon="-6.6523440">
        <ele>1158.6</ele>
        <time>2021-04-01T11:45:30Z</time>
      </trkpt>
      <trkpt lat="42.1726780" lon="-6.6523620">
        <ele>1158.6</ele>
        <time>2021-04-01T11:45:31Z</time>
      </trkpt>
      <trkpt lat="42.1726570" lon="-6.6524080">
        <ele>1158.4</ele>
        <time>2021-04-01T11:45:34Z</time>
      </trkpt>
      <trkpt lat="42.1726530" lon="-6.6524240">
        <ele>1158.4</ele>
        <time>2021-04-01T11:45:35Z</time>
      </trkpt>
      <trkpt lat="42.1726470" lon="-6.6524400">
        <ele>1158.4</ele>
        <time>2021-04-01T11:45:36Z</time>
      </trkpt>
      <trkpt lat="42.1726260" lon="-6.6525010">
        <ele>1158.4</ele>
        <time>2021-04-01T11:45:40Z</time>
      </trkpt>
      <trkpt lat="42.1726130" lon="-6.6525340">
        <ele>1158.4</ele>
        <time>2021-04-01T11:45:42Z</time>
      </trkpt>
      <trkpt lat="42.1725850" lon="-6.6526400">
        <ele>1159.0</ele>
        <time>2021-04-01T11:45:48Z</time>
      </trkpt>
      <trkpt lat="42.1725580" lon="-6.6527280">
        <ele>1159.4</ele>
        <time>2021-04-01T11:45:53Z</time>
      </trkpt>
      <trkpt lat="42.1725530" lon="-6.6527600">
        <ele>1159.4</ele>
        <time>2021-04-01T11:45:55Z</time>
      </trkpt>
      <trkpt lat="42.1725470" lon="-6.6527790">
        <ele>1159.4</ele>
        <time>2021-04-01T11:45:56Z</time>
      </trkpt>
      <trkpt lat="42.1725280" lon="-6.6529040">
        <ele>1158.8</ele>
        <time>2021-04-01T11:46:04Z</time>
      </trkpt>
      <trkpt lat="42.1724970" lon="-6.6530610">
        <ele>1159.0</ele>
        <time>2021-04-01T11:46:13Z</time>
      </trkpt>
      <trkpt lat="42.1724660" lon="-6.6532040">
        <ele>1158.8</ele>
        <time>2021-04-01T11:46:22Z</time>
      </trkpt>
      <trkpt lat="42.1724350" lon="-6.6533190">
        <ele>1158.8</ele>
        <time>2021-04-01T11:46:30Z</time>
      </trkpt>
      <trkpt lat="42.1724060" lon="-6.6534060">
        <ele>1158.8</ele>
        <time>2021-04-01T11:46:36Z</time>
      </trkpt>
      <trkpt lat="42.1723990" lon="-6.6534210">
        <ele>1158.8</ele>
        <time>2021-04-01T11:46:37Z</time>
      </trkpt>
      <trkpt lat="42.1723740" lon="-6.6534930">
        <ele>1158.8</ele>
        <time>2021-04-01T11:46:43Z</time>
      </trkpt>
      <trkpt lat="42.1723460" lon="-6.6535730">
        <ele>1158.6</ele>
        <time>2021-04-01T11:46:49Z</time>
      </trkpt>
      <trkpt lat="42.1723210" lon="-6.6536550">
        <ele>1159.0</ele>
        <time>2021-04-01T11:46:55Z</time>
      </trkpt>
      <trkpt lat="42.1723090" lon="-6.6536770">
        <ele>1159.0</ele>
        <time>2021-04-01T11:46:57Z</time>
      </trkpt>
      <trkpt lat="42.1722550" lon="-6.6537830">
        <ele>1159.4</ele>
        <time>2021-04-01T11:47:04Z</time>
      </trkpt>
      <trkpt lat="42.1722390" lon="-6.6538280">
        <ele>1159.4</ele>
        <time>2021-04-01T11:47:07Z</time>
      </trkpt>
      <trkpt lat="42.1722230" lon="-6.6538590">
        <ele>1159.4</ele>
        <time>2021-04-01T11:47:09Z</time>
      </trkpt>
      <trkpt lat="42.1722040" lon="-6.6539240">
        <ele>1159.6</ele>
        <time>2021-04-01T11:47:13Z</time>
      </trkpt>
      <trkpt lat="42.1721870" lon="-6.6539570">
        <ele>1159.8</ele>
        <time>2021-04-01T11:47:15Z</time>
      </trkpt>
      <trkpt lat="42.1721830" lon="-6.6539750">
        <ele>1159.8</ele>
        <time>2021-04-01T11:47:16Z</time>
      </trkpt>
      <trkpt lat="42.1721620" lon="-6.6540260">
        <ele>1160.0</ele>
        <time>2021-04-01T11:47:19Z</time>
      </trkpt>
      <trkpt lat="42.1721570" lon="-6.6540390">
        <ele>1160.0</ele>
        <time>2021-04-01T11:47:20Z</time>
      </trkpt>
      <trkpt lat="42.1721470" lon="-6.6540640">
        <ele>1159.8</ele>
        <time>2021-04-01T11:47:22Z</time>
      </trkpt>
      <trkpt lat="42.1720970" lon="-6.6541800">
        <ele>1159.2</ele>
        <time>2021-04-01T11:47:29Z</time>
      </trkpt>
      <trkpt lat="42.1720870" lon="-6.6542120">
        <ele>1158.8</ele>
        <time>2021-04-01T11:47:31Z</time>
      </trkpt>
      <trkpt lat="42.1720800" lon="-6.6542270">
        <ele>1158.8</ele>
        <time>2021-04-01T11:47:32Z</time>
      </trkpt>
      <trkpt lat="42.1720560" lon="-6.6543040">
        <ele>1158.8</ele>
        <time>2021-04-01T11:47:37Z</time>
      </trkpt>
      <trkpt lat="42.1720390" lon="-6.6543690">
        <ele>1159.0</ele>
        <time>2021-04-01T11:47:42Z</time>
      </trkpt>
      <trkpt lat="42.1720370" lon="-6.6543760">
        <ele>1159.0</ele>
        <time>2021-04-01T11:47:43Z</time>
      </trkpt>
      <trkpt lat="42.1720290" lon="-6.6543840">
        <ele>1159.0</ele>
        <time>2021-04-01T11:47:44Z</time>
      </trkpt>
      <trkpt lat="42.1720240" lon="-6.6543950">
        <ele>1159.0</ele>
        <time>2021-04-01T11:47:45Z</time>
      </trkpt>
      <trkpt lat="42.1720260" lon="-6.6544230">
        <ele>1159.0</ele>
        <time>2021-04-01T11:47:47Z</time>
      </trkpt>
      <trkpt lat="42.1720330" lon="-6.6544570">
        <ele>1159.0</ele>
        <time>2021-04-01T11:47:49Z</time>
      </trkpt>
      <trkpt lat="42.1720320" lon="-6.6544880">
        <ele>1159.0</ele>
        <time>2021-04-01T11:47:51Z</time>
      </trkpt>
      <trkpt lat="42.1720340" lon="-6.6545340">
        <ele>1158.8</ele>
        <time>2021-04-01T11:47:54Z</time>
      </trkpt>
      <trkpt lat="42.1720270" lon="-6.6545680">
        <ele>1158.8</ele>
        <time>2021-04-01T11:47:56Z</time>
      </trkpt>
      <trkpt lat="42.1720330" lon="-6.6546190">
        <ele>1159.2</ele>
        <time>2021-04-01T11:47:58Z</time>
      </trkpt>
      <trkpt lat="42.1720250" lon="-6.6546770">
        <ele>1159.4</ele>
        <time>2021-04-01T11:48:01Z</time>
      </trkpt>
      <trkpt lat="42.1720270" lon="-6.6547610">
        <ele>1159.2</ele>
        <time>2021-04-01T11:48:05Z</time>
      </trkpt>
      <trkpt lat="42.1720290" lon="-6.6547810">
        <ele>1159.4</ele>
        <time>2021-04-01T11:48:06Z</time>
      </trkpt>
      <trkpt lat="42.1720320" lon="-6.6548400">
        <ele>1159.4</ele>
        <time>2021-04-01T11:48:10Z</time>
      </trkpt>
      <trkpt lat="42.1720220" lon="-6.6548640">
        <ele>1159.2</ele>
        <time>2021-04-01T11:48:12Z</time>
      </trkpt>
      <trkpt lat="42.1720210" lon="-6.6548790">
        <ele>1159.2</ele>
        <time>2021-04-01T11:48:13Z</time>
      </trkpt>
      <trkpt lat="42.1720170" lon="-6.6549740">
        <ele>1159.2</ele>
        <time>2021-04-01T11:48:19Z</time>
      </trkpt>
      <trkpt lat="42.1719870" lon="-6.6551190">
        <ele>1159.4</ele>
        <time>2021-04-01T11:48:29Z</time>
      </trkpt>
      <trkpt lat="42.1719850" lon="-6.6551410">
        <ele>1159.6</ele>
        <time>2021-04-01T11:48:31Z</time>
      </trkpt>
      <trkpt lat="42.1719890" lon="-6.6551670">
        <ele>1159.6</ele>
        <time>2021-04-01T11:48:34Z</time>
      </trkpt>
      <trkpt lat="42.1719970" lon="-6.6552000">
        <ele>1159.6</ele>
        <time>2021-04-01T11:48:37Z</time>
      </trkpt>
      <trkpt lat="42.1719940" lon="-6.6552980">
        <ele>1159.8</ele>
        <time>2021-04-01T11:48:43Z</time>
      </trkpt>
      <trkpt lat="42.1719900" lon="-6.6553130">
        <ele>1160.0</ele>
        <time>2021-04-01T11:48:44Z</time>
      </trkpt>
      <trkpt lat="42.1719850" lon="-6.6553300">
        <ele>1160.0</ele>
        <time>2021-04-01T11:48:45Z</time>
      </trkpt>
      <trkpt lat="42.1719790" lon="-6.6554190">
        <ele>1160.2</ele>
        <time>2021-04-01T11:48:50Z</time>
      </trkpt>
      <trkpt lat="42.1719760" lon="-6.6554650">
        <ele>1160.4</ele>
        <time>2021-04-01T11:48:53Z</time>
      </trkpt>
      <trkpt lat="42.1719910" lon="-6.6555170">
        <ele>1160.6</ele>
        <time>2021-04-01T11:48:56Z</time>
      </trkpt>
      <trkpt lat="42.1720250" lon="-6.6556000">
        <ele>1161.0</ele>
        <time>2021-04-01T11:49:01Z</time>
      </trkpt>
      <trkpt lat="42.1720340" lon="-6.6556220">
        <ele>1161.0</ele>
        <time>2021-04-01T11:49:02Z</time>
      </trkpt>
      <trkpt lat="42.1720490" lon="-6.6557380">
        <ele>1161.2</ele>
        <time>2021-04-01T11:49:08Z</time>
      </trkpt>
      <trkpt lat="42.1720530" lon="-6.6557730">
        <ele>1161.4</ele>
        <time>2021-04-01T11:49:10Z</time>
      </trkpt>
      <trkpt lat="42.1720540" lon="-6.6557870">
        <ele>1161.4</ele>
        <time>2021-04-01T11:49:11Z</time>
      </trkpt>
      <trkpt lat="42.1720520" lon="-6.6557890">
        <ele>1161.2</ele>
        <time>2021-04-01T11:49:13Z</time>
      </trkpt>
      <trkpt lat="42.1720440" lon="-6.6558050">
        <ele>1161.4</ele>
        <time>2021-04-01T11:49:15Z</time>
      </trkpt>
      <trkpt lat="42.1720300" lon="-6.6558770">
        <ele>1161.8</ele>
        <time>2021-04-01T11:49:23Z</time>
      </trkpt>
      <trkpt lat="42.1720290" lon="-6.6559310">
        <ele>1161.8</ele>
        <time>2021-04-01T11:49:27Z</time>
      </trkpt>
      <trkpt lat="42.1720430" lon="-6.6559630">
        <ele>1161.6</ele>
        <time>2021-04-01T11:49:30Z</time>
      </trkpt>
      <trkpt lat="42.1720490" lon="-6.6559740">
        <ele>1161.6</ele>
        <time>2021-04-01T11:49:31Z</time>
      </trkpt>
      <trkpt lat="42.1720660" lon="-6.6560030">
        <ele>1161.6</ele>
        <time>2021-04-01T11:49:34Z</time>
      </trkpt>
      <trkpt lat="42.1720840" lon="-6.6560250">
        <ele>1162.0</ele>
        <time>2021-04-01T11:49:37Z</time>
      </trkpt>
      <trkpt lat="42.1720860" lon="-6.6560360">
        <ele>1162.4</ele>
        <time>2021-04-01T11:49:38Z</time>
      </trkpt>
      <trkpt lat="42.1720910" lon="-6.6560810">
        <ele>1163.0</ele>
        <time>2021-04-01T11:49:43Z</time>
      </trkpt>
      <trkpt lat="42.1720890" lon="-6.6561030">
        <ele>1163.4</ele>
        <time>2021-04-01T11:49:45Z</time>
      </trkpt>
      <trkpt lat="42.1720940" lon="-6.6561430">
        <ele>1163.8</ele>
        <time>2021-04-01T11:49:49Z</time>
      </trkpt>
      <trkpt lat="42.1720910" lon="-6.6561850">
        <ele>1164.2</ele>
        <time>2021-04-01T11:49:53Z</time>
      </trkpt>
      <trkpt lat="42.1720810" lon="-6.6562040">
        <ele>1164.2</ele>
        <time>2021-04-01T11:49:55Z</time>
      </trkpt>
      <trkpt lat="42.1720790" lon="-6.6562170">
        <ele>1164.2</ele>
        <time>2021-04-01T11:49:56Z</time>
      </trkpt>
      <trkpt lat="42.1720760" lon="-6.6562310">
        <ele>1164.4</ele>
        <time>2021-04-01T11:49:57Z</time>
      </trkpt>
      <trkpt lat="42.1720710" lon="-6.6562550">
        <ele>1164.4</ele>
        <time>2021-04-01T11:49:58Z</time>
      </trkpt>
      <trkpt lat="42.1720660" lon="-6.6562800">
        <ele>1164.8</ele>
        <time>2021-04-01T11:50:00Z</time>
      </trkpt>
      <trkpt lat="42.1720660" lon="-6.6562950">
        <ele>1165.0</ele>
        <time>2021-04-01T11:50:01Z</time>
      </trkpt>
      <trkpt lat="42.1720720" lon="-6.6563570">
        <ele>1165.0</ele>
        <time>2021-04-01T11:50:04Z</time>
      </trkpt>
      <trkpt lat="42.1720650" lon="-6.6564670">
        <ele>1165.2</ele>
        <time>2021-04-01T11:50:10Z</time>
      </trkpt>
      <trkpt lat="42.1720670" lon="-6.6564810">
        <ele>1165.2</ele>
        <time>2021-04-01T11:50:11Z</time>
      </trkpt>
      <trkpt lat="42.1720700" lon="-6.6565150">
        <ele>1165.4</ele>
        <time>2021-04-01T11:50:13Z</time>
      </trkpt>
      <trkpt lat="42.1720900" lon="-6.6565900">
        <ele>1166.2</ele>
        <time>2021-04-01T11:50:19Z</time>
      </trkpt>
      <trkpt lat="42.1720920" lon="-6.6566030">
        <ele>1166.4</ele>
        <time>2021-04-01T11:50:20Z</time>
      </trkpt>
      <trkpt lat="42.1720960" lon="-6.6566310">
        <ele>1166.8</ele>
        <time>2021-04-01T11:50:22Z</time>
      </trkpt>
      <trkpt lat="42.1721010" lon="-6.6566850">
        <ele>1167.4</ele>
        <time>2021-04-01T11:50:26Z</time>
      </trkpt>
      <trkpt lat="42.1721020" lon="-6.6567000">
        <ele>1167.6</ele>
        <time>2021-04-01T11:50:27Z</time>
      </trkpt>
      <trkpt lat="42.1720980" lon="-6.6567160">
        <ele>1167.6</ele>
        <time>2021-04-01T11:50:28Z</time>
      </trkpt>
      <trkpt lat="42.1720980" lon="-6.6567450">
        <ele>1167.6</ele>
        <time>2021-04-01T11:50:30Z</time>
      </trkpt>
      <trkpt lat="42.1720930" lon="-6.6568170">
        <ele>1168.4</ele>
        <time>2021-04-01T11:50:34Z</time>
      </trkpt>
      <trkpt lat="42.1721090" lon="-6.6568620">
        <ele>1168.6</ele>
        <time>2021-04-01T11:50:37Z</time>
      </trkpt>
      <trkpt lat="42.1721420" lon="-6.6569270">
        <ele>1168.6</ele>
        <time>2021-04-01T11:50:42Z</time>
      </trkpt>
      <trkpt lat="42.1721650" lon="-6.6569850">
        <ele>1169.2</ele>
        <time>2021-04-01T11:50:46Z</time>
      </trkpt>
      <trkpt lat="42.1721900" lon="-6.6570430">
        <ele>1169.4</ele>
        <time>2021-04-01T11:50:49Z</time>
      </trkpt>
      <trkpt lat="42.1722010" lon="-6.6570560">
        <ele>1169.4</ele>
        <time>2021-04-01T11:50:50Z</time>
      </trkpt>
      <trkpt lat="42.1722380" lon="-6.6570940">
        <ele>1169.4</ele>
        <time>2021-04-01T11:50:53Z</time>
      </trkpt>
      <trkpt lat="42.1722610" lon="-6.6571230">
        <ele>1169.4</ele>
        <time>2021-04-01T11:50:55Z</time>
      </trkpt>
      <trkpt lat="42.1723130" lon="-6.6572110">
        <ele>1169.6</ele>
        <time>2021-04-01T11:51:01Z</time>
      </trkpt>
      <trkpt lat="42.1723200" lon="-6.6572490">
        <ele>1169.8</ele>
        <time>2021-04-01T11:51:03Z</time>
      </trkpt>
      <trkpt lat="42.1723650" lon="-6.6573780">
        <ele>1170.2</ele>
        <time>2021-04-01T11:51:11Z</time>
      </trkpt>
      <trkpt lat="42.1723880" lon="-6.6574180">
        <ele>1169.8</ele>
        <time>2021-04-01T11:51:14Z</time>
      </trkpt>
      <trkpt lat="42.1724240" lon="-6.6574460">
        <ele>1169.4</ele>
        <time>2021-04-01T11:51:17Z</time>
      </trkpt>
      <trkpt lat="42.1724650" lon="-6.6575070">
        <ele>1169.4</ele>
        <time>2021-04-01T11:51:22Z</time>
      </trkpt>
      <trkpt lat="42.1724750" lon="-6.6575330">
        <ele>1169.4</ele>
        <time>2021-04-01T11:51:24Z</time>
      </trkpt>
      <trkpt lat="42.1724820" lon="-6.6575450">
        <ele>1169.4</ele>
        <time>2021-04-01T11:51:25Z</time>
      </trkpt>
      <trkpt lat="42.1725120" lon="-6.6576040">
        <ele>1168.8</ele>
        <time>2021-04-01T11:51:30Z</time>
      </trkpt>
      <trkpt lat="42.1725150" lon="-6.6576160">
        <ele>1168.6</ele>
        <time>2021-04-01T11:51:31Z</time>
      </trkpt>
      <trkpt lat="42.1725200" lon="-6.6576330">
        <ele>1168.6</ele>
        <time>2021-04-01T11:51:33Z</time>
      </trkpt>
      <trkpt lat="42.1725430" lon="-6.6576490">
        <ele>1168.8</ele>
        <time>2021-04-01T11:51:35Z</time>
      </trkpt>
      <trkpt lat="42.1725530" lon="-6.6576610">
        <ele>1169.0</ele>
        <time>2021-04-01T11:51:36Z</time>
      </trkpt>
      <trkpt lat="42.1725610" lon="-6.6576690">
        <ele>1169.2</ele>
        <time>2021-04-01T11:51:37Z</time>
      </trkpt>
      <trkpt lat="42.1725770" lon="-6.6576720">
        <ele>1169.4</ele>
        <time>2021-04-01T11:51:39Z</time>
      </trkpt>
      <trkpt lat="42.1725850" lon="-6.6576720">
        <ele>1169.4</ele>
        <time>2021-04-01T11:51:41Z</time>
      </trkpt>
      <trkpt lat="42.1726220" lon="-6.6576960">
        <ele>1169.2</ele>
        <time>2021-04-01T11:51:44Z</time>
      </trkpt>
      <trkpt lat="42.1726460" lon="-6.6577120">
        <ele>1169.2</ele>
        <time>2021-04-01T11:51:46Z</time>
      </trkpt>
      <trkpt lat="42.1726570" lon="-6.6577410">
        <ele>1169.0</ele>
        <time>2021-04-01T11:51:49Z</time>
      </trkpt>
      <trkpt lat="42.1726650" lon="-6.6577510">
        <ele>1169.0</ele>
        <time>2021-04-01T11:51:50Z</time>
      </trkpt>
      <trkpt lat="42.1726740" lon="-6.6577500">
        <ele>1169.0</ele>
        <time>2021-04-01T11:51:51Z</time>
      </trkpt>
      <trkpt lat="42.1726950" lon="-6.6577540">
        <ele>1169.2</ele>
        <time>2021-04-01T11:51:55Z</time>
      </trkpt>
      <trkpt lat="42.1727170" lon="-6.6577600">
        <ele>1169.4</ele>
        <time>2021-04-01T11:51:57Z</time>
      </trkpt>
      <trkpt lat="42.1727630" lon="-6.6577690">
        <ele>1169.4</ele>
        <time>2021-04-01T11:52:01Z</time>
      </trkpt>
      <trkpt lat="42.1727720" lon="-6.6577760">
        <ele>1169.4</ele>
        <time>2021-04-01T11:52:02Z</time>
      </trkpt>
      <trkpt lat="42.1728320" lon="-6.6578080">
        <ele>1169.6</ele>
        <time>2021-04-01T11:52:08Z</time>
      </trkpt>
      <trkpt lat="42.1728510" lon="-6.6578240">
        <ele>1169.8</ele>
        <time>2021-04-01T11:52:10Z</time>
      </trkpt>
      <trkpt lat="42.1728650" lon="-6.6578400">
        <ele>1170.0</ele>
        <time>2021-04-01T11:52:12Z</time>
      </trkpt>
      <trkpt lat="42.1729020" lon="-6.6578750">
        <ele>1170.0</ele>
        <time>2021-04-01T11:52:17Z</time>
      </trkpt>
      <trkpt lat="42.1729240" lon="-6.6578980">
        <ele>1169.8</ele>
        <time>2021-04-01T11:52:20Z</time>
      </trkpt>
      <trkpt lat="42.1729570" lon="-6.6579430">
        <ele>1170.8</ele>
        <time>2021-04-01T11:52:25Z</time>
      </trkpt>
      <trkpt lat="42.1729820" lon="-6.6579680">
        <ele>1171.2</ele>
        <time>2021-04-01T11:52:28Z</time>
      </trkpt>
      <trkpt lat="42.1730080" lon="-6.6580360">
        <ele>1171.6</ele>
        <time>2021-04-01T11:52:34Z</time>
      </trkpt>
      <trkpt lat="42.1730110" lon="-6.6580530">
        <ele>1171.8</ele>
        <time>2021-04-01T11:52:35Z</time>
      </trkpt>
      <trkpt lat="42.1730100" lon="-6.6580680">
        <ele>1171.8</ele>
        <time>2021-04-01T11:52:36Z</time>
      </trkpt>
      <trkpt lat="42.1730030" lon="-6.6580810">
        <ele>1171.8</ele>
        <time>2021-04-01T11:52:37Z</time>
      </trkpt>
      <trkpt lat="42.1729830" lon="-6.6581070">
        <ele>1172.0</ele>
        <time>2021-04-01T11:52:39Z</time>
      </trkpt>
      <trkpt lat="42.1729780" lon="-6.6581270">
        <ele>1172.0</ele>
        <time>2021-04-01T11:52:40Z</time>
      </trkpt>
      <trkpt lat="42.1729640" lon="-6.6581570">
        <ele>1172.2</ele>
        <time>2021-04-01T11:52:42Z</time>
      </trkpt>
      <trkpt lat="42.1729360" lon="-6.6581910">
        <ele>1172.8</ele>
        <time>2021-04-01T11:52:46Z</time>
      </trkpt>
      <trkpt lat="42.1729290" lon="-6.6581970">
        <ele>1172.8</ele>
        <time>2021-04-01T11:52:47Z</time>
      </trkpt>
      <trkpt lat="42.1728320" lon="-6.6582690">
        <ele>1173.0</ele>
        <time>2021-04-01T11:52:56Z</time>
      </trkpt>
      <trkpt lat="42.1728040" lon="-6.6582810">
        <ele>1173.0</ele>
        <time>2021-04-01T11:52:58Z</time>
      </trkpt>
      <trkpt lat="42.1727990" lon="-6.6583000">
        <ele>1173.0</ele>
        <time>2021-04-01T11:53:00Z</time>
      </trkpt>
      <trkpt lat="42.1727890" lon="-6.6583120">
        <ele>1173.0</ele>
        <time>2021-04-01T11:53:02Z</time>
      </trkpt>
      <trkpt lat="42.1727220" lon="-6.6583540">
        <ele>1174.0</ele>
        <time>2021-04-01T11:53:08Z</time>
      </trkpt>
      <trkpt lat="42.1726980" lon="-6.6583710">
        <ele>1174.2</ele>
        <time>2021-04-01T11:53:10Z</time>
      </trkpt>
      <trkpt lat="42.1726730" lon="-6.6584030">
        <ele>1174.4</ele>
        <time>2021-04-01T11:53:13Z</time>
      </trkpt>
      <trkpt lat="42.1726610" lon="-6.6584310">
        <ele>1174.6</ele>
        <time>2021-04-01T11:53:15Z</time>
      </trkpt>
      <trkpt lat="42.1726460" lon="-6.6584650">
        <ele>1175.0</ele>
        <time>2021-04-01T11:53:17Z</time>
      </trkpt>
      <trkpt lat="42.1726440" lon="-6.6584820">
        <ele>1175.0</ele>
        <time>2021-04-01T11:53:18Z</time>
      </trkpt>
      <trkpt lat="42.1726590" lon="-6.6585720">
        <ele>1175.4</ele>
        <time>2021-04-01T11:53:24Z</time>
      </trkpt>
      <trkpt lat="42.1727030" lon="-6.6586440">
        <ele>1175.4</ele>
        <time>2021-04-01T11:53:29Z</time>
      </trkpt>
      <trkpt lat="42.1727220" lon="-6.6586760">
        <ele>1175.4</ele>
        <time>2021-04-01T11:53:31Z</time>
      </trkpt>
      <trkpt lat="42.1727310" lon="-6.6586900">
        <ele>1175.4</ele>
        <time>2021-04-01T11:53:32Z</time>
      </trkpt>
      <trkpt lat="42.1727790" lon="-6.6587420">
        <ele>1175.6</ele>
        <time>2021-04-01T11:53:37Z</time>
      </trkpt>
      <trkpt lat="42.1727950" lon="-6.6587640">
        <ele>1175.8</ele>
        <time>2021-04-01T11:53:39Z</time>
      </trkpt>
      <trkpt lat="42.1728040" lon="-6.6587760">
        <ele>1176.0</ele>
        <time>2021-04-01T11:53:40Z</time>
      </trkpt>
      <trkpt lat="42.1728340" lon="-6.6588460">
        <ele>1176.6</ele>
        <time>2021-04-01T11:53:45Z</time>
      </trkpt>
      <trkpt lat="42.1728330" lon="-6.6588830">
        <ele>1176.8</ele>
        <time>2021-04-01T11:53:47Z</time>
      </trkpt>
      <trkpt lat="42.1728360" lon="-6.6588920">
        <ele>1176.8</ele>
        <time>2021-04-01T11:53:48Z</time>
      </trkpt>
      <trkpt lat="42.1728440" lon="-6.6589250">
        <ele>1177.0</ele>
        <time>2021-04-01T11:53:52Z</time>
      </trkpt>
      <trkpt lat="42.1728450" lon="-6.6589400">
        <ele>1177.0</ele>
        <time>2021-04-01T11:53:53Z</time>
      </trkpt>
      <trkpt lat="42.1728480" lon="-6.6589750">
        <ele>1177.0</ele>
        <time>2021-04-01T11:53:55Z</time>
      </trkpt>
      <trkpt lat="42.1728530" lon="-6.6590710">
        <ele>1178.2</ele>
        <time>2021-04-01T11:54:01Z</time>
      </trkpt>
      <trkpt lat="42.1728560" lon="-6.6591160">
        <ele>1178.4</ele>
        <time>2021-04-01T11:54:04Z</time>
      </trkpt>
      <trkpt lat="42.1728710" lon="-6.6591710">
        <ele>1178.4</ele>
        <time>2021-04-01T11:54:07Z</time>
      </trkpt>
      <trkpt lat="42.1728810" lon="-6.6592350">
        <ele>1179.2</ele>
        <time>2021-04-01T11:54:12Z</time>
      </trkpt>
      <trkpt lat="42.1728780" lon="-6.6592540">
        <ele>1179.6</ele>
        <time>2021-04-01T11:54:14Z</time>
      </trkpt>
      <trkpt lat="42.1728730" lon="-6.6592780">
        <ele>1179.6</ele>
        <time>2021-04-01T11:54:16Z</time>
      </trkpt>
      <trkpt lat="42.1728580" lon="-6.6593050">
        <ele>1180.0</ele>
        <time>2021-04-01T11:54:18Z</time>
      </trkpt>
      <trkpt lat="42.1728420" lon="-6.6593250">
        <ele>1180.2</ele>
        <time>2021-04-01T11:54:20Z</time>
      </trkpt>
      <trkpt lat="42.1728410" lon="-6.6593400">
        <ele>1180.2</ele>
        <time>2021-04-01T11:54:22Z</time>
      </trkpt>
      <trkpt lat="42.1728530" lon="-6.6593470">
        <ele>1180.4</ele>
        <time>2021-04-01T11:54:24Z</time>
      </trkpt>
      <trkpt lat="42.1728420" lon="-6.6593500">
        <ele>1180.2</ele>
        <time>2021-04-01T11:54:25Z</time>
      </trkpt>
      <trkpt lat="42.1728310" lon="-6.6593560">
        <ele>1180.4</ele>
        <time>2021-04-01T11:54:27Z</time>
      </trkpt>
      <trkpt lat="42.1727820" lon="-6.6593770">
        <ele>1180.4</ele>
        <time>2021-04-01T11:54:32Z</time>
      </trkpt>
      <trkpt lat="42.1727590" lon="-6.6593730">
        <ele>1180.4</ele>
        <time>2021-04-01T11:54:34Z</time>
      </trkpt>
      <trkpt lat="42.1727140" lon="-6.6593840">
        <ele>1180.6</ele>
        <time>2021-04-01T11:54:37Z</time>
      </trkpt>
      <trkpt lat="42.1726530" lon="-6.6594010">
        <ele>1180.6</ele>
        <time>2021-04-01T11:54:41Z</time>
      </trkpt>
      <trkpt lat="42.1726050" lon="-6.6594120">
        <ele>1180.6</ele>
        <time>2021-04-01T11:54:44Z</time>
      </trkpt>
      <trkpt lat="42.1725560" lon="-6.6593940">
        <ele>1180.6</ele>
        <time>2021-04-01T11:54:48Z</time>
      </trkpt>
      <trkpt lat="42.1725230" lon="-6.6593950">
        <ele>1180.6</ele>
        <time>2021-04-01T11:54:51Z</time>
      </trkpt>
      <trkpt lat="42.1724360" lon="-6.6593470">
        <ele>1180.8</ele>
        <time>2021-04-01T11:54:57Z</time>
      </trkpt>
      <trkpt lat="42.1724130" lon="-6.6593360">
        <ele>1181.0</ele>
        <time>2021-04-01T11:54:59Z</time>
      </trkpt>
      <trkpt lat="42.1723740" lon="-6.6592790">
        <ele>1180.6</ele>
        <time>2021-04-01T11:55:02Z</time>
      </trkpt>
      <trkpt lat="42.1723560" lon="-6.6592480">
        <ele>1180.4</ele>
        <time>2021-04-01T11:55:03Z</time>
      </trkpt>
      <trkpt lat="42.1723380" lon="-6.6592190">
        <ele>1180.2</ele>
        <time>2021-04-01T11:55:04Z</time>
      </trkpt>
      <trkpt lat="42.1722970" lon="-6.6591910">
        <ele>1180.0</ele>
        <time>2021-04-01T11:55:06Z</time>
      </trkpt>
      <trkpt lat="42.1722470" lon="-6.6591480">
        <ele>1179.8</ele>
        <time>2021-04-01T11:55:10Z</time>
      </trkpt>
      <trkpt lat="42.1722370" lon="-6.6591440">
        <ele>1180.0</ele>
        <time>2021-04-01T11:55:11Z</time>
      </trkpt>
      <trkpt lat="42.1721900" lon="-6.6591390">
        <ele>1180.2</ele>
        <time>2021-04-01T11:55:16Z</time>
      </trkpt>
      <trkpt lat="42.1721360" lon="-6.6591250">
        <ele>1179.8</ele>
        <time>2021-04-01T11:55:20Z</time>
      </trkpt>
      <trkpt lat="42.1720640" lon="-6.6591480">
        <ele>1180.2</ele>
        <time>2021-04-01T11:55:27Z</time>
      </trkpt>
      <trkpt lat="42.1720310" lon="-6.6591590">
        <ele>1180.2</ele>
        <time>2021-04-01T11:55:29Z</time>
      </trkpt>
      <trkpt lat="42.1719580" lon="-6.6591760">
        <ele>1180.4</ele>
        <time>2021-04-01T11:55:35Z</time>
      </trkpt>
      <trkpt lat="42.1719460" lon="-6.6591670">
        <ele>1180.4</ele>
        <time>2021-04-01T11:55:36Z</time>
      </trkpt>
      <trkpt lat="42.1719210" lon="-6.6591640">
        <ele>1179.8</ele>
        <time>2021-04-01T11:55:40Z</time>
      </trkpt>
      <trkpt lat="42.1719130" lon="-6.6591620">
        <ele>1179.6</ele>
        <time>2021-04-01T11:55:41Z</time>
      </trkpt>
      <trkpt lat="42.1718880" lon="-6.6591660">
        <ele>1179.4</ele>
        <time>2021-04-01T11:55:43Z</time>
      </trkpt>
      <trkpt lat="42.1718430" lon="-6.6591630">
        <ele>1179.2</ele>
        <time>2021-04-01T11:55:46Z</time>
      </trkpt>
      <trkpt lat="42.1718170" lon="-6.6591570">
        <ele>1179.2</ele>
        <time>2021-04-01T11:55:48Z</time>
      </trkpt>
      <trkpt lat="42.1717650" lon="-6.6591300">
        <ele>1178.6</ele>
        <time>2021-04-01T11:55:52Z</time>
      </trkpt>
      <trkpt lat="42.1716990" lon="-6.6591070">
        <ele>1178.2</ele>
        <time>2021-04-01T11:55:56Z</time>
      </trkpt>
      <trkpt lat="42.1716820" lon="-6.6591050">
        <ele>1178.0</ele>
        <time>2021-04-01T11:55:57Z</time>
      </trkpt>
      <trkpt lat="42.1716170" lon="-6.6590930">
        <ele>1177.2</ele>
        <time>2021-04-01T11:56:02Z</time>
      </trkpt>
      <trkpt lat="42.1716030" lon="-6.6590950">
        <ele>1177.2</ele>
        <time>2021-04-01T11:56:03Z</time>
      </trkpt>
      <trkpt lat="42.1715720" lon="-6.6590940">
        <ele>1177.2</ele>
        <time>2021-04-01T11:56:05Z</time>
      </trkpt>
      <trkpt lat="42.1715480" lon="-6.6591060">
        <ele>1177.4</ele>
        <time>2021-04-01T11:56:07Z</time>
      </trkpt>
      <trkpt lat="42.1715390" lon="-6.6591070">
        <ele>1177.6</ele>
        <time>2021-04-01T11:56:08Z</time>
      </trkpt>
      <trkpt lat="42.1714730" lon="-6.6591420">
        <ele>1178.0</ele>
        <time>2021-04-01T11:56:14Z</time>
      </trkpt>
      <trkpt lat="42.1714210" lon="-6.6591430">
        <ele>1178.0</ele>
        <time>2021-04-01T11:56:20Z</time>
      </trkpt>
      <trkpt lat="42.1714130" lon="-6.6591490">
        <ele>1178.0</ele>
        <time>2021-04-01T11:56:21Z</time>
      </trkpt>
      <trkpt lat="42.1714070" lon="-6.6591560">
        <ele>1178.2</ele>
        <time>2021-04-01T11:56:22Z</time>
      </trkpt>
    </trkseg>
  </trk>
</gpx>
